<?xml version="1.0" encoding="UTF-8" standalone="no" ?>
<gpx xmlns="http://www.topografix.com/GPX/1/1" xmlns:xsi="http://www.w3.org/2001/XMLSchema-instance" xsi:schemaLocation="http://www.topografix.com/GPX/1/1 http://www.topografix.com/GPX/1/1/gpx.xsd" version="1.1" creator="VisuGPX - https://www.visugpx.com">
  <metadata>
    <name>Rando VTT Pont du Casse</name>
    <desc><![CDATA[Attention passage dans un terrain militaire soumis a autorisation]]></desc>
  </metadata>
  <trk>
    <name><![CDATA[Rando VTT Pont du Casse_1]]></name>
    <trkseg>
      <trkpt lat="44.23219" lon="0.68177">
        <ele>132.8</ele>
        <time>2022-05-26T06:49:58Z</time>
      </trkpt>
      <trkpt lat="44.23212" lon="0.68169">
        <ele>133</ele>
        <time>2022-05-26T06:50:02Z</time>
      </trkpt>
      <trkpt lat="44.23218" lon="0.68157">
        <ele>133</ele>
        <time>2022-05-26T06:50:06Z</time>
      </trkpt>
      <trkpt lat="44.23231" lon="0.68163">
        <ele>133</ele>
        <time>2022-05-26T06:50:10Z</time>
      </trkpt>
      <trkpt lat="44.23244" lon="0.68169">
        <ele>132.6</ele>
        <time>2022-05-26T06:50:14Z</time>
      </trkpt>
      <trkpt lat="44.23258" lon="0.68174">
        <ele>132.6</ele>
        <time>2022-05-26T06:50:18Z</time>
      </trkpt>
      <trkpt lat="44.23272" lon="0.68178">
        <ele>132.4</ele>
        <time>2022-05-26T06:50:22Z</time>
      </trkpt>
      <trkpt lat="44.23289" lon="0.68181">
        <ele>132.6</ele>
        <time>2022-05-26T06:50:26Z</time>
      </trkpt>
      <trkpt lat="44.23306" lon="0.68185">
        <ele>133</ele>
        <time>2022-05-26T06:50:30Z</time>
      </trkpt>
      <trkpt lat="44.23322" lon="0.68191">
        <ele>132.2</ele>
        <time>2022-05-26T06:50:34Z</time>
      </trkpt>
      <trkpt lat="44.23335" lon="0.68206">
        <ele>132.6</ele>
        <time>2022-05-26T06:50:38Z</time>
      </trkpt>
      <trkpt lat="44.23351" lon="0.68217">
        <ele>132.2</ele>
        <time>2022-05-26T06:50:42Z</time>
      </trkpt>
      <trkpt lat="44.23369" lon="0.68209">
        <ele>132.6</ele>
        <time>2022-05-26T06:50:46Z</time>
      </trkpt>
      <trkpt lat="44.23377" lon="0.68186">
        <ele>131.8</ele>
        <time>2022-05-26T06:50:50Z</time>
      </trkpt>
      <trkpt lat="44.23378" lon="0.6816">
        <ele>131.6</ele>
        <time>2022-05-26T06:50:54Z</time>
      </trkpt>
      <trkpt lat="44.23386" lon="0.68133">
        <ele>130.8</ele>
        <time>2022-05-26T06:50:58Z</time>
      </trkpt>
      <trkpt lat="44.23394" lon="0.68104">
        <ele>130.2</ele>
        <time>2022-05-26T06:51:02Z</time>
      </trkpt>
      <trkpt lat="44.23399" lon="0.68073">
        <ele>131</ele>
        <time>2022-05-26T06:51:06Z</time>
      </trkpt>
      <trkpt lat="44.23404" lon="0.68045">
        <ele>130.8</ele>
        <time>2022-05-26T06:51:10Z</time>
      </trkpt>
      <trkpt lat="44.23409" lon="0.68017">
        <ele>130.2</ele>
        <time>2022-05-26T06:51:14Z</time>
      </trkpt>
      <trkpt lat="44.23412" lon="0.67986">
        <ele>130.2</ele>
        <time>2022-05-26T06:51:18Z</time>
      </trkpt>
      <trkpt lat="44.23416" lon="0.67956">
        <ele>130.2</ele>
        <time>2022-05-26T06:51:22Z</time>
      </trkpt>
      <trkpt lat="44.2342" lon="0.67924">
        <ele>129.6</ele>
        <time>2022-05-26T06:51:26Z</time>
      </trkpt>
      <trkpt lat="44.23426" lon="0.67891">
        <ele>130.4</ele>
        <time>2022-05-26T06:51:30Z</time>
      </trkpt>
      <trkpt lat="44.23431" lon="0.67859">
        <ele>130.4</ele>
        <time>2022-05-26T06:51:34Z</time>
      </trkpt>
      <trkpt lat="44.23436" lon="0.67828">
        <ele>131.2</ele>
        <time>2022-05-26T06:51:38Z</time>
      </trkpt>
      <trkpt lat="44.23441" lon="0.67798">
        <ele>131.2</ele>
        <time>2022-05-26T06:51:42Z</time>
      </trkpt>
      <trkpt lat="44.23446" lon="0.6777">
        <ele>132.6</ele>
        <time>2022-05-26T06:51:46Z</time>
      </trkpt>
      <trkpt lat="44.23451" lon="0.67748">
        <ele>132.2</ele>
        <time>2022-05-26T06:51:50Z</time>
      </trkpt>
      <trkpt lat="44.23466" lon="0.67744">
        <ele>131.4</ele>
        <time>2022-05-26T06:51:54Z</time>
      </trkpt>
      <trkpt lat="44.23486" lon="0.67749">
        <ele>131</ele>
        <time>2022-05-26T06:51:58Z</time>
      </trkpt>
      <trkpt lat="44.23505" lon="0.67755">
        <ele>130.8</ele>
        <time>2022-05-26T06:52:02Z</time>
      </trkpt>
      <trkpt lat="44.23524" lon="0.67767">
        <ele>130.6</ele>
        <time>2022-05-26T06:52:06Z</time>
      </trkpt>
      <trkpt lat="44.23544" lon="0.67773">
        <ele>130.8</ele>
        <time>2022-05-26T06:52:10Z</time>
      </trkpt>
      <trkpt lat="44.23565" lon="0.67778">
        <ele>131.8</ele>
        <time>2022-05-26T06:52:14Z</time>
      </trkpt>
      <trkpt lat="44.23585" lon="0.67782">
        <ele>131.6</ele>
        <time>2022-05-26T06:52:18Z</time>
      </trkpt>
      <trkpt lat="44.23605" lon="0.67784">
        <ele>132</ele>
        <time>2022-05-26T06:52:22Z</time>
      </trkpt>
      <trkpt lat="44.23626" lon="0.67787">
        <ele>132</ele>
        <time>2022-05-26T06:52:26Z</time>
      </trkpt>
      <trkpt lat="44.23647" lon="0.67787">
        <ele>132.4</ele>
        <time>2022-05-26T06:52:30Z</time>
      </trkpt>
      <trkpt lat="44.23668" lon="0.67787">
        <ele>132.6</ele>
        <time>2022-05-26T06:52:34Z</time>
      </trkpt>
      <trkpt lat="44.23689" lon="0.67787">
        <ele>131.8</ele>
        <time>2022-05-26T06:52:38Z</time>
      </trkpt>
      <trkpt lat="44.23712" lon="0.67787">
        <ele>133</ele>
        <time>2022-05-26T06:52:42Z</time>
      </trkpt>
      <trkpt lat="44.23733" lon="0.67787">
        <ele>132.2</ele>
        <time>2022-05-26T06:52:46Z</time>
      </trkpt>
      <trkpt lat="44.23754" lon="0.67786">
        <ele>133.2</ele>
        <time>2022-05-26T06:52:50Z</time>
      </trkpt>
      <trkpt lat="44.23773" lon="0.67784">
        <ele>133.2</ele>
        <time>2022-05-26T06:52:54Z</time>
      </trkpt>
      <trkpt lat="44.23792" lon="0.67784">
        <ele>133</ele>
        <time>2022-05-26T06:52:58Z</time>
      </trkpt>
      <trkpt lat="44.23811" lon="0.67784">
        <ele>133.2</ele>
        <time>2022-05-26T06:53:02Z</time>
      </trkpt>
      <trkpt lat="44.23829" lon="0.67783">
        <ele>133</ele>
        <time>2022-05-26T06:53:06Z</time>
      </trkpt>
      <trkpt lat="44.23848" lon="0.67783">
        <ele>133</ele>
        <time>2022-05-26T06:53:10Z</time>
      </trkpt>
      <trkpt lat="44.23865" lon="0.67782">
        <ele>133.2</ele>
        <time>2022-05-26T06:53:14Z</time>
      </trkpt>
      <trkpt lat="44.23882" lon="0.67781">
        <ele>132.6</ele>
        <time>2022-05-26T06:53:18Z</time>
      </trkpt>
      <trkpt lat="44.23899" lon="0.67781">
        <ele>133</ele>
        <time>2022-05-26T06:53:22Z</time>
      </trkpt>
      <trkpt lat="44.23914" lon="0.67779">
        <ele>133.2</ele>
        <time>2022-05-26T06:53:26Z</time>
      </trkpt>
      <trkpt lat="44.23929" lon="0.6778">
        <ele>132.6</ele>
        <time>2022-05-26T06:53:30Z</time>
      </trkpt>
      <trkpt lat="44.23945" lon="0.67781">
        <ele>133.8</ele>
        <time>2022-05-26T06:53:34Z</time>
      </trkpt>
      <trkpt lat="44.23958" lon="0.67782">
        <ele>133.4</ele>
        <time>2022-05-26T06:53:38Z</time>
      </trkpt>
      <trkpt lat="44.23973" lon="0.67782">
        <ele>133.2</ele>
        <time>2022-05-26T06:53:42Z</time>
      </trkpt>
      <trkpt lat="44.23991" lon="0.67785">
        <ele>133.8</ele>
        <time>2022-05-26T06:53:46Z</time>
      </trkpt>
      <trkpt lat="44.24009" lon="0.67789">
        <ele>133.2</ele>
        <time>2022-05-26T06:53:50Z</time>
      </trkpt>
      <trkpt lat="44.24027" lon="0.67793">
        <ele>134.2</ele>
        <time>2022-05-26T06:53:54Z</time>
      </trkpt>
      <trkpt lat="44.24046" lon="0.67797">
        <ele>133.8</ele>
        <time>2022-05-26T06:53:58Z</time>
      </trkpt>
      <trkpt lat="44.24064" lon="0.67802">
        <ele>134.4</ele>
        <time>2022-05-26T06:54:02Z</time>
      </trkpt>
      <trkpt lat="44.2408" lon="0.67807">
        <ele>134.6</ele>
        <time>2022-05-26T06:54:06Z</time>
      </trkpt>
      <trkpt lat="44.24095" lon="0.67813">
        <ele>134.2</ele>
        <time>2022-05-26T06:54:10Z</time>
      </trkpt>
      <trkpt lat="44.24114" lon="0.67821">
        <ele>134.4</ele>
        <time>2022-05-26T06:54:14Z</time>
      </trkpt>
      <trkpt lat="44.24132" lon="0.67828">
        <ele>134.6</ele>
        <time>2022-05-26T06:54:18Z</time>
      </trkpt>
      <trkpt lat="44.24149" lon="0.67837">
        <ele>134.4</ele>
        <time>2022-05-26T06:54:22Z</time>
      </trkpt>
      <trkpt lat="44.24164" lon="0.67845">
        <ele>135</ele>
        <time>2022-05-26T06:54:26Z</time>
      </trkpt>
      <trkpt lat="44.24182" lon="0.67855">
        <ele>134.4</ele>
        <time>2022-05-26T06:54:30Z</time>
      </trkpt>
      <trkpt lat="44.24198" lon="0.67865">
        <ele>135.4</ele>
        <time>2022-05-26T06:54:34Z</time>
      </trkpt>
      <trkpt lat="44.24214" lon="0.67876">
        <ele>135</ele>
        <time>2022-05-26T06:54:38Z</time>
      </trkpt>
      <trkpt lat="44.24227" lon="0.67886">
        <ele>135.4</ele>
        <time>2022-05-26T06:54:42Z</time>
      </trkpt>
      <trkpt lat="44.24243" lon="0.67896">
        <ele>135.4</ele>
        <time>2022-05-26T06:54:46Z</time>
      </trkpt>
      <trkpt lat="44.24258" lon="0.67908">
        <ele>135.6</ele>
        <time>2022-05-26T06:54:50Z</time>
      </trkpt>
      <trkpt lat="44.24276" lon="0.67919">
        <ele>135.8</ele>
        <time>2022-05-26T06:54:54Z</time>
      </trkpt>
      <trkpt lat="44.24293" lon="0.67931">
        <ele>135</ele>
        <time>2022-05-26T06:54:58Z</time>
      </trkpt>
      <trkpt lat="44.24311" lon="0.67942">
        <ele>135.2</ele>
        <time>2022-05-26T06:55:02Z</time>
      </trkpt>
      <trkpt lat="44.24329" lon="0.6795">
        <ele>135.8</ele>
        <time>2022-05-26T06:55:06Z</time>
      </trkpt>
      <trkpt lat="44.24345" lon="0.67961">
        <ele>136.4</ele>
        <time>2022-05-26T06:55:10Z</time>
      </trkpt>
      <trkpt lat="44.24363" lon="0.67971">
        <ele>135.6</ele>
        <time>2022-05-26T06:55:14Z</time>
      </trkpt>
      <trkpt lat="44.24381" lon="0.67983">
        <ele>136.4</ele>
        <time>2022-05-26T06:55:18Z</time>
      </trkpt>
      <trkpt lat="44.24399" lon="0.67995">
        <ele>137.4</ele>
        <time>2022-05-26T06:55:22Z</time>
      </trkpt>
      <trkpt lat="44.24412" lon="0.68005">
        <ele>137.2</ele>
        <time>2022-05-26T06:55:26Z</time>
      </trkpt>
      <trkpt lat="44.24427" lon="0.68016">
        <ele>137.8</ele>
        <time>2022-05-26T06:55:30Z</time>
      </trkpt>
      <trkpt lat="44.24441" lon="0.68025">
        <ele>137.2</ele>
        <time>2022-05-26T06:55:34Z</time>
      </trkpt>
      <trkpt lat="44.2446" lon="0.68036">
        <ele>136</ele>
        <time>2022-05-26T06:55:38Z</time>
      </trkpt>
      <trkpt lat="44.24481" lon="0.68048">
        <ele>133.8</ele>
        <time>2022-05-26T06:55:42Z</time>
      </trkpt>
      <trkpt lat="44.24504" lon="0.68063">
        <ele>134.8</ele>
        <time>2022-05-26T06:55:46Z</time>
      </trkpt>
      <trkpt lat="44.24526" lon="0.68079">
        <ele>134.4</ele>
        <time>2022-05-26T06:55:50Z</time>
      </trkpt>
      <trkpt lat="44.24548" lon="0.68098">
        <ele>134</ele>
        <time>2022-05-26T06:55:54Z</time>
      </trkpt>
      <trkpt lat="44.24571" lon="0.68116">
        <ele>135.4</ele>
        <time>2022-05-26T06:55:58Z</time>
      </trkpt>
      <trkpt lat="44.24594" lon="0.68136">
        <ele>135.6</ele>
        <time>2022-05-26T06:56:02Z</time>
      </trkpt>
      <trkpt lat="44.24614" lon="0.68153">
        <ele>136.6</ele>
        <time>2022-05-26T06:56:06Z</time>
      </trkpt>
      <trkpt lat="44.24632" lon="0.68167">
        <ele>137.2</ele>
        <time>2022-05-26T06:56:10Z</time>
      </trkpt>
      <trkpt lat="44.24649" lon="0.68181">
        <ele>137.8</ele>
        <time>2022-05-26T06:56:14Z</time>
      </trkpt>
      <trkpt lat="44.24664" lon="0.68194">
        <ele>138.6</ele>
        <time>2022-05-26T06:56:18Z</time>
      </trkpt>
      <trkpt lat="44.24679" lon="0.68207">
        <ele>139</ele>
        <time>2022-05-26T06:56:22Z</time>
      </trkpt>
      <trkpt lat="44.24694" lon="0.6822">
        <ele>138.4</ele>
        <time>2022-05-26T06:56:26Z</time>
      </trkpt>
      <trkpt lat="44.2471" lon="0.68233">
        <ele>138.4</ele>
        <time>2022-05-26T06:56:30Z</time>
      </trkpt>
      <trkpt lat="44.24726" lon="0.68247">
        <ele>138.8</ele>
        <time>2022-05-26T06:56:34Z</time>
      </trkpt>
      <trkpt lat="44.24742" lon="0.68258">
        <ele>138.8</ele>
        <time>2022-05-26T06:56:38Z</time>
      </trkpt>
      <trkpt lat="44.24755" lon="0.68271">
        <ele>137.8</ele>
        <time>2022-05-26T06:56:42Z</time>
      </trkpt>
      <trkpt lat="44.2477" lon="0.68278">
        <ele>138.8</ele>
        <time>2022-05-26T06:56:46Z</time>
      </trkpt>
      <trkpt lat="44.24782" lon="0.68266">
        <ele>139.8</ele>
        <time>2022-05-26T06:56:50Z</time>
      </trkpt>
      <trkpt lat="44.24794" lon="0.68254">
        <ele>141.2</ele>
        <time>2022-05-26T06:56:54Z</time>
      </trkpt>
      <trkpt lat="44.24805" lon="0.68244">
        <ele>142.4</ele>
        <time>2022-05-26T06:56:58Z</time>
      </trkpt>
      <trkpt lat="44.24815" lon="0.68235">
        <ele>143.4</ele>
        <time>2022-05-26T06:57:02Z</time>
      </trkpt>
      <trkpt lat="44.24826" lon="0.68225">
        <ele>144.6</ele>
        <time>2022-05-26T06:57:06Z</time>
      </trkpt>
      <trkpt lat="44.24836" lon="0.68216">
        <ele>145.4</ele>
        <time>2022-05-26T06:57:10Z</time>
      </trkpt>
      <trkpt lat="44.24845" lon="0.68207">
        <ele>146.2</ele>
        <time>2022-05-26T06:57:14Z</time>
      </trkpt>
      <trkpt lat="44.24854" lon="0.68198">
        <ele>147.8</ele>
        <time>2022-05-26T06:57:18Z</time>
      </trkpt>
      <trkpt lat="44.24862" lon="0.68191">
        <ele>148.8</ele>
        <time>2022-05-26T06:57:22Z</time>
      </trkpt>
      <trkpt lat="44.24869" lon="0.68187">
        <ele>150.2</ele>
        <time>2022-05-26T06:57:26Z</time>
      </trkpt>
      <trkpt lat="44.24878" lon="0.68196">
        <ele>151.2</ele>
        <time>2022-05-26T06:57:30Z</time>
      </trkpt>
      <trkpt lat="44.24885" lon="0.68207">
        <ele>152</ele>
        <time>2022-05-26T06:57:34Z</time>
      </trkpt>
      <trkpt lat="44.24893" lon="0.68218">
        <ele>152.6</ele>
        <time>2022-05-26T06:57:38Z</time>
      </trkpt>
      <trkpt lat="44.249" lon="0.68229">
        <ele>153.4</ele>
        <time>2022-05-26T06:57:42Z</time>
      </trkpt>
      <trkpt lat="44.24908" lon="0.6824">
        <ele>153.6</ele>
        <time>2022-05-26T06:57:46Z</time>
      </trkpt>
      <trkpt lat="44.24917" lon="0.68253">
        <ele>153.6</ele>
        <time>2022-05-26T06:57:50Z</time>
      </trkpt>
      <trkpt lat="44.24926" lon="0.68268">
        <ele>154.4</ele>
        <time>2022-05-26T06:57:54Z</time>
      </trkpt>
      <trkpt lat="44.24936" lon="0.68281">
        <ele>154.2</ele>
        <time>2022-05-26T06:57:58Z</time>
      </trkpt>
      <trkpt lat="44.24946" lon="0.68296">
        <ele>154.6</ele>
        <time>2022-05-26T06:58:02Z</time>
      </trkpt>
      <trkpt lat="44.24958" lon="0.6831">
        <ele>153.8</ele>
        <time>2022-05-26T06:58:06Z</time>
      </trkpt>
      <trkpt lat="44.24969" lon="0.68324">
        <ele>152.6</ele>
        <time>2022-05-26T06:58:10Z</time>
      </trkpt>
      <trkpt lat="44.24982" lon="0.68341">
        <ele>152.4</ele>
        <time>2022-05-26T06:58:14Z</time>
      </trkpt>
      <trkpt lat="44.24993" lon="0.6836">
        <ele>152.2</ele>
        <time>2022-05-26T06:58:18Z</time>
      </trkpt>
      <trkpt lat="44.25003" lon="0.68381">
        <ele>151.2</ele>
        <time>2022-05-26T06:58:22Z</time>
      </trkpt>
      <trkpt lat="44.25013" lon="0.68405">
        <ele>151</ele>
        <time>2022-05-26T06:58:26Z</time>
      </trkpt>
      <trkpt lat="44.25027" lon="0.68428">
        <ele>152.6</ele>
        <time>2022-05-26T06:58:30Z</time>
      </trkpt>
      <trkpt lat="44.25044" lon="0.68428">
        <ele>154.6</ele>
        <time>2022-05-26T06:58:34Z</time>
      </trkpt>
      <trkpt lat="44.25055" lon="0.68423">
        <ele>156.6</ele>
        <time>2022-05-26T06:58:38Z</time>
      </trkpt>
      <trkpt lat="44.25064" lon="0.68417">
        <ele>158.8</ele>
        <time>2022-05-26T06:58:42Z</time>
      </trkpt>
      <trkpt lat="44.25073" lon="0.68412">
        <ele>160.2</ele>
        <time>2022-05-26T06:58:46Z</time>
      </trkpt>
      <trkpt lat="44.25082" lon="0.68408">
        <ele>161.8</ele>
        <time>2022-05-26T06:58:50Z</time>
      </trkpt>
      <trkpt lat="44.2509" lon="0.68405">
        <ele>162.6</ele>
        <time>2022-05-26T06:58:54Z</time>
      </trkpt>
      <trkpt lat="44.25098" lon="0.68401">
        <ele>163.4</ele>
        <time>2022-05-26T06:58:58Z</time>
      </trkpt>
      <trkpt lat="44.25106" lon="0.68398">
        <ele>164.4</ele>
        <time>2022-05-26T06:59:02Z</time>
      </trkpt>
      <trkpt lat="44.25113" lon="0.68394">
        <ele>165</ele>
        <time>2022-05-26T06:59:06Z</time>
      </trkpt>
      <trkpt lat="44.25121" lon="0.68392">
        <ele>165</ele>
        <time>2022-05-26T06:59:10Z</time>
      </trkpt>
      <trkpt lat="44.25129" lon="0.68393">
        <ele>163</ele>
        <time>2022-05-26T06:59:14Z</time>
      </trkpt>
      <trkpt lat="44.25145" lon="0.68395">
        <ele>161.6</ele>
        <time>2022-05-26T06:59:18Z</time>
      </trkpt>
      <trkpt lat="44.25165" lon="0.68391">
        <ele>160.2</ele>
        <time>2022-05-26T06:59:22Z</time>
      </trkpt>
      <trkpt lat="44.25187" lon="0.6838">
        <ele>160</ele>
        <time>2022-05-26T06:59:26Z</time>
      </trkpt>
      <trkpt lat="44.25209" lon="0.68366">
        <ele>158.4</ele>
        <time>2022-05-26T06:59:30Z</time>
      </trkpt>
      <trkpt lat="44.25231" lon="0.68351">
        <ele>156.8</ele>
        <time>2022-05-26T06:59:34Z</time>
      </trkpt>
      <trkpt lat="44.25256" lon="0.68333">
        <ele>155.4</ele>
        <time>2022-05-26T06:59:38Z</time>
      </trkpt>
      <trkpt lat="44.25283" lon="0.68315">
        <ele>154.8</ele>
        <time>2022-05-26T06:59:42Z</time>
      </trkpt>
      <trkpt lat="44.25309" lon="0.68296">
        <ele>153.8</ele>
        <time>2022-05-26T06:59:46Z</time>
      </trkpt>
      <trkpt lat="44.25334" lon="0.68279">
        <ele>152.6</ele>
        <time>2022-05-26T06:59:50Z</time>
      </trkpt>
      <trkpt lat="44.2536" lon="0.68258">
        <ele>152.6</ele>
        <time>2022-05-26T06:59:54Z</time>
      </trkpt>
      <trkpt lat="44.25385" lon="0.68239">
        <ele>154.6</ele>
        <time>2022-05-26T06:59:58Z</time>
      </trkpt>
      <trkpt lat="44.25409" lon="0.68224">
        <ele>156.6</ele>
        <time>2022-05-26T07:00:02Z</time>
      </trkpt>
      <trkpt lat="44.25433" lon="0.68208">
        <ele>156.8</ele>
        <time>2022-05-26T07:00:06Z</time>
      </trkpt>
      <trkpt lat="44.25453" lon="0.68193">
        <ele>157.6</ele>
        <time>2022-05-26T07:00:10Z</time>
      </trkpt>
      <trkpt lat="44.25473" lon="0.68176">
        <ele>159.6</ele>
        <time>2022-05-26T07:00:14Z</time>
      </trkpt>
      <trkpt lat="44.25491" lon="0.68165">
        <ele>160.2</ele>
        <time>2022-05-26T07:00:18Z</time>
      </trkpt>
      <trkpt lat="44.25509" lon="0.68154">
        <ele>158.8</ele>
        <time>2022-05-26T07:00:22Z</time>
      </trkpt>
      <trkpt lat="44.25529" lon="0.68137">
        <ele>158.4</ele>
        <time>2022-05-26T07:00:26Z</time>
      </trkpt>
      <trkpt lat="44.25551" lon="0.68121">
        <ele>159</ele>
        <time>2022-05-26T07:00:30Z</time>
      </trkpt>
      <trkpt lat="44.25573" lon="0.68114">
        <ele>159.6</ele>
        <time>2022-05-26T07:00:34Z</time>
      </trkpt>
      <trkpt lat="44.25594" lon="0.68108">
        <ele>160.4</ele>
        <time>2022-05-26T07:00:38Z</time>
      </trkpt>
      <trkpt lat="44.25614" lon="0.68103">
        <ele>161.4</ele>
        <time>2022-05-26T07:00:42Z</time>
      </trkpt>
      <trkpt lat="44.25632" lon="0.68097">
        <ele>162.2</ele>
        <time>2022-05-26T07:00:46Z</time>
      </trkpt>
      <trkpt lat="44.2565" lon="0.68091">
        <ele>162.8</ele>
        <time>2022-05-26T07:00:50Z</time>
      </trkpt>
      <trkpt lat="44.25667" lon="0.68089">
        <ele>163.4</ele>
        <time>2022-05-26T07:00:54Z</time>
      </trkpt>
      <trkpt lat="44.25681" lon="0.68091">
        <ele>165.2</ele>
        <time>2022-05-26T07:00:58Z</time>
      </trkpt>
      <trkpt lat="44.25694" lon="0.68094">
        <ele>165</ele>
        <time>2022-05-26T07:01:02Z</time>
      </trkpt>
      <trkpt lat="44.25708" lon="0.68095">
        <ele>165.6</ele>
        <time>2022-05-26T07:01:06Z</time>
      </trkpt>
      <trkpt lat="44.25721" lon="0.68093">
        <ele>166.4</ele>
        <time>2022-05-26T07:01:10Z</time>
      </trkpt>
      <trkpt lat="44.25733" lon="0.68088">
        <ele>167</ele>
        <time>2022-05-26T07:01:14Z</time>
      </trkpt>
      <trkpt lat="44.25746" lon="0.68081">
        <ele>167.6</ele>
        <time>2022-05-26T07:01:18Z</time>
      </trkpt>
      <trkpt lat="44.25758" lon="0.68073">
        <ele>168.4</ele>
        <time>2022-05-26T07:01:22Z</time>
      </trkpt>
      <trkpt lat="44.25771" lon="0.68066">
        <ele>168.8</ele>
        <time>2022-05-26T07:01:26Z</time>
      </trkpt>
      <trkpt lat="44.25782" lon="0.68058">
        <ele>169.2</ele>
        <time>2022-05-26T07:01:30Z</time>
      </trkpt>
      <trkpt lat="44.25794" lon="0.6805">
        <ele>170.2</ele>
        <time>2022-05-26T07:01:34Z</time>
      </trkpt>
      <trkpt lat="44.25805" lon="0.68042">
        <ele>170.4</ele>
        <time>2022-05-26T07:01:38Z</time>
      </trkpt>
      <trkpt lat="44.25816" lon="0.68034">
        <ele>171.4</ele>
        <time>2022-05-26T07:01:42Z</time>
      </trkpt>
      <trkpt lat="44.25827" lon="0.68027">
        <ele>172</ele>
        <time>2022-05-26T07:01:46Z</time>
      </trkpt>
      <trkpt lat="44.25838" lon="0.68019">
        <ele>172.4</ele>
        <time>2022-05-26T07:01:50Z</time>
      </trkpt>
      <trkpt lat="44.25849" lon="0.68013">
        <ele>172.4</ele>
        <time>2022-05-26T07:01:54Z</time>
      </trkpt>
      <trkpt lat="44.25861" lon="0.68003">
        <ele>172.8</ele>
        <time>2022-05-26T07:01:58Z</time>
      </trkpt>
      <trkpt lat="44.25874" lon="0.68">
        <ele>172.4</ele>
        <time>2022-05-26T07:02:02Z</time>
      </trkpt>
      <trkpt lat="44.25886" lon="0.68008">
        <ele>174</ele>
        <time>2022-05-26T07:02:06Z</time>
      </trkpt>
      <trkpt lat="44.25895" lon="0.68019">
        <ele>174.8</ele>
        <time>2022-05-26T07:02:10Z</time>
      </trkpt>
      <trkpt lat="44.25904" lon="0.68026">
        <ele>175.2</ele>
        <time>2022-05-26T07:02:14Z</time>
      </trkpt>
      <trkpt lat="44.25913" lon="0.68022">
        <ele>176.2</ele>
        <time>2022-05-26T07:02:18Z</time>
      </trkpt>
      <trkpt lat="44.25924" lon="0.68015">
        <ele>177.2</ele>
        <time>2022-05-26T07:02:22Z</time>
      </trkpt>
      <trkpt lat="44.25933" lon="0.6801">
        <ele>177.2</ele>
        <time>2022-05-26T07:02:26Z</time>
      </trkpt>
      <trkpt lat="44.25942" lon="0.68005">
        <ele>178.6</ele>
        <time>2022-05-26T07:02:30Z</time>
      </trkpt>
      <trkpt lat="44.25951" lon="0.68">
        <ele>179.4</ele>
        <time>2022-05-26T07:02:34Z</time>
      </trkpt>
      <trkpt lat="44.25961" lon="0.67995">
        <ele>179.6</ele>
        <time>2022-05-26T07:02:38Z</time>
      </trkpt>
      <trkpt lat="44.2597" lon="0.67991">
        <ele>181</ele>
        <time>2022-05-26T07:02:42Z</time>
      </trkpt>
      <trkpt lat="44.25979" lon="0.67989">
        <ele>181.8</ele>
        <time>2022-05-26T07:02:46Z</time>
      </trkpt>
      <trkpt lat="44.25988" lon="0.67987">
        <ele>182.6</ele>
        <time>2022-05-26T07:02:50Z</time>
      </trkpt>
      <trkpt lat="44.25996" lon="0.67981">
        <ele>184.4</ele>
        <time>2022-05-26T07:02:54Z</time>
      </trkpt>
      <trkpt lat="44.26001" lon="0.67973">
        <ele>184.6</ele>
        <time>2022-05-26T07:02:58Z</time>
      </trkpt>
      <trkpt lat="44.26006" lon="0.67963">
        <ele>184.8</ele>
        <time>2022-05-26T07:03:02Z</time>
      </trkpt>
      <trkpt lat="44.26008" lon="0.67952">
        <ele>185.2</ele>
        <time>2022-05-26T07:03:06Z</time>
      </trkpt>
      <trkpt lat="44.26012" lon="0.67944">
        <ele>186.2</ele>
        <time>2022-05-26T07:03:10Z</time>
      </trkpt>
      <trkpt lat="44.26016" lon="0.67934">
        <ele>186.2</ele>
        <time>2022-05-26T07:03:14Z</time>
      </trkpt>
      <trkpt lat="44.26021" lon="0.67927">
        <ele>188.4</ele>
        <time>2022-05-26T07:03:18Z</time>
      </trkpt>
      <trkpt lat="44.26027" lon="0.67918">
        <ele>188.6</ele>
        <time>2022-05-26T07:03:22Z</time>
      </trkpt>
      <trkpt lat="44.26033" lon="0.67913">
        <ele>190.4</ele>
        <time>2022-05-26T07:03:26Z</time>
      </trkpt>
      <trkpt lat="44.26038" lon="0.67909">
        <ele>190.6</ele>
        <time>2022-05-26T07:03:30Z</time>
      </trkpt>
      <trkpt lat="44.26043" lon="0.67906">
        <ele>191.8</ele>
        <time>2022-05-26T07:03:34Z</time>
      </trkpt>
      <trkpt lat="44.26047" lon="0.67903">
        <ele>192.4</ele>
        <time>2022-05-26T07:03:38Z</time>
      </trkpt>
      <trkpt lat="44.26051" lon="0.67901">
        <ele>192.8</ele>
        <time>2022-05-26T07:03:42Z</time>
      </trkpt>
      <trkpt lat="44.26057" lon="0.67898">
        <ele>194.2</ele>
        <time>2022-05-26T07:03:46Z</time>
      </trkpt>
      <trkpt lat="44.26063" lon="0.67896">
        <ele>195.4</ele>
        <time>2022-05-26T07:03:50Z</time>
      </trkpt>
      <trkpt lat="44.26068" lon="0.67895">
        <ele>196.2</ele>
        <time>2022-05-26T07:03:54Z</time>
      </trkpt>
      <trkpt lat="44.26073" lon="0.67892">
        <ele>197.2</ele>
        <time>2022-05-26T07:03:58Z</time>
      </trkpt>
      <trkpt lat="44.26078" lon="0.67888">
        <ele>198.2</ele>
        <time>2022-05-26T07:04:02Z</time>
      </trkpt>
      <trkpt lat="44.26084" lon="0.67885">
        <ele>198.8</ele>
        <time>2022-05-26T07:04:06Z</time>
      </trkpt>
      <trkpt lat="44.2609" lon="0.67882">
        <ele>199.6</ele>
        <time>2022-05-26T07:04:10Z</time>
      </trkpt>
      <trkpt lat="44.26096" lon="0.67878">
        <ele>200.6</ele>
        <time>2022-05-26T07:04:14Z</time>
      </trkpt>
      <trkpt lat="44.26102" lon="0.67874">
        <ele>201.4</ele>
        <time>2022-05-26T07:04:18Z</time>
      </trkpt>
      <trkpt lat="44.26106" lon="0.67878">
        <ele>202.2</ele>
        <time>2022-05-26T07:04:22Z</time>
      </trkpt>
      <trkpt lat="44.26105" lon="0.67884">
        <ele>202.8</ele>
        <time>2022-05-26T07:04:26Z</time>
      </trkpt>
      <trkpt lat="44.26106" lon="0.6789">
        <ele>204</ele>
        <time>2022-05-26T07:04:30Z</time>
      </trkpt>
      <trkpt lat="44.26105" lon="0.67896">
        <ele>204.8</ele>
        <time>2022-05-26T07:04:34Z</time>
      </trkpt>
      <trkpt lat="44.26104" lon="0.67901">
        <ele>205.2</ele>
        <time>2022-05-26T07:04:38Z</time>
      </trkpt>
      <trkpt lat="44.26104" lon="0.67908">
        <ele>206.4</ele>
        <time>2022-05-26T07:04:42Z</time>
      </trkpt>
      <trkpt lat="44.26103" lon="0.67916">
        <ele>206.4</ele>
        <time>2022-05-26T07:04:46Z</time>
      </trkpt>
      <trkpt lat="44.26101" lon="0.67922">
        <ele>206.8</ele>
        <time>2022-05-26T07:04:50Z</time>
      </trkpt>
      <trkpt lat="44.26099" lon="0.67929">
        <ele>207.2</ele>
        <time>2022-05-26T07:04:54Z</time>
      </trkpt>
      <trkpt lat="44.26097" lon="0.67937">
        <ele>207.6</ele>
        <time>2022-05-26T07:04:58Z</time>
      </trkpt>
      <trkpt lat="44.26095" lon="0.67947">
        <ele>207.4</ele>
        <time>2022-05-26T07:05:02Z</time>
      </trkpt>
      <trkpt lat="44.26094" lon="0.67958">
        <ele>207.4</ele>
        <time>2022-05-26T07:05:06Z</time>
      </trkpt>
      <trkpt lat="44.26091" lon="0.67968">
        <ele>207.2</ele>
        <time>2022-05-26T07:05:10Z</time>
      </trkpt>
      <trkpt lat="44.2609" lon="0.67978">
        <ele>207.8</ele>
        <time>2022-05-26T07:05:14Z</time>
      </trkpt>
      <trkpt lat="44.26089" lon="0.67989">
        <ele>208.2</ele>
        <time>2022-05-26T07:05:18Z</time>
      </trkpt>
      <trkpt lat="44.26092" lon="0.68001">
        <ele>208.6</ele>
        <time>2022-05-26T07:05:22Z</time>
      </trkpt>
      <trkpt lat="44.26092" lon="0.68011">
        <ele>209.6</ele>
        <time>2022-05-26T07:05:26Z</time>
      </trkpt>
      <trkpt lat="44.26093" lon="0.68021">
        <ele>210</ele>
        <time>2022-05-26T07:05:30Z</time>
      </trkpt>
      <trkpt lat="44.26097" lon="0.68031">
        <ele>211</ele>
        <time>2022-05-26T07:05:34Z</time>
      </trkpt>
      <trkpt lat="44.26101" lon="0.68041">
        <ele>212.2</ele>
        <time>2022-05-26T07:05:38Z</time>
      </trkpt>
      <trkpt lat="44.26104" lon="0.68049">
        <ele>212.8</ele>
        <time>2022-05-26T07:05:42Z</time>
      </trkpt>
      <trkpt lat="44.26106" lon="0.68055">
        <ele>213.2</ele>
        <time>2022-05-26T07:05:46Z</time>
      </trkpt>
      <trkpt lat="44.26109" lon="0.68061">
        <ele>214.8</ele>
        <time>2022-05-26T07:05:50Z</time>
      </trkpt>
      <trkpt lat="44.26111" lon="0.68066">
        <ele>214.8</ele>
        <time>2022-05-26T07:05:54Z</time>
      </trkpt>
      <trkpt lat="44.26113" lon="0.68074">
        <ele>215.6</ele>
        <time>2022-05-26T07:05:58Z</time>
      </trkpt>
      <trkpt lat="44.26117" lon="0.68078">
        <ele>216.6</ele>
        <time>2022-05-26T07:06:02Z</time>
      </trkpt>
      <trkpt lat="44.26119" lon="0.68141">
        <ele>225.8</ele>
        <time>2022-05-26T07:07:24Z</time>
      </trkpt>
      <trkpt lat="44.26111" lon="0.68145">
        <ele>226</ele>
        <time>2022-05-26T07:07:28Z</time>
      </trkpt>
      <trkpt lat="44.26103" lon="0.68147">
        <ele>226.2</ele>
        <time>2022-05-26T07:07:32Z</time>
      </trkpt>
      <trkpt lat="44.26095" lon="0.68152">
        <ele>226.4</ele>
        <time>2022-05-26T07:07:36Z</time>
      </trkpt>
      <trkpt lat="44.26086" lon="0.68153">
        <ele>226.6</ele>
        <time>2022-05-26T07:07:40Z</time>
      </trkpt>
      <trkpt lat="44.26076" lon="0.68156">
        <ele>226.6</ele>
        <time>2022-05-26T07:07:44Z</time>
      </trkpt>
      <trkpt lat="44.26067" lon="0.68159">
        <ele>226.8</ele>
        <time>2022-05-26T07:07:48Z</time>
      </trkpt>
      <trkpt lat="44.26059" lon="0.68163">
        <ele>226.6</ele>
        <time>2022-05-26T07:07:52Z</time>
      </trkpt>
      <trkpt lat="44.26045" lon="0.68168">
        <ele>224.6</ele>
        <time>2022-05-26T07:07:56Z</time>
      </trkpt>
      <trkpt lat="44.26025" lon="0.68171">
        <ele>223</ele>
        <time>2022-05-26T07:08:00Z</time>
      </trkpt>
      <trkpt lat="44.2601" lon="0.68183">
        <ele>219.2</ele>
        <time>2022-05-26T07:08:04Z</time>
      </trkpt>
      <trkpt lat="44.25999" lon="0.68212">
        <ele>216.6</ele>
        <time>2022-05-26T07:08:08Z</time>
      </trkpt>
      <trkpt lat="44.25977" lon="0.68221">
        <ele>217.2</ele>
        <time>2022-05-26T07:08:12Z</time>
      </trkpt>
      <trkpt lat="44.25961" lon="0.6823">
        <ele>218</ele>
        <time>2022-05-26T07:08:16Z</time>
      </trkpt>
      <trkpt lat="44.2594" lon="0.6823">
        <ele>216.8</ele>
        <time>2022-05-26T07:08:20Z</time>
      </trkpt>
      <trkpt lat="44.25921" lon="0.68229">
        <ele>219</ele>
        <time>2022-05-26T07:08:24Z</time>
      </trkpt>
      <trkpt lat="44.25898" lon="0.68236">
        <ele>221.2</ele>
        <time>2022-05-26T07:08:28Z</time>
      </trkpt>
      <trkpt lat="44.25877" lon="0.68245">
        <ele>220.4</ele>
        <time>2022-05-26T07:08:32Z</time>
      </trkpt>
      <trkpt lat="44.25853" lon="0.68256">
        <ele>218.2</ele>
        <time>2022-05-26T07:08:36Z</time>
      </trkpt>
      <trkpt lat="44.25826" lon="0.68265">
        <ele>215.6</ele>
        <time>2022-05-26T07:08:40Z</time>
      </trkpt>
      <trkpt lat="44.258" lon="0.68274">
        <ele>215.2</ele>
        <time>2022-05-26T07:08:44Z</time>
      </trkpt>
      <trkpt lat="44.25776" lon="0.6828">
        <ele>212.2</ele>
        <time>2022-05-26T07:08:48Z</time>
      </trkpt>
      <trkpt lat="44.25748" lon="0.6828">
        <ele>213.2</ele>
        <time>2022-05-26T07:08:52Z</time>
      </trkpt>
      <trkpt lat="44.25731" lon="0.6828">
        <ele>215.2</ele>
        <time>2022-05-26T07:08:56Z</time>
      </trkpt>
      <trkpt lat="44.25719" lon="0.68289">
        <ele>217.4</ele>
        <time>2022-05-26T07:09:00Z</time>
      </trkpt>
      <trkpt lat="44.25709" lon="0.68303">
        <ele>218.6</ele>
        <time>2022-05-26T07:09:04Z</time>
      </trkpt>
      <trkpt lat="44.25699" lon="0.68315">
        <ele>220.2</ele>
        <time>2022-05-26T07:09:08Z</time>
      </trkpt>
      <trkpt lat="44.2569" lon="0.68329">
        <ele>219.2</ele>
        <time>2022-05-26T07:09:12Z</time>
      </trkpt>
      <trkpt lat="44.25682" lon="0.68344">
        <ele>220.8</ele>
        <time>2022-05-26T07:09:16Z</time>
      </trkpt>
      <trkpt lat="44.25677" lon="0.68359">
        <ele>221.2</ele>
        <time>2022-05-26T07:09:20Z</time>
      </trkpt>
      <trkpt lat="44.25674" lon="0.68373">
        <ele>221.4</ele>
        <time>2022-05-26T07:09:24Z</time>
      </trkpt>
      <trkpt lat="44.25675" lon="0.68385">
        <ele>222.6</ele>
        <time>2022-05-26T07:09:28Z</time>
      </trkpt>
      <trkpt lat="44.25675" lon="0.68395">
        <ele>223</ele>
        <time>2022-05-26T07:09:32Z</time>
      </trkpt>
      <trkpt lat="44.25674" lon="0.68406">
        <ele>223.4</ele>
        <time>2022-05-26T07:09:36Z</time>
      </trkpt>
      <trkpt lat="44.25672" lon="0.68417">
        <ele>223.8</ele>
        <time>2022-05-26T07:09:40Z</time>
      </trkpt>
      <trkpt lat="44.25668" lon="0.68427">
        <ele>224.4</ele>
        <time>2022-05-26T07:09:44Z</time>
      </trkpt>
      <trkpt lat="44.25664" lon="0.68439">
        <ele>224.2</ele>
        <time>2022-05-26T07:09:48Z</time>
      </trkpt>
      <trkpt lat="44.25666" lon="0.68449">
        <ele>224.8</ele>
        <time>2022-05-26T07:09:52Z</time>
      </trkpt>
      <trkpt lat="44.25671" lon="0.68456">
        <ele>225.4</ele>
        <time>2022-05-26T07:09:56Z</time>
      </trkpt>
      <trkpt lat="44.25677" lon="0.68464">
        <ele>226</ele>
        <time>2022-05-26T07:10:00Z</time>
      </trkpt>
      <trkpt lat="44.25683" lon="0.68472">
        <ele>226</ele>
        <time>2022-05-26T07:10:04Z</time>
      </trkpt>
      <trkpt lat="44.25689" lon="0.6848">
        <ele>226.8</ele>
        <time>2022-05-26T07:10:08Z</time>
      </trkpt>
      <trkpt lat="44.25696" lon="0.68488">
        <ele>227.4</ele>
        <time>2022-05-26T07:10:12Z</time>
      </trkpt>
      <trkpt lat="44.25703" lon="0.68497">
        <ele>227.6</ele>
        <time>2022-05-26T07:10:16Z</time>
      </trkpt>
      <trkpt lat="44.25709" lon="0.68505">
        <ele>228.4</ele>
        <time>2022-05-26T07:10:20Z</time>
      </trkpt>
      <trkpt lat="44.25716" lon="0.68513">
        <ele>229</ele>
        <time>2022-05-26T07:10:24Z</time>
      </trkpt>
      <trkpt lat="44.25722" lon="0.68521">
        <ele>230</ele>
        <time>2022-05-26T07:10:28Z</time>
      </trkpt>
      <trkpt lat="44.25728" lon="0.68529">
        <ele>230.6</ele>
        <time>2022-05-26T07:10:32Z</time>
      </trkpt>
      <trkpt lat="44.25735" lon="0.68538">
        <ele>231.6</ele>
        <time>2022-05-26T07:10:36Z</time>
      </trkpt>
      <trkpt lat="44.25741" lon="0.68546">
        <ele>232.8</ele>
        <time>2022-05-26T07:10:40Z</time>
      </trkpt>
      <trkpt lat="44.25748" lon="0.68554">
        <ele>233.4</ele>
        <time>2022-05-26T07:10:44Z</time>
      </trkpt>
      <trkpt lat="44.25755" lon="0.68563">
        <ele>234.6</ele>
        <time>2022-05-26T07:10:48Z</time>
      </trkpt>
      <trkpt lat="44.25761" lon="0.68571">
        <ele>235</ele>
        <time>2022-05-26T07:10:52Z</time>
      </trkpt>
      <trkpt lat="44.25768" lon="0.6858">
        <ele>236.4</ele>
        <time>2022-05-26T07:10:56Z</time>
      </trkpt>
      <trkpt lat="44.25776" lon="0.68589">
        <ele>237.2</ele>
        <time>2022-05-26T07:11:00Z</time>
      </trkpt>
      <trkpt lat="44.25783" lon="0.68597">
        <ele>238.4</ele>
        <time>2022-05-26T07:11:04Z</time>
      </trkpt>
      <trkpt lat="44.2579" lon="0.68604">
        <ele>239</ele>
        <time>2022-05-26T07:11:08Z</time>
      </trkpt>
      <trkpt lat="44.25798" lon="0.68609">
        <ele>240.6</ele>
        <time>2022-05-26T07:11:12Z</time>
      </trkpt>
      <trkpt lat="44.25805" lon="0.68613">
        <ele>241</ele>
        <time>2022-05-26T07:11:16Z</time>
      </trkpt>
      <trkpt lat="44.25812" lon="0.68617">
        <ele>242.4</ele>
        <time>2022-05-26T07:11:20Z</time>
      </trkpt>
      <trkpt lat="44.25819" lon="0.68623">
        <ele>243.6</ele>
        <time>2022-05-26T07:11:24Z</time>
      </trkpt>
      <trkpt lat="44.25826" lon="0.68631">
        <ele>244.4</ele>
        <time>2022-05-26T07:11:28Z</time>
      </trkpt>
      <trkpt lat="44.25833" lon="0.68639">
        <ele>245.4</ele>
        <time>2022-05-26T07:11:32Z</time>
      </trkpt>
      <trkpt lat="44.25839" lon="0.68647">
        <ele>246.8</ele>
        <time>2022-05-26T07:11:36Z</time>
      </trkpt>
      <trkpt lat="44.25846" lon="0.68654">
        <ele>247.6</ele>
        <time>2022-05-26T07:11:40Z</time>
      </trkpt>
      <trkpt lat="44.25852" lon="0.68662">
        <ele>248.6</ele>
        <time>2022-05-26T07:11:44Z</time>
      </trkpt>
      <trkpt lat="44.25859" lon="0.6867">
        <ele>249.6</ele>
        <time>2022-05-26T07:11:48Z</time>
      </trkpt>
      <trkpt lat="44.25866" lon="0.68677">
        <ele>250.4</ele>
        <time>2022-05-26T07:11:52Z</time>
      </trkpt>
      <trkpt lat="44.25873" lon="0.68681">
        <ele>251.4</ele>
        <time>2022-05-26T07:11:56Z</time>
      </trkpt>
      <trkpt lat="44.25881" lon="0.68679">
        <ele>252.4</ele>
        <time>2022-05-26T07:12:00Z</time>
      </trkpt>
      <trkpt lat="44.25886" lon="0.68673">
        <ele>254</ele>
        <time>2022-05-26T07:12:04Z</time>
      </trkpt>
      <trkpt lat="44.25891" lon="0.68667">
        <ele>254.8</ele>
        <time>2022-05-26T07:12:08Z</time>
      </trkpt>
      <trkpt lat="44.25897" lon="0.68661">
        <ele>255</ele>
        <time>2022-05-26T07:12:12Z</time>
      </trkpt>
      <trkpt lat="44.25903" lon="0.68656">
        <ele>255.2</ele>
        <time>2022-05-26T07:12:16Z</time>
      </trkpt>
      <trkpt lat="44.25908" lon="0.68648">
        <ele>256</ele>
        <time>2022-05-26T07:12:20Z</time>
      </trkpt>
      <trkpt lat="44.25915" lon="0.68642">
        <ele>257.2</ele>
        <time>2022-05-26T07:12:24Z</time>
      </trkpt>
      <trkpt lat="44.2592" lon="0.68635">
        <ele>256.4</ele>
        <time>2022-05-26T07:12:28Z</time>
      </trkpt>
      <trkpt lat="44.25928" lon="0.68628">
        <ele>256</ele>
        <time>2022-05-26T07:12:32Z</time>
      </trkpt>
      <trkpt lat="44.25937" lon="0.68622">
        <ele>256.4</ele>
        <time>2022-05-26T07:12:36Z</time>
      </trkpt>
      <trkpt lat="44.25946" lon="0.68616">
        <ele>256.4</ele>
        <time>2022-05-26T07:12:40Z</time>
      </trkpt>
      <trkpt lat="44.25954" lon="0.6861">
        <ele>256.4</ele>
        <time>2022-05-26T07:12:44Z</time>
      </trkpt>
      <trkpt lat="44.25964" lon="0.68605">
        <ele>256.4</ele>
        <time>2022-05-26T07:12:48Z</time>
      </trkpt>
      <trkpt lat="44.25973" lon="0.68598">
        <ele>256.2</ele>
        <time>2022-05-26T07:12:52Z</time>
      </trkpt>
      <trkpt lat="44.25984" lon="0.68593">
        <ele>256.4</ele>
        <time>2022-05-26T07:12:56Z</time>
      </trkpt>
      <trkpt lat="44.25995" lon="0.68587">
        <ele>256</ele>
        <time>2022-05-26T07:13:00Z</time>
      </trkpt>
      <trkpt lat="44.26006" lon="0.68582">
        <ele>256.2</ele>
        <time>2022-05-26T07:13:04Z</time>
      </trkpt>
      <trkpt lat="44.26018" lon="0.68579">
        <ele>255.8</ele>
        <time>2022-05-26T07:13:08Z</time>
      </trkpt>
      <trkpt lat="44.26029" lon="0.68577">
        <ele>256</ele>
        <time>2022-05-26T07:13:12Z</time>
      </trkpt>
      <trkpt lat="44.26042" lon="0.68573">
        <ele>255.8</ele>
        <time>2022-05-26T07:13:16Z</time>
      </trkpt>
      <trkpt lat="44.26055" lon="0.68568">
        <ele>256.2</ele>
        <time>2022-05-26T07:13:20Z</time>
      </trkpt>
      <trkpt lat="44.26065" lon="0.68562">
        <ele>255.8</ele>
        <time>2022-05-26T07:13:24Z</time>
      </trkpt>
      <trkpt lat="44.26076" lon="0.68556">
        <ele>255.8</ele>
        <time>2022-05-26T07:13:28Z</time>
      </trkpt>
      <trkpt lat="44.26087" lon="0.68552">
        <ele>256.6</ele>
        <time>2022-05-26T07:13:32Z</time>
      </trkpt>
      <trkpt lat="44.26099" lon="0.68547">
        <ele>256.8</ele>
        <time>2022-05-26T07:13:36Z</time>
      </trkpt>
      <trkpt lat="44.26111" lon="0.68541">
        <ele>256.6</ele>
        <time>2022-05-26T07:13:40Z</time>
      </trkpt>
      <trkpt lat="44.26123" lon="0.68539">
        <ele>257</ele>
        <time>2022-05-26T07:13:44Z</time>
      </trkpt>
      <trkpt lat="44.26135" lon="0.68535">
        <ele>257.4</ele>
        <time>2022-05-26T07:13:48Z</time>
      </trkpt>
      <trkpt lat="44.26146" lon="0.6853">
        <ele>257.6</ele>
        <time>2022-05-26T07:13:52Z</time>
      </trkpt>
      <trkpt lat="44.26156" lon="0.68525">
        <ele>257.8</ele>
        <time>2022-05-26T07:13:56Z</time>
      </trkpt>
      <trkpt lat="44.26164" lon="0.68518">
        <ele>257.6</ele>
        <time>2022-05-26T07:14:00Z</time>
      </trkpt>
      <trkpt lat="44.26169" lon="0.68511">
        <ele>258</ele>
        <time>2022-05-26T07:14:04Z</time>
      </trkpt>
      <trkpt lat="44.26178" lon="0.68504">
        <ele>258</ele>
        <time>2022-05-26T07:14:08Z</time>
      </trkpt>
      <trkpt lat="44.2619" lon="0.68497">
        <ele>257.8</ele>
        <time>2022-05-26T07:14:12Z</time>
      </trkpt>
      <trkpt lat="44.26206" lon="0.6849">
        <ele>259.2</ele>
        <time>2022-05-26T07:14:16Z</time>
      </trkpt>
      <trkpt lat="44.26221" lon="0.68482">
        <ele>259.4</ele>
        <time>2022-05-26T07:14:20Z</time>
      </trkpt>
      <trkpt lat="44.26237" lon="0.68467">
        <ele>258.8</ele>
        <time>2022-05-26T07:14:24Z</time>
      </trkpt>
      <trkpt lat="44.2625" lon="0.68448">
        <ele>259.2</ele>
        <time>2022-05-26T07:14:28Z</time>
      </trkpt>
      <trkpt lat="44.26262" lon="0.6843">
        <ele>259.6</ele>
        <time>2022-05-26T07:14:32Z</time>
      </trkpt>
      <trkpt lat="44.26273" lon="0.68413">
        <ele>260</ele>
        <time>2022-05-26T07:14:36Z</time>
      </trkpt>
      <trkpt lat="44.26287" lon="0.68397">
        <ele>259.8</ele>
        <time>2022-05-26T07:14:40Z</time>
      </trkpt>
      <trkpt lat="44.26302" lon="0.68381">
        <ele>260.2</ele>
        <time>2022-05-26T07:14:44Z</time>
      </trkpt>
      <trkpt lat="44.26317" lon="0.68365">
        <ele>260.4</ele>
        <time>2022-05-26T07:14:48Z</time>
      </trkpt>
      <trkpt lat="44.2633" lon="0.68351">
        <ele>261</ele>
        <time>2022-05-26T07:14:52Z</time>
      </trkpt>
      <trkpt lat="44.26341" lon="0.68336">
        <ele>261.4</ele>
        <time>2022-05-26T07:14:56Z</time>
      </trkpt>
      <trkpt lat="44.26351" lon="0.68327">
        <ele>261.8</ele>
        <time>2022-05-26T07:15:00Z</time>
      </trkpt>
      <trkpt lat="44.26364" lon="0.68332">
        <ele>260.4</ele>
        <time>2022-05-26T07:15:04Z</time>
      </trkpt>
      <trkpt lat="44.26373" lon="0.68352">
        <ele>259</ele>
        <time>2022-05-26T07:15:08Z</time>
      </trkpt>
      <trkpt lat="44.26383" lon="0.6838">
        <ele>257.6</ele>
        <time>2022-05-26T07:15:12Z</time>
      </trkpt>
      <trkpt lat="44.26385" lon="0.68406">
        <ele>254</ele>
        <time>2022-05-26T07:15:16Z</time>
      </trkpt>
      <trkpt lat="44.26394" lon="0.68418">
        <ele>252</ele>
        <time>2022-05-26T07:15:20Z</time>
      </trkpt>
      <trkpt lat="44.26413" lon="0.68439">
        <ele>245</ele>
        <time>2022-05-26T07:15:24Z</time>
      </trkpt>
      <trkpt lat="44.26434" lon="0.68474">
        <ele>240</ele>
        <time>2022-05-26T07:15:28Z</time>
      </trkpt>
      <trkpt lat="44.26449" lon="0.68521">
        <ele>234.8</ele>
        <time>2022-05-26T07:15:32Z</time>
      </trkpt>
      <trkpt lat="44.26464" lon="0.68567">
        <ele>230.8</ele>
        <time>2022-05-26T07:15:36Z</time>
      </trkpt>
      <trkpt lat="44.26474" lon="0.68599">
        <ele>232.6</ele>
        <time>2022-05-26T07:15:40Z</time>
      </trkpt>
      <trkpt lat="44.26479" lon="0.68619">
        <ele>229.4</ele>
        <time>2022-05-26T07:15:44Z</time>
      </trkpt>
      <trkpt lat="44.2649" lon="0.68617">
        <ele>229.4</ele>
        <time>2022-05-26T07:15:48Z</time>
      </trkpt>
      <trkpt lat="44.26503" lon="0.68609">
        <ele>228.2</ele>
        <time>2022-05-26T07:15:52Z</time>
      </trkpt>
      <trkpt lat="44.26519" lon="0.68599">
        <ele>227.2</ele>
        <time>2022-05-26T07:15:56Z</time>
      </trkpt>
      <trkpt lat="44.26536" lon="0.68587">
        <ele>225.4</ele>
        <time>2022-05-26T07:16:00Z</time>
      </trkpt>
      <trkpt lat="44.26555" lon="0.68567">
        <ele>224.4</ele>
        <time>2022-05-26T07:16:04Z</time>
      </trkpt>
      <trkpt lat="44.26572" lon="0.68546">
        <ele>224.4</ele>
        <time>2022-05-26T07:16:08Z</time>
      </trkpt>
      <trkpt lat="44.26586" lon="0.68552">
        <ele>224</ele>
        <time>2022-05-26T07:16:12Z</time>
      </trkpt>
      <trkpt lat="44.26597" lon="0.68561">
        <ele>225.4</ele>
        <time>2022-05-26T07:16:16Z</time>
      </trkpt>
      <trkpt lat="44.26611" lon="0.68566">
        <ele>223.2</ele>
        <time>2022-05-26T07:16:20Z</time>
      </trkpt>
      <trkpt lat="44.2663" lon="0.68579">
        <ele>220</ele>
        <time>2022-05-26T07:16:24Z</time>
      </trkpt>
      <trkpt lat="44.26634" lon="0.68604">
        <ele>220.2</ele>
        <time>2022-05-26T07:16:28Z</time>
      </trkpt>
      <trkpt lat="44.26641" lon="0.68618">
        <ele>220.8</ele>
        <time>2022-05-26T07:16:32Z</time>
      </trkpt>
      <trkpt lat="44.26643" lon="0.68634">
        <ele>222.2</ele>
        <time>2022-05-26T07:16:36Z</time>
      </trkpt>
      <trkpt lat="44.26641" lon="0.68648">
        <ele>222.6</ele>
        <time>2022-05-26T07:16:40Z</time>
      </trkpt>
      <trkpt lat="44.26638" lon="0.68667">
        <ele>223.2</ele>
        <time>2022-05-26T07:16:44Z</time>
      </trkpt>
      <trkpt lat="44.26635" lon="0.68683">
        <ele>223.8</ele>
        <time>2022-05-26T07:16:48Z</time>
      </trkpt>
      <trkpt lat="44.2663" lon="0.68706">
        <ele>223.8</ele>
        <time>2022-05-26T07:16:52Z</time>
      </trkpt>
      <trkpt lat="44.26628" lon="0.68728">
        <ele>224.4</ele>
        <time>2022-05-26T07:16:56Z</time>
      </trkpt>
      <trkpt lat="44.2663" lon="0.68748">
        <ele>224.4</ele>
        <time>2022-05-26T07:17:00Z</time>
      </trkpt>
      <trkpt lat="44.26631" lon="0.68778">
        <ele>221.2</ele>
        <time>2022-05-26T07:17:04Z</time>
      </trkpt>
      <trkpt lat="44.26639" lon="0.68817">
        <ele>217.6</ele>
        <time>2022-05-26T07:17:08Z</time>
      </trkpt>
      <trkpt lat="44.26643" lon="0.68852">
        <ele>216</ele>
        <time>2022-05-26T07:17:12Z</time>
      </trkpt>
      <trkpt lat="44.26639" lon="0.68887">
        <ele>214.2</ele>
        <time>2022-05-26T07:17:16Z</time>
      </trkpt>
      <trkpt lat="44.26623" lon="0.68921">
        <ele>212</ele>
        <time>2022-05-26T07:17:20Z</time>
      </trkpt>
      <trkpt lat="44.26609" lon="0.68954">
        <ele>211</ele>
        <time>2022-05-26T07:17:24Z</time>
      </trkpt>
      <trkpt lat="44.26592" lon="0.6898">
        <ele>211.6</ele>
        <time>2022-05-26T07:17:28Z</time>
      </trkpt>
      <trkpt lat="44.26573" lon="0.69005">
        <ele>210.2</ele>
        <time>2022-05-26T07:17:32Z</time>
      </trkpt>
      <trkpt lat="44.26555" lon="0.69027">
        <ele>211.8</ele>
        <time>2022-05-26T07:17:36Z</time>
      </trkpt>
      <trkpt lat="44.26531" lon="0.69044">
        <ele>212.4</ele>
        <time>2022-05-26T07:17:40Z</time>
      </trkpt>
      <trkpt lat="44.26512" lon="0.69059">
        <ele>213.8</ele>
        <time>2022-05-26T07:17:44Z</time>
      </trkpt>
      <trkpt lat="44.26496" lon="0.69079">
        <ele>217</ele>
        <time>2022-05-26T07:17:48Z</time>
      </trkpt>
      <trkpt lat="44.26479" lon="0.69089">
        <ele>214.2</ele>
        <time>2022-05-26T07:17:52Z</time>
      </trkpt>
      <trkpt lat="44.26459" lon="0.69112">
        <ele>209.8</ele>
        <time>2022-05-26T07:17:56Z</time>
      </trkpt>
      <trkpt lat="44.26435" lon="0.69134">
        <ele>205.8</ele>
        <time>2022-05-26T07:18:00Z</time>
      </trkpt>
      <trkpt lat="44.26405" lon="0.69144">
        <ele>204.4</ele>
        <time>2022-05-26T07:18:04Z</time>
      </trkpt>
      <trkpt lat="44.26381" lon="0.69155">
        <ele>204.6</ele>
        <time>2022-05-26T07:18:08Z</time>
      </trkpt>
      <trkpt lat="44.26357" lon="0.69164">
        <ele>203.4</ele>
        <time>2022-05-26T07:18:12Z</time>
      </trkpt>
      <trkpt lat="44.26329" lon="0.69175">
        <ele>201.8</ele>
        <time>2022-05-26T07:18:16Z</time>
      </trkpt>
      <trkpt lat="44.26304" lon="0.69192">
        <ele>200.4</ele>
        <time>2022-05-26T07:18:20Z</time>
      </trkpt>
      <trkpt lat="44.26291" lon="0.69206">
        <ele>204.2</ele>
        <time>2022-05-26T07:18:24Z</time>
      </trkpt>
      <trkpt lat="44.26276" lon="0.69226">
        <ele>202.8</ele>
        <time>2022-05-26T07:18:28Z</time>
      </trkpt>
      <trkpt lat="44.26258" lon="0.69248">
        <ele>200</ele>
        <time>2022-05-26T07:18:32Z</time>
      </trkpt>
      <trkpt lat="44.26237" lon="0.69267">
        <ele>196.8</ele>
        <time>2022-05-26T07:18:36Z</time>
      </trkpt>
      <trkpt lat="44.26218" lon="0.69276">
        <ele>193.4</ele>
        <time>2022-05-26T07:18:40Z</time>
      </trkpt>
      <trkpt lat="44.26201" lon="0.6928">
        <ele>193.4</ele>
        <time>2022-05-26T07:18:44Z</time>
      </trkpt>
      <trkpt lat="44.26186" lon="0.693">
        <ele>193.8</ele>
        <time>2022-05-26T07:18:48Z</time>
      </trkpt>
      <trkpt lat="44.26175" lon="0.69319">
        <ele>194.8</ele>
        <time>2022-05-26T07:18:52Z</time>
      </trkpt>
      <trkpt lat="44.2616" lon="0.69337">
        <ele>197.8</ele>
        <time>2022-05-26T07:18:56Z</time>
      </trkpt>
      <trkpt lat="44.2615" lon="0.69352">
        <ele>199</ele>
        <time>2022-05-26T07:19:00Z</time>
      </trkpt>
      <trkpt lat="44.26144" lon="0.69371">
        <ele>199.4</ele>
        <time>2022-05-26T07:19:04Z</time>
      </trkpt>
      <trkpt lat="44.26139" lon="0.69388">
        <ele>199</ele>
        <time>2022-05-26T07:19:08Z</time>
      </trkpt>
      <trkpt lat="44.26136" lon="0.69409">
        <ele>196.8</ele>
        <time>2022-05-26T07:19:12Z</time>
      </trkpt>
      <trkpt lat="44.26131" lon="0.69431">
        <ele>196.6</ele>
        <time>2022-05-26T07:19:16Z</time>
      </trkpt>
      <trkpt lat="44.26128" lon="0.69452">
        <ele>198.6</ele>
        <time>2022-05-26T07:19:20Z</time>
      </trkpt>
      <trkpt lat="44.26132" lon="0.6946">
        <ele>200.6</ele>
        <time>2022-05-26T07:19:24Z</time>
      </trkpt>
      <trkpt lat="44.26139" lon="0.69462">
        <ele>200.8</ele>
        <time>2022-05-26T07:19:28Z</time>
      </trkpt>
      <trkpt lat="44.26146" lon="0.69463">
        <ele>202.4</ele>
        <time>2022-05-26T07:19:32Z</time>
      </trkpt>
      <trkpt lat="44.26152" lon="0.69465">
        <ele>203.4</ele>
        <time>2022-05-26T07:19:36Z</time>
      </trkpt>
      <trkpt lat="44.26156" lon="0.6947">
        <ele>204.6</ele>
        <time>2022-05-26T07:19:40Z</time>
      </trkpt>
      <trkpt lat="44.26157" lon="0.69476">
        <ele>205.4</ele>
        <time>2022-05-26T07:19:44Z</time>
      </trkpt>
      <trkpt lat="44.26157" lon="0.69484">
        <ele>206.4</ele>
        <time>2022-05-26T07:19:48Z</time>
      </trkpt>
      <trkpt lat="44.26157" lon="0.69492">
        <ele>206.4</ele>
        <time>2022-05-26T07:19:52Z</time>
      </trkpt>
      <trkpt lat="44.26158" lon="0.69502">
        <ele>207.2</ele>
        <time>2022-05-26T07:19:56Z</time>
      </trkpt>
      <trkpt lat="44.2616" lon="0.69513">
        <ele>207.6</ele>
        <time>2022-05-26T07:20:00Z</time>
      </trkpt>
      <trkpt lat="44.2616" lon="0.69526">
        <ele>207.2</ele>
        <time>2022-05-26T07:20:04Z</time>
      </trkpt>
      <trkpt lat="44.26159" lon="0.69539">
        <ele>206.8</ele>
        <time>2022-05-26T07:20:08Z</time>
      </trkpt>
      <trkpt lat="44.26159" lon="0.69551">
        <ele>207.4</ele>
        <time>2022-05-26T07:20:12Z</time>
      </trkpt>
      <trkpt lat="44.26164" lon="0.69564">
        <ele>208.4</ele>
        <time>2022-05-26T07:20:16Z</time>
      </trkpt>
      <trkpt lat="44.26166" lon="0.69578">
        <ele>210</ele>
        <time>2022-05-26T07:20:20Z</time>
      </trkpt>
      <trkpt lat="44.2617" lon="0.6959">
        <ele>211.6</ele>
        <time>2022-05-26T07:20:24Z</time>
      </trkpt>
      <trkpt lat="44.26175" lon="0.69598">
        <ele>213.4</ele>
        <time>2022-05-26T07:20:28Z</time>
      </trkpt>
      <trkpt lat="44.26184" lon="0.69601">
        <ele>214.2</ele>
        <time>2022-05-26T07:20:32Z</time>
      </trkpt>
      <trkpt lat="44.26188" lon="0.69596">
        <ele>215.4</ele>
        <time>2022-05-26T07:20:36Z</time>
      </trkpt>
      <trkpt lat="44.26188" lon="0.6959">
        <ele>216.2</ele>
        <time>2022-05-26T07:20:40Z</time>
      </trkpt>
      <trkpt lat="44.26192" lon="0.69582">
        <ele>217.4</ele>
        <time>2022-05-26T07:20:44Z</time>
      </trkpt>
      <trkpt lat="44.26198" lon="0.69575">
        <ele>217.6</ele>
        <time>2022-05-26T07:20:48Z</time>
      </trkpt>
      <trkpt lat="44.26204" lon="0.69569">
        <ele>219</ele>
        <time>2022-05-26T07:20:52Z</time>
      </trkpt>
      <trkpt lat="44.2621" lon="0.69563">
        <ele>219.4</ele>
        <time>2022-05-26T07:20:56Z</time>
      </trkpt>
      <trkpt lat="44.26217" lon="0.69556">
        <ele>220.6</ele>
        <time>2022-05-26T07:21:00Z</time>
      </trkpt>
      <trkpt lat="44.26224" lon="0.69549">
        <ele>220.4</ele>
        <time>2022-05-26T07:21:04Z</time>
      </trkpt>
      <trkpt lat="44.26231" lon="0.69543">
        <ele>222</ele>
        <time>2022-05-26T07:21:08Z</time>
      </trkpt>
      <trkpt lat="44.26238" lon="0.69537">
        <ele>222</ele>
        <time>2022-05-26T07:21:12Z</time>
      </trkpt>
      <trkpt lat="44.26244" lon="0.69532">
        <ele>223.6</ele>
        <time>2022-05-26T07:21:16Z</time>
      </trkpt>
      <trkpt lat="44.26251" lon="0.69528">
        <ele>223.8</ele>
        <time>2022-05-26T07:21:20Z</time>
      </trkpt>
      <trkpt lat="44.26256" lon="0.69524">
        <ele>224.8</ele>
        <time>2022-05-26T07:21:24Z</time>
      </trkpt>
      <trkpt lat="44.26262" lon="0.6952">
        <ele>226.2</ele>
        <time>2022-05-26T07:21:28Z</time>
      </trkpt>
      <trkpt lat="44.26267" lon="0.69516">
        <ele>227.6</ele>
        <time>2022-05-26T07:21:32Z</time>
      </trkpt>
      <trkpt lat="44.26272" lon="0.69511">
        <ele>228.2</ele>
        <time>2022-05-26T07:21:36Z</time>
      </trkpt>
      <trkpt lat="44.26278" lon="0.69509">
        <ele>228.8</ele>
        <time>2022-05-26T07:21:40Z</time>
      </trkpt>
      <trkpt lat="44.26283" lon="0.69505">
        <ele>229.2</ele>
        <time>2022-05-26T07:21:44Z</time>
      </trkpt>
      <trkpt lat="44.26289" lon="0.69502">
        <ele>230.6</ele>
        <time>2022-05-26T07:21:48Z</time>
      </trkpt>
      <trkpt lat="44.26295" lon="0.69499">
        <ele>231.4</ele>
        <time>2022-05-26T07:21:52Z</time>
      </trkpt>
      <trkpt lat="44.26305" lon="0.69495">
        <ele>231.8</ele>
        <time>2022-05-26T07:21:56Z</time>
      </trkpt>
      <trkpt lat="44.26314" lon="0.69492">
        <ele>232.2</ele>
        <time>2022-05-26T07:22:00Z</time>
      </trkpt>
      <trkpt lat="44.26323" lon="0.69489">
        <ele>232.8</ele>
        <time>2022-05-26T07:22:04Z</time>
      </trkpt>
      <trkpt lat="44.26331" lon="0.69486">
        <ele>233.2</ele>
        <time>2022-05-26T07:22:08Z</time>
      </trkpt>
      <trkpt lat="44.26338" lon="0.69483">
        <ele>234</ele>
        <time>2022-05-26T07:22:12Z</time>
      </trkpt>
      <trkpt lat="44.26345" lon="0.6948">
        <ele>235.2</ele>
        <time>2022-05-26T07:22:16Z</time>
      </trkpt>
      <trkpt lat="44.26352" lon="0.69478">
        <ele>236.2</ele>
        <time>2022-05-26T07:22:20Z</time>
      </trkpt>
      <trkpt lat="44.26358" lon="0.69475">
        <ele>236.4</ele>
        <time>2022-05-26T07:22:24Z</time>
      </trkpt>
      <trkpt lat="44.26364" lon="0.69472">
        <ele>238.4</ele>
        <time>2022-05-26T07:22:28Z</time>
      </trkpt>
      <trkpt lat="44.26369" lon="0.69468">
        <ele>238.6</ele>
        <time>2022-05-26T07:22:32Z</time>
      </trkpt>
      <trkpt lat="44.26374" lon="0.69465">
        <ele>239.8</ele>
        <time>2022-05-26T07:22:36Z</time>
      </trkpt>
      <trkpt lat="44.26379" lon="0.6946">
        <ele>240.4</ele>
        <time>2022-05-26T07:22:40Z</time>
      </trkpt>
      <trkpt lat="44.26384" lon="0.69456">
        <ele>241.4</ele>
        <time>2022-05-26T07:22:44Z</time>
      </trkpt>
      <trkpt lat="44.26389" lon="0.69453">
        <ele>242.8</ele>
        <time>2022-05-26T07:22:48Z</time>
      </trkpt>
      <trkpt lat="44.26394" lon="0.69448">
        <ele>243.6</ele>
        <time>2022-05-26T07:22:52Z</time>
      </trkpt>
      <trkpt lat="44.264" lon="0.69449">
        <ele>244.2</ele>
        <time>2022-05-26T07:22:56Z</time>
      </trkpt>
      <trkpt lat="44.26406" lon="0.69454">
        <ele>244.2</ele>
        <time>2022-05-26T07:23:00Z</time>
      </trkpt>
      <trkpt lat="44.26412" lon="0.6946">
        <ele>244.4</ele>
        <time>2022-05-26T07:23:04Z</time>
      </trkpt>
      <trkpt lat="44.26422" lon="0.69466">
        <ele>244</ele>
        <time>2022-05-26T07:23:08Z</time>
      </trkpt>
      <trkpt lat="44.26431" lon="0.6947">
        <ele>244.2</ele>
        <time>2022-05-26T07:23:12Z</time>
      </trkpt>
      <trkpt lat="44.26441" lon="0.69474">
        <ele>244.4</ele>
        <time>2022-05-26T07:23:16Z</time>
      </trkpt>
      <trkpt lat="44.26457" lon="0.69488">
        <ele>242.6</ele>
        <time>2022-05-26T07:24:31Z</time>
      </trkpt>
      <trkpt lat="44.26463" lon="0.69505">
        <ele>240.2</ele>
        <time>2022-05-26T07:24:35Z</time>
      </trkpt>
      <trkpt lat="44.26472" lon="0.69527">
        <ele>239</ele>
        <time>2022-05-26T07:24:39Z</time>
      </trkpt>
      <trkpt lat="44.26482" lon="0.69556">
        <ele>233.8</ele>
        <time>2022-05-26T07:24:43Z</time>
      </trkpt>
      <trkpt lat="44.26494" lon="0.69591">
        <ele>230.6</ele>
        <time>2022-05-26T07:24:47Z</time>
      </trkpt>
      <trkpt lat="44.26504" lon="0.69634">
        <ele>224.8</ele>
        <time>2022-05-26T07:24:51Z</time>
      </trkpt>
      <trkpt lat="44.26513" lon="0.6968">
        <ele>221.6</ele>
        <time>2022-05-26T07:24:55Z</time>
      </trkpt>
      <trkpt lat="44.26529" lon="0.69728">
        <ele>221.6</ele>
        <time>2022-05-26T07:24:59Z</time>
      </trkpt>
      <trkpt lat="44.26545" lon="0.69772">
        <ele>217</ele>
        <time>2022-05-26T07:25:03Z</time>
      </trkpt>
      <trkpt lat="44.26566" lon="0.69799">
        <ele>213.6</ele>
        <time>2022-05-26T07:25:07Z</time>
      </trkpt>
      <trkpt lat="44.26588" lon="0.69828">
        <ele>211.8</ele>
        <time>2022-05-26T07:25:11Z</time>
      </trkpt>
      <trkpt lat="44.26601" lon="0.69834">
        <ele>209.8</ele>
        <time>2022-05-26T07:25:15Z</time>
      </trkpt>
      <trkpt lat="44.26594" lon="0.69845">
        <ele>207.4</ele>
        <time>2022-05-26T07:25:19Z</time>
      </trkpt>
      <trkpt lat="44.26581" lon="0.69863">
        <ele>206.4</ele>
        <time>2022-05-26T07:25:23Z</time>
      </trkpt>
      <trkpt lat="44.26569" lon="0.69882">
        <ele>202</ele>
        <time>2022-05-26T07:25:27Z</time>
      </trkpt>
      <trkpt lat="44.2657" lon="0.69914">
        <ele>194.4</ele>
        <time>2022-05-26T07:25:31Z</time>
      </trkpt>
      <trkpt lat="44.26577" lon="0.69955">
        <ele>193.2</ele>
        <time>2022-05-26T07:25:35Z</time>
      </trkpt>
      <trkpt lat="44.26578" lon="0.69988">
        <ele>192.8</ele>
        <time>2022-05-26T07:25:39Z</time>
      </trkpt>
      <trkpt lat="44.26586" lon="0.70004">
        <ele>193.8</ele>
        <time>2022-05-26T07:25:43Z</time>
      </trkpt>
      <trkpt lat="44.26597" lon="0.70022">
        <ele>193.8</ele>
        <time>2022-05-26T07:25:47Z</time>
      </trkpt>
      <trkpt lat="44.26611" lon="0.70042">
        <ele>191.4</ele>
        <time>2022-05-26T07:25:51Z</time>
      </trkpt>
      <trkpt lat="44.26622" lon="0.70068">
        <ele>190.8</ele>
        <time>2022-05-26T07:25:55Z</time>
      </trkpt>
      <trkpt lat="44.26619" lon="0.70094">
        <ele>188.2</ele>
        <time>2022-05-26T07:25:59Z</time>
      </trkpt>
      <trkpt lat="44.26608" lon="0.70129">
        <ele>184.2</ele>
        <time>2022-05-26T07:26:03Z</time>
      </trkpt>
      <trkpt lat="44.26595" lon="0.70167">
        <ele>183</ele>
        <time>2022-05-26T07:26:07Z</time>
      </trkpt>
      <trkpt lat="44.26586" lon="0.70196">
        <ele>182</ele>
        <time>2022-05-26T07:26:11Z</time>
      </trkpt>
      <trkpt lat="44.26588" lon="0.70209">
        <ele>179.8</ele>
        <time>2022-05-26T07:26:15Z</time>
      </trkpt>
      <trkpt lat="44.26602" lon="0.70218">
        <ele>176.2</ele>
        <time>2022-05-26T07:26:19Z</time>
      </trkpt>
      <trkpt lat="44.26625" lon="0.70235">
        <ele>167.8</ele>
        <time>2022-05-26T07:26:23Z</time>
      </trkpt>
      <trkpt lat="44.26651" lon="0.70252">
        <ele>164.6</ele>
        <time>2022-05-26T07:26:27Z</time>
      </trkpt>
      <trkpt lat="44.26673" lon="0.70285">
        <ele>164.4</ele>
        <time>2022-05-26T07:27:52Z</time>
      </trkpt>
      <trkpt lat="44.26668" lon="0.70321">
        <ele>160.6</ele>
        <time>2022-05-26T07:27:56Z</time>
      </trkpt>
      <trkpt lat="44.26662" lon="0.70365">
        <ele>156.4</ele>
        <time>2022-05-26T07:28:00Z</time>
      </trkpt>
      <trkpt lat="44.26651" lon="0.70411">
        <ele>154.4</ele>
        <time>2022-05-26T07:28:04Z</time>
      </trkpt>
      <trkpt lat="44.2663" lon="0.70453">
        <ele>152.2</ele>
        <time>2022-05-26T07:28:08Z</time>
      </trkpt>
      <trkpt lat="44.26612" lon="0.70488">
        <ele>151.2</ele>
        <time>2022-05-26T07:28:12Z</time>
      </trkpt>
      <trkpt lat="44.26606" lon="0.70534">
        <ele>150</ele>
        <time>2022-05-26T07:28:16Z</time>
      </trkpt>
      <trkpt lat="44.26598" lon="0.70579">
        <ele>148</ele>
        <time>2022-05-26T07:28:20Z</time>
      </trkpt>
      <trkpt lat="44.26597" lon="0.70621">
        <ele>148</ele>
        <time>2022-05-26T07:28:24Z</time>
      </trkpt>
      <trkpt lat="44.26586" lon="0.70658">
        <ele>147.2</ele>
        <time>2022-05-26T07:28:28Z</time>
      </trkpt>
      <trkpt lat="44.26577" lon="0.70692">
        <ele>147.2</ele>
        <time>2022-05-26T07:28:32Z</time>
      </trkpt>
      <trkpt lat="44.26572" lon="0.70727">
        <ele>147.2</ele>
        <time>2022-05-26T07:28:36Z</time>
      </trkpt>
      <trkpt lat="44.26568" lon="0.7076">
        <ele>148</ele>
        <time>2022-05-26T07:28:40Z</time>
      </trkpt>
      <trkpt lat="44.26575" lon="0.70786">
        <ele>148.8</ele>
        <time>2022-05-26T07:28:44Z</time>
      </trkpt>
      <trkpt lat="44.26598" lon="0.708">
        <ele>148.2</ele>
        <time>2022-05-26T07:28:48Z</time>
      </trkpt>
      <trkpt lat="44.26622" lon="0.70814">
        <ele>148.4</ele>
        <time>2022-05-26T07:28:52Z</time>
      </trkpt>
      <trkpt lat="44.26643" lon="0.70826">
        <ele>149.6</ele>
        <time>2022-05-26T07:28:56Z</time>
      </trkpt>
      <trkpt lat="44.26665" lon="0.7083">
        <ele>150.6</ele>
        <time>2022-05-26T07:29:00Z</time>
      </trkpt>
      <trkpt lat="44.26687" lon="0.70831">
        <ele>150.6</ele>
        <time>2022-05-26T07:29:04Z</time>
      </trkpt>
      <trkpt lat="44.26706" lon="0.70833">
        <ele>151.2</ele>
        <time>2022-05-26T07:29:08Z</time>
      </trkpt>
      <trkpt lat="44.26724" lon="0.70834">
        <ele>151.8</ele>
        <time>2022-05-26T07:29:12Z</time>
      </trkpt>
      <trkpt lat="44.26746" lon="0.70836">
        <ele>150.2</ele>
        <time>2022-05-26T07:29:16Z</time>
      </trkpt>
      <trkpt lat="44.2677" lon="0.70838">
        <ele>149.8</ele>
        <time>2022-05-26T07:29:20Z</time>
      </trkpt>
      <trkpt lat="44.26793" lon="0.70839">
        <ele>150.4</ele>
        <time>2022-05-26T07:29:24Z</time>
      </trkpt>
      <trkpt lat="44.26815" lon="0.70842">
        <ele>150.6</ele>
        <time>2022-05-26T07:29:28Z</time>
      </trkpt>
      <trkpt lat="44.26834" lon="0.70847">
        <ele>151.6</ele>
        <time>2022-05-26T07:29:32Z</time>
      </trkpt>
      <trkpt lat="44.26854" lon="0.70851">
        <ele>151</ele>
        <time>2022-05-26T07:29:36Z</time>
      </trkpt>
      <trkpt lat="44.26876" lon="0.70853">
        <ele>150.8</ele>
        <time>2022-05-26T07:29:40Z</time>
      </trkpt>
      <trkpt lat="44.26895" lon="0.70856">
        <ele>150.6</ele>
        <time>2022-05-26T07:29:44Z</time>
      </trkpt>
      <trkpt lat="44.26914" lon="0.7086">
        <ele>150.8</ele>
        <time>2022-05-26T07:29:48Z</time>
      </trkpt>
      <trkpt lat="44.26926" lon="0.70862">
        <ele>152.6</ele>
        <time>2022-05-26T07:29:52Z</time>
      </trkpt>
      <trkpt lat="44.26941" lon="0.70867">
        <ele>152.4</ele>
        <time>2022-05-26T07:29:56Z</time>
      </trkpt>
      <trkpt lat="44.26954" lon="0.70872">
        <ele>153</ele>
        <time>2022-05-26T07:30:00Z</time>
      </trkpt>
      <trkpt lat="44.26967" lon="0.70877">
        <ele>154.2</ele>
        <time>2022-05-26T07:30:04Z</time>
      </trkpt>
      <trkpt lat="44.26982" lon="0.70881">
        <ele>152.6</ele>
        <time>2022-05-26T07:30:08Z</time>
      </trkpt>
      <trkpt lat="44.26997" lon="0.70885">
        <ele>152.6</ele>
        <time>2022-05-26T07:30:12Z</time>
      </trkpt>
      <trkpt lat="44.27011" lon="0.70891">
        <ele>151.2</ele>
        <time>2022-05-26T07:30:16Z</time>
      </trkpt>
      <trkpt lat="44.27027" lon="0.709">
        <ele>152.2</ele>
        <time>2022-05-26T07:30:20Z</time>
      </trkpt>
      <trkpt lat="44.27037" lon="0.70911">
        <ele>152.4</ele>
        <time>2022-05-26T07:30:24Z</time>
      </trkpt>
      <trkpt lat="44.27045" lon="0.70924">
        <ele>152.8</ele>
        <time>2022-05-26T07:30:28Z</time>
      </trkpt>
      <trkpt lat="44.27059" lon="0.70936">
        <ele>152.6</ele>
        <time>2022-05-26T07:30:32Z</time>
      </trkpt>
      <trkpt lat="44.27069" lon="0.70945">
        <ele>152.4</ele>
        <time>2022-05-26T07:30:36Z</time>
      </trkpt>
      <trkpt lat="44.27081" lon="0.70954">
        <ele>151.8</ele>
        <time>2022-05-26T07:30:40Z</time>
      </trkpt>
      <trkpt lat="44.27094" lon="0.70965">
        <ele>152.2</ele>
        <time>2022-05-26T07:30:44Z</time>
      </trkpt>
      <trkpt lat="44.2711" lon="0.70974">
        <ele>151.8</ele>
        <time>2022-05-26T07:30:48Z</time>
      </trkpt>
      <trkpt lat="44.27124" lon="0.70984">
        <ele>152.2</ele>
        <time>2022-05-26T07:30:52Z</time>
      </trkpt>
      <trkpt lat="44.27138" lon="0.70995">
        <ele>152.4</ele>
        <time>2022-05-26T07:30:56Z</time>
      </trkpt>
      <trkpt lat="44.27155" lon="0.71006">
        <ele>152</ele>
        <time>2022-05-26T07:31:00Z</time>
      </trkpt>
      <trkpt lat="44.27171" lon="0.71015">
        <ele>152.2</ele>
        <time>2022-05-26T07:31:04Z</time>
      </trkpt>
      <trkpt lat="44.27186" lon="0.71021">
        <ele>152.2</ele>
        <time>2022-05-26T07:31:08Z</time>
      </trkpt>
      <trkpt lat="44.27199" lon="0.71028">
        <ele>152.2</ele>
        <time>2022-05-26T07:31:12Z</time>
      </trkpt>
      <trkpt lat="44.27212" lon="0.71033">
        <ele>152.2</ele>
        <time>2022-05-26T07:31:16Z</time>
      </trkpt>
      <trkpt lat="44.27222" lon="0.71039">
        <ele>152.2</ele>
        <time>2022-05-26T07:31:20Z</time>
      </trkpt>
      <trkpt lat="44.27236" lon="0.71046">
        <ele>152.2</ele>
        <time>2022-05-26T07:31:24Z</time>
      </trkpt>
      <trkpt lat="44.27248" lon="0.7106">
        <ele>152.6</ele>
        <time>2022-05-26T07:31:28Z</time>
      </trkpt>
      <trkpt lat="44.27261" lon="0.71075">
        <ele>152.6</ele>
        <time>2022-05-26T07:31:32Z</time>
      </trkpt>
      <trkpt lat="44.27273" lon="0.7109">
        <ele>152.2</ele>
        <time>2022-05-26T07:31:36Z</time>
      </trkpt>
      <trkpt lat="44.27287" lon="0.71101">
        <ele>153.2</ele>
        <time>2022-05-26T07:31:40Z</time>
      </trkpt>
      <trkpt lat="44.273" lon="0.71115">
        <ele>154.2</ele>
        <time>2022-05-26T07:31:44Z</time>
      </trkpt>
      <trkpt lat="44.27313" lon="0.71128">
        <ele>153.8</ele>
        <time>2022-05-26T07:31:48Z</time>
      </trkpt>
      <trkpt lat="44.27324" lon="0.71141">
        <ele>154.8</ele>
        <time>2022-05-26T07:31:52Z</time>
      </trkpt>
      <trkpt lat="44.27336" lon="0.71154">
        <ele>154.2</ele>
        <time>2022-05-26T07:31:56Z</time>
      </trkpt>
      <trkpt lat="44.27348" lon="0.71168">
        <ele>155</ele>
        <time>2022-05-26T07:32:00Z</time>
      </trkpt>
      <trkpt lat="44.27358" lon="0.71181">
        <ele>154.4</ele>
        <time>2022-05-26T07:32:04Z</time>
      </trkpt>
      <trkpt lat="44.27368" lon="0.71195">
        <ele>155</ele>
        <time>2022-05-26T07:32:08Z</time>
      </trkpt>
      <trkpt lat="44.27379" lon="0.71205">
        <ele>155.6</ele>
        <time>2022-05-26T07:32:12Z</time>
      </trkpt>
      <trkpt lat="44.27391" lon="0.7121">
        <ele>155.8</ele>
        <time>2022-05-26T07:32:16Z</time>
      </trkpt>
      <trkpt lat="44.27405" lon="0.71215">
        <ele>156.4</ele>
        <time>2022-05-26T07:32:20Z</time>
      </trkpt>
      <trkpt lat="44.27417" lon="0.7122">
        <ele>155</ele>
        <time>2022-05-26T07:32:24Z</time>
      </trkpt>
      <trkpt lat="44.27431" lon="0.71216">
        <ele>155.8</ele>
        <time>2022-05-26T07:32:28Z</time>
      </trkpt>
      <trkpt lat="44.27443" lon="0.71197">
        <ele>155.4</ele>
        <time>2022-05-26T07:32:32Z</time>
      </trkpt>
      <trkpt lat="44.27456" lon="0.71174">
        <ele>153.8</ele>
        <time>2022-05-26T07:32:36Z</time>
      </trkpt>
      <trkpt lat="44.27468" lon="0.71152">
        <ele>153.6</ele>
        <time>2022-05-26T07:32:40Z</time>
      </trkpt>
      <trkpt lat="44.27479" lon="0.71132">
        <ele>153.8</ele>
        <time>2022-05-26T07:32:44Z</time>
      </trkpt>
      <trkpt lat="44.27492" lon="0.71113">
        <ele>153.2</ele>
        <time>2022-05-26T07:32:48Z</time>
      </trkpt>
      <trkpt lat="44.27503" lon="0.71096">
        <ele>155</ele>
        <time>2022-05-26T07:32:52Z</time>
      </trkpt>
      <trkpt lat="44.27504" lon="0.71074">
        <ele>155.8</ele>
        <time>2022-05-26T07:32:56Z</time>
      </trkpt>
      <trkpt lat="44.27499" lon="0.71054">
        <ele>156.4</ele>
        <time>2022-05-26T07:33:00Z</time>
      </trkpt>
      <trkpt lat="44.27492" lon="0.71036">
        <ele>156.8</ele>
        <time>2022-05-26T07:33:04Z</time>
      </trkpt>
      <trkpt lat="44.27492" lon="0.7102">
        <ele>157.2</ele>
        <time>2022-05-26T07:33:08Z</time>
      </trkpt>
      <trkpt lat="44.27502" lon="0.71014">
        <ele>158.2</ele>
        <time>2022-05-26T07:33:12Z</time>
      </trkpt>
      <trkpt lat="44.27516" lon="0.71011">
        <ele>157.8</ele>
        <time>2022-05-26T07:33:16Z</time>
      </trkpt>
      <trkpt lat="44.2753" lon="0.71006">
        <ele>158.2</ele>
        <time>2022-05-26T07:33:20Z</time>
      </trkpt>
      <trkpt lat="44.27543" lon="0.71002">
        <ele>158.6</ele>
        <time>2022-05-26T07:33:24Z</time>
      </trkpt>
      <trkpt lat="44.27558" lon="0.70995">
        <ele>158.2</ele>
        <time>2022-05-26T07:33:28Z</time>
      </trkpt>
      <trkpt lat="44.27571" lon="0.70985">
        <ele>158.6</ele>
        <time>2022-05-26T07:33:32Z</time>
      </trkpt>
      <trkpt lat="44.27586" lon="0.70979">
        <ele>158.8</ele>
        <time>2022-05-26T07:33:36Z</time>
      </trkpt>
      <trkpt lat="44.27603" lon="0.70984">
        <ele>158.2</ele>
        <time>2022-05-26T07:33:40Z</time>
      </trkpt>
      <trkpt lat="44.27617" lon="0.70997">
        <ele>158.2</ele>
        <time>2022-05-26T07:33:44Z</time>
      </trkpt>
      <trkpt lat="44.2763" lon="0.71009">
        <ele>158.6</ele>
        <time>2022-05-26T07:33:48Z</time>
      </trkpt>
      <trkpt lat="44.27642" lon="0.71022">
        <ele>158.2</ele>
        <time>2022-05-26T07:33:52Z</time>
      </trkpt>
      <trkpt lat="44.27654" lon="0.71034">
        <ele>159.4</ele>
        <time>2022-05-26T07:33:56Z</time>
      </trkpt>
      <trkpt lat="44.27662" lon="0.71044">
        <ele>160.4</ele>
        <time>2022-05-26T07:34:00Z</time>
      </trkpt>
      <trkpt lat="44.27669" lon="0.71054">
        <ele>161.4</ele>
        <time>2022-05-26T07:34:04Z</time>
      </trkpt>
      <trkpt lat="44.27677" lon="0.71066">
        <ele>162</ele>
        <time>2022-05-26T07:34:08Z</time>
      </trkpt>
      <trkpt lat="44.27684" lon="0.71076">
        <ele>162.6</ele>
        <time>2022-05-26T07:34:12Z</time>
      </trkpt>
      <trkpt lat="44.27694" lon="0.71082">
        <ele>163.8</ele>
        <time>2022-05-26T07:34:16Z</time>
      </trkpt>
      <trkpt lat="44.27705" lon="0.71085">
        <ele>164.4</ele>
        <time>2022-05-26T07:34:20Z</time>
      </trkpt>
      <trkpt lat="44.27713" lon="0.71081">
        <ele>165.6</ele>
        <time>2022-05-26T07:34:24Z</time>
      </trkpt>
      <trkpt lat="44.27721" lon="0.71073">
        <ele>166.4</ele>
        <time>2022-05-26T07:34:28Z</time>
      </trkpt>
      <trkpt lat="44.27728" lon="0.71065">
        <ele>167.2</ele>
        <time>2022-05-26T07:34:32Z</time>
      </trkpt>
      <trkpt lat="44.27735" lon="0.71056">
        <ele>167.4</ele>
        <time>2022-05-26T07:34:36Z</time>
      </trkpt>
      <trkpt lat="44.27743" lon="0.71044">
        <ele>167.2</ele>
        <time>2022-05-26T07:34:40Z</time>
      </trkpt>
      <trkpt lat="44.27753" lon="0.71032">
        <ele>166.6</ele>
        <time>2022-05-26T07:34:44Z</time>
      </trkpt>
      <trkpt lat="44.27764" lon="0.71018">
        <ele>167</ele>
        <time>2022-05-26T07:34:48Z</time>
      </trkpt>
      <trkpt lat="44.27774" lon="0.71005">
        <ele>167.6</ele>
        <time>2022-05-26T07:34:52Z</time>
      </trkpt>
      <trkpt lat="44.27783" lon="0.70992">
        <ele>167.8</ele>
        <time>2022-05-26T07:34:56Z</time>
      </trkpt>
      <trkpt lat="44.27793" lon="0.7098">
        <ele>167.8</ele>
        <time>2022-05-26T07:35:00Z</time>
      </trkpt>
      <trkpt lat="44.27802" lon="0.70966">
        <ele>168</ele>
        <time>2022-05-26T07:35:04Z</time>
      </trkpt>
      <trkpt lat="44.27811" lon="0.70953">
        <ele>168.8</ele>
        <time>2022-05-26T07:35:08Z</time>
      </trkpt>
      <trkpt lat="44.27821" lon="0.70941">
        <ele>169</ele>
        <time>2022-05-26T07:35:12Z</time>
      </trkpt>
      <trkpt lat="44.2783" lon="0.70928">
        <ele>169.2</ele>
        <time>2022-05-26T07:35:16Z</time>
      </trkpt>
      <trkpt lat="44.2784" lon="0.70915">
        <ele>169.6</ele>
        <time>2022-05-26T07:35:20Z</time>
      </trkpt>
      <trkpt lat="44.27849" lon="0.70903">
        <ele>169.6</ele>
        <time>2022-05-26T07:35:24Z</time>
      </trkpt>
      <trkpt lat="44.27857" lon="0.7089">
        <ele>170.6</ele>
        <time>2022-05-26T07:35:28Z</time>
      </trkpt>
      <trkpt lat="44.27865" lon="0.70876">
        <ele>170.8</ele>
        <time>2022-05-26T07:35:32Z</time>
      </trkpt>
      <trkpt lat="44.27874" lon="0.70865">
        <ele>171.2</ele>
        <time>2022-05-26T07:35:36Z</time>
      </trkpt>
      <trkpt lat="44.27884" lon="0.70855">
        <ele>172.2</ele>
        <time>2022-05-26T07:35:40Z</time>
      </trkpt>
      <trkpt lat="44.27893" lon="0.70844">
        <ele>172.4</ele>
        <time>2022-05-26T07:35:44Z</time>
      </trkpt>
      <trkpt lat="44.27903" lon="0.70832">
        <ele>173</ele>
        <time>2022-05-26T07:35:48Z</time>
      </trkpt>
      <trkpt lat="44.27911" lon="0.70822">
        <ele>174.8</ele>
        <time>2022-05-26T07:35:52Z</time>
      </trkpt>
      <trkpt lat="44.2792" lon="0.70812">
        <ele>175</ele>
        <time>2022-05-26T07:35:56Z</time>
      </trkpt>
      <trkpt lat="44.2793" lon="0.70798">
        <ele>175.2</ele>
        <time>2022-05-26T07:36:00Z</time>
      </trkpt>
      <trkpt lat="44.27936" lon="0.70784">
        <ele>176.2</ele>
        <time>2022-05-26T07:36:04Z</time>
      </trkpt>
      <trkpt lat="44.27943" lon="0.70772">
        <ele>177.2</ele>
        <time>2022-05-26T07:36:08Z</time>
      </trkpt>
      <trkpt lat="44.2795" lon="0.70761">
        <ele>178.2</ele>
        <time>2022-05-26T07:36:12Z</time>
      </trkpt>
      <trkpt lat="44.27959" lon="0.70751">
        <ele>178.2</ele>
        <time>2022-05-26T07:36:16Z</time>
      </trkpt>
      <trkpt lat="44.2797" lon="0.7074">
        <ele>177.8</ele>
        <time>2022-05-26T07:36:20Z</time>
      </trkpt>
      <trkpt lat="44.27982" lon="0.70729">
        <ele>177.2</ele>
        <time>2022-05-26T07:36:24Z</time>
      </trkpt>
      <trkpt lat="44.27995" lon="0.70717">
        <ele>176.8</ele>
        <time>2022-05-26T07:36:28Z</time>
      </trkpt>
      <trkpt lat="44.28008" lon="0.70707">
        <ele>177.6</ele>
        <time>2022-05-26T07:36:32Z</time>
      </trkpt>
      <trkpt lat="44.28021" lon="0.70697">
        <ele>177.6</ele>
        <time>2022-05-26T07:36:36Z</time>
      </trkpt>
      <trkpt lat="44.28033" lon="0.70687">
        <ele>178.6</ele>
        <time>2022-05-26T07:36:40Z</time>
      </trkpt>
      <trkpt lat="44.28044" lon="0.70679">
        <ele>179.6</ele>
        <time>2022-05-26T07:36:44Z</time>
      </trkpt>
      <trkpt lat="44.28055" lon="0.70671">
        <ele>180</ele>
        <time>2022-05-26T07:36:48Z</time>
      </trkpt>
      <trkpt lat="44.28066" lon="0.70664">
        <ele>181</ele>
        <time>2022-05-26T07:36:52Z</time>
      </trkpt>
      <trkpt lat="44.28079" lon="0.70656">
        <ele>181.8</ele>
        <time>2022-05-26T07:36:56Z</time>
      </trkpt>
      <trkpt lat="44.28093" lon="0.70646">
        <ele>181</ele>
        <time>2022-05-26T07:37:00Z</time>
      </trkpt>
      <trkpt lat="44.28109" lon="0.70634">
        <ele>180</ele>
        <time>2022-05-26T07:37:04Z</time>
      </trkpt>
      <trkpt lat="44.28125" lon="0.70622">
        <ele>179.6</ele>
        <time>2022-05-26T07:37:08Z</time>
      </trkpt>
      <trkpt lat="44.2814" lon="0.7061">
        <ele>179</ele>
        <time>2022-05-26T07:37:12Z</time>
      </trkpt>
      <trkpt lat="44.28156" lon="0.70597">
        <ele>179.4</ele>
        <time>2022-05-26T07:37:16Z</time>
      </trkpt>
      <trkpt lat="44.28172" lon="0.70583">
        <ele>179.4</ele>
        <time>2022-05-26T07:37:20Z</time>
      </trkpt>
      <trkpt lat="44.28187" lon="0.70567">
        <ele>179.4</ele>
        <time>2022-05-26T07:37:24Z</time>
      </trkpt>
      <trkpt lat="44.28201" lon="0.70553">
        <ele>179.4</ele>
        <time>2022-05-26T07:37:28Z</time>
      </trkpt>
      <trkpt lat="44.28215" lon="0.70538">
        <ele>180.6</ele>
        <time>2022-05-26T07:37:32Z</time>
      </trkpt>
      <trkpt lat="44.28227" lon="0.70525">
        <ele>180.6</ele>
        <time>2022-05-26T07:37:36Z</time>
      </trkpt>
      <trkpt lat="44.2824" lon="0.70508">
        <ele>181</ele>
        <time>2022-05-26T07:37:40Z</time>
      </trkpt>
      <trkpt lat="44.28254" lon="0.70494">
        <ele>181.6</ele>
        <time>2022-05-26T07:37:44Z</time>
      </trkpt>
      <trkpt lat="44.28264" lon="0.70477">
        <ele>182.2</ele>
        <time>2022-05-26T07:37:48Z</time>
      </trkpt>
      <trkpt lat="44.28274" lon="0.70459">
        <ele>182.6</ele>
        <time>2022-05-26T07:37:52Z</time>
      </trkpt>
      <trkpt lat="44.28282" lon="0.70441">
        <ele>182.8</ele>
        <time>2022-05-26T07:37:56Z</time>
      </trkpt>
      <trkpt lat="44.2829" lon="0.70424">
        <ele>182.8</ele>
        <time>2022-05-26T07:38:00Z</time>
      </trkpt>
      <trkpt lat="44.28299" lon="0.70403">
        <ele>182.6</ele>
        <time>2022-05-26T07:38:04Z</time>
      </trkpt>
      <trkpt lat="44.28308" lon="0.70378">
        <ele>181.4</ele>
        <time>2022-05-26T07:38:08Z</time>
      </trkpt>
      <trkpt lat="44.28324" lon="0.70351">
        <ele>179.2</ele>
        <time>2022-05-26T07:38:12Z</time>
      </trkpt>
      <trkpt lat="44.28347" lon="0.70328">
        <ele>176.4</ele>
        <time>2022-05-26T07:38:16Z</time>
      </trkpt>
      <trkpt lat="44.28366" lon="0.70321">
        <ele>177.6</ele>
        <time>2022-05-26T07:38:20Z</time>
      </trkpt>
      <trkpt lat="44.28381" lon="0.70316">
        <ele>179.8</ele>
        <time>2022-05-26T07:38:24Z</time>
      </trkpt>
      <trkpt lat="44.28397" lon="0.70313">
        <ele>180.6</ele>
        <time>2022-05-26T07:38:28Z</time>
      </trkpt>
      <trkpt lat="44.28414" lon="0.70311">
        <ele>180.8</ele>
        <time>2022-05-26T07:38:32Z</time>
      </trkpt>
      <trkpt lat="44.2843" lon="0.7031">
        <ele>181.4</ele>
        <time>2022-05-26T07:38:36Z</time>
      </trkpt>
      <trkpt lat="44.28447" lon="0.7031">
        <ele>181.4</ele>
        <time>2022-05-26T07:38:40Z</time>
      </trkpt>
      <trkpt lat="44.28463" lon="0.70313">
        <ele>181.4</ele>
        <time>2022-05-26T07:38:44Z</time>
      </trkpt>
      <trkpt lat="44.28477" lon="0.70318">
        <ele>182.4</ele>
        <time>2022-05-26T07:38:48Z</time>
      </trkpt>
      <trkpt lat="44.28488" lon="0.70316">
        <ele>183.2</ele>
        <time>2022-05-26T07:38:52Z</time>
      </trkpt>
      <trkpt lat="44.28498" lon="0.70308">
        <ele>182.6</ele>
        <time>2022-05-26T07:38:56Z</time>
      </trkpt>
      <trkpt lat="44.28508" lon="0.703">
        <ele>182.8</ele>
        <time>2022-05-26T07:39:00Z</time>
      </trkpt>
      <trkpt lat="44.28521" lon="0.70289">
        <ele>180.6</ele>
        <time>2022-05-26T07:39:04Z</time>
      </trkpt>
      <trkpt lat="44.2854" lon="0.70273">
        <ele>179.6</ele>
        <time>2022-05-26T07:39:08Z</time>
      </trkpt>
      <trkpt lat="44.28556" lon="0.70246">
        <ele>179.6</ele>
        <time>2022-05-26T07:39:12Z</time>
      </trkpt>
      <trkpt lat="44.28572" lon="0.70231">
        <ele>179.4</ele>
        <time>2022-05-26T07:39:16Z</time>
      </trkpt>
      <trkpt lat="44.28584" lon="0.70217">
        <ele>181.4</ele>
        <time>2022-05-26T07:39:20Z</time>
      </trkpt>
      <trkpt lat="44.28592" lon="0.70211">
        <ele>183.4</ele>
        <time>2022-05-26T07:39:24Z</time>
      </trkpt>
      <trkpt lat="44.286" lon="0.7021">
        <ele>186.6</ele>
        <time>2022-05-26T07:39:28Z</time>
      </trkpt>
      <trkpt lat="44.28609" lon="0.70209">
        <ele>187.6</ele>
        <time>2022-05-26T07:39:32Z</time>
      </trkpt>
      <trkpt lat="44.28617" lon="0.70208">
        <ele>189.2</ele>
        <time>2022-05-26T07:39:36Z</time>
      </trkpt>
      <trkpt lat="44.28626" lon="0.70206">
        <ele>189.8</ele>
        <time>2022-05-26T07:39:40Z</time>
      </trkpt>
      <trkpt lat="44.28638" lon="0.70204">
        <ele>190.8</ele>
        <time>2022-05-26T07:39:44Z</time>
      </trkpt>
      <trkpt lat="44.28646" lon="0.70204">
        <ele>192</ele>
        <time>2022-05-26T07:39:48Z</time>
      </trkpt>
      <trkpt lat="44.28653" lon="0.70204">
        <ele>193</ele>
        <time>2022-05-26T07:39:52Z</time>
      </trkpt>
      <trkpt lat="44.28659" lon="0.70204">
        <ele>194.2</ele>
        <time>2022-05-26T07:39:56Z</time>
      </trkpt>
      <trkpt lat="44.28665" lon="0.70206">
        <ele>195.2</ele>
        <time>2022-05-26T07:40:00Z</time>
      </trkpt>
      <trkpt lat="44.28673" lon="0.70208">
        <ele>196.8</ele>
        <time>2022-05-26T07:40:04Z</time>
      </trkpt>
      <trkpt lat="44.28679" lon="0.70216">
        <ele>196.2</ele>
        <time>2022-05-26T07:40:08Z</time>
      </trkpt>
      <trkpt lat="44.28689" lon="0.70223">
        <ele>195.8</ele>
        <time>2022-05-26T07:40:12Z</time>
      </trkpt>
      <trkpt lat="44.28699" lon="0.70228">
        <ele>195.8</ele>
        <time>2022-05-26T07:40:16Z</time>
      </trkpt>
      <trkpt lat="44.28707" lon="0.70232">
        <ele>195.8</ele>
        <time>2022-05-26T07:40:20Z</time>
      </trkpt>
      <trkpt lat="44.28718" lon="0.70237">
        <ele>195.6</ele>
        <time>2022-05-26T07:40:24Z</time>
      </trkpt>
      <trkpt lat="44.28734" lon="0.70244">
        <ele>193.4</ele>
        <time>2022-05-26T07:40:28Z</time>
      </trkpt>
      <trkpt lat="44.2875" lon="0.70245">
        <ele>192.2</ele>
        <time>2022-05-26T07:40:32Z</time>
      </trkpt>
      <trkpt lat="44.28763" lon="0.70245">
        <ele>194.2</ele>
        <time>2022-05-26T07:40:36Z</time>
      </trkpt>
      <trkpt lat="44.28774" lon="0.70245">
        <ele>193.8</ele>
        <time>2022-05-26T07:40:40Z</time>
      </trkpt>
      <trkpt lat="44.28783" lon="0.70242">
        <ele>194.6</ele>
        <time>2022-05-26T07:40:44Z</time>
      </trkpt>
      <trkpt lat="44.28797" lon="0.7024">
        <ele>193.4</ele>
        <time>2022-05-26T07:40:48Z</time>
      </trkpt>
      <trkpt lat="44.28811" lon="0.70239">
        <ele>193</ele>
        <time>2022-05-26T07:40:52Z</time>
      </trkpt>
      <trkpt lat="44.28821" lon="0.70237">
        <ele>193.8</ele>
        <time>2022-05-26T07:40:56Z</time>
      </trkpt>
      <trkpt lat="44.28832" lon="0.70235">
        <ele>194.2</ele>
        <time>2022-05-26T07:41:00Z</time>
      </trkpt>
      <trkpt lat="44.28843" lon="0.70232">
        <ele>195.8</ele>
        <time>2022-05-26T07:41:04Z</time>
      </trkpt>
      <trkpt lat="44.28856" lon="0.70227">
        <ele>195.4</ele>
        <time>2022-05-26T07:41:08Z</time>
      </trkpt>
      <trkpt lat="44.28867" lon="0.70223">
        <ele>196.2</ele>
        <time>2022-05-26T07:41:12Z</time>
      </trkpt>
      <trkpt lat="44.28883" lon="0.70216">
        <ele>196.8</ele>
        <time>2022-05-26T07:41:16Z</time>
      </trkpt>
      <trkpt lat="44.28891" lon="0.7022">
        <ele>197.4</ele>
        <time>2022-05-26T07:41:20Z</time>
      </trkpt>
      <trkpt lat="44.289" lon="0.70232">
        <ele>196.8</ele>
        <time>2022-05-26T07:41:24Z</time>
      </trkpt>
      <trkpt lat="44.28906" lon="0.7025">
        <ele>194.4</ele>
        <time>2022-05-26T07:41:28Z</time>
      </trkpt>
      <trkpt lat="44.28911" lon="0.70273">
        <ele>192.2</ele>
        <time>2022-05-26T07:41:32Z</time>
      </trkpt>
      <trkpt lat="44.28927" lon="0.70283">
        <ele>192</ele>
        <time>2022-05-26T07:41:36Z</time>
      </trkpt>
      <trkpt lat="44.28938" lon="0.70285">
        <ele>192.4</ele>
        <time>2022-05-26T07:41:40Z</time>
      </trkpt>
      <trkpt lat="44.28947" lon="0.70286">
        <ele>193.2</ele>
        <time>2022-05-26T07:41:44Z</time>
      </trkpt>
      <trkpt lat="44.28957" lon="0.70287">
        <ele>194.4</ele>
        <time>2022-05-26T07:41:48Z</time>
      </trkpt>
      <trkpt lat="44.28967" lon="0.70289">
        <ele>194.8</ele>
        <time>2022-05-26T07:41:52Z</time>
      </trkpt>
      <trkpt lat="44.28981" lon="0.70294">
        <ele>195.4</ele>
        <time>2022-05-26T07:41:56Z</time>
      </trkpt>
      <trkpt lat="44.28996" lon="0.70297">
        <ele>195.2</ele>
        <time>2022-05-26T07:42:00Z</time>
      </trkpt>
      <trkpt lat="44.29005" lon="0.70299">
        <ele>196</ele>
        <time>2022-05-26T07:42:04Z</time>
      </trkpt>
      <trkpt lat="44.29018" lon="0.70304">
        <ele>196.2</ele>
        <time>2022-05-26T07:42:08Z</time>
      </trkpt>
      <trkpt lat="44.2903" lon="0.70309">
        <ele>196.8</ele>
        <time>2022-05-26T07:42:12Z</time>
      </trkpt>
      <trkpt lat="44.29037" lon="0.70309">
        <ele>196.6</ele>
        <time>2022-05-26T07:42:16Z</time>
      </trkpt>
      <trkpt lat="44.29047" lon="0.70307">
        <ele>198.2</ele>
        <time>2022-05-26T07:42:20Z</time>
      </trkpt>
      <trkpt lat="44.29056" lon="0.70305">
        <ele>198.6</ele>
        <time>2022-05-26T07:42:24Z</time>
      </trkpt>
      <trkpt lat="44.29063" lon="0.70301">
        <ele>199.6</ele>
        <time>2022-05-26T07:42:28Z</time>
      </trkpt>
      <trkpt lat="44.29073" lon="0.70295">
        <ele>200.2</ele>
        <time>2022-05-26T07:42:32Z</time>
      </trkpt>
      <trkpt lat="44.29082" lon="0.70293">
        <ele>199.6</ele>
        <time>2022-05-26T07:42:36Z</time>
      </trkpt>
      <trkpt lat="44.29091" lon="0.70288">
        <ele>200</ele>
        <time>2022-05-26T07:42:40Z</time>
      </trkpt>
      <trkpt lat="44.29102" lon="0.70283">
        <ele>201</ele>
        <time>2022-05-26T07:42:44Z</time>
      </trkpt>
      <trkpt lat="44.2911" lon="0.70275">
        <ele>201.2</ele>
        <time>2022-05-26T07:42:48Z</time>
      </trkpt>
      <trkpt lat="44.29121" lon="0.70269">
        <ele>202</ele>
        <time>2022-05-26T07:42:52Z</time>
      </trkpt>
      <trkpt lat="44.2913" lon="0.70263">
        <ele>202</ele>
        <time>2022-05-26T07:42:56Z</time>
      </trkpt>
      <trkpt lat="44.29137" lon="0.70259">
        <ele>203.2</ele>
        <time>2022-05-26T07:43:00Z</time>
      </trkpt>
      <trkpt lat="44.29147" lon="0.70252">
        <ele>203.6</ele>
        <time>2022-05-26T07:43:04Z</time>
      </trkpt>
      <trkpt lat="44.29154" lon="0.70245">
        <ele>204.2</ele>
        <time>2022-05-26T07:43:08Z</time>
      </trkpt>
      <trkpt lat="44.29162" lon="0.7024">
        <ele>205.4</ele>
        <time>2022-05-26T07:43:12Z</time>
      </trkpt>
      <trkpt lat="44.2917" lon="0.70235">
        <ele>206.2</ele>
        <time>2022-05-26T07:43:16Z</time>
      </trkpt>
      <trkpt lat="44.29178" lon="0.70227">
        <ele>207.6</ele>
        <time>2022-05-26T07:43:20Z</time>
      </trkpt>
      <trkpt lat="44.29187" lon="0.70219">
        <ele>207.8</ele>
        <time>2022-05-26T07:43:24Z</time>
      </trkpt>
      <trkpt lat="44.29193" lon="0.70212">
        <ele>208.4</ele>
        <time>2022-05-26T07:43:28Z</time>
      </trkpt>
      <trkpt lat="44.29201" lon="0.70202">
        <ele>209</ele>
        <time>2022-05-26T07:43:32Z</time>
      </trkpt>
      <trkpt lat="44.29209" lon="0.70192">
        <ele>209.2</ele>
        <time>2022-05-26T07:43:36Z</time>
      </trkpt>
      <trkpt lat="44.29217" lon="0.70181">
        <ele>209.8</ele>
        <time>2022-05-26T07:43:40Z</time>
      </trkpt>
      <trkpt lat="44.29226" lon="0.7017">
        <ele>210.6</ele>
        <time>2022-05-26T07:43:44Z</time>
      </trkpt>
      <trkpt lat="44.29236" lon="0.70159">
        <ele>210.8</ele>
        <time>2022-05-26T07:43:48Z</time>
      </trkpt>
      <trkpt lat="44.29244" lon="0.70148">
        <ele>211.8</ele>
        <time>2022-05-26T07:43:52Z</time>
      </trkpt>
      <trkpt lat="44.29253" lon="0.70139">
        <ele>211.8</ele>
        <time>2022-05-26T07:43:56Z</time>
      </trkpt>
      <trkpt lat="44.29262" lon="0.70127">
        <ele>211.8</ele>
        <time>2022-05-26T07:44:00Z</time>
      </trkpt>
      <trkpt lat="44.29266" lon="0.70116">
        <ele>213.2</ele>
        <time>2022-05-26T07:44:04Z</time>
      </trkpt>
      <trkpt lat="44.2927" lon="0.70104">
        <ele>213.6</ele>
        <time>2022-05-26T07:44:08Z</time>
      </trkpt>
      <trkpt lat="44.29273" lon="0.70096">
        <ele>214.2</ele>
        <time>2022-05-26T07:44:12Z</time>
      </trkpt>
      <trkpt lat="44.29276" lon="0.70088">
        <ele>215</ele>
        <time>2022-05-26T07:44:16Z</time>
      </trkpt>
      <trkpt lat="44.29276" lon="0.70084">
        <ele>215.6</ele>
        <time>2022-05-26T07:44:20Z</time>
      </trkpt>
      <trkpt lat="44.29278" lon="0.70076">
        <ele>216</ele>
        <time>2022-05-26T07:44:24Z</time>
      </trkpt>
      <trkpt lat="44.29278" lon="0.70076">
        <ele>217</ele>
        <time>2022-05-26T07:44:28Z</time>
      </trkpt>
      <trkpt lat="44.29277" lon="0.70068">
        <ele>216</ele>
        <time>2022-05-26T07:44:32Z</time>
      </trkpt>
      <trkpt lat="44.29279" lon="0.70063">
        <ele>216.2</ele>
        <time>2022-05-26T07:44:36Z</time>
      </trkpt>
      <trkpt lat="44.29281" lon="0.70056">
        <ele>216.8</ele>
        <time>2022-05-26T07:44:40Z</time>
      </trkpt>
      <trkpt lat="44.2928" lon="0.7005">
        <ele>217.8</ele>
        <time>2022-05-26T07:44:44Z</time>
      </trkpt>
      <trkpt lat="44.29284" lon="0.70027">
        <ele>219.4</ele>
        <time>2022-05-26T07:45:09Z</time>
      </trkpt>
      <trkpt lat="44.29286" lon="0.70019">
        <ele>220.2</ele>
        <time>2022-05-26T07:45:13Z</time>
      </trkpt>
      <trkpt lat="44.29288" lon="0.70011">
        <ele>220.2</ele>
        <time>2022-05-26T07:45:17Z</time>
      </trkpt>
      <trkpt lat="44.29294" lon="0.70003">
        <ele>219.8</ele>
        <time>2022-05-26T07:45:21Z</time>
      </trkpt>
      <trkpt lat="44.29298" lon="0.69997">
        <ele>221.4</ele>
        <time>2022-05-26T07:45:25Z</time>
      </trkpt>
      <trkpt lat="44.29302" lon="0.69992">
        <ele>221.4</ele>
        <time>2022-05-26T07:45:29Z</time>
      </trkpt>
      <trkpt lat="44.29317" lon="0.69932">
        <ele>226.4</ele>
        <time>2022-05-26T07:46:34Z</time>
      </trkpt>
      <trkpt lat="44.29321" lon="0.69922">
        <ele>226.6</ele>
        <time>2022-05-26T07:46:38Z</time>
      </trkpt>
      <trkpt lat="44.29325" lon="0.69911">
        <ele>227.6</ele>
        <time>2022-05-26T07:46:42Z</time>
      </trkpt>
      <trkpt lat="44.2933" lon="0.69902">
        <ele>227.8</ele>
        <time>2022-05-26T07:46:46Z</time>
      </trkpt>
      <trkpt lat="44.29334" lon="0.69895">
        <ele>227.8</ele>
        <time>2022-05-26T07:46:50Z</time>
      </trkpt>
      <trkpt lat="44.29335" lon="0.6989">
        <ele>228.6</ele>
        <time>2022-05-26T07:46:54Z</time>
      </trkpt>
      <trkpt lat="44.29336" lon="0.69883">
        <ele>228.8</ele>
        <time>2022-05-26T07:46:58Z</time>
      </trkpt>
      <trkpt lat="44.29333" lon="0.69879">
        <ele>229.6</ele>
        <time>2022-05-26T07:47:02Z</time>
      </trkpt>
      <trkpt lat="44.29328" lon="0.6988">
        <ele>229.6</ele>
        <time>2022-05-26T07:47:06Z</time>
      </trkpt>
      <trkpt lat="44.29324" lon="0.69881">
        <ele>230</ele>
        <time>2022-05-26T07:47:10Z</time>
      </trkpt>
      <trkpt lat="44.2932" lon="0.69884">
        <ele>231.2</ele>
        <time>2022-05-26T07:47:14Z</time>
      </trkpt>
      <trkpt lat="44.29314" lon="0.69888">
        <ele>231.6</ele>
        <time>2022-05-26T07:47:18Z</time>
      </trkpt>
      <trkpt lat="44.29309" lon="0.69893">
        <ele>232.4</ele>
        <time>2022-05-26T07:47:22Z</time>
      </trkpt>
      <trkpt lat="44.29302" lon="0.69897">
        <ele>233.2</ele>
        <time>2022-05-26T07:47:26Z</time>
      </trkpt>
      <trkpt lat="44.29296" lon="0.699">
        <ele>234.2</ele>
        <time>2022-05-26T07:47:30Z</time>
      </trkpt>
      <trkpt lat="44.29291" lon="0.69902">
        <ele>234.8</ele>
        <time>2022-05-26T07:47:34Z</time>
      </trkpt>
      <trkpt lat="44.29286" lon="0.69904">
        <ele>235.8</ele>
        <time>2022-05-26T07:47:38Z</time>
      </trkpt>
      <trkpt lat="44.29281" lon="0.69906">
        <ele>236.8</ele>
        <time>2022-05-26T07:47:42Z</time>
      </trkpt>
      <trkpt lat="44.29276" lon="0.69909">
        <ele>237.6</ele>
        <time>2022-05-26T07:47:46Z</time>
      </trkpt>
      <trkpt lat="44.29271" lon="0.69913">
        <ele>238.6</ele>
        <time>2022-05-26T07:47:50Z</time>
      </trkpt>
      <trkpt lat="44.29264" lon="0.69917">
        <ele>240</ele>
        <time>2022-05-26T07:47:54Z</time>
      </trkpt>
      <trkpt lat="44.29257" lon="0.69918">
        <ele>241.2</ele>
        <time>2022-05-26T07:47:58Z</time>
      </trkpt>
      <trkpt lat="44.29255" lon="0.69913">
        <ele>242.4</ele>
        <time>2022-05-26T07:48:02Z</time>
      </trkpt>
      <trkpt lat="44.29252" lon="0.69908">
        <ele>243.4</ele>
        <time>2022-05-26T07:48:06Z</time>
      </trkpt>
      <trkpt lat="44.29251" lon="0.69902">
        <ele>244.4</ele>
        <time>2022-05-26T07:48:10Z</time>
      </trkpt>
      <trkpt lat="44.29254" lon="0.69898">
        <ele>245.4</ele>
        <time>2022-05-26T07:48:14Z</time>
      </trkpt>
      <trkpt lat="44.29257" lon="0.69894">
        <ele>246</ele>
        <time>2022-05-26T07:48:18Z</time>
      </trkpt>
      <trkpt lat="44.29261" lon="0.6989">
        <ele>247.6</ele>
        <time>2022-05-26T07:48:22Z</time>
      </trkpt>
      <trkpt lat="44.29265" lon="0.69885">
        <ele>248.2</ele>
        <time>2022-05-26T07:48:26Z</time>
      </trkpt>
      <trkpt lat="44.29267" lon="0.69879">
        <ele>248.8</ele>
        <time>2022-05-26T07:48:30Z</time>
      </trkpt>
      <trkpt lat="44.29271" lon="0.69873">
        <ele>250</ele>
        <time>2022-05-26T07:48:34Z</time>
      </trkpt>
      <trkpt lat="44.29274" lon="0.69866">
        <ele>250</ele>
        <time>2022-05-26T07:48:38Z</time>
      </trkpt>
      <trkpt lat="44.29278" lon="0.6986">
        <ele>250.4</ele>
        <time>2022-05-26T07:48:42Z</time>
      </trkpt>
      <trkpt lat="44.2928" lon="0.69855">
        <ele>251</ele>
        <time>2022-05-26T07:48:46Z</time>
      </trkpt>
      <trkpt lat="44.29285" lon="0.6985">
        <ele>251</ele>
        <time>2022-05-26T07:48:50Z</time>
      </trkpt>
      <trkpt lat="44.29289" lon="0.69844">
        <ele>251.4</ele>
        <time>2022-05-26T07:48:54Z</time>
      </trkpt>
      <trkpt lat="44.29294" lon="0.69837">
        <ele>251.2</ele>
        <time>2022-05-26T07:48:58Z</time>
      </trkpt>
      <trkpt lat="44.29298" lon="0.6983">
        <ele>251.6</ele>
        <time>2022-05-26T07:49:02Z</time>
      </trkpt>
      <trkpt lat="44.29303" lon="0.69824">
        <ele>252</ele>
        <time>2022-05-26T07:49:06Z</time>
      </trkpt>
      <trkpt lat="44.29307" lon="0.69817">
        <ele>252.8</ele>
        <time>2022-05-26T07:49:10Z</time>
      </trkpt>
      <trkpt lat="44.29313" lon="0.69807">
        <ele>251.4</ele>
        <time>2022-05-26T07:49:14Z</time>
      </trkpt>
      <trkpt lat="44.29318" lon="0.698">
        <ele>253.6</ele>
        <time>2022-05-26T07:49:18Z</time>
      </trkpt>
      <trkpt lat="44.29325" lon="0.69794">
        <ele>254.4</ele>
        <time>2022-05-26T07:49:22Z</time>
      </trkpt>
      <trkpt lat="44.29331" lon="0.69791">
        <ele>255.4</ele>
        <time>2022-05-26T07:49:26Z</time>
      </trkpt>
      <trkpt lat="44.29337" lon="0.69787">
        <ele>256.4</ele>
        <time>2022-05-26T07:49:30Z</time>
      </trkpt>
      <trkpt lat="44.29346" lon="0.69783">
        <ele>257.4</ele>
        <time>2022-05-26T07:49:34Z</time>
      </trkpt>
      <trkpt lat="44.29354" lon="0.6978">
        <ele>257.4</ele>
        <time>2022-05-26T07:49:38Z</time>
      </trkpt>
      <trkpt lat="44.29369" lon="0.69784">
        <ele>257.8</ele>
        <time>2022-05-26T07:50:26Z</time>
      </trkpt>
      <trkpt lat="44.29376" lon="0.6979">
        <ele>257.8</ele>
        <time>2022-05-26T07:50:30Z</time>
      </trkpt>
      <trkpt lat="44.29384" lon="0.69796">
        <ele>258.2</ele>
        <time>2022-05-26T07:50:34Z</time>
      </trkpt>
      <trkpt lat="44.29391" lon="0.69802">
        <ele>258.6</ele>
        <time>2022-05-26T07:50:38Z</time>
      </trkpt>
      <trkpt lat="44.29398" lon="0.69806">
        <ele>259.4</ele>
        <time>2022-05-26T07:50:42Z</time>
      </trkpt>
      <trkpt lat="44.29405" lon="0.6981">
        <ele>259.8</ele>
        <time>2022-05-26T07:50:46Z</time>
      </trkpt>
      <trkpt lat="44.29412" lon="0.69809">
        <ele>260.6</ele>
        <time>2022-05-26T07:50:50Z</time>
      </trkpt>
      <trkpt lat="44.29419" lon="0.69805">
        <ele>260.8</ele>
        <time>2022-05-26T07:50:54Z</time>
      </trkpt>
      <trkpt lat="44.29428" lon="0.698">
        <ele>259.4</ele>
        <time>2022-05-26T07:50:58Z</time>
      </trkpt>
      <trkpt lat="44.29443" lon="0.69793">
        <ele>257.4</ele>
        <time>2022-05-26T07:51:02Z</time>
      </trkpt>
      <trkpt lat="44.29461" lon="0.69785">
        <ele>257.6</ele>
        <time>2022-05-26T07:51:06Z</time>
      </trkpt>
      <trkpt lat="44.29475" lon="0.69776">
        <ele>258.4</ele>
        <time>2022-05-26T07:51:10Z</time>
      </trkpt>
      <trkpt lat="44.29485" lon="0.69768">
        <ele>260</ele>
        <time>2022-05-26T07:51:14Z</time>
      </trkpt>
      <trkpt lat="44.29496" lon="0.69764">
        <ele>260.4</ele>
        <time>2022-05-26T07:51:18Z</time>
      </trkpt>
      <trkpt lat="44.29506" lon="0.69759">
        <ele>260.8</ele>
        <time>2022-05-26T07:51:22Z</time>
      </trkpt>
      <trkpt lat="44.29515" lon="0.69754">
        <ele>261.4</ele>
        <time>2022-05-26T07:51:26Z</time>
      </trkpt>
      <trkpt lat="44.29522" lon="0.69747">
        <ele>262</ele>
        <time>2022-05-26T07:51:30Z</time>
      </trkpt>
      <trkpt lat="44.29529" lon="0.69739">
        <ele>262.2</ele>
        <time>2022-05-26T07:51:34Z</time>
      </trkpt>
      <trkpt lat="44.29537" lon="0.69731">
        <ele>262.6</ele>
        <time>2022-05-26T07:51:38Z</time>
      </trkpt>
      <trkpt lat="44.29544" lon="0.69721">
        <ele>263.4</ele>
        <time>2022-05-26T07:51:42Z</time>
      </trkpt>
      <trkpt lat="44.2955" lon="0.69709">
        <ele>262.6</ele>
        <time>2022-05-26T07:51:46Z</time>
      </trkpt>
      <trkpt lat="44.29552" lon="0.69694">
        <ele>262.4</ele>
        <time>2022-05-26T07:51:50Z</time>
      </trkpt>
      <trkpt lat="44.29555" lon="0.69679">
        <ele>262</ele>
        <time>2022-05-26T07:51:54Z</time>
      </trkpt>
      <trkpt lat="44.29564" lon="0.69671">
        <ele>261.2</ele>
        <time>2022-05-26T07:51:58Z</time>
      </trkpt>
      <trkpt lat="44.29571" lon="0.69661">
        <ele>261.8</ele>
        <time>2022-05-26T07:52:02Z</time>
      </trkpt>
      <trkpt lat="44.2958" lon="0.69649">
        <ele>261.8</ele>
        <time>2022-05-26T07:52:06Z</time>
      </trkpt>
      <trkpt lat="44.29588" lon="0.69632">
        <ele>260.8</ele>
        <time>2022-05-26T07:52:10Z</time>
      </trkpt>
      <trkpt lat="44.29599" lon="0.69613">
        <ele>260.2</ele>
        <time>2022-05-26T07:52:14Z</time>
      </trkpt>
      <trkpt lat="44.2961" lon="0.69596">
        <ele>260.4</ele>
        <time>2022-05-26T07:52:18Z</time>
      </trkpt>
      <trkpt lat="44.2962" lon="0.69586">
        <ele>260.2</ele>
        <time>2022-05-26T07:52:22Z</time>
      </trkpt>
      <trkpt lat="44.29636" lon="0.69584">
        <ele>258.8</ele>
        <time>2022-05-26T07:52:26Z</time>
      </trkpt>
      <trkpt lat="44.29648" lon="0.69592">
        <ele>259.6</ele>
        <time>2022-05-26T07:52:30Z</time>
      </trkpt>
      <trkpt lat="44.29663" lon="0.69602">
        <ele>259.6</ele>
        <time>2022-05-26T07:52:34Z</time>
      </trkpt>
      <trkpt lat="44.29676" lon="0.69611">
        <ele>258.8</ele>
        <time>2022-05-26T07:52:38Z</time>
      </trkpt>
      <trkpt lat="44.29688" lon="0.69623">
        <ele>259.4</ele>
        <time>2022-05-26T07:52:42Z</time>
      </trkpt>
      <trkpt lat="44.297" lon="0.69633">
        <ele>259.6</ele>
        <time>2022-05-26T07:52:46Z</time>
      </trkpt>
      <trkpt lat="44.29713" lon="0.69642">
        <ele>260.2</ele>
        <time>2022-05-26T07:52:50Z</time>
      </trkpt>
      <trkpt lat="44.29725" lon="0.69651">
        <ele>259.8</ele>
        <time>2022-05-26T07:52:54Z</time>
      </trkpt>
      <trkpt lat="44.29737" lon="0.69661">
        <ele>260.6</ele>
        <time>2022-05-26T07:52:58Z</time>
      </trkpt>
      <trkpt lat="44.29749" lon="0.69672">
        <ele>261.6</ele>
        <time>2022-05-26T07:53:02Z</time>
      </trkpt>
      <trkpt lat="44.29761" lon="0.69682">
        <ele>262.4</ele>
        <time>2022-05-26T07:53:06Z</time>
      </trkpt>
      <trkpt lat="44.29771" lon="0.69691">
        <ele>263</ele>
        <time>2022-05-26T07:53:10Z</time>
      </trkpt>
      <trkpt lat="44.29781" lon="0.69701">
        <ele>262.8</ele>
        <time>2022-05-26T07:53:14Z</time>
      </trkpt>
      <trkpt lat="44.2979" lon="0.69712">
        <ele>263.8</ele>
        <time>2022-05-26T07:53:18Z</time>
      </trkpt>
      <trkpt lat="44.298" lon="0.69723">
        <ele>263.4</ele>
        <time>2022-05-26T07:53:22Z</time>
      </trkpt>
      <trkpt lat="44.29813" lon="0.69736">
        <ele>262.6</ele>
        <time>2022-05-26T07:53:26Z</time>
      </trkpt>
      <trkpt lat="44.29826" lon="0.6975">
        <ele>261.8</ele>
        <time>2022-05-26T07:53:30Z</time>
      </trkpt>
      <trkpt lat="44.2984" lon="0.69762">
        <ele>261</ele>
        <time>2022-05-26T07:53:34Z</time>
      </trkpt>
      <trkpt lat="44.29854" lon="0.69772">
        <ele>262.4</ele>
        <time>2022-05-26T07:53:38Z</time>
      </trkpt>
      <trkpt lat="44.29867" lon="0.69782">
        <ele>263.4</ele>
        <time>2022-05-26T07:53:42Z</time>
      </trkpt>
      <trkpt lat="44.2988" lon="0.69792">
        <ele>262.2</ele>
        <time>2022-05-26T07:53:46Z</time>
      </trkpt>
      <trkpt lat="44.29892" lon="0.69803">
        <ele>263.4</ele>
        <time>2022-05-26T07:53:50Z</time>
      </trkpt>
      <trkpt lat="44.29904" lon="0.69814">
        <ele>263.4</ele>
        <time>2022-05-26T07:53:54Z</time>
      </trkpt>
      <trkpt lat="44.29914" lon="0.69823">
        <ele>265.4</ele>
        <time>2022-05-26T07:53:58Z</time>
      </trkpt>
      <trkpt lat="44.2992" lon="0.69833">
        <ele>266</ele>
        <time>2022-05-26T07:54:02Z</time>
      </trkpt>
      <trkpt lat="44.29926" lon="0.69841">
        <ele>266.8</ele>
        <time>2022-05-26T07:54:06Z</time>
      </trkpt>
      <trkpt lat="44.29931" lon="0.69849">
        <ele>268.6</ele>
        <time>2022-05-26T07:54:10Z</time>
      </trkpt>
      <trkpt lat="44.29937" lon="0.69858">
        <ele>267.8</ele>
        <time>2022-05-26T07:54:14Z</time>
      </trkpt>
      <trkpt lat="44.29948" lon="0.69875">
        <ele>266.4</ele>
        <time>2022-05-26T07:54:18Z</time>
      </trkpt>
      <trkpt lat="44.29966" lon="0.69894">
        <ele>262.4</ele>
        <time>2022-05-26T07:54:22Z</time>
      </trkpt>
      <trkpt lat="44.2999" lon="0.69913">
        <ele>263.4</ele>
        <time>2022-05-26T07:54:26Z</time>
      </trkpt>
      <trkpt lat="44.30018" lon="0.69922">
        <ele>260.2</ele>
        <time>2022-05-26T07:54:30Z</time>
      </trkpt>
      <trkpt lat="44.30041" lon="0.69926">
        <ele>261.8</ele>
        <time>2022-05-26T07:54:34Z</time>
      </trkpt>
      <trkpt lat="44.30058" lon="0.69928">
        <ele>261</ele>
        <time>2022-05-26T07:54:38Z</time>
      </trkpt>
      <trkpt lat="44.30075" lon="0.69928">
        <ele>261</ele>
        <time>2022-05-26T07:54:42Z</time>
      </trkpt>
      <trkpt lat="44.30093" lon="0.69929">
        <ele>260.8</ele>
        <time>2022-05-26T07:54:46Z</time>
      </trkpt>
      <trkpt lat="44.30112" lon="0.6993">
        <ele>259.2</ele>
        <time>2022-05-26T07:54:50Z</time>
      </trkpt>
      <trkpt lat="44.30122" lon="0.69941">
        <ele>260.4</ele>
        <time>2022-05-26T07:54:54Z</time>
      </trkpt>
      <trkpt lat="44.30129" lon="0.69957">
        <ele>260.8</ele>
        <time>2022-05-26T07:54:58Z</time>
      </trkpt>
      <trkpt lat="44.30135" lon="0.69973">
        <ele>261</ele>
        <time>2022-05-26T07:55:02Z</time>
      </trkpt>
      <trkpt lat="44.3014" lon="0.69988">
        <ele>261.6</ele>
        <time>2022-05-26T07:55:06Z</time>
      </trkpt>
      <trkpt lat="44.30136" lon="0.70007">
        <ele>260.8</ele>
        <time>2022-05-26T07:55:10Z</time>
      </trkpt>
      <trkpt lat="44.30134" lon="0.70024">
        <ele>261.4</ele>
        <time>2022-05-26T07:55:14Z</time>
      </trkpt>
      <trkpt lat="44.30132" lon="0.70041">
        <ele>262</ele>
        <time>2022-05-26T07:55:18Z</time>
      </trkpt>
      <trkpt lat="44.3013" lon="0.70057">
        <ele>262.8</ele>
        <time>2022-05-26T07:55:22Z</time>
      </trkpt>
      <trkpt lat="44.30129" lon="0.70072">
        <ele>262.6</ele>
        <time>2022-05-26T07:55:26Z</time>
      </trkpt>
      <trkpt lat="44.30128" lon="0.70088">
        <ele>262.6</ele>
        <time>2022-05-26T07:55:30Z</time>
      </trkpt>
      <trkpt lat="44.30125" lon="0.70105">
        <ele>262.4</ele>
        <time>2022-05-26T07:55:34Z</time>
      </trkpt>
      <trkpt lat="44.30128" lon="0.70123">
        <ele>262.6</ele>
        <time>2022-05-26T07:55:38Z</time>
      </trkpt>
      <trkpt lat="44.30134" lon="0.70137">
        <ele>263.2</ele>
        <time>2022-05-26T07:55:42Z</time>
      </trkpt>
      <trkpt lat="44.3014" lon="0.70151">
        <ele>263.2</ele>
        <time>2022-05-26T07:55:46Z</time>
      </trkpt>
      <trkpt lat="44.30147" lon="0.70166">
        <ele>263.4</ele>
        <time>2022-05-26T07:55:50Z</time>
      </trkpt>
      <trkpt lat="44.30155" lon="0.70181">
        <ele>262.4</ele>
        <time>2022-05-26T07:55:54Z</time>
      </trkpt>
      <trkpt lat="44.30165" lon="0.70199">
        <ele>262</ele>
        <time>2022-05-26T07:55:58Z</time>
      </trkpt>
      <trkpt lat="44.30177" lon="0.70223">
        <ele>259.2</ele>
        <time>2022-05-26T07:56:02Z</time>
      </trkpt>
      <trkpt lat="44.30191" lon="0.70251">
        <ele>257.4</ele>
        <time>2022-05-26T07:56:06Z</time>
      </trkpt>
      <trkpt lat="44.30204" lon="0.70277">
        <ele>259</ele>
        <time>2022-05-26T07:56:10Z</time>
      </trkpt>
      <trkpt lat="44.30213" lon="0.70296">
        <ele>258.8</ele>
        <time>2022-05-26T07:56:14Z</time>
      </trkpt>
      <trkpt lat="44.3022" lon="0.70311">
        <ele>259.8</ele>
        <time>2022-05-26T07:56:18Z</time>
      </trkpt>
      <trkpt lat="44.30224" lon="0.70327">
        <ele>260.8</ele>
        <time>2022-05-26T07:56:22Z</time>
      </trkpt>
      <trkpt lat="44.30231" lon="0.70338">
        <ele>261.6</ele>
        <time>2022-05-26T07:56:26Z</time>
      </trkpt>
      <trkpt lat="44.30239" lon="0.7035">
        <ele>261.8</ele>
        <time>2022-05-26T07:56:30Z</time>
      </trkpt>
      <trkpt lat="44.30246" lon="0.70364">
        <ele>262.4</ele>
        <time>2022-05-26T07:56:34Z</time>
      </trkpt>
      <trkpt lat="44.30249" lon="0.70375">
        <ele>262.8</ele>
        <time>2022-05-26T07:56:38Z</time>
      </trkpt>
      <trkpt lat="44.30254" lon="0.70386">
        <ele>263.6</ele>
        <time>2022-05-26T07:56:42Z</time>
      </trkpt>
      <trkpt lat="44.30259" lon="0.70396">
        <ele>264.4</ele>
        <time>2022-05-26T07:56:46Z</time>
      </trkpt>
      <trkpt lat="44.30265" lon="0.70406">
        <ele>265.4</ele>
        <time>2022-05-26T07:56:50Z</time>
      </trkpt>
      <trkpt lat="44.3027" lon="0.70418">
        <ele>265.8</ele>
        <time>2022-05-26T07:56:54Z</time>
      </trkpt>
      <trkpt lat="44.30277" lon="0.7043">
        <ele>266</ele>
        <time>2022-05-26T07:56:58Z</time>
      </trkpt>
      <trkpt lat="44.30284" lon="0.70443">
        <ele>267</ele>
        <time>2022-05-26T07:57:02Z</time>
      </trkpt>
      <trkpt lat="44.3029" lon="0.70455">
        <ele>267</ele>
        <time>2022-05-26T07:57:06Z</time>
      </trkpt>
      <trkpt lat="44.30298" lon="0.70466">
        <ele>267.6</ele>
        <time>2022-05-26T07:57:10Z</time>
      </trkpt>
      <trkpt lat="44.30306" lon="0.70478">
        <ele>268.2</ele>
        <time>2022-05-26T07:57:14Z</time>
      </trkpt>
      <trkpt lat="44.30313" lon="0.70491">
        <ele>268.4</ele>
        <time>2022-05-26T07:57:18Z</time>
      </trkpt>
      <trkpt lat="44.3032" lon="0.70502">
        <ele>268.4</ele>
        <time>2022-05-26T07:57:22Z</time>
      </trkpt>
      <trkpt lat="44.30326" lon="0.70516">
        <ele>268.8</ele>
        <time>2022-05-26T07:57:26Z</time>
      </trkpt>
      <trkpt lat="44.3033" lon="0.70528">
        <ele>270.2</ele>
        <time>2022-05-26T07:57:30Z</time>
      </trkpt>
      <trkpt lat="44.30337" lon="0.70538">
        <ele>270</ele>
        <time>2022-05-26T07:57:34Z</time>
      </trkpt>
      <trkpt lat="44.30344" lon="0.7055">
        <ele>270.8</ele>
        <time>2022-05-26T07:57:38Z</time>
      </trkpt>
      <trkpt lat="44.30351" lon="0.70568">
        <ele>271.4</ele>
        <time>2022-05-26T07:57:42Z</time>
      </trkpt>
      <trkpt lat="44.30356" lon="0.7058">
        <ele>272</ele>
        <time>2022-05-26T07:57:46Z</time>
      </trkpt>
      <trkpt lat="44.30361" lon="0.70589">
        <ele>272.2</ele>
        <time>2022-05-26T07:57:50Z</time>
      </trkpt>
      <trkpt lat="44.30367" lon="0.706">
        <ele>273.8</ele>
        <time>2022-05-26T07:57:54Z</time>
      </trkpt>
      <trkpt lat="44.30372" lon="0.70612">
        <ele>273.8</ele>
        <time>2022-05-26T07:57:58Z</time>
      </trkpt>
      <trkpt lat="44.30377" lon="0.70623">
        <ele>274.8</ele>
        <time>2022-05-26T07:58:02Z</time>
      </trkpt>
      <trkpt lat="44.30382" lon="0.70632">
        <ele>274.8</ele>
        <time>2022-05-26T07:58:06Z</time>
      </trkpt>
      <trkpt lat="44.30386" lon="0.70642">
        <ele>275.8</ele>
        <time>2022-05-26T07:58:10Z</time>
      </trkpt>
      <trkpt lat="44.3039" lon="0.70652">
        <ele>276.2</ele>
        <time>2022-05-26T07:58:14Z</time>
      </trkpt>
      <trkpt lat="44.30394" lon="0.70663">
        <ele>276.6</ele>
        <time>2022-05-26T07:58:18Z</time>
      </trkpt>
      <trkpt lat="44.30398" lon="0.70673">
        <ele>277.4</ele>
        <time>2022-05-26T07:58:22Z</time>
      </trkpt>
      <trkpt lat="44.30402" lon="0.70683">
        <ele>278.8</ele>
        <time>2022-05-26T07:58:26Z</time>
      </trkpt>
      <trkpt lat="44.30406" lon="0.70692">
        <ele>279.2</ele>
        <time>2022-05-26T07:58:30Z</time>
      </trkpt>
      <trkpt lat="44.30411" lon="0.70701">
        <ele>280</ele>
        <time>2022-05-26T07:58:34Z</time>
      </trkpt>
      <trkpt lat="44.30415" lon="0.70708">
        <ele>280.6</ele>
        <time>2022-05-26T07:58:38Z</time>
      </trkpt>
      <trkpt lat="44.3042" lon="0.70718">
        <ele>281.4</ele>
        <time>2022-05-26T07:58:42Z</time>
      </trkpt>
      <trkpt lat="44.30422" lon="0.70726">
        <ele>282.4</ele>
        <time>2022-05-26T07:58:46Z</time>
      </trkpt>
      <trkpt lat="44.30427" lon="0.70733">
        <ele>283</ele>
        <time>2022-05-26T07:58:50Z</time>
      </trkpt>
      <trkpt lat="44.30432" lon="0.70743">
        <ele>282.6</ele>
        <time>2022-05-26T07:58:54Z</time>
      </trkpt>
      <trkpt lat="44.30438" lon="0.70756">
        <ele>282.6</ele>
        <time>2022-05-26T07:58:58Z</time>
      </trkpt>
      <trkpt lat="44.30444" lon="0.70772">
        <ele>281.4</ele>
        <time>2022-05-26T07:59:02Z</time>
      </trkpt>
      <trkpt lat="44.30455" lon="0.70798">
        <ele>280.4</ele>
        <time>2022-05-26T07:59:06Z</time>
      </trkpt>
      <trkpt lat="44.30453" lon="0.70821">
        <ele>281</ele>
        <time>2022-05-26T07:59:10Z</time>
      </trkpt>
      <trkpt lat="44.30451" lon="0.70846">
        <ele>280.4</ele>
        <time>2022-05-26T07:59:14Z</time>
      </trkpt>
      <trkpt lat="44.30451" lon="0.7087">
        <ele>280.8</ele>
        <time>2022-05-26T07:59:18Z</time>
      </trkpt>
      <trkpt lat="44.30452" lon="0.70893">
        <ele>281.6</ele>
        <time>2022-05-26T07:59:22Z</time>
      </trkpt>
      <trkpt lat="44.30456" lon="0.70914">
        <ele>281.8</ele>
        <time>2022-05-26T07:59:26Z</time>
      </trkpt>
      <trkpt lat="44.30461" lon="0.70932">
        <ele>282</ele>
        <time>2022-05-26T07:59:30Z</time>
      </trkpt>
      <trkpt lat="44.30468" lon="0.70949">
        <ele>282.2</ele>
        <time>2022-05-26T07:59:34Z</time>
      </trkpt>
      <trkpt lat="44.30475" lon="0.70966">
        <ele>282</ele>
        <time>2022-05-26T07:59:38Z</time>
      </trkpt>
      <trkpt lat="44.30483" lon="0.70984">
        <ele>283.4</ele>
        <time>2022-05-26T07:59:42Z</time>
      </trkpt>
      <trkpt lat="44.30491" lon="0.71001">
        <ele>282.8</ele>
        <time>2022-05-26T07:59:46Z</time>
      </trkpt>
      <trkpt lat="44.305" lon="0.71018">
        <ele>283.6</ele>
        <time>2022-05-26T07:59:50Z</time>
      </trkpt>
      <trkpt lat="44.30508" lon="0.71036">
        <ele>283.8</ele>
        <time>2022-05-26T07:59:54Z</time>
      </trkpt>
      <trkpt lat="44.30517" lon="0.71054">
        <ele>284.6</ele>
        <time>2022-05-26T07:59:58Z</time>
      </trkpt>
      <trkpt lat="44.30525" lon="0.71072">
        <ele>285.6</ele>
        <time>2022-05-26T08:00:02Z</time>
      </trkpt>
      <trkpt lat="44.30533" lon="0.71091">
        <ele>285.4</ele>
        <time>2022-05-26T08:00:06Z</time>
      </trkpt>
      <trkpt lat="44.3054" lon="0.71105">
        <ele>286.4</ele>
        <time>2022-05-26T08:00:10Z</time>
      </trkpt>
      <trkpt lat="44.30543" lon="0.71112">
        <ele>287.4</ele>
        <time>2022-05-26T08:00:14Z</time>
      </trkpt>
      <trkpt lat="44.30546" lon="0.71131">
        <ele>287.4</ele>
        <time>2022-05-26T08:06:10Z</time>
      </trkpt>
      <trkpt lat="44.30532" lon="0.71137">
        <ele>287.4</ele>
        <time>2022-05-26T08:06:14Z</time>
      </trkpt>
      <trkpt lat="44.30518" lon="0.71145">
        <ele>288.2</ele>
        <time>2022-05-26T08:06:18Z</time>
      </trkpt>
      <trkpt lat="44.30507" lon="0.71155">
        <ele>288.6</ele>
        <time>2022-05-26T08:06:22Z</time>
      </trkpt>
      <trkpt lat="44.30498" lon="0.71165">
        <ele>288.6</ele>
        <time>2022-05-26T08:06:26Z</time>
      </trkpt>
      <trkpt lat="44.30487" lon="0.71175">
        <ele>287.6</ele>
        <time>2022-05-26T08:06:30Z</time>
      </trkpt>
      <trkpt lat="44.30472" lon="0.7118">
        <ele>288.2</ele>
        <time>2022-05-26T08:06:34Z</time>
      </trkpt>
      <trkpt lat="44.30458" lon="0.71183">
        <ele>288</ele>
        <time>2022-05-26T08:06:38Z</time>
      </trkpt>
      <trkpt lat="44.30443" lon="0.71183">
        <ele>288.2</ele>
        <time>2022-05-26T08:06:42Z</time>
      </trkpt>
      <trkpt lat="44.30426" lon="0.71177">
        <ele>288.2</ele>
        <time>2022-05-26T08:06:46Z</time>
      </trkpt>
      <trkpt lat="44.30412" lon="0.71162">
        <ele>287.2</ele>
        <time>2022-05-26T08:06:50Z</time>
      </trkpt>
      <trkpt lat="44.30396" lon="0.71151">
        <ele>287.6</ele>
        <time>2022-05-26T08:06:54Z</time>
      </trkpt>
      <trkpt lat="44.3038" lon="0.71146">
        <ele>287.4</ele>
        <time>2022-05-26T08:06:58Z</time>
      </trkpt>
      <trkpt lat="44.3036" lon="0.7115">
        <ele>287</ele>
        <time>2022-05-26T08:07:02Z</time>
      </trkpt>
      <trkpt lat="44.30339" lon="0.71155">
        <ele>286.8</ele>
        <time>2022-05-26T08:07:06Z</time>
      </trkpt>
      <trkpt lat="44.3032" lon="0.71164">
        <ele>286.4</ele>
        <time>2022-05-26T08:07:10Z</time>
      </trkpt>
      <trkpt lat="44.30301" lon="0.71173">
        <ele>285.4</ele>
        <time>2022-05-26T08:07:14Z</time>
      </trkpt>
      <trkpt lat="44.30287" lon="0.71188">
        <ele>285.8</ele>
        <time>2022-05-26T08:07:18Z</time>
      </trkpt>
      <trkpt lat="44.3027" lon="0.71204">
        <ele>285.8</ele>
        <time>2022-05-26T08:07:22Z</time>
      </trkpt>
      <trkpt lat="44.30253" lon="0.71218">
        <ele>286.6</ele>
        <time>2022-05-26T08:07:26Z</time>
      </trkpt>
      <trkpt lat="44.30237" lon="0.71229">
        <ele>287.2</ele>
        <time>2022-05-26T08:07:30Z</time>
      </trkpt>
      <trkpt lat="44.30223" lon="0.71238">
        <ele>286.8</ele>
        <time>2022-05-26T08:07:34Z</time>
      </trkpt>
      <trkpt lat="44.30206" lon="0.71248">
        <ele>286.6</ele>
        <time>2022-05-26T08:07:38Z</time>
      </trkpt>
      <trkpt lat="44.30189" lon="0.71262">
        <ele>285.4</ele>
        <time>2022-05-26T08:07:42Z</time>
      </trkpt>
      <trkpt lat="44.30173" lon="0.71272">
        <ele>286</ele>
        <time>2022-05-26T08:07:46Z</time>
      </trkpt>
      <trkpt lat="44.30155" lon="0.71276">
        <ele>286.2</ele>
        <time>2022-05-26T08:07:50Z</time>
      </trkpt>
      <trkpt lat="44.30138" lon="0.7127">
        <ele>285.8</ele>
        <time>2022-05-26T08:07:54Z</time>
      </trkpt>
      <trkpt lat="44.30121" lon="0.71268">
        <ele>285.8</ele>
        <time>2022-05-26T08:07:58Z</time>
      </trkpt>
      <trkpt lat="44.301" lon="0.71268">
        <ele>287</ele>
        <time>2022-05-26T08:08:02Z</time>
      </trkpt>
      <trkpt lat="44.30081" lon="0.71269">
        <ele>287</ele>
        <time>2022-05-26T08:08:06Z</time>
      </trkpt>
      <trkpt lat="44.30059" lon="0.71274">
        <ele>285.8</ele>
        <time>2022-05-26T08:08:10Z</time>
      </trkpt>
      <trkpt lat="44.30032" lon="0.71275">
        <ele>282.4</ele>
        <time>2022-05-26T08:08:14Z</time>
      </trkpt>
      <trkpt lat="44.30005" lon="0.7128">
        <ele>283.4</ele>
        <time>2022-05-26T08:08:18Z</time>
      </trkpt>
      <trkpt lat="44.29992" lon="0.7129">
        <ele>283.2</ele>
        <time>2022-05-26T08:08:22Z</time>
      </trkpt>
      <trkpt lat="44.2998" lon="0.713">
        <ele>283</ele>
        <time>2022-05-26T08:08:26Z</time>
      </trkpt>
      <trkpt lat="44.29965" lon="0.71315">
        <ele>283.4</ele>
        <time>2022-05-26T08:08:30Z</time>
      </trkpt>
      <trkpt lat="44.29952" lon="0.71332">
        <ele>285</ele>
        <time>2022-05-26T08:08:34Z</time>
      </trkpt>
      <trkpt lat="44.29938" lon="0.71348">
        <ele>283.4</ele>
        <time>2022-05-26T08:08:38Z</time>
      </trkpt>
      <trkpt lat="44.2992" lon="0.71362">
        <ele>282</ele>
        <time>2022-05-26T08:08:42Z</time>
      </trkpt>
      <trkpt lat="44.29904" lon="0.71382">
        <ele>281.4</ele>
        <time>2022-05-26T08:08:46Z</time>
      </trkpt>
      <trkpt lat="44.29888" lon="0.7141">
        <ele>281</ele>
        <time>2022-05-26T08:08:50Z</time>
      </trkpt>
      <trkpt lat="44.29871" lon="0.71433">
        <ele>280</ele>
        <time>2022-05-26T08:08:54Z</time>
      </trkpt>
      <trkpt lat="44.29847" lon="0.71448">
        <ele>276</ele>
        <time>2022-05-26T08:08:58Z</time>
      </trkpt>
      <trkpt lat="44.29822" lon="0.71465">
        <ele>273.8</ele>
        <time>2022-05-26T08:09:02Z</time>
      </trkpt>
      <trkpt lat="44.29799" lon="0.71486">
        <ele>272</ele>
        <time>2022-05-26T08:09:06Z</time>
      </trkpt>
      <trkpt lat="44.29777" lon="0.7151">
        <ele>269.2</ele>
        <time>2022-05-26T08:09:10Z</time>
      </trkpt>
      <trkpt lat="44.29758" lon="0.71542">
        <ele>266.8</ele>
        <time>2022-05-26T08:09:14Z</time>
      </trkpt>
      <trkpt lat="44.2974" lon="0.71577">
        <ele>266.2</ele>
        <time>2022-05-26T08:09:18Z</time>
      </trkpt>
      <trkpt lat="44.29729" lon="0.71608">
        <ele>266</ele>
        <time>2022-05-26T08:09:22Z</time>
      </trkpt>
      <trkpt lat="44.29719" lon="0.71643">
        <ele>264.8</ele>
        <time>2022-05-26T08:09:26Z</time>
      </trkpt>
      <trkpt lat="44.29711" lon="0.71676">
        <ele>262</ele>
        <time>2022-05-26T08:09:30Z</time>
      </trkpt>
      <trkpt lat="44.29707" lon="0.71706">
        <ele>264.2</ele>
        <time>2022-05-26T08:09:34Z</time>
      </trkpt>
      <trkpt lat="44.29709" lon="0.71739">
        <ele>261.8</ele>
        <time>2022-05-26T08:09:38Z</time>
      </trkpt>
      <trkpt lat="44.2972" lon="0.71774">
        <ele>257.6</ele>
        <time>2022-05-26T08:09:42Z</time>
      </trkpt>
      <trkpt lat="44.29732" lon="0.71816">
        <ele>253.6</ele>
        <time>2022-05-26T08:09:46Z</time>
      </trkpt>
      <trkpt lat="44.29741" lon="0.71848">
        <ele>253.8</ele>
        <time>2022-05-26T08:09:50Z</time>
      </trkpt>
      <trkpt lat="44.29739" lon="0.71865">
        <ele>253.4</ele>
        <time>2022-05-26T08:09:54Z</time>
      </trkpt>
      <trkpt lat="44.29737" lon="0.71871">
        <ele>253.4</ele>
        <time>2022-05-26T08:09:58Z</time>
      </trkpt>
      <trkpt lat="44.29736" lon="0.71866">
        <ele>253.8</ele>
        <time>2022-05-26T08:10:02Z</time>
      </trkpt>
      <trkpt lat="44.29734" lon="0.71862">
        <ele>253.8</ele>
        <time>2022-05-26T08:10:06Z</time>
      </trkpt>
      <trkpt lat="44.29722" lon="0.71864">
        <ele>255.2</ele>
        <time>2022-05-26T08:10:26Z</time>
      </trkpt>
      <trkpt lat="44.29714" lon="0.71863">
        <ele>255.8</ele>
        <time>2022-05-26T08:10:30Z</time>
      </trkpt>
      <trkpt lat="44.29704" lon="0.71862">
        <ele>256.8</ele>
        <time>2022-05-26T08:10:34Z</time>
      </trkpt>
      <trkpt lat="44.29696" lon="0.7186">
        <ele>257.4</ele>
        <time>2022-05-26T08:10:38Z</time>
      </trkpt>
      <trkpt lat="44.29688" lon="0.71859">
        <ele>258.6</ele>
        <time>2022-05-26T08:10:42Z</time>
      </trkpt>
      <trkpt lat="44.2968" lon="0.71857">
        <ele>259.6</ele>
        <time>2022-05-26T08:10:46Z</time>
      </trkpt>
      <trkpt lat="44.29672" lon="0.71851">
        <ele>260.2</ele>
        <time>2022-05-26T08:10:50Z</time>
      </trkpt>
      <trkpt lat="44.2966" lon="0.71845">
        <ele>260.8</ele>
        <time>2022-05-26T08:10:54Z</time>
      </trkpt>
      <trkpt lat="44.29648" lon="0.71839">
        <ele>261.6</ele>
        <time>2022-05-26T08:10:58Z</time>
      </trkpt>
      <trkpt lat="44.29637" lon="0.71832">
        <ele>261.8</ele>
        <time>2022-05-26T08:11:02Z</time>
      </trkpt>
      <trkpt lat="44.29627" lon="0.71823">
        <ele>261.8</ele>
        <time>2022-05-26T08:11:06Z</time>
      </trkpt>
      <trkpt lat="44.29619" lon="0.71812">
        <ele>261.4</ele>
        <time>2022-05-26T08:11:10Z</time>
      </trkpt>
      <trkpt lat="44.29613" lon="0.71798">
        <ele>261.4</ele>
        <time>2022-05-26T08:11:14Z</time>
      </trkpt>
      <trkpt lat="44.29607" lon="0.71784">
        <ele>262</ele>
        <time>2022-05-26T08:11:18Z</time>
      </trkpt>
      <trkpt lat="44.29601" lon="0.71772">
        <ele>263.4</ele>
        <time>2022-05-26T08:11:22Z</time>
      </trkpt>
      <trkpt lat="44.29594" lon="0.71762">
        <ele>265</ele>
        <time>2022-05-26T08:11:26Z</time>
      </trkpt>
      <trkpt lat="44.29584" lon="0.71764">
        <ele>264.4</ele>
        <time>2022-05-26T08:11:30Z</time>
      </trkpt>
      <trkpt lat="44.29574" lon="0.71772">
        <ele>264.4</ele>
        <time>2022-05-26T08:11:34Z</time>
      </trkpt>
      <trkpt lat="44.29565" lon="0.71785">
        <ele>264.6</ele>
        <time>2022-05-26T08:11:38Z</time>
      </trkpt>
      <trkpt lat="44.29557" lon="0.71802">
        <ele>264.4</ele>
        <time>2022-05-26T08:11:42Z</time>
      </trkpt>
      <trkpt lat="44.29551" lon="0.71819">
        <ele>264.6</ele>
        <time>2022-05-26T08:11:46Z</time>
      </trkpt>
      <trkpt lat="44.29546" lon="0.71837">
        <ele>263</ele>
        <time>2022-05-26T08:11:50Z</time>
      </trkpt>
      <trkpt lat="44.29541" lon="0.71862">
        <ele>262.2</ele>
        <time>2022-05-26T08:11:54Z</time>
      </trkpt>
      <trkpt lat="44.29534" lon="0.71887">
        <ele>263.2</ele>
        <time>2022-05-26T08:11:58Z</time>
      </trkpt>
      <trkpt lat="44.29526" lon="0.71908">
        <ele>263</ele>
        <time>2022-05-26T08:12:02Z</time>
      </trkpt>
      <trkpt lat="44.29517" lon="0.71927">
        <ele>263.4</ele>
        <time>2022-05-26T08:12:06Z</time>
      </trkpt>
      <trkpt lat="44.29508" lon="0.71945">
        <ele>263.8</ele>
        <time>2022-05-26T08:12:10Z</time>
      </trkpt>
      <trkpt lat="44.29505" lon="0.71963">
        <ele>263.6</ele>
        <time>2022-05-26T08:12:14Z</time>
      </trkpt>
      <trkpt lat="44.29498" lon="0.7198">
        <ele>263</ele>
        <time>2022-05-26T08:12:18Z</time>
      </trkpt>
      <trkpt lat="44.2949" lon="0.71992">
        <ele>262.8</ele>
        <time>2022-05-26T08:12:22Z</time>
      </trkpt>
      <trkpt lat="44.29481" lon="0.71996">
        <ele>261.6</ele>
        <time>2022-05-26T08:12:26Z</time>
      </trkpt>
      <trkpt lat="44.2947" lon="0.72005">
        <ele>261</ele>
        <time>2022-05-26T08:12:30Z</time>
      </trkpt>
      <trkpt lat="44.29458" lon="0.72013">
        <ele>259.8</ele>
        <time>2022-05-26T08:12:34Z</time>
      </trkpt>
      <trkpt lat="44.29443" lon="0.72014">
        <ele>259</ele>
        <time>2022-05-26T08:12:38Z</time>
      </trkpt>
      <trkpt lat="44.29435" lon="0.72009">
        <ele>259</ele>
        <time>2022-05-26T08:12:42Z</time>
      </trkpt>
      <trkpt lat="44.29429" lon="0.72002">
        <ele>258.6</ele>
        <time>2022-05-26T08:12:46Z</time>
      </trkpt>
      <trkpt lat="44.2942" lon="0.71993">
        <ele>260.6</ele>
        <time>2022-05-26T08:12:50Z</time>
      </trkpt>
      <trkpt lat="44.29408" lon="0.71985">
        <ele>261.2</ele>
        <time>2022-05-26T08:12:54Z</time>
      </trkpt>
      <trkpt lat="44.29396" lon="0.71977">
        <ele>260.6</ele>
        <time>2022-05-26T08:12:58Z</time>
      </trkpt>
      <trkpt lat="44.29386" lon="0.71966">
        <ele>260.8</ele>
        <time>2022-05-26T08:13:02Z</time>
      </trkpt>
      <trkpt lat="44.29368" lon="0.71962">
        <ele>259.2</ele>
        <time>2022-05-26T08:13:06Z</time>
      </trkpt>
      <trkpt lat="44.29351" lon="0.71958">
        <ele>258.8</ele>
        <time>2022-05-26T08:13:10Z</time>
      </trkpt>
      <trkpt lat="44.29338" lon="0.71959">
        <ele>258</ele>
        <time>2022-05-26T08:13:14Z</time>
      </trkpt>
      <trkpt lat="44.29325" lon="0.71964">
        <ele>257</ele>
        <time>2022-05-26T08:13:18Z</time>
      </trkpt>
      <trkpt lat="44.29307" lon="0.7197">
        <ele>256</ele>
        <time>2022-05-26T08:13:22Z</time>
      </trkpt>
      <trkpt lat="44.29295" lon="0.71972">
        <ele>254.2</ele>
        <time>2022-05-26T08:13:26Z</time>
      </trkpt>
      <trkpt lat="44.29278" lon="0.71972">
        <ele>253.4</ele>
        <time>2022-05-26T08:13:30Z</time>
      </trkpt>
      <trkpt lat="44.29262" lon="0.71973">
        <ele>252.2</ele>
        <time>2022-05-26T08:13:34Z</time>
      </trkpt>
      <trkpt lat="44.29253" lon="0.71973">
        <ele>250.4</ele>
        <time>2022-05-26T08:13:38Z</time>
      </trkpt>
      <trkpt lat="44.29244" lon="0.71967">
        <ele>246.2</ele>
        <time>2022-05-26T08:13:42Z</time>
      </trkpt>
      <trkpt lat="44.29233" lon="0.71964">
        <ele>244</ele>
        <time>2022-05-26T08:13:46Z</time>
      </trkpt>
      <trkpt lat="44.29223" lon="0.71962">
        <ele>243.6</ele>
        <time>2022-05-26T08:13:50Z</time>
      </trkpt>
      <trkpt lat="44.29195" lon="0.71951">
        <ele>241.4</ele>
        <time>2022-05-26T08:14:48Z</time>
      </trkpt>
      <trkpt lat="44.29183" lon="0.71946">
        <ele>241.4</ele>
        <time>2022-05-26T08:14:52Z</time>
      </trkpt>
      <trkpt lat="44.29172" lon="0.7195">
        <ele>241.4</ele>
        <time>2022-05-26T08:14:56Z</time>
      </trkpt>
      <trkpt lat="44.29161" lon="0.71955">
        <ele>242</ele>
        <time>2022-05-26T08:15:00Z</time>
      </trkpt>
      <trkpt lat="44.29148" lon="0.7196">
        <ele>242.4</ele>
        <time>2022-05-26T08:15:04Z</time>
      </trkpt>
      <trkpt lat="44.29137" lon="0.71971">
        <ele>243.4</ele>
        <time>2022-05-26T08:15:08Z</time>
      </trkpt>
      <trkpt lat="44.2913" lon="0.71982">
        <ele>243.8</ele>
        <time>2022-05-26T08:15:12Z</time>
      </trkpt>
      <trkpt lat="44.2912" lon="0.71996">
        <ele>243.2</ele>
        <time>2022-05-26T08:15:16Z</time>
      </trkpt>
      <trkpt lat="44.29119" lon="0.7201">
        <ele>244</ele>
        <time>2022-05-26T08:15:20Z</time>
      </trkpt>
      <trkpt lat="44.29115" lon="0.72015">
        <ele>243.8</ele>
        <time>2022-05-26T08:15:24Z</time>
      </trkpt>
      <trkpt lat="44.29106" lon="0.72011">
        <ele>239.6</ele>
        <time>2022-05-26T08:15:28Z</time>
      </trkpt>
      <trkpt lat="44.29089" lon="0.72006">
        <ele>236.8</ele>
        <time>2022-05-26T08:15:32Z</time>
      </trkpt>
      <trkpt lat="44.29081" lon="0.72019">
        <ele>237.2</ele>
        <time>2022-05-26T08:15:36Z</time>
      </trkpt>
      <trkpt lat="44.29074" lon="0.72031">
        <ele>236.8</ele>
        <time>2022-05-26T08:15:40Z</time>
      </trkpt>
      <trkpt lat="44.29062" lon="0.72047">
        <ele>237</ele>
        <time>2022-05-26T08:15:44Z</time>
      </trkpt>
      <trkpt lat="44.29057" lon="0.72068">
        <ele>240.4</ele>
        <time>2022-05-26T08:15:48Z</time>
      </trkpt>
      <trkpt lat="44.29056" lon="0.72081">
        <ele>240.8</ele>
        <time>2022-05-26T08:15:52Z</time>
      </trkpt>
      <trkpt lat="44.29048" lon="0.72086">
        <ele>240.6</ele>
        <time>2022-05-26T08:15:56Z</time>
      </trkpt>
      <trkpt lat="44.29036" lon="0.7209">
        <ele>238.6</ele>
        <time>2022-05-26T08:16:00Z</time>
      </trkpt>
      <trkpt lat="44.29028" lon="0.72101">
        <ele>238.4</ele>
        <time>2022-05-26T08:16:04Z</time>
      </trkpt>
      <trkpt lat="44.29027" lon="0.72116">
        <ele>239.4</ele>
        <time>2022-05-26T08:16:08Z</time>
      </trkpt>
      <trkpt lat="44.29027" lon="0.72133">
        <ele>237</ele>
        <time>2022-05-26T08:16:12Z</time>
      </trkpt>
      <trkpt lat="44.29029" lon="0.72149">
        <ele>235.8</ele>
        <time>2022-05-26T08:16:16Z</time>
      </trkpt>
      <trkpt lat="44.29036" lon="0.7216">
        <ele>235</ele>
        <time>2022-05-26T08:16:20Z</time>
      </trkpt>
      <trkpt lat="44.29045" lon="0.72169">
        <ele>234.6</ele>
        <time>2022-05-26T08:16:24Z</time>
      </trkpt>
      <trkpt lat="44.29047" lon="0.72179">
        <ele>232</ele>
        <time>2022-05-26T08:16:28Z</time>
      </trkpt>
      <trkpt lat="44.29032" lon="0.72181">
        <ele>227.4</ele>
        <time>2022-05-26T08:16:32Z</time>
      </trkpt>
      <trkpt lat="44.29023" lon="0.72183">
        <ele>225.4</ele>
        <time>2022-05-26T08:16:36Z</time>
      </trkpt>
      <trkpt lat="44.29021" lon="0.72193">
        <ele>223.8</ele>
        <time>2022-05-26T08:16:40Z</time>
      </trkpt>
      <trkpt lat="44.29026" lon="0.72203">
        <ele>224.4</ele>
        <time>2022-05-26T08:16:44Z</time>
      </trkpt>
      <trkpt lat="44.29035" lon="0.72213">
        <ele>222.2</ele>
        <time>2022-05-26T08:16:48Z</time>
      </trkpt>
      <trkpt lat="44.29046" lon="0.72216">
        <ele>223.8</ele>
        <time>2022-05-26T08:16:52Z</time>
      </trkpt>
      <trkpt lat="44.29054" lon="0.72214">
        <ele>224.4</ele>
        <time>2022-05-26T08:16:56Z</time>
      </trkpt>
      <trkpt lat="44.29061" lon="0.72217">
        <ele>224.6</ele>
        <time>2022-05-26T08:17:00Z</time>
      </trkpt>
      <trkpt lat="44.29068" lon="0.72228">
        <ele>221.2</ele>
        <time>2022-05-26T08:17:04Z</time>
      </trkpt>
      <trkpt lat="44.29078" lon="0.72249">
        <ele>219.4</ele>
        <time>2022-05-26T08:17:08Z</time>
      </trkpt>
      <trkpt lat="44.29093" lon="0.72256">
        <ele>219.2</ele>
        <time>2022-05-26T08:17:12Z</time>
      </trkpt>
      <trkpt lat="44.29109" lon="0.72262">
        <ele>218.2</ele>
        <time>2022-05-26T08:17:16Z</time>
      </trkpt>
      <trkpt lat="44.29125" lon="0.72266">
        <ele>216</ele>
        <time>2022-05-26T08:17:20Z</time>
      </trkpt>
      <trkpt lat="44.29133" lon="0.72282">
        <ele>209.8</ele>
        <time>2022-05-26T08:17:24Z</time>
      </trkpt>
      <trkpt lat="44.29133" lon="0.72301">
        <ele>206.6</ele>
        <time>2022-05-26T08:17:28Z</time>
      </trkpt>
      <trkpt lat="44.29135" lon="0.72317">
        <ele>200.8</ele>
        <time>2022-05-26T08:17:32Z</time>
      </trkpt>
      <trkpt lat="44.29128" lon="0.72332">
        <ele>195.4</ele>
        <time>2022-05-26T08:17:36Z</time>
      </trkpt>
      <trkpt lat="44.2913" lon="0.72342">
        <ele>193</ele>
        <time>2022-05-26T08:17:40Z</time>
      </trkpt>
      <trkpt lat="44.29136" lon="0.72357">
        <ele>191.2</ele>
        <time>2022-05-26T08:17:44Z</time>
      </trkpt>
      <trkpt lat="44.29145" lon="0.72363">
        <ele>192</ele>
        <time>2022-05-26T08:17:48Z</time>
      </trkpt>
      <trkpt lat="44.29149" lon="0.72369">
        <ele>192.2</ele>
        <time>2022-05-26T08:17:52Z</time>
      </trkpt>
      <trkpt lat="44.29153" lon="0.72374">
        <ele>191.2</ele>
        <time>2022-05-26T08:17:56Z</time>
      </trkpt>
      <trkpt lat="44.29159" lon="0.72383">
        <ele>189.8</ele>
        <time>2022-05-26T08:18:00Z</time>
      </trkpt>
      <trkpt lat="44.29167" lon="0.72397">
        <ele>189.6</ele>
        <time>2022-05-26T08:18:04Z</time>
      </trkpt>
      <trkpt lat="44.29174" lon="0.72407">
        <ele>189</ele>
        <time>2022-05-26T08:18:08Z</time>
      </trkpt>
      <trkpt lat="44.2917" lon="0.72426">
        <ele>186.6</ele>
        <time>2022-05-26T08:18:12Z</time>
      </trkpt>
      <trkpt lat="44.29169" lon="0.7244">
        <ele>186</ele>
        <time>2022-05-26T08:19:13Z</time>
      </trkpt>
      <trkpt lat="44.29169" lon="0.72448">
        <ele>184.2</ele>
        <time>2022-05-26T08:19:17Z</time>
      </trkpt>
      <trkpt lat="44.29176" lon="0.7245">
        <ele>184.4</ele>
        <time>2022-05-26T08:19:21Z</time>
      </trkpt>
      <trkpt lat="44.29187" lon="0.72453">
        <ele>184.8</ele>
        <time>2022-05-26T08:19:25Z</time>
      </trkpt>
      <trkpt lat="44.29195" lon="0.72456">
        <ele>185.6</ele>
        <time>2022-05-26T08:19:29Z</time>
      </trkpt>
      <trkpt lat="44.29205" lon="0.72457">
        <ele>184.4</ele>
        <time>2022-05-26T08:19:33Z</time>
      </trkpt>
      <trkpt lat="44.29246" lon="0.7248">
        <ele>183</ele>
        <time>2022-05-26T08:20:16Z</time>
      </trkpt>
      <trkpt lat="44.29253" lon="0.72482">
        <ele>184.4</ele>
        <time>2022-05-26T08:20:20Z</time>
      </trkpt>
      <trkpt lat="44.2926" lon="0.72485">
        <ele>185</ele>
        <time>2022-05-26T08:20:24Z</time>
      </trkpt>
      <trkpt lat="44.29269" lon="0.72487">
        <ele>185.6</ele>
        <time>2022-05-26T08:20:28Z</time>
      </trkpt>
      <trkpt lat="44.29276" lon="0.72493">
        <ele>185.8</ele>
        <time>2022-05-26T08:20:32Z</time>
      </trkpt>
      <trkpt lat="44.29275" lon="0.72505">
        <ele>182.6</ele>
        <time>2022-05-26T08:20:36Z</time>
      </trkpt>
      <trkpt lat="44.2928" lon="0.72535">
        <ele>179</ele>
        <time>2022-05-26T08:20:40Z</time>
      </trkpt>
      <trkpt lat="44.29282" lon="0.72555">
        <ele>181.2</ele>
        <time>2022-05-26T08:20:44Z</time>
      </trkpt>
      <trkpt lat="44.29284" lon="0.72568">
        <ele>182.4</ele>
        <time>2022-05-26T08:30:17Z</time>
      </trkpt>
      <trkpt lat="44.29275" lon="0.72577">
        <ele>182.4</ele>
        <time>2022-05-26T08:30:21Z</time>
      </trkpt>
      <trkpt lat="44.29271" lon="0.72594">
        <ele>182.2</ele>
        <time>2022-05-26T08:30:25Z</time>
      </trkpt>
      <trkpt lat="44.2928" lon="0.72612">
        <ele>181.8</ele>
        <time>2022-05-26T08:30:29Z</time>
      </trkpt>
      <trkpt lat="44.29281" lon="0.72626">
        <ele>181.6</ele>
        <time>2022-05-26T08:30:33Z</time>
      </trkpt>
      <trkpt lat="44.29271" lon="0.72634">
        <ele>182.6</ele>
        <time>2022-05-26T08:30:37Z</time>
      </trkpt>
      <trkpt lat="44.29264" lon="0.72642">
        <ele>182.2</ele>
        <time>2022-05-26T08:30:41Z</time>
      </trkpt>
      <trkpt lat="44.2926" lon="0.72646">
        <ele>185.2</ele>
        <time>2022-05-26T08:30:45Z</time>
      </trkpt>
      <trkpt lat="44.29255" lon="0.72647">
        <ele>186.2</ele>
        <time>2022-05-26T08:30:49Z</time>
      </trkpt>
      <trkpt lat="44.29249" lon="0.72648">
        <ele>187.8</ele>
        <time>2022-05-26T08:30:53Z</time>
      </trkpt>
      <trkpt lat="44.29246" lon="0.72651">
        <ele>189.6</ele>
        <time>2022-05-26T08:30:57Z</time>
      </trkpt>
      <trkpt lat="44.29246" lon="0.72658">
        <ele>189.8</ele>
        <time>2022-05-26T08:31:01Z</time>
      </trkpt>
      <trkpt lat="44.29249" lon="0.72664">
        <ele>190.2</ele>
        <time>2022-05-26T08:31:05Z</time>
      </trkpt>
      <trkpt lat="44.29252" lon="0.7267">
        <ele>189.4</ele>
        <time>2022-05-26T08:31:09Z</time>
      </trkpt>
      <trkpt lat="44.29257" lon="0.72676">
        <ele>188.8</ele>
        <time>2022-05-26T08:31:13Z</time>
      </trkpt>
      <trkpt lat="44.29261" lon="0.72683">
        <ele>188.6</ele>
        <time>2022-05-26T08:31:17Z</time>
      </trkpt>
      <trkpt lat="44.29261" lon="0.72691">
        <ele>189.4</ele>
        <time>2022-05-26T08:31:21Z</time>
      </trkpt>
      <trkpt lat="44.2926" lon="0.72697">
        <ele>191</ele>
        <time>2022-05-26T08:31:25Z</time>
      </trkpt>
      <trkpt lat="44.29262" lon="0.72705">
        <ele>191.4</ele>
        <time>2022-05-26T08:31:29Z</time>
      </trkpt>
      <trkpt lat="44.29265" lon="0.72715">
        <ele>191</ele>
        <time>2022-05-26T08:31:33Z</time>
      </trkpt>
      <trkpt lat="44.29269" lon="0.72725">
        <ele>191.4</ele>
        <time>2022-05-26T08:31:37Z</time>
      </trkpt>
      <trkpt lat="44.29274" lon="0.72736">
        <ele>191.4</ele>
        <time>2022-05-26T08:31:41Z</time>
      </trkpt>
      <trkpt lat="44.2928" lon="0.72749">
        <ele>191.2</ele>
        <time>2022-05-26T08:31:45Z</time>
      </trkpt>
      <trkpt lat="44.29283" lon="0.72759">
        <ele>191</ele>
        <time>2022-05-26T08:31:49Z</time>
      </trkpt>
      <trkpt lat="44.29286" lon="0.72772">
        <ele>191</ele>
        <time>2022-05-26T08:31:53Z</time>
      </trkpt>
      <trkpt lat="44.29292" lon="0.72786">
        <ele>191.4</ele>
        <time>2022-05-26T08:31:57Z</time>
      </trkpt>
      <trkpt lat="44.29291" lon="0.72798">
        <ele>191.4</ele>
        <time>2022-05-26T08:32:01Z</time>
      </trkpt>
      <trkpt lat="44.29288" lon="0.72805">
        <ele>193.8</ele>
        <time>2022-05-26T08:32:05Z</time>
      </trkpt>
      <trkpt lat="44.29289" lon="0.72813">
        <ele>194.8</ele>
        <time>2022-05-26T08:32:09Z</time>
      </trkpt>
      <trkpt lat="44.2929" lon="0.72823">
        <ele>195.4</ele>
        <time>2022-05-26T08:32:13Z</time>
      </trkpt>
      <trkpt lat="44.29287" lon="0.7283">
        <ele>196.6</ele>
        <time>2022-05-26T08:32:17Z</time>
      </trkpt>
      <trkpt lat="44.29285" lon="0.72837">
        <ele>198.4</ele>
        <time>2022-05-26T08:32:21Z</time>
      </trkpt>
      <trkpt lat="44.29286" lon="0.72845">
        <ele>199.2</ele>
        <time>2022-05-26T08:32:25Z</time>
      </trkpt>
      <trkpt lat="44.29286" lon="0.72855">
        <ele>199.2</ele>
        <time>2022-05-26T08:32:29Z</time>
      </trkpt>
      <trkpt lat="44.29287" lon="0.72866">
        <ele>199.6</ele>
        <time>2022-05-26T08:32:33Z</time>
      </trkpt>
      <trkpt lat="44.2929" lon="0.72877">
        <ele>199.8</ele>
        <time>2022-05-26T08:32:37Z</time>
      </trkpt>
      <trkpt lat="44.29297" lon="0.72888">
        <ele>197.2</ele>
        <time>2022-05-26T08:32:41Z</time>
      </trkpt>
      <trkpt lat="44.29302" lon="0.729">
        <ele>196.6</ele>
        <time>2022-05-26T08:32:45Z</time>
      </trkpt>
      <trkpt lat="44.29308" lon="0.72908">
        <ele>195.4</ele>
        <time>2022-05-26T08:32:49Z</time>
      </trkpt>
      <trkpt lat="44.29307" lon="0.72919">
        <ele>195.8</ele>
        <time>2022-05-26T08:32:53Z</time>
      </trkpt>
      <trkpt lat="44.29307" lon="0.7293">
        <ele>197.8</ele>
        <time>2022-05-26T08:32:57Z</time>
      </trkpt>
      <trkpt lat="44.29313" lon="0.72943">
        <ele>199.2</ele>
        <time>2022-05-26T08:33:01Z</time>
      </trkpt>
      <trkpt lat="44.29319" lon="0.72954">
        <ele>199.2</ele>
        <time>2022-05-26T08:33:05Z</time>
      </trkpt>
      <trkpt lat="44.29322" lon="0.72962">
        <ele>200.4</ele>
        <time>2022-05-26T08:33:09Z</time>
      </trkpt>
      <trkpt lat="44.29326" lon="0.72973">
        <ele>200.8</ele>
        <time>2022-05-26T08:33:13Z</time>
      </trkpt>
      <trkpt lat="44.29329" lon="0.72985">
        <ele>201.2</ele>
        <time>2022-05-26T08:33:17Z</time>
      </trkpt>
      <trkpt lat="44.29334" lon="0.72996">
        <ele>201.2</ele>
        <time>2022-05-26T08:33:21Z</time>
      </trkpt>
      <trkpt lat="44.29336" lon="0.73008">
        <ele>202</ele>
        <time>2022-05-26T08:33:25Z</time>
      </trkpt>
      <trkpt lat="44.29334" lon="0.73017">
        <ele>204</ele>
        <time>2022-05-26T08:33:29Z</time>
      </trkpt>
      <trkpt lat="44.29333" lon="0.73026">
        <ele>205.2</ele>
        <time>2022-05-26T08:33:33Z</time>
      </trkpt>
      <trkpt lat="44.29333" lon="0.73033">
        <ele>206.4</ele>
        <time>2022-05-26T08:33:37Z</time>
      </trkpt>
      <trkpt lat="44.29333" lon="0.73073">
        <ele>212</ele>
        <time>2022-05-26T08:34:27Z</time>
      </trkpt>
      <trkpt lat="44.29331" lon="0.73081">
        <ele>213.4</ele>
        <time>2022-05-26T08:34:31Z</time>
      </trkpt>
      <trkpt lat="44.29329" lon="0.7309">
        <ele>214.8</ele>
        <time>2022-05-26T08:34:35Z</time>
      </trkpt>
      <trkpt lat="44.29322" lon="0.73103">
        <ele>215.2</ele>
        <time>2022-05-26T08:35:20Z</time>
      </trkpt>
      <trkpt lat="44.29317" lon="0.7311">
        <ele>215.6</ele>
        <time>2022-05-26T08:35:24Z</time>
      </trkpt>
      <trkpt lat="44.29312" lon="0.73117">
        <ele>216.6</ele>
        <time>2022-05-26T08:35:28Z</time>
      </trkpt>
      <trkpt lat="44.29307" lon="0.73122">
        <ele>217.6</ele>
        <time>2022-05-26T08:35:32Z</time>
      </trkpt>
      <trkpt lat="44.29303" lon="0.73127">
        <ele>219.4</ele>
        <time>2022-05-26T08:35:36Z</time>
      </trkpt>
      <trkpt lat="44.29297" lon="0.73132">
        <ele>220</ele>
        <time>2022-05-26T08:35:40Z</time>
      </trkpt>
      <trkpt lat="44.29292" lon="0.73137">
        <ele>220.6</ele>
        <time>2022-05-26T08:35:44Z</time>
      </trkpt>
      <trkpt lat="44.29286" lon="0.73143">
        <ele>221.2</ele>
        <time>2022-05-26T08:35:48Z</time>
      </trkpt>
      <trkpt lat="44.29281" lon="0.73148">
        <ele>222.8</ele>
        <time>2022-05-26T08:35:52Z</time>
      </trkpt>
      <trkpt lat="44.29276" lon="0.73153">
        <ele>224</ele>
        <time>2022-05-26T08:35:56Z</time>
      </trkpt>
      <trkpt lat="44.29271" lon="0.73158">
        <ele>224.8</ele>
        <time>2022-05-26T08:36:00Z</time>
      </trkpt>
      <trkpt lat="44.29266" lon="0.73163">
        <ele>226</ele>
        <time>2022-05-26T08:36:04Z</time>
      </trkpt>
      <trkpt lat="44.29261" lon="0.73168">
        <ele>226.8</ele>
        <time>2022-05-26T08:36:08Z</time>
      </trkpt>
      <trkpt lat="44.29258" lon="0.73172">
        <ele>227.8</ele>
        <time>2022-05-26T08:36:12Z</time>
      </trkpt>
      <trkpt lat="44.29255" lon="0.73177">
        <ele>228.6</ele>
        <time>2022-05-26T08:36:16Z</time>
      </trkpt>
      <trkpt lat="44.29252" lon="0.73183">
        <ele>228.8</ele>
        <time>2022-05-26T08:36:20Z</time>
      </trkpt>
      <trkpt lat="44.2925" lon="0.7319">
        <ele>229.4</ele>
        <time>2022-05-26T08:36:24Z</time>
      </trkpt>
      <trkpt lat="44.29247" lon="0.73201">
        <ele>229.4</ele>
        <time>2022-05-26T08:36:50Z</time>
      </trkpt>
      <trkpt lat="44.29243" lon="0.73212">
        <ele>230.4</ele>
        <time>2022-05-26T08:36:54Z</time>
      </trkpt>
      <trkpt lat="44.2924" lon="0.73222">
        <ele>230.8</ele>
        <time>2022-05-26T08:36:58Z</time>
      </trkpt>
      <trkpt lat="44.29238" lon="0.73231">
        <ele>231.2</ele>
        <time>2022-05-26T08:37:02Z</time>
      </trkpt>
      <trkpt lat="44.29235" lon="0.73242">
        <ele>232.2</ele>
        <time>2022-05-26T08:37:06Z</time>
      </trkpt>
      <trkpt lat="44.29233" lon="0.73254">
        <ele>232</ele>
        <time>2022-05-26T08:37:10Z</time>
      </trkpt>
      <trkpt lat="44.29231" lon="0.73265">
        <ele>233</ele>
        <time>2022-05-26T08:37:14Z</time>
      </trkpt>
      <trkpt lat="44.29227" lon="0.73274">
        <ele>233.8</ele>
        <time>2022-05-26T08:37:18Z</time>
      </trkpt>
      <trkpt lat="44.29222" lon="0.73284">
        <ele>234</ele>
        <time>2022-05-26T08:37:22Z</time>
      </trkpt>
      <trkpt lat="44.29218" lon="0.73293">
        <ele>235.4</ele>
        <time>2022-05-26T08:37:26Z</time>
      </trkpt>
      <trkpt lat="44.29214" lon="0.73303">
        <ele>235.6</ele>
        <time>2022-05-26T08:37:30Z</time>
      </trkpt>
      <trkpt lat="44.29211" lon="0.73314">
        <ele>236</ele>
        <time>2022-05-26T08:37:34Z</time>
      </trkpt>
      <trkpt lat="44.29207" lon="0.73325">
        <ele>235.8</ele>
        <time>2022-05-26T08:37:38Z</time>
      </trkpt>
      <trkpt lat="44.29204" lon="0.73337">
        <ele>236.6</ele>
        <time>2022-05-26T08:37:42Z</time>
      </trkpt>
      <trkpt lat="44.29201" lon="0.73349">
        <ele>235.8</ele>
        <time>2022-05-26T08:37:46Z</time>
      </trkpt>
      <trkpt lat="44.29198" lon="0.73364">
        <ele>236.2</ele>
        <time>2022-05-26T08:37:50Z</time>
      </trkpt>
      <trkpt lat="44.29196" lon="0.73378">
        <ele>237.2</ele>
        <time>2022-05-26T08:37:54Z</time>
      </trkpt>
      <trkpt lat="44.29193" lon="0.73392">
        <ele>237</ele>
        <time>2022-05-26T08:37:58Z</time>
      </trkpt>
      <trkpt lat="44.29191" lon="0.73403">
        <ele>238.6</ele>
        <time>2022-05-26T08:38:02Z</time>
      </trkpt>
      <trkpt lat="44.29187" lon="0.73413">
        <ele>239.2</ele>
        <time>2022-05-26T08:38:06Z</time>
      </trkpt>
      <trkpt lat="44.29183" lon="0.73422">
        <ele>239.8</ele>
        <time>2022-05-26T08:38:10Z</time>
      </trkpt>
      <trkpt lat="44.2918" lon="0.73432">
        <ele>240.4</ele>
        <time>2022-05-26T08:38:14Z</time>
      </trkpt>
      <trkpt lat="44.29178" lon="0.73444">
        <ele>241.2</ele>
        <time>2022-05-26T08:38:18Z</time>
      </trkpt>
      <trkpt lat="44.29176" lon="0.73454">
        <ele>242.2</ele>
        <time>2022-05-26T08:38:22Z</time>
      </trkpt>
      <trkpt lat="44.29175" lon="0.73465">
        <ele>242.8</ele>
        <time>2022-05-26T08:38:26Z</time>
      </trkpt>
      <trkpt lat="44.29175" lon="0.73476">
        <ele>243.6</ele>
        <time>2022-05-26T08:38:30Z</time>
      </trkpt>
      <trkpt lat="44.29174" lon="0.73487">
        <ele>244</ele>
        <time>2022-05-26T08:38:34Z</time>
      </trkpt>
      <trkpt lat="44.29174" lon="0.73499">
        <ele>244.4</ele>
        <time>2022-05-26T08:38:38Z</time>
      </trkpt>
      <trkpt lat="44.29175" lon="0.7351">
        <ele>245.4</ele>
        <time>2022-05-26T08:38:42Z</time>
      </trkpt>
      <trkpt lat="44.29175" lon="0.73519">
        <ele>247</ele>
        <time>2022-05-26T08:38:46Z</time>
      </trkpt>
      <trkpt lat="44.29174" lon="0.7353">
        <ele>247.6</ele>
        <time>2022-05-26T08:38:50Z</time>
      </trkpt>
      <trkpt lat="44.29174" lon="0.73541">
        <ele>249</ele>
        <time>2022-05-26T08:38:54Z</time>
      </trkpt>
      <trkpt lat="44.29173" lon="0.73552">
        <ele>249</ele>
        <time>2022-05-26T08:38:58Z</time>
      </trkpt>
      <trkpt lat="44.29173" lon="0.73561">
        <ele>250.2</ele>
        <time>2022-05-26T08:39:02Z</time>
      </trkpt>
      <trkpt lat="44.2917" lon="0.73594">
        <ele>250</ele>
        <time>2022-05-26T08:39:25Z</time>
      </trkpt>
      <trkpt lat="44.29167" lon="0.73608">
        <ele>249.6</ele>
        <time>2022-05-26T08:39:29Z</time>
      </trkpt>
      <trkpt lat="44.29163" lon="0.73617">
        <ele>250</ele>
        <time>2022-05-26T08:39:33Z</time>
      </trkpt>
      <trkpt lat="44.29158" lon="0.73628">
        <ele>250</ele>
        <time>2022-05-26T08:39:37Z</time>
      </trkpt>
      <trkpt lat="44.29156" lon="0.73641">
        <ele>251</ele>
        <time>2022-05-26T08:39:41Z</time>
      </trkpt>
      <trkpt lat="44.29154" lon="0.73651">
        <ele>251</ele>
        <time>2022-05-26T08:39:45Z</time>
      </trkpt>
      <trkpt lat="44.29151" lon="0.7366">
        <ele>252.6</ele>
        <time>2022-05-26T08:39:49Z</time>
      </trkpt>
      <trkpt lat="44.29147" lon="0.7367">
        <ele>253</ele>
        <time>2022-05-26T08:39:53Z</time>
      </trkpt>
      <trkpt lat="44.29145" lon="0.73683">
        <ele>253.2</ele>
        <time>2022-05-26T08:39:57Z</time>
      </trkpt>
      <trkpt lat="44.29144" lon="0.73693">
        <ele>254.2</ele>
        <time>2022-05-26T08:40:01Z</time>
      </trkpt>
      <trkpt lat="44.29146" lon="0.73705">
        <ele>255.2</ele>
        <time>2022-05-26T08:40:05Z</time>
      </trkpt>
      <trkpt lat="44.29152" lon="0.73718">
        <ele>256</ele>
        <time>2022-05-26T08:40:09Z</time>
      </trkpt>
      <trkpt lat="44.29153" lon="0.73732">
        <ele>255.4</ele>
        <time>2022-05-26T08:40:13Z</time>
      </trkpt>
      <trkpt lat="44.29155" lon="0.73743">
        <ele>255.2</ele>
        <time>2022-05-26T08:40:17Z</time>
      </trkpt>
      <trkpt lat="44.29155" lon="0.73757">
        <ele>256.4</ele>
        <time>2022-05-26T08:40:21Z</time>
      </trkpt>
      <trkpt lat="44.29159" lon="0.73767">
        <ele>255.4</ele>
        <time>2022-05-26T08:40:25Z</time>
      </trkpt>
      <trkpt lat="44.29163" lon="0.73784">
        <ele>255.4</ele>
        <time>2022-05-26T08:40:29Z</time>
      </trkpt>
      <trkpt lat="44.29165" lon="0.73798">
        <ele>255.8</ele>
        <time>2022-05-26T08:40:33Z</time>
      </trkpt>
      <trkpt lat="44.29169" lon="0.73811">
        <ele>256.4</ele>
        <time>2022-05-26T08:40:37Z</time>
      </trkpt>
      <trkpt lat="44.29173" lon="0.73824">
        <ele>255.6</ele>
        <time>2022-05-26T08:40:41Z</time>
      </trkpt>
      <trkpt lat="44.29175" lon="0.73834">
        <ele>255.8</ele>
        <time>2022-05-26T08:40:45Z</time>
      </trkpt>
      <trkpt lat="44.29179" lon="0.73846">
        <ele>255.8</ele>
        <time>2022-05-26T08:40:49Z</time>
      </trkpt>
      <trkpt lat="44.29184" lon="0.7386">
        <ele>255.6</ele>
        <time>2022-05-26T08:40:53Z</time>
      </trkpt>
      <trkpt lat="44.2919" lon="0.73874">
        <ele>255.6</ele>
        <time>2022-05-26T08:40:57Z</time>
      </trkpt>
      <trkpt lat="44.29194" lon="0.73888">
        <ele>255.4</ele>
        <time>2022-05-26T08:41:01Z</time>
      </trkpt>
      <trkpt lat="44.29202" lon="0.739">
        <ele>254.2</ele>
        <time>2022-05-26T08:41:05Z</time>
      </trkpt>
      <trkpt lat="44.29213" lon="0.73918">
        <ele>253.2</ele>
        <time>2022-05-26T08:41:09Z</time>
      </trkpt>
      <trkpt lat="44.29223" lon="0.73935">
        <ele>252.4</ele>
        <time>2022-05-26T08:41:13Z</time>
      </trkpt>
      <trkpt lat="44.29232" lon="0.7395">
        <ele>255.4</ele>
        <time>2022-05-26T08:41:17Z</time>
      </trkpt>
      <trkpt lat="44.29239" lon="0.73963">
        <ele>256.6</ele>
        <time>2022-05-26T08:41:21Z</time>
      </trkpt>
      <trkpt lat="44.29238" lon="0.73979">
        <ele>257</ele>
        <time>2022-05-26T08:41:25Z</time>
      </trkpt>
      <trkpt lat="44.29244" lon="0.73996">
        <ele>258.2</ele>
        <time>2022-05-26T08:41:29Z</time>
      </trkpt>
      <trkpt lat="44.29257" lon="0.74002">
        <ele>258</ele>
        <time>2022-05-26T08:41:33Z</time>
      </trkpt>
      <trkpt lat="44.29272" lon="0.74007">
        <ele>257.4</ele>
        <time>2022-05-26T08:41:37Z</time>
      </trkpt>
      <trkpt lat="44.29288" lon="0.74015">
        <ele>257.8</ele>
        <time>2022-05-26T08:41:41Z</time>
      </trkpt>
      <trkpt lat="44.29298" lon="0.74023">
        <ele>258</ele>
        <time>2022-05-26T08:41:45Z</time>
      </trkpt>
      <trkpt lat="44.29308" lon="0.74031">
        <ele>258.4</ele>
        <time>2022-05-26T08:41:49Z</time>
      </trkpt>
      <trkpt lat="44.29319" lon="0.74042">
        <ele>258.4</ele>
        <time>2022-05-26T08:41:53Z</time>
      </trkpt>
      <trkpt lat="44.2933" lon="0.74053">
        <ele>258.6</ele>
        <time>2022-05-26T08:41:57Z</time>
      </trkpt>
      <trkpt lat="44.29341" lon="0.74062">
        <ele>259</ele>
        <time>2022-05-26T08:42:01Z</time>
      </trkpt>
      <trkpt lat="44.29353" lon="0.74074">
        <ele>258.6</ele>
        <time>2022-05-26T08:42:05Z</time>
      </trkpt>
      <trkpt lat="44.29358" lon="0.74093">
        <ele>259.2</ele>
        <time>2022-05-26T08:42:09Z</time>
      </trkpt>
      <trkpt lat="44.29361" lon="0.74113">
        <ele>259.2</ele>
        <time>2022-05-26T08:42:13Z</time>
      </trkpt>
      <trkpt lat="44.29364" lon="0.74132">
        <ele>259</ele>
        <time>2022-05-26T08:42:17Z</time>
      </trkpt>
      <trkpt lat="44.29367" lon="0.74151">
        <ele>259.4</ele>
        <time>2022-05-26T08:42:21Z</time>
      </trkpt>
      <trkpt lat="44.2937" lon="0.74171">
        <ele>259.4</ele>
        <time>2022-05-26T08:42:25Z</time>
      </trkpt>
      <trkpt lat="44.29369" lon="0.74188">
        <ele>260</ele>
        <time>2022-05-26T08:42:29Z</time>
      </trkpt>
      <trkpt lat="44.29369" lon="0.74203">
        <ele>259.4</ele>
        <time>2022-05-26T08:42:33Z</time>
      </trkpt>
      <trkpt lat="44.29368" lon="0.74221">
        <ele>259</ele>
        <time>2022-05-26T08:42:37Z</time>
      </trkpt>
      <trkpt lat="44.29369" lon="0.74241">
        <ele>258.6</ele>
        <time>2022-05-26T08:42:41Z</time>
      </trkpt>
      <trkpt lat="44.29372" lon="0.7426">
        <ele>258.6</ele>
        <time>2022-05-26T08:42:45Z</time>
      </trkpt>
      <trkpt lat="44.29379" lon="0.74279">
        <ele>258.2</ele>
        <time>2022-05-26T08:42:49Z</time>
      </trkpt>
      <trkpt lat="44.29388" lon="0.74294">
        <ele>258.6</ele>
        <time>2022-05-26T08:42:53Z</time>
      </trkpt>
      <trkpt lat="44.29399" lon="0.74308">
        <ele>258.4</ele>
        <time>2022-05-26T08:42:57Z</time>
      </trkpt>
      <trkpt lat="44.2941" lon="0.74323">
        <ele>258.2</ele>
        <time>2022-05-26T08:43:01Z</time>
      </trkpt>
      <trkpt lat="44.29422" lon="0.74338">
        <ele>259</ele>
        <time>2022-05-26T08:43:05Z</time>
      </trkpt>
      <trkpt lat="44.29434" lon="0.74354">
        <ele>258.8</ele>
        <time>2022-05-26T08:43:09Z</time>
      </trkpt>
      <trkpt lat="44.29446" lon="0.74371">
        <ele>259</ele>
        <time>2022-05-26T08:43:13Z</time>
      </trkpt>
      <trkpt lat="44.29458" lon="0.74388">
        <ele>258.8</ele>
        <time>2022-05-26T08:43:17Z</time>
      </trkpt>
      <trkpt lat="44.29469" lon="0.74406">
        <ele>259.8</ele>
        <time>2022-05-26T08:43:21Z</time>
      </trkpt>
      <trkpt lat="44.29477" lon="0.74425">
        <ele>260.6</ele>
        <time>2022-05-26T08:43:25Z</time>
      </trkpt>
      <trkpt lat="44.29486" lon="0.74442">
        <ele>261.8</ele>
        <time>2022-05-26T08:43:29Z</time>
      </trkpt>
      <trkpt lat="44.29494" lon="0.74458">
        <ele>262.4</ele>
        <time>2022-05-26T08:43:33Z</time>
      </trkpt>
      <trkpt lat="44.295" lon="0.74474">
        <ele>263.8</ele>
        <time>2022-05-26T08:43:37Z</time>
      </trkpt>
      <trkpt lat="44.29504" lon="0.74491">
        <ele>263.8</ele>
        <time>2022-05-26T08:43:41Z</time>
      </trkpt>
      <trkpt lat="44.29508" lon="0.74507">
        <ele>263.6</ele>
        <time>2022-05-26T08:43:45Z</time>
      </trkpt>
      <trkpt lat="44.29513" lon="0.74524">
        <ele>264.8</ele>
        <time>2022-05-26T08:43:49Z</time>
      </trkpt>
      <trkpt lat="44.29517" lon="0.74541">
        <ele>265.4</ele>
        <time>2022-05-26T08:43:53Z</time>
      </trkpt>
      <trkpt lat="44.29521" lon="0.74556">
        <ele>266.4</ele>
        <time>2022-05-26T08:43:57Z</time>
      </trkpt>
      <trkpt lat="44.29525" lon="0.74571">
        <ele>266.8</ele>
        <time>2022-05-26T08:44:01Z</time>
      </trkpt>
      <trkpt lat="44.29529" lon="0.74587">
        <ele>266.4</ele>
        <time>2022-05-26T08:44:05Z</time>
      </trkpt>
      <trkpt lat="44.29533" lon="0.74603">
        <ele>267.4</ele>
        <time>2022-05-26T08:44:09Z</time>
      </trkpt>
      <trkpt lat="44.29537" lon="0.74618">
        <ele>267.8</ele>
        <time>2022-05-26T08:44:13Z</time>
      </trkpt>
      <trkpt lat="44.29541" lon="0.74633">
        <ele>267.8</ele>
        <time>2022-05-26T08:44:17Z</time>
      </trkpt>
      <trkpt lat="44.29546" lon="0.74649">
        <ele>268.4</ele>
        <time>2022-05-26T08:44:21Z</time>
      </trkpt>
      <trkpt lat="44.2955" lon="0.74665">
        <ele>268.4</ele>
        <time>2022-05-26T08:44:25Z</time>
      </trkpt>
      <trkpt lat="44.29554" lon="0.74681">
        <ele>269.2</ele>
        <time>2022-05-26T08:44:29Z</time>
      </trkpt>
      <trkpt lat="44.29558" lon="0.74694">
        <ele>269.4</ele>
        <time>2022-05-26T08:44:33Z</time>
      </trkpt>
      <trkpt lat="44.29561" lon="0.74706">
        <ele>270.6</ele>
        <time>2022-05-26T08:44:37Z</time>
      </trkpt>
      <trkpt lat="44.29565" lon="0.74719">
        <ele>270.8</ele>
        <time>2022-05-26T08:44:41Z</time>
      </trkpt>
      <trkpt lat="44.2957" lon="0.74732">
        <ele>271.8</ele>
        <time>2022-05-26T08:44:45Z</time>
      </trkpt>
      <trkpt lat="44.29576" lon="0.74741">
        <ele>271.6</ele>
        <time>2022-05-26T08:44:49Z</time>
      </trkpt>
      <trkpt lat="44.29581" lon="0.7475">
        <ele>272.6</ele>
        <time>2022-05-26T08:44:53Z</time>
      </trkpt>
      <trkpt lat="44.29585" lon="0.74762">
        <ele>272.8</ele>
        <time>2022-05-26T08:44:57Z</time>
      </trkpt>
      <trkpt lat="44.29592" lon="0.74773">
        <ele>273.8</ele>
        <time>2022-05-26T08:45:01Z</time>
      </trkpt>
      <trkpt lat="44.29599" lon="0.74783">
        <ele>274.4</ele>
        <time>2022-05-26T08:45:05Z</time>
      </trkpt>
      <trkpt lat="44.29604" lon="0.74793">
        <ele>274.8</ele>
        <time>2022-05-26T08:45:09Z</time>
      </trkpt>
      <trkpt lat="44.29609" lon="0.74803">
        <ele>276</ele>
        <time>2022-05-26T08:45:13Z</time>
      </trkpt>
      <trkpt lat="44.29611" lon="0.74812">
        <ele>276</ele>
        <time>2022-05-26T08:45:17Z</time>
      </trkpt>
      <trkpt lat="44.29616" lon="0.7482">
        <ele>276.8</ele>
        <time>2022-05-26T08:45:21Z</time>
      </trkpt>
      <trkpt lat="44.29621" lon="0.74828">
        <ele>277.4</ele>
        <time>2022-05-26T08:45:25Z</time>
      </trkpt>
      <trkpt lat="44.29625" lon="0.74839">
        <ele>277.6</ele>
        <time>2022-05-26T08:45:29Z</time>
      </trkpt>
      <trkpt lat="44.2963" lon="0.74852">
        <ele>278.4</ele>
        <time>2022-05-26T08:45:33Z</time>
      </trkpt>
      <trkpt lat="44.29633" lon="0.74863">
        <ele>278.8</ele>
        <time>2022-05-26T08:45:37Z</time>
      </trkpt>
      <trkpt lat="44.29638" lon="0.74874">
        <ele>279.6</ele>
        <time>2022-05-26T08:45:41Z</time>
      </trkpt>
      <trkpt lat="44.29643" lon="0.74887">
        <ele>279.4</ele>
        <time>2022-05-26T08:45:45Z</time>
      </trkpt>
      <trkpt lat="44.29647" lon="0.74897">
        <ele>279</ele>
        <time>2022-05-26T08:45:49Z</time>
      </trkpt>
      <trkpt lat="44.29653" lon="0.74912">
        <ele>277.6</ele>
        <time>2022-05-26T08:45:53Z</time>
      </trkpt>
      <trkpt lat="44.29662" lon="0.74932">
        <ele>277.6</ele>
        <time>2022-05-26T08:45:57Z</time>
      </trkpt>
      <trkpt lat="44.2967" lon="0.74953">
        <ele>277.4</ele>
        <time>2022-05-26T08:46:01Z</time>
      </trkpt>
      <trkpt lat="44.29678" lon="0.74979">
        <ele>276.4</ele>
        <time>2022-05-26T08:46:05Z</time>
      </trkpt>
      <trkpt lat="44.29691" lon="0.75006">
        <ele>275.2</ele>
        <time>2022-05-26T08:46:09Z</time>
      </trkpt>
      <trkpt lat="44.29706" lon="0.75032">
        <ele>273.6</ele>
        <time>2022-05-26T08:46:13Z</time>
      </trkpt>
      <trkpt lat="44.29722" lon="0.75057">
        <ele>273.4</ele>
        <time>2022-05-26T08:46:17Z</time>
      </trkpt>
      <trkpt lat="44.29738" lon="0.75079">
        <ele>272.2</ele>
        <time>2022-05-26T08:46:21Z</time>
      </trkpt>
      <trkpt lat="44.29754" lon="0.75097">
        <ele>271.6</ele>
        <time>2022-05-26T08:46:25Z</time>
      </trkpt>
      <trkpt lat="44.29771" lon="0.75114">
        <ele>271.4</ele>
        <time>2022-05-26T08:46:29Z</time>
      </trkpt>
      <trkpt lat="44.29788" lon="0.75133">
        <ele>271.8</ele>
        <time>2022-05-26T08:46:33Z</time>
      </trkpt>
      <trkpt lat="44.29803" lon="0.75154">
        <ele>270.4</ele>
        <time>2022-05-26T08:46:37Z</time>
      </trkpt>
      <trkpt lat="44.29813" lon="0.75177">
        <ele>270.8</ele>
        <time>2022-05-26T08:46:41Z</time>
      </trkpt>
      <trkpt lat="44.29822" lon="0.75199">
        <ele>271</ele>
        <time>2022-05-26T08:46:45Z</time>
      </trkpt>
      <trkpt lat="44.2983" lon="0.75219">
        <ele>269.6</ele>
        <time>2022-05-26T08:46:49Z</time>
      </trkpt>
      <trkpt lat="44.29834" lon="0.75229">
        <ele>269.2</ele>
        <time>2022-05-26T08:46:53Z</time>
      </trkpt>
      <trkpt lat="44.29828" lon="0.75244">
        <ele>268.4</ele>
        <time>2022-05-26T08:46:57Z</time>
      </trkpt>
      <trkpt lat="44.29819" lon="0.75265">
        <ele>267.8</ele>
        <time>2022-05-26T08:47:01Z</time>
      </trkpt>
      <trkpt lat="44.29809" lon="0.75293">
        <ele>267.2</ele>
        <time>2022-05-26T08:47:05Z</time>
      </trkpt>
      <trkpt lat="44.298" lon="0.75324">
        <ele>267.2</ele>
        <time>2022-05-26T08:47:09Z</time>
      </trkpt>
      <trkpt lat="44.29793" lon="0.75355">
        <ele>266.8</ele>
        <time>2022-05-26T08:47:13Z</time>
      </trkpt>
      <trkpt lat="44.29783" lon="0.75385">
        <ele>266.8</ele>
        <time>2022-05-26T08:47:17Z</time>
      </trkpt>
      <trkpt lat="44.29775" lon="0.75413">
        <ele>267</ele>
        <time>2022-05-26T08:47:21Z</time>
      </trkpt>
      <trkpt lat="44.29774" lon="0.75444">
        <ele>266.2</ele>
        <time>2022-05-26T08:47:25Z</time>
      </trkpt>
      <trkpt lat="44.29769" lon="0.75476">
        <ele>265.6</ele>
        <time>2022-05-26T08:47:29Z</time>
      </trkpt>
      <trkpt lat="44.29763" lon="0.75511">
        <ele>266</ele>
        <time>2022-05-26T08:47:33Z</time>
      </trkpt>
      <trkpt lat="44.29756" lon="0.75546">
        <ele>265.4</ele>
        <time>2022-05-26T08:47:37Z</time>
      </trkpt>
      <trkpt lat="44.2975" lon="0.75579">
        <ele>265.4</ele>
        <time>2022-05-26T08:47:41Z</time>
      </trkpt>
      <trkpt lat="44.29743" lon="0.75614">
        <ele>264.8</ele>
        <time>2022-05-26T08:47:45Z</time>
      </trkpt>
      <trkpt lat="44.29737" lon="0.75644">
        <ele>264.4</ele>
        <time>2022-05-26T08:47:49Z</time>
      </trkpt>
      <trkpt lat="44.29731" lon="0.75671">
        <ele>266.2</ele>
        <time>2022-05-26T08:47:53Z</time>
      </trkpt>
      <trkpt lat="44.29725" lon="0.757">
        <ele>265.8</ele>
        <time>2022-05-26T08:47:57Z</time>
      </trkpt>
      <trkpt lat="44.2972" lon="0.75728">
        <ele>265.4</ele>
        <time>2022-05-26T08:48:01Z</time>
      </trkpt>
      <trkpt lat="44.29715" lon="0.7576">
        <ele>265.2</ele>
        <time>2022-05-26T08:48:05Z</time>
      </trkpt>
      <trkpt lat="44.29712" lon="0.75791">
        <ele>264.4</ele>
        <time>2022-05-26T08:48:09Z</time>
      </trkpt>
      <trkpt lat="44.29709" lon="0.75822">
        <ele>264.2</ele>
        <time>2022-05-26T08:48:13Z</time>
      </trkpt>
      <trkpt lat="44.29704" lon="0.75848">
        <ele>263.8</ele>
        <time>2022-05-26T08:48:17Z</time>
      </trkpt>
      <trkpt lat="44.29697" lon="0.75874">
        <ele>263.6</ele>
        <time>2022-05-26T08:48:21Z</time>
      </trkpt>
      <trkpt lat="44.29689" lon="0.75901">
        <ele>263.6</ele>
        <time>2022-05-26T08:48:25Z</time>
      </trkpt>
      <trkpt lat="44.29677" lon="0.75925">
        <ele>263.8</ele>
        <time>2022-05-26T08:48:29Z</time>
      </trkpt>
      <trkpt lat="44.29664" lon="0.75945">
        <ele>265</ele>
        <time>2022-05-26T08:48:33Z</time>
      </trkpt>
      <trkpt lat="44.29651" lon="0.75961">
        <ele>266.4</ele>
        <time>2022-05-26T08:48:37Z</time>
      </trkpt>
      <trkpt lat="44.29638" lon="0.75975">
        <ele>267.4</ele>
        <time>2022-05-26T08:48:41Z</time>
      </trkpt>
      <trkpt lat="44.29626" lon="0.75988">
        <ele>267.8</ele>
        <time>2022-05-26T08:48:45Z</time>
      </trkpt>
      <trkpt lat="44.29615" lon="0.76002">
        <ele>268.8</ele>
        <time>2022-05-26T08:48:49Z</time>
      </trkpt>
      <trkpt lat="44.29602" lon="0.76015">
        <ele>268.2</ele>
        <time>2022-05-26T08:48:53Z</time>
      </trkpt>
      <trkpt lat="44.29591" lon="0.76034">
        <ele>269</ele>
        <time>2022-05-26T08:48:57Z</time>
      </trkpt>
      <trkpt lat="44.29589" lon="0.76056">
        <ele>268.6</ele>
        <time>2022-05-26T08:49:01Z</time>
      </trkpt>
      <trkpt lat="44.29591" lon="0.76078">
        <ele>269.4</ele>
        <time>2022-05-26T08:49:05Z</time>
      </trkpt>
      <trkpt lat="44.29595" lon="0.76099">
        <ele>270</ele>
        <time>2022-05-26T08:49:09Z</time>
      </trkpt>
      <trkpt lat="44.296" lon="0.76121">
        <ele>269.2</ele>
        <time>2022-05-26T08:49:13Z</time>
      </trkpt>
      <trkpt lat="44.29604" lon="0.76145">
        <ele>267.8</ele>
        <time>2022-05-26T08:49:17Z</time>
      </trkpt>
      <trkpt lat="44.2961" lon="0.76177">
        <ele>266</ele>
        <time>2022-05-26T08:49:21Z</time>
      </trkpt>
      <trkpt lat="44.29615" lon="0.7621">
        <ele>264.6</ele>
        <time>2022-05-26T08:49:25Z</time>
      </trkpt>
      <trkpt lat="44.29623" lon="0.76243">
        <ele>263.6</ele>
        <time>2022-05-26T08:49:29Z</time>
      </trkpt>
      <trkpt lat="44.29633" lon="0.76272">
        <ele>264.8</ele>
        <time>2022-05-26T08:49:33Z</time>
      </trkpt>
      <trkpt lat="44.29644" lon="0.76297">
        <ele>264.8</ele>
        <time>2022-05-26T08:49:37Z</time>
      </trkpt>
      <trkpt lat="44.29654" lon="0.7632">
        <ele>265.2</ele>
        <time>2022-05-26T08:49:41Z</time>
      </trkpt>
      <trkpt lat="44.2966" lon="0.76344">
        <ele>266</ele>
        <time>2022-05-26T08:49:45Z</time>
      </trkpt>
      <trkpt lat="44.29667" lon="0.7637">
        <ele>265.4</ele>
        <time>2022-05-26T08:49:49Z</time>
      </trkpt>
      <trkpt lat="44.29676" lon="0.764">
        <ele>264.2</ele>
        <time>2022-05-26T08:49:53Z</time>
      </trkpt>
      <trkpt lat="44.29685" lon="0.76427">
        <ele>263.8</ele>
        <time>2022-05-26T08:49:57Z</time>
      </trkpt>
      <trkpt lat="44.29698" lon="0.7645">
        <ele>263.4</ele>
        <time>2022-05-26T08:50:01Z</time>
      </trkpt>
      <trkpt lat="44.2972" lon="0.76465">
        <ele>261.4</ele>
        <time>2022-05-26T08:50:05Z</time>
      </trkpt>
      <trkpt lat="44.29737" lon="0.7649">
        <ele>259.8</ele>
        <time>2022-05-26T08:50:09Z</time>
      </trkpt>
      <trkpt lat="44.2975" lon="0.76516">
        <ele>260.6</ele>
        <time>2022-05-26T08:50:13Z</time>
      </trkpt>
      <trkpt lat="44.29763" lon="0.76538">
        <ele>261.8</ele>
        <time>2022-05-26T08:50:17Z</time>
      </trkpt>
      <trkpt lat="44.29775" lon="0.76561">
        <ele>262</ele>
        <time>2022-05-26T08:50:21Z</time>
      </trkpt>
      <trkpt lat="44.29785" lon="0.76584">
        <ele>261.8</ele>
        <time>2022-05-26T08:50:25Z</time>
      </trkpt>
      <trkpt lat="44.29793" lon="0.76602">
        <ele>263.4</ele>
        <time>2022-05-26T08:50:29Z</time>
      </trkpt>
      <trkpt lat="44.29801" lon="0.76621">
        <ele>264.8</ele>
        <time>2022-05-26T08:50:33Z</time>
      </trkpt>
      <trkpt lat="44.29808" lon="0.7664">
        <ele>264.4</ele>
        <time>2022-05-26T08:50:37Z</time>
      </trkpt>
      <trkpt lat="44.29817" lon="0.76656">
        <ele>265.8</ele>
        <time>2022-05-26T08:50:41Z</time>
      </trkpt>
      <trkpt lat="44.29829" lon="0.76666">
        <ele>266</ele>
        <time>2022-05-26T08:50:45Z</time>
      </trkpt>
      <trkpt lat="44.29843" lon="0.76672">
        <ele>266.6</ele>
        <time>2022-05-26T08:50:49Z</time>
      </trkpt>
      <trkpt lat="44.29857" lon="0.7668">
        <ele>267</ele>
        <time>2022-05-26T08:50:53Z</time>
      </trkpt>
      <trkpt lat="44.2987" lon="0.76687">
        <ele>267.6</ele>
        <time>2022-05-26T08:50:57Z</time>
      </trkpt>
      <trkpt lat="44.29884" lon="0.76696">
        <ele>268.2</ele>
        <time>2022-05-26T08:51:01Z</time>
      </trkpt>
      <trkpt lat="44.29896" lon="0.76707">
        <ele>268.8</ele>
        <time>2022-05-26T08:51:05Z</time>
      </trkpt>
      <trkpt lat="44.29908" lon="0.76718">
        <ele>268.8</ele>
        <time>2022-05-26T08:51:09Z</time>
      </trkpt>
      <trkpt lat="44.29922" lon="0.76729">
        <ele>268.4</ele>
        <time>2022-05-26T08:51:13Z</time>
      </trkpt>
      <trkpt lat="44.29935" lon="0.7674">
        <ele>267.4</ele>
        <time>2022-05-26T08:51:17Z</time>
      </trkpt>
      <trkpt lat="44.29943" lon="0.76752">
        <ele>268.2</ele>
        <time>2022-05-26T08:51:21Z</time>
      </trkpt>
      <trkpt lat="44.2994" lon="0.76771">
        <ele>268.6</ele>
        <time>2022-05-26T08:51:25Z</time>
      </trkpt>
      <trkpt lat="44.29936" lon="0.76792">
        <ele>268.4</ele>
        <time>2022-05-26T08:51:29Z</time>
      </trkpt>
      <trkpt lat="44.29933" lon="0.76816">
        <ele>267.8</ele>
        <time>2022-05-26T08:51:33Z</time>
      </trkpt>
      <trkpt lat="44.29931" lon="0.76843">
        <ele>267.4</ele>
        <time>2022-05-26T08:51:37Z</time>
      </trkpt>
      <trkpt lat="44.29931" lon="0.76872">
        <ele>267.6</ele>
        <time>2022-05-26T08:51:41Z</time>
      </trkpt>
      <trkpt lat="44.29932" lon="0.76902">
        <ele>266.8</ele>
        <time>2022-05-26T08:51:45Z</time>
      </trkpt>
      <trkpt lat="44.29941" lon="0.7693">
        <ele>266.8</ele>
        <time>2022-05-26T08:51:49Z</time>
      </trkpt>
      <trkpt lat="44.29952" lon="0.76957">
        <ele>266.8</ele>
        <time>2022-05-26T08:51:53Z</time>
      </trkpt>
      <trkpt lat="44.29966" lon="0.7698">
        <ele>266.6</ele>
        <time>2022-05-26T08:51:57Z</time>
      </trkpt>
      <trkpt lat="44.2998" lon="0.77001">
        <ele>266.8</ele>
        <time>2022-05-26T08:52:01Z</time>
      </trkpt>
      <trkpt lat="44.29994" lon="0.77021">
        <ele>267.6</ele>
        <time>2022-05-26T08:52:05Z</time>
      </trkpt>
      <trkpt lat="44.30007" lon="0.7704">
        <ele>269.2</ele>
        <time>2022-05-26T08:52:09Z</time>
      </trkpt>
      <trkpt lat="44.3002" lon="0.7706">
        <ele>268.6</ele>
        <time>2022-05-26T08:52:13Z</time>
      </trkpt>
      <trkpt lat="44.30035" lon="0.77081">
        <ele>267.6</ele>
        <time>2022-05-26T08:52:17Z</time>
      </trkpt>
      <trkpt lat="44.30054" lon="0.77101">
        <ele>265.4</ele>
        <time>2022-05-26T08:52:21Z</time>
      </trkpt>
      <trkpt lat="44.30073" lon="0.77124">
        <ele>263.4</ele>
        <time>2022-05-26T08:52:25Z</time>
      </trkpt>
      <trkpt lat="44.30099" lon="0.77139">
        <ele>260.4</ele>
        <time>2022-05-26T08:52:29Z</time>
      </trkpt>
      <trkpt lat="44.30128" lon="0.77149">
        <ele>258.8</ele>
        <time>2022-05-26T08:52:33Z</time>
      </trkpt>
      <trkpt lat="44.30156" lon="0.77167">
        <ele>258.6</ele>
        <time>2022-05-26T08:52:37Z</time>
      </trkpt>
      <trkpt lat="44.30183" lon="0.77188">
        <ele>256.6</ele>
        <time>2022-05-26T08:52:41Z</time>
      </trkpt>
      <trkpt lat="44.30209" lon="0.77211">
        <ele>255.4</ele>
        <time>2022-05-26T08:52:45Z</time>
      </trkpt>
      <trkpt lat="44.30232" lon="0.77238">
        <ele>255.2</ele>
        <time>2022-05-26T08:52:49Z</time>
      </trkpt>
      <trkpt lat="44.3025" lon="0.77264">
        <ele>256.6</ele>
        <time>2022-05-26T08:52:53Z</time>
      </trkpt>
      <trkpt lat="44.30263" lon="0.7729">
        <ele>258.6</ele>
        <time>2022-05-26T08:52:57Z</time>
      </trkpt>
      <trkpt lat="44.30273" lon="0.77314">
        <ele>260.8</ele>
        <time>2022-05-26T08:53:01Z</time>
      </trkpt>
      <trkpt lat="44.30284" lon="0.77339">
        <ele>261.2</ele>
        <time>2022-05-26T08:53:05Z</time>
      </trkpt>
      <trkpt lat="44.30296" lon="0.77364">
        <ele>261.8</ele>
        <time>2022-05-26T08:53:09Z</time>
      </trkpt>
      <trkpt lat="44.30309" lon="0.77386">
        <ele>262</ele>
        <time>2022-05-26T08:53:13Z</time>
      </trkpt>
      <trkpt lat="44.30323" lon="0.77408">
        <ele>262.4</ele>
        <time>2022-05-26T08:53:17Z</time>
      </trkpt>
      <trkpt lat="44.30339" lon="0.77428">
        <ele>261.6</ele>
        <time>2022-05-26T08:53:21Z</time>
      </trkpt>
      <trkpt lat="44.30355" lon="0.77448">
        <ele>262.2</ele>
        <time>2022-05-26T08:53:25Z</time>
      </trkpt>
      <trkpt lat="44.30371" lon="0.77469">
        <ele>261.6</ele>
        <time>2022-05-26T08:53:29Z</time>
      </trkpt>
      <trkpt lat="44.30384" lon="0.77491">
        <ele>262</ele>
        <time>2022-05-26T08:53:33Z</time>
      </trkpt>
      <trkpt lat="44.30395" lon="0.77516">
        <ele>262.8</ele>
        <time>2022-05-26T08:53:37Z</time>
      </trkpt>
      <trkpt lat="44.30406" lon="0.7754">
        <ele>264.2</ele>
        <time>2022-05-26T08:53:41Z</time>
      </trkpt>
      <trkpt lat="44.30417" lon="0.77564">
        <ele>263.8</ele>
        <time>2022-05-26T08:53:45Z</time>
      </trkpt>
      <trkpt lat="44.30428" lon="0.7759">
        <ele>263.8</ele>
        <time>2022-05-26T08:53:49Z</time>
      </trkpt>
      <trkpt lat="44.30442" lon="0.77614">
        <ele>263.4</ele>
        <time>2022-05-26T08:53:53Z</time>
      </trkpt>
      <trkpt lat="44.30458" lon="0.77635">
        <ele>260.6</ele>
        <time>2022-05-26T08:53:57Z</time>
      </trkpt>
      <trkpt lat="44.30477" lon="0.7765">
        <ele>260.4</ele>
        <time>2022-05-26T08:54:01Z</time>
      </trkpt>
      <trkpt lat="44.30497" lon="0.77663">
        <ele>260.8</ele>
        <time>2022-05-26T08:54:05Z</time>
      </trkpt>
      <trkpt lat="44.3052" lon="0.77672">
        <ele>259</ele>
        <time>2022-05-26T08:54:09Z</time>
      </trkpt>
      <trkpt lat="44.30544" lon="0.77676">
        <ele>259.6</ele>
        <time>2022-05-26T08:54:13Z</time>
      </trkpt>
      <trkpt lat="44.30566" lon="0.77677">
        <ele>260.4</ele>
        <time>2022-05-26T08:54:17Z</time>
      </trkpt>
      <trkpt lat="44.30587" lon="0.77678">
        <ele>261.8</ele>
        <time>2022-05-26T08:54:21Z</time>
      </trkpt>
      <trkpt lat="44.30605" lon="0.77679">
        <ele>262.2</ele>
        <time>2022-05-26T08:54:25Z</time>
      </trkpt>
      <trkpt lat="44.30622" lon="0.77681">
        <ele>263.4</ele>
        <time>2022-05-26T08:54:29Z</time>
      </trkpt>
      <trkpt lat="44.30639" lon="0.77684">
        <ele>264</ele>
        <time>2022-05-26T08:54:33Z</time>
      </trkpt>
      <trkpt lat="44.30659" lon="0.77689">
        <ele>262.6</ele>
        <time>2022-05-26T08:54:37Z</time>
      </trkpt>
      <trkpt lat="44.30681" lon="0.77697">
        <ele>261</ele>
        <time>2022-05-26T08:54:41Z</time>
      </trkpt>
      <trkpt lat="44.30708" lon="0.77708">
        <ele>259.4</ele>
        <time>2022-05-26T08:54:45Z</time>
      </trkpt>
      <trkpt lat="44.30736" lon="0.77718">
        <ele>257.4</ele>
        <time>2022-05-26T08:54:49Z</time>
      </trkpt>
      <trkpt lat="44.30764" lon="0.77724">
        <ele>257.4</ele>
        <time>2022-05-26T08:54:53Z</time>
      </trkpt>
      <trkpt lat="44.30791" lon="0.77726">
        <ele>257.6</ele>
        <time>2022-05-26T08:54:57Z</time>
      </trkpt>
      <trkpt lat="44.30812" lon="0.77726">
        <ele>258.6</ele>
        <time>2022-05-26T08:55:01Z</time>
      </trkpt>
      <trkpt lat="44.30831" lon="0.77726">
        <ele>260</ele>
        <time>2022-05-26T08:55:05Z</time>
      </trkpt>
      <trkpt lat="44.30849" lon="0.77728">
        <ele>262</ele>
        <time>2022-05-26T08:55:09Z</time>
      </trkpt>
      <trkpt lat="44.30867" lon="0.77731">
        <ele>262.4</ele>
        <time>2022-05-26T08:55:13Z</time>
      </trkpt>
      <trkpt lat="44.30884" lon="0.77739">
        <ele>263.8</ele>
        <time>2022-05-26T08:55:17Z</time>
      </trkpt>
      <trkpt lat="44.30898" lon="0.77753">
        <ele>264.8</ele>
        <time>2022-05-26T08:55:21Z</time>
      </trkpt>
      <trkpt lat="44.30909" lon="0.77769">
        <ele>265.8</ele>
        <time>2022-05-26T08:55:25Z</time>
      </trkpt>
      <trkpt lat="44.30918" lon="0.77788">
        <ele>266</ele>
        <time>2022-05-26T08:55:29Z</time>
      </trkpt>
      <trkpt lat="44.30923" lon="0.77814">
        <ele>264.6</ele>
        <time>2022-05-26T08:55:33Z</time>
      </trkpt>
      <trkpt lat="44.30928" lon="0.77841">
        <ele>264.8</ele>
        <time>2022-05-26T08:55:37Z</time>
      </trkpt>
      <trkpt lat="44.30929" lon="0.77872">
        <ele>263.6</ele>
        <time>2022-05-26T08:55:41Z</time>
      </trkpt>
      <trkpt lat="44.30925" lon="0.77907">
        <ele>261.8</ele>
        <time>2022-05-26T08:55:45Z</time>
      </trkpt>
      <trkpt lat="44.30921" lon="0.77956">
        <ele>256.6</ele>
        <time>2022-05-26T08:55:49Z</time>
      </trkpt>
      <trkpt lat="44.30918" lon="0.78014">
        <ele>248.8</ele>
        <time>2022-05-26T08:55:53Z</time>
      </trkpt>
      <trkpt lat="44.30912" lon="0.78063">
        <ele>247</ele>
        <time>2022-05-26T08:55:57Z</time>
      </trkpt>
      <trkpt lat="44.30903" lon="0.7812">
        <ele>243.4</ele>
        <time>2022-05-26T08:56:01Z</time>
      </trkpt>
      <trkpt lat="44.30891" lon="0.78179">
        <ele>238.6</ele>
        <time>2022-05-26T08:56:05Z</time>
      </trkpt>
      <trkpt lat="44.30879" lon="0.78238">
        <ele>232.8</ele>
        <time>2022-05-26T08:56:09Z</time>
      </trkpt>
      <trkpt lat="44.30866" lon="0.78275">
        <ele>233.6</ele>
        <time>2022-05-26T08:56:13Z</time>
      </trkpt>
      <trkpt lat="44.30846" lon="0.78277">
        <ele>232</ele>
        <time>2022-05-26T08:56:17Z</time>
      </trkpt>
      <trkpt lat="44.30836" lon="0.78241">
        <ele>226.4</ele>
        <time>2022-05-26T08:56:21Z</time>
      </trkpt>
      <trkpt lat="44.30824" lon="0.78186">
        <ele>218.4</ele>
        <time>2022-05-26T08:56:25Z</time>
      </trkpt>
      <trkpt lat="44.30797" lon="0.78131">
        <ele>208.6</ele>
        <time>2022-05-26T08:56:29Z</time>
      </trkpt>
      <trkpt lat="44.30764" lon="0.78084">
        <ele>205.2</ele>
        <time>2022-05-26T08:56:33Z</time>
      </trkpt>
      <trkpt lat="44.3073" lon="0.78067">
        <ele>202.6</ele>
        <time>2022-05-26T08:56:37Z</time>
      </trkpt>
      <trkpt lat="44.30701" lon="0.78097">
        <ele>201.4</ele>
        <time>2022-05-26T08:56:41Z</time>
      </trkpt>
      <trkpt lat="44.30686" lon="0.7815">
        <ele>199</ele>
        <time>2022-05-26T08:56:45Z</time>
      </trkpt>
      <trkpt lat="44.30672" lon="0.78204">
        <ele>196</ele>
        <time>2022-05-26T08:56:49Z</time>
      </trkpt>
      <trkpt lat="44.30658" lon="0.78262">
        <ele>192</ele>
        <time>2022-05-26T08:56:53Z</time>
      </trkpt>
      <trkpt lat="44.30638" lon="0.78316">
        <ele>188.8</ele>
        <time>2022-05-26T08:56:57Z</time>
      </trkpt>
      <trkpt lat="44.30618" lon="0.78349">
        <ele>191.4</ele>
        <time>2022-05-26T08:57:01Z</time>
      </trkpt>
      <trkpt lat="44.30631" lon="0.78377">
        <ele>190</ele>
        <time>2022-05-26T08:57:05Z</time>
      </trkpt>
      <trkpt lat="44.30649" lon="0.78398">
        <ele>190</ele>
        <time>2022-05-26T08:57:09Z</time>
      </trkpt>
      <trkpt lat="44.30638" lon="0.78415">
        <ele>191.6</ele>
        <time>2022-05-26T08:57:13Z</time>
      </trkpt>
      <trkpt lat="44.30619" lon="0.78417">
        <ele>192</ele>
        <time>2022-05-26T08:57:17Z</time>
      </trkpt>
      <trkpt lat="44.30603" lon="0.78405">
        <ele>191.6</ele>
        <time>2022-05-26T08:57:21Z</time>
      </trkpt>
      <trkpt lat="44.30586" lon="0.78389">
        <ele>192.2</ele>
        <time>2022-05-26T08:57:25Z</time>
      </trkpt>
      <trkpt lat="44.30571" lon="0.78374">
        <ele>192.4</ele>
        <time>2022-05-26T08:57:29Z</time>
      </trkpt>
      <trkpt lat="44.30558" lon="0.7836">
        <ele>194.4</ele>
        <time>2022-05-26T08:57:33Z</time>
      </trkpt>
      <trkpt lat="44.30547" lon="0.78348">
        <ele>196.2</ele>
        <time>2022-05-26T08:57:37Z</time>
      </trkpt>
      <trkpt lat="44.30534" lon="0.78346">
        <ele>196.8</ele>
        <time>2022-05-26T08:57:41Z</time>
      </trkpt>
      <trkpt lat="44.30524" lon="0.78359">
        <ele>198.2</ele>
        <time>2022-05-26T08:57:45Z</time>
      </trkpt>
      <trkpt lat="44.30514" lon="0.78373">
        <ele>198.6</ele>
        <time>2022-05-26T08:57:49Z</time>
      </trkpt>
      <trkpt lat="44.30502" lon="0.78381">
        <ele>199</ele>
        <time>2022-05-26T08:57:53Z</time>
      </trkpt>
      <trkpt lat="44.30492" lon="0.7839">
        <ele>199.6</ele>
        <time>2022-05-26T08:57:57Z</time>
      </trkpt>
      <trkpt lat="44.30479" lon="0.78397">
        <ele>200</ele>
        <time>2022-05-26T08:58:01Z</time>
      </trkpt>
      <trkpt lat="44.30466" lon="0.78403">
        <ele>199.6</ele>
        <time>2022-05-26T08:58:05Z</time>
      </trkpt>
      <trkpt lat="44.30453" lon="0.7841">
        <ele>199.8</ele>
        <time>2022-05-26T08:58:09Z</time>
      </trkpt>
      <trkpt lat="44.3044" lon="0.78416">
        <ele>200.8</ele>
        <time>2022-05-26T08:58:13Z</time>
      </trkpt>
      <trkpt lat="44.30426" lon="0.78423">
        <ele>200.4</ele>
        <time>2022-05-26T08:58:17Z</time>
      </trkpt>
      <trkpt lat="44.30409" lon="0.78431">
        <ele>199.6</ele>
        <time>2022-05-26T08:58:21Z</time>
      </trkpt>
      <trkpt lat="44.30393" lon="0.78438">
        <ele>200.8</ele>
        <time>2022-05-26T08:58:25Z</time>
      </trkpt>
      <trkpt lat="44.30379" lon="0.78447">
        <ele>200.2</ele>
        <time>2022-05-26T08:58:29Z</time>
      </trkpt>
      <trkpt lat="44.30364" lon="0.78456">
        <ele>200.6</ele>
        <time>2022-05-26T08:58:33Z</time>
      </trkpt>
      <trkpt lat="44.3035" lon="0.78465">
        <ele>200.4</ele>
        <time>2022-05-26T08:58:37Z</time>
      </trkpt>
      <trkpt lat="44.30336" lon="0.78471">
        <ele>201.2</ele>
        <time>2022-05-26T08:58:41Z</time>
      </trkpt>
      <trkpt lat="44.3032" lon="0.78471">
        <ele>201.4</ele>
        <time>2022-05-26T08:58:45Z</time>
      </trkpt>
      <trkpt lat="44.30303" lon="0.78465">
        <ele>201.2</ele>
        <time>2022-05-26T08:58:49Z</time>
      </trkpt>
      <trkpt lat="44.3029" lon="0.78455">
        <ele>202</ele>
        <time>2022-05-26T08:58:53Z</time>
      </trkpt>
      <trkpt lat="44.30275" lon="0.78442">
        <ele>202</ele>
        <time>2022-05-26T08:58:57Z</time>
      </trkpt>
      <trkpt lat="44.30263" lon="0.78431">
        <ele>202.4</ele>
        <time>2022-05-26T08:59:01Z</time>
      </trkpt>
      <trkpt lat="44.30252" lon="0.78419">
        <ele>202.8</ele>
        <time>2022-05-26T08:59:05Z</time>
      </trkpt>
      <trkpt lat="44.30243" lon="0.78408">
        <ele>204</ele>
        <time>2022-05-26T08:59:09Z</time>
      </trkpt>
      <trkpt lat="44.30234" lon="0.78397">
        <ele>204.4</ele>
        <time>2022-05-26T08:59:13Z</time>
      </trkpt>
      <trkpt lat="44.30225" lon="0.78387">
        <ele>206.2</ele>
        <time>2022-05-26T08:59:17Z</time>
      </trkpt>
      <trkpt lat="44.30215" lon="0.78377">
        <ele>206</ele>
        <time>2022-05-26T08:59:21Z</time>
      </trkpt>
      <trkpt lat="44.30204" lon="0.78369">
        <ele>206.6</ele>
        <time>2022-05-26T08:59:25Z</time>
      </trkpt>
      <trkpt lat="44.30192" lon="0.78362">
        <ele>208</ele>
        <time>2022-05-26T08:59:29Z</time>
      </trkpt>
      <trkpt lat="44.30181" lon="0.78357">
        <ele>208.2</ele>
        <time>2022-05-26T08:59:33Z</time>
      </trkpt>
      <trkpt lat="44.30169" lon="0.78354">
        <ele>208.8</ele>
        <time>2022-05-26T08:59:37Z</time>
      </trkpt>
      <trkpt lat="44.30157" lon="0.78351">
        <ele>209.6</ele>
        <time>2022-05-26T08:59:41Z</time>
      </trkpt>
      <trkpt lat="44.30145" lon="0.78348">
        <ele>210.2</ele>
        <time>2022-05-26T08:59:45Z</time>
      </trkpt>
      <trkpt lat="44.30134" lon="0.78347">
        <ele>211.2</ele>
        <time>2022-05-26T08:59:49Z</time>
      </trkpt>
      <trkpt lat="44.30122" lon="0.78347">
        <ele>211.2</ele>
        <time>2022-05-26T08:59:53Z</time>
      </trkpt>
      <trkpt lat="44.30109" lon="0.78348">
        <ele>211.2</ele>
        <time>2022-05-26T08:59:57Z</time>
      </trkpt>
      <trkpt lat="44.30094" lon="0.7835">
        <ele>210.8</ele>
        <time>2022-05-26T09:00:01Z</time>
      </trkpt>
      <trkpt lat="44.3008" lon="0.78352">
        <ele>211</ele>
        <time>2022-05-26T09:00:05Z</time>
      </trkpt>
      <trkpt lat="44.30067" lon="0.78357">
        <ele>211.2</ele>
        <time>2022-05-26T09:00:09Z</time>
      </trkpt>
      <trkpt lat="44.30054" lon="0.78361">
        <ele>211.4</ele>
        <time>2022-05-26T09:00:13Z</time>
      </trkpt>
      <trkpt lat="44.30042" lon="0.78364">
        <ele>212</ele>
        <time>2022-05-26T09:00:17Z</time>
      </trkpt>
      <trkpt lat="44.3003" lon="0.78366">
        <ele>212.8</ele>
        <time>2022-05-26T09:00:21Z</time>
      </trkpt>
      <trkpt lat="44.3002" lon="0.78368">
        <ele>213.6</ele>
        <time>2022-05-26T09:00:25Z</time>
      </trkpt>
      <trkpt lat="44.3001" lon="0.78369">
        <ele>213.8</ele>
        <time>2022-05-26T09:00:29Z</time>
      </trkpt>
      <trkpt lat="44.3" lon="0.78371">
        <ele>214</ele>
        <time>2022-05-26T09:00:33Z</time>
      </trkpt>
      <trkpt lat="44.29989" lon="0.78373">
        <ele>215</ele>
        <time>2022-05-26T09:00:37Z</time>
      </trkpt>
      <trkpt lat="44.29981" lon="0.78373">
        <ele>215.8</ele>
        <time>2022-05-26T09:00:41Z</time>
      </trkpt>
      <trkpt lat="44.29974" lon="0.78376">
        <ele>216</ele>
        <time>2022-05-26T09:00:45Z</time>
      </trkpt>
      <trkpt lat="44.29966" lon="0.78377">
        <ele>217</ele>
        <time>2022-05-26T09:00:49Z</time>
      </trkpt>
      <trkpt lat="44.29957" lon="0.7838">
        <ele>217.6</ele>
        <time>2022-05-26T09:00:53Z</time>
      </trkpt>
      <trkpt lat="44.29947" lon="0.78382">
        <ele>217.4</ele>
        <time>2022-05-26T09:00:57Z</time>
      </trkpt>
      <trkpt lat="44.29936" lon="0.78385">
        <ele>218</ele>
        <time>2022-05-26T09:01:01Z</time>
      </trkpt>
      <trkpt lat="44.29926" lon="0.7839">
        <ele>217.8</ele>
        <time>2022-05-26T09:01:05Z</time>
      </trkpt>
      <trkpt lat="44.29916" lon="0.78399">
        <ele>218.4</ele>
        <time>2022-05-26T09:01:09Z</time>
      </trkpt>
      <trkpt lat="44.29906" lon="0.78408">
        <ele>218.4</ele>
        <time>2022-05-26T09:01:13Z</time>
      </trkpt>
      <trkpt lat="44.29895" lon="0.78418">
        <ele>218.6</ele>
        <time>2022-05-26T09:01:17Z</time>
      </trkpt>
      <trkpt lat="44.29882" lon="0.78424">
        <ele>219.6</ele>
        <time>2022-05-26T09:01:21Z</time>
      </trkpt>
      <trkpt lat="44.29872" lon="0.78426">
        <ele>219.8</ele>
        <time>2022-05-26T09:01:25Z</time>
      </trkpt>
      <trkpt lat="44.29863" lon="0.78427">
        <ele>219.6</ele>
        <time>2022-05-26T09:01:29Z</time>
      </trkpt>
      <trkpt lat="44.29852" lon="0.78428">
        <ele>220</ele>
        <time>2022-05-26T09:01:33Z</time>
      </trkpt>
      <trkpt lat="44.29838" lon="0.78432">
        <ele>220.6</ele>
        <time>2022-05-26T09:01:37Z</time>
      </trkpt>
      <trkpt lat="44.29825" lon="0.78432">
        <ele>222</ele>
        <time>2022-05-26T09:01:41Z</time>
      </trkpt>
      <trkpt lat="44.29814" lon="0.78433">
        <ele>222</ele>
        <time>2022-05-26T09:01:45Z</time>
      </trkpt>
      <trkpt lat="44.29805" lon="0.78433">
        <ele>223</ele>
        <time>2022-05-26T09:01:49Z</time>
      </trkpt>
      <trkpt lat="44.29793" lon="0.78432">
        <ele>224</ele>
        <time>2022-05-26T09:01:53Z</time>
      </trkpt>
      <trkpt lat="44.2978" lon="0.78431">
        <ele>223.8</ele>
        <time>2022-05-26T09:01:57Z</time>
      </trkpt>
      <trkpt lat="44.29769" lon="0.78431">
        <ele>224.4</ele>
        <time>2022-05-26T09:02:01Z</time>
      </trkpt>
      <trkpt lat="44.29758" lon="0.78429">
        <ele>224.8</ele>
        <time>2022-05-26T09:02:05Z</time>
      </trkpt>
      <trkpt lat="44.29748" lon="0.78425">
        <ele>225.4</ele>
        <time>2022-05-26T09:02:09Z</time>
      </trkpt>
      <trkpt lat="44.29737" lon="0.78422">
        <ele>225.8</ele>
        <time>2022-05-26T09:02:13Z</time>
      </trkpt>
      <trkpt lat="44.29723" lon="0.7842">
        <ele>225.4</ele>
        <time>2022-05-26T09:02:17Z</time>
      </trkpt>
      <trkpt lat="44.29711" lon="0.78417">
        <ele>226</ele>
        <time>2022-05-26T09:02:21Z</time>
      </trkpt>
      <trkpt lat="44.29699" lon="0.78411">
        <ele>226</ele>
        <time>2022-05-26T09:02:25Z</time>
      </trkpt>
      <trkpt lat="44.29688" lon="0.78406">
        <ele>226.6</ele>
        <time>2022-05-26T09:02:29Z</time>
      </trkpt>
      <trkpt lat="44.29682" lon="0.78412">
        <ele>226.6</ele>
        <time>2022-05-26T09:02:33Z</time>
      </trkpt>
      <trkpt lat="44.29684" lon="0.78427">
        <ele>226</ele>
        <time>2022-05-26T09:02:37Z</time>
      </trkpt>
      <trkpt lat="44.29686" lon="0.78439">
        <ele>227</ele>
        <time>2022-05-26T09:02:41Z</time>
      </trkpt>
      <trkpt lat="44.29684" lon="0.78448">
        <ele>227.6</ele>
        <time>2022-05-26T09:02:45Z</time>
      </trkpt>
      <trkpt lat="44.29676" lon="0.78449">
        <ele>229</ele>
        <time>2022-05-26T09:02:49Z</time>
      </trkpt>
      <trkpt lat="44.29668" lon="0.78452">
        <ele>229.6</ele>
        <time>2022-05-26T09:02:53Z</time>
      </trkpt>
      <trkpt lat="44.2966" lon="0.78456">
        <ele>230.4</ele>
        <time>2022-05-26T09:02:57Z</time>
      </trkpt>
      <trkpt lat="44.29652" lon="0.7846">
        <ele>231.4</ele>
        <time>2022-05-26T09:03:01Z</time>
      </trkpt>
      <trkpt lat="44.29643" lon="0.78464">
        <ele>231.8</ele>
        <time>2022-05-26T09:03:05Z</time>
      </trkpt>
      <trkpt lat="44.29636" lon="0.78468">
        <ele>231.8</ele>
        <time>2022-05-26T09:03:09Z</time>
      </trkpt>
      <trkpt lat="44.29626" lon="0.78473">
        <ele>232.4</ele>
        <time>2022-05-26T09:03:13Z</time>
      </trkpt>
      <trkpt lat="44.29619" lon="0.78482">
        <ele>233.8</ele>
        <time>2022-05-26T09:03:17Z</time>
      </trkpt>
      <trkpt lat="44.29611" lon="0.78489">
        <ele>233.6</ele>
        <time>2022-05-26T09:03:21Z</time>
      </trkpt>
      <trkpt lat="44.29605" lon="0.78496">
        <ele>234.6</ele>
        <time>2022-05-26T09:03:25Z</time>
      </trkpt>
      <trkpt lat="44.29596" lon="0.78506">
        <ele>234.2</ele>
        <time>2022-05-26T09:03:29Z</time>
      </trkpt>
      <trkpt lat="44.29586" lon="0.78515">
        <ele>234.8</ele>
        <time>2022-05-26T09:03:33Z</time>
      </trkpt>
      <trkpt lat="44.29578" lon="0.78524">
        <ele>235.2</ele>
        <time>2022-05-26T09:03:37Z</time>
      </trkpt>
      <trkpt lat="44.29568" lon="0.78537">
        <ele>235.2</ele>
        <time>2022-05-26T09:03:41Z</time>
      </trkpt>
      <trkpt lat="44.2956" lon="0.78549">
        <ele>235.6</ele>
        <time>2022-05-26T09:03:45Z</time>
      </trkpt>
      <trkpt lat="44.29549" lon="0.7856">
        <ele>235.6</ele>
        <time>2022-05-26T09:03:49Z</time>
      </trkpt>
      <trkpt lat="44.2954" lon="0.78568">
        <ele>236.8</ele>
        <time>2022-05-26T09:03:53Z</time>
      </trkpt>
      <trkpt lat="44.29534" lon="0.78581">
        <ele>238.2</ele>
        <time>2022-05-26T09:03:57Z</time>
      </trkpt>
      <trkpt lat="44.29533" lon="0.78596">
        <ele>238.8</ele>
        <time>2022-05-26T09:04:01Z</time>
      </trkpt>
      <trkpt lat="44.29529" lon="0.7861">
        <ele>240.8</ele>
        <time>2022-05-26T09:04:05Z</time>
      </trkpt>
      <trkpt lat="44.29529" lon="0.78621">
        <ele>241.2</ele>
        <time>2022-05-26T09:04:09Z</time>
      </trkpt>
      <trkpt lat="44.29528" lon="0.78632">
        <ele>242.8</ele>
        <time>2022-05-26T09:04:13Z</time>
      </trkpt>
      <trkpt lat="44.29527" lon="0.78642">
        <ele>244</ele>
        <time>2022-05-26T09:04:17Z</time>
      </trkpt>
      <trkpt lat="44.29525" lon="0.78651">
        <ele>244.4</ele>
        <time>2022-05-26T09:04:21Z</time>
      </trkpt>
      <trkpt lat="44.29522" lon="0.78663">
        <ele>246.2</ele>
        <time>2022-05-26T09:04:25Z</time>
      </trkpt>
      <trkpt lat="44.29517" lon="0.78673">
        <ele>246.4</ele>
        <time>2022-05-26T09:04:29Z</time>
      </trkpt>
      <trkpt lat="44.2951" lon="0.78681">
        <ele>247.4</ele>
        <time>2022-05-26T09:04:33Z</time>
      </trkpt>
      <trkpt lat="44.29501" lon="0.78683">
        <ele>249.2</ele>
        <time>2022-05-26T09:04:37Z</time>
      </trkpt>
      <trkpt lat="44.29493" lon="0.78682">
        <ele>250.4</ele>
        <time>2022-05-26T09:04:41Z</time>
      </trkpt>
      <trkpt lat="44.29486" lon="0.7868">
        <ele>252</ele>
        <time>2022-05-26T09:04:45Z</time>
      </trkpt>
      <trkpt lat="44.29479" lon="0.78678">
        <ele>253.4</ele>
        <time>2022-05-26T09:04:49Z</time>
      </trkpt>
      <trkpt lat="44.29472" lon="0.78681">
        <ele>253.4</ele>
        <time>2022-05-26T09:04:53Z</time>
      </trkpt>
      <trkpt lat="44.29467" lon="0.78687">
        <ele>255</ele>
        <time>2022-05-26T09:04:57Z</time>
      </trkpt>
      <trkpt lat="44.2946" lon="0.78692">
        <ele>255.6</ele>
        <time>2022-05-26T09:05:01Z</time>
      </trkpt>
      <trkpt lat="44.29453" lon="0.78697">
        <ele>256.8</ele>
        <time>2022-05-26T09:05:05Z</time>
      </trkpt>
      <trkpt lat="44.29448" lon="0.78706">
        <ele>256.8</ele>
        <time>2022-05-26T09:05:09Z</time>
      </trkpt>
      <trkpt lat="44.29445" lon="0.78715">
        <ele>257.8</ele>
        <time>2022-05-26T09:05:13Z</time>
      </trkpt>
      <trkpt lat="44.29442" lon="0.78726">
        <ele>258</ele>
        <time>2022-05-26T09:05:17Z</time>
      </trkpt>
      <trkpt lat="44.29438" lon="0.78738">
        <ele>259.2</ele>
        <time>2022-05-26T09:05:21Z</time>
      </trkpt>
      <trkpt lat="44.29435" lon="0.78749">
        <ele>260.2</ele>
        <time>2022-05-26T09:05:25Z</time>
      </trkpt>
      <trkpt lat="44.29432" lon="0.7876">
        <ele>260.8</ele>
        <time>2022-05-26T09:05:29Z</time>
      </trkpt>
      <trkpt lat="44.29429" lon="0.7877">
        <ele>261.4</ele>
        <time>2022-05-26T09:05:33Z</time>
      </trkpt>
      <trkpt lat="44.29425" lon="0.78781">
        <ele>262</ele>
        <time>2022-05-26T09:05:37Z</time>
      </trkpt>
      <trkpt lat="44.29421" lon="0.78793">
        <ele>262.8</ele>
        <time>2022-05-26T09:05:41Z</time>
      </trkpt>
      <trkpt lat="44.29417" lon="0.78804">
        <ele>263.4</ele>
        <time>2022-05-26T09:05:45Z</time>
      </trkpt>
      <trkpt lat="44.29413" lon="0.78816">
        <ele>264</ele>
        <time>2022-05-26T09:05:49Z</time>
      </trkpt>
      <trkpt lat="44.29409" lon="0.78828">
        <ele>264.2</ele>
        <time>2022-05-26T09:05:53Z</time>
      </trkpt>
      <trkpt lat="44.29404" lon="0.78841">
        <ele>264.4</ele>
        <time>2022-05-26T09:05:57Z</time>
      </trkpt>
      <trkpt lat="44.29399" lon="0.78854">
        <ele>264.8</ele>
        <time>2022-05-26T09:06:01Z</time>
      </trkpt>
      <trkpt lat="44.29394" lon="0.78865">
        <ele>265.4</ele>
        <time>2022-05-26T09:06:05Z</time>
      </trkpt>
      <trkpt lat="44.29391" lon="0.78875">
        <ele>266</ele>
        <time>2022-05-26T09:06:09Z</time>
      </trkpt>
      <trkpt lat="44.29384" lon="0.7888">
        <ele>266</ele>
        <time>2022-05-26T09:06:13Z</time>
      </trkpt>
      <trkpt lat="44.29374" lon="0.78878">
        <ele>266.2</ele>
        <time>2022-05-26T09:06:17Z</time>
      </trkpt>
      <trkpt lat="44.29364" lon="0.78874">
        <ele>266.6</ele>
        <time>2022-05-26T09:06:21Z</time>
      </trkpt>
      <trkpt lat="44.29353" lon="0.7887">
        <ele>266.8</ele>
        <time>2022-05-26T09:06:25Z</time>
      </trkpt>
      <trkpt lat="44.29341" lon="0.78866">
        <ele>267.4</ele>
        <time>2022-05-26T09:06:29Z</time>
      </trkpt>
      <trkpt lat="44.29329" lon="0.78862">
        <ele>267.6</ele>
        <time>2022-05-26T09:06:33Z</time>
      </trkpt>
      <trkpt lat="44.29317" lon="0.78857">
        <ele>267.8</ele>
        <time>2022-05-26T09:06:37Z</time>
      </trkpt>
      <trkpt lat="44.29304" lon="0.78854">
        <ele>268.6</ele>
        <time>2022-05-26T09:06:41Z</time>
      </trkpt>
      <trkpt lat="44.29292" lon="0.78851">
        <ele>269.2</ele>
        <time>2022-05-26T09:06:45Z</time>
      </trkpt>
      <trkpt lat="44.29279" lon="0.7885">
        <ele>269.4</ele>
        <time>2022-05-26T09:06:49Z</time>
      </trkpt>
      <trkpt lat="44.29267" lon="0.78849">
        <ele>270.2</ele>
        <time>2022-05-26T09:06:53Z</time>
      </trkpt>
      <trkpt lat="44.29255" lon="0.78848">
        <ele>271.4</ele>
        <time>2022-05-26T09:06:57Z</time>
      </trkpt>
      <trkpt lat="44.29243" lon="0.78846">
        <ele>271.6</ele>
        <time>2022-05-26T09:07:01Z</time>
      </trkpt>
      <trkpt lat="44.29231" lon="0.78844">
        <ele>272.2</ele>
        <time>2022-05-26T09:07:05Z</time>
      </trkpt>
      <trkpt lat="44.29219" lon="0.78841">
        <ele>272</ele>
        <time>2022-05-26T09:07:09Z</time>
      </trkpt>
      <trkpt lat="44.29207" lon="0.78838">
        <ele>271.8</ele>
        <time>2022-05-26T09:07:13Z</time>
      </trkpt>
      <trkpt lat="44.29194" lon="0.78834">
        <ele>271.8</ele>
        <time>2022-05-26T09:07:17Z</time>
      </trkpt>
      <trkpt lat="44.29185" lon="0.78841">
        <ele>272</ele>
        <time>2022-05-26T09:07:21Z</time>
      </trkpt>
      <trkpt lat="44.29184" lon="0.78857">
        <ele>272.4</ele>
        <time>2022-05-26T09:07:25Z</time>
      </trkpt>
      <trkpt lat="44.29184" lon="0.78874">
        <ele>273.2</ele>
        <time>2022-05-26T09:07:29Z</time>
      </trkpt>
      <trkpt lat="44.29184" lon="0.78891">
        <ele>273.8</ele>
        <time>2022-05-26T09:07:33Z</time>
      </trkpt>
      <trkpt lat="44.29184" lon="0.78909">
        <ele>273.8</ele>
        <time>2022-05-26T09:07:37Z</time>
      </trkpt>
      <trkpt lat="44.29184" lon="0.78928">
        <ele>274.4</ele>
        <time>2022-05-26T09:07:41Z</time>
      </trkpt>
      <trkpt lat="44.29185" lon="0.78947">
        <ele>274.2</ele>
        <time>2022-05-26T09:07:45Z</time>
      </trkpt>
      <trkpt lat="44.29185" lon="0.78968">
        <ele>275.4</ele>
        <time>2022-05-26T09:07:49Z</time>
      </trkpt>
      <trkpt lat="44.29185" lon="0.78988">
        <ele>278.6</ele>
        <time>2022-05-26T09:07:53Z</time>
      </trkpt>
      <trkpt lat="44.29185" lon="0.79008">
        <ele>275</ele>
        <time>2022-05-26T09:07:57Z</time>
      </trkpt>
      <trkpt lat="44.29184" lon="0.7903">
        <ele>274.4</ele>
        <time>2022-05-26T09:08:01Z</time>
      </trkpt>
      <trkpt lat="44.29182" lon="0.79052">
        <ele>274.4</ele>
        <time>2022-05-26T09:08:05Z</time>
      </trkpt>
      <trkpt lat="44.2918" lon="0.79075">
        <ele>273.8</ele>
        <time>2022-05-26T09:08:09Z</time>
      </trkpt>
      <trkpt lat="44.29179" lon="0.79101">
        <ele>273.4</ele>
        <time>2022-05-26T09:08:13Z</time>
      </trkpt>
      <trkpt lat="44.29179" lon="0.79128">
        <ele>273</ele>
        <time>2022-05-26T09:08:17Z</time>
      </trkpt>
      <trkpt lat="44.29177" lon="0.7916">
        <ele>271.6</ele>
        <time>2022-05-26T09:08:21Z</time>
      </trkpt>
      <trkpt lat="44.29166" lon="0.79192">
        <ele>270.4</ele>
        <time>2022-05-26T09:08:25Z</time>
      </trkpt>
      <trkpt lat="44.29142" lon="0.79222">
        <ele>268</ele>
        <time>2022-05-26T09:08:29Z</time>
      </trkpt>
      <trkpt lat="44.29113" lon="0.7925">
        <ele>266.2</ele>
        <time>2022-05-26T09:08:33Z</time>
      </trkpt>
      <trkpt lat="44.29085" lon="0.79276">
        <ele>265</ele>
        <time>2022-05-26T09:08:37Z</time>
      </trkpt>
      <trkpt lat="44.29064" lon="0.79306">
        <ele>264.2</ele>
        <time>2022-05-26T09:08:41Z</time>
      </trkpt>
      <trkpt lat="44.29055" lon="0.79341">
        <ele>264.6</ele>
        <time>2022-05-26T09:08:45Z</time>
      </trkpt>
      <trkpt lat="44.29061" lon="0.7938">
        <ele>262.6</ele>
        <time>2022-05-26T09:08:49Z</time>
      </trkpt>
      <trkpt lat="44.29045" lon="0.79419">
        <ele>258.6</ele>
        <time>2022-05-26T09:08:53Z</time>
      </trkpt>
      <trkpt lat="44.29017" lon="0.79443">
        <ele>254.6</ele>
        <time>2022-05-26T09:08:57Z</time>
      </trkpt>
      <trkpt lat="44.28983" lon="0.79465">
        <ele>250.6</ele>
        <time>2022-05-26T09:09:01Z</time>
      </trkpt>
      <trkpt lat="44.28968" lon="0.795">
        <ele>249.6</ele>
        <time>2022-05-26T09:09:05Z</time>
      </trkpt>
      <trkpt lat="44.2897" lon="0.79533">
        <ele>251.6</ele>
        <time>2022-05-26T09:09:09Z</time>
      </trkpt>
      <trkpt lat="44.28971" lon="0.79547">
        <ele>256</ele>
        <time>2022-05-26T09:09:13Z</time>
      </trkpt>
      <trkpt lat="44.2897" lon="0.79558">
        <ele>257.8</ele>
        <time>2022-05-26T09:09:17Z</time>
      </trkpt>
      <trkpt lat="44.28965" lon="0.79567">
        <ele>258.6</ele>
        <time>2022-05-26T09:09:21Z</time>
      </trkpt>
      <trkpt lat="44.2896" lon="0.7958">
        <ele>260</ele>
        <time>2022-05-26T09:09:25Z</time>
      </trkpt>
      <trkpt lat="44.28956" lon="0.79594">
        <ele>261</ele>
        <time>2022-05-26T09:09:29Z</time>
      </trkpt>
      <trkpt lat="44.28952" lon="0.79608">
        <ele>261</ele>
        <time>2022-05-26T09:09:33Z</time>
      </trkpt>
      <trkpt lat="44.28947" lon="0.79621">
        <ele>262.4</ele>
        <time>2022-05-26T09:09:37Z</time>
      </trkpt>
      <trkpt lat="44.28943" lon="0.79635">
        <ele>263.8</ele>
        <time>2022-05-26T09:09:41Z</time>
      </trkpt>
      <trkpt lat="44.28939" lon="0.7965">
        <ele>264.2</ele>
        <time>2022-05-26T09:09:45Z</time>
      </trkpt>
      <trkpt lat="44.2892" lon="0.7965">
        <ele>263</ele>
        <time>2022-05-26T09:09:55Z</time>
      </trkpt>
      <trkpt lat="44.28897" lon="0.79652">
        <ele>260.4</ele>
        <time>2022-05-26T09:09:59Z</time>
      </trkpt>
      <trkpt lat="44.28872" lon="0.79653">
        <ele>259.2</ele>
        <time>2022-05-26T09:10:03Z</time>
      </trkpt>
      <trkpt lat="44.28853" lon="0.79639">
        <ele>260.4</ele>
        <time>2022-05-26T09:10:07Z</time>
      </trkpt>
      <trkpt lat="44.28842" lon="0.79622">
        <ele>261.8</ele>
        <time>2022-05-26T09:10:11Z</time>
      </trkpt>
      <trkpt lat="44.2883" lon="0.7961">
        <ele>262.2</ele>
        <time>2022-05-26T09:10:15Z</time>
      </trkpt>
      <trkpt lat="44.28819" lon="0.79599">
        <ele>263.2</ele>
        <time>2022-05-26T09:10:19Z</time>
      </trkpt>
      <trkpt lat="44.28808" lon="0.79584">
        <ele>264</ele>
        <time>2022-05-26T09:10:23Z</time>
      </trkpt>
      <trkpt lat="44.288" lon="0.79567">
        <ele>264.4</ele>
        <time>2022-05-26T09:10:27Z</time>
      </trkpt>
      <trkpt lat="44.2879" lon="0.79553">
        <ele>265.4</ele>
        <time>2022-05-26T09:10:31Z</time>
      </trkpt>
      <trkpt lat="44.28779" lon="0.79544">
        <ele>266.2</ele>
        <time>2022-05-26T09:10:35Z</time>
      </trkpt>
      <trkpt lat="44.28766" lon="0.79541">
        <ele>266.4</ele>
        <time>2022-05-26T09:10:39Z</time>
      </trkpt>
      <trkpt lat="44.28753" lon="0.79539">
        <ele>268</ele>
        <time>2022-05-26T09:10:43Z</time>
      </trkpt>
      <trkpt lat="44.28739" lon="0.79537">
        <ele>268.6</ele>
        <time>2022-05-26T09:10:47Z</time>
      </trkpt>
      <trkpt lat="44.28725" lon="0.79536">
        <ele>269.4</ele>
        <time>2022-05-26T09:10:51Z</time>
      </trkpt>
      <trkpt lat="44.28712" lon="0.79535">
        <ele>270.8</ele>
        <time>2022-05-26T09:10:55Z</time>
      </trkpt>
      <trkpt lat="44.28698" lon="0.79535">
        <ele>271.4</ele>
        <time>2022-05-26T09:10:59Z</time>
      </trkpt>
      <trkpt lat="44.28685" lon="0.79535">
        <ele>272.2</ele>
        <time>2022-05-26T09:11:03Z</time>
      </trkpt>
      <trkpt lat="44.2867" lon="0.79537">
        <ele>272.6</ele>
        <time>2022-05-26T09:11:07Z</time>
      </trkpt>
      <trkpt lat="44.28657" lon="0.7954">
        <ele>273.4</ele>
        <time>2022-05-26T09:11:11Z</time>
      </trkpt>
      <trkpt lat="44.28643" lon="0.79543">
        <ele>273.8</ele>
        <time>2022-05-26T09:11:15Z</time>
      </trkpt>
      <trkpt lat="44.28628" lon="0.79546">
        <ele>274</ele>
        <time>2022-05-26T09:11:19Z</time>
      </trkpt>
      <trkpt lat="44.28613" lon="0.79549">
        <ele>275</ele>
        <time>2022-05-26T09:11:23Z</time>
      </trkpt>
      <trkpt lat="44.28598" lon="0.79553">
        <ele>275.2</ele>
        <time>2022-05-26T09:11:27Z</time>
      </trkpt>
      <trkpt lat="44.28583" lon="0.79555">
        <ele>276.4</ele>
        <time>2022-05-26T09:11:31Z</time>
      </trkpt>
      <trkpt lat="44.28568" lon="0.79558">
        <ele>276.6</ele>
        <time>2022-05-26T09:11:35Z</time>
      </trkpt>
      <trkpt lat="44.28553" lon="0.7956">
        <ele>277.2</ele>
        <time>2022-05-26T09:11:39Z</time>
      </trkpt>
      <trkpt lat="44.28541" lon="0.79563">
        <ele>277.4</ele>
        <time>2022-05-26T09:11:43Z</time>
      </trkpt>
      <trkpt lat="44.28531" lon="0.79552">
        <ele>277.6</ele>
        <time>2022-05-26T09:11:47Z</time>
      </trkpt>
      <trkpt lat="44.28526" lon="0.79534">
        <ele>276.8</ele>
        <time>2022-05-26T09:11:51Z</time>
      </trkpt>
      <trkpt lat="44.2852" lon="0.79517">
        <ele>277.4</ele>
        <time>2022-05-26T09:11:55Z</time>
      </trkpt>
      <trkpt lat="44.28512" lon="0.79501">
        <ele>276.8</ele>
        <time>2022-05-26T09:11:59Z</time>
      </trkpt>
      <trkpt lat="44.28503" lon="0.79484">
        <ele>277.2</ele>
        <time>2022-05-26T09:12:03Z</time>
      </trkpt>
      <trkpt lat="44.28493" lon="0.79467">
        <ele>277.6</ele>
        <time>2022-05-26T09:12:07Z</time>
      </trkpt>
      <trkpt lat="44.28485" lon="0.79451">
        <ele>277</ele>
        <time>2022-05-26T09:12:11Z</time>
      </trkpt>
      <trkpt lat="44.28477" lon="0.79436">
        <ele>277.4</ele>
        <time>2022-05-26T09:12:15Z</time>
      </trkpt>
      <trkpt lat="44.2847" lon="0.7942">
        <ele>277.2</ele>
        <time>2022-05-26T09:12:19Z</time>
      </trkpt>
      <trkpt lat="44.28461" lon="0.79401">
        <ele>277.4</ele>
        <time>2022-05-26T09:12:23Z</time>
      </trkpt>
      <trkpt lat="44.28453" lon="0.79382">
        <ele>277.4</ele>
        <time>2022-05-26T09:12:27Z</time>
      </trkpt>
      <trkpt lat="44.28444" lon="0.79364">
        <ele>277.4</ele>
        <time>2022-05-26T09:12:31Z</time>
      </trkpt>
      <trkpt lat="44.28436" lon="0.79346">
        <ele>277.2</ele>
        <time>2022-05-26T09:12:35Z</time>
      </trkpt>
      <trkpt lat="44.28426" lon="0.79329">
        <ele>277.2</ele>
        <time>2022-05-26T09:12:39Z</time>
      </trkpt>
      <trkpt lat="44.28417" lon="0.79313">
        <ele>277.6</ele>
        <time>2022-05-26T09:12:43Z</time>
      </trkpt>
      <trkpt lat="44.2841" lon="0.79294">
        <ele>277.4</ele>
        <time>2022-05-26T09:12:47Z</time>
      </trkpt>
      <trkpt lat="44.28403" lon="0.79274">
        <ele>277.2</ele>
        <time>2022-05-26T09:12:51Z</time>
      </trkpt>
      <trkpt lat="44.28398" lon="0.79255">
        <ele>278</ele>
        <time>2022-05-26T09:12:55Z</time>
      </trkpt>
      <trkpt lat="44.28391" lon="0.79235">
        <ele>278.4</ele>
        <time>2022-05-26T09:12:59Z</time>
      </trkpt>
      <trkpt lat="44.28386" lon="0.79217">
        <ele>278.4</ele>
        <time>2022-05-26T09:13:03Z</time>
      </trkpt>
      <trkpt lat="44.28381" lon="0.79198">
        <ele>279.8</ele>
        <time>2022-05-26T09:13:07Z</time>
      </trkpt>
      <trkpt lat="44.28375" lon="0.79181">
        <ele>280.4</ele>
        <time>2022-05-26T09:13:11Z</time>
      </trkpt>
      <trkpt lat="44.28368" lon="0.79167">
        <ele>281</ele>
        <time>2022-05-26T09:13:15Z</time>
      </trkpt>
      <trkpt lat="44.2836" lon="0.79154">
        <ele>282</ele>
        <time>2022-05-26T09:13:19Z</time>
      </trkpt>
      <trkpt lat="44.28352" lon="0.79141">
        <ele>281.8</ele>
        <time>2022-05-26T09:13:23Z</time>
      </trkpt>
      <trkpt lat="44.28343" lon="0.79129">
        <ele>282.8</ele>
        <time>2022-05-26T09:13:27Z</time>
      </trkpt>
      <trkpt lat="44.28335" lon="0.79118">
        <ele>283.6</ele>
        <time>2022-05-26T09:13:31Z</time>
      </trkpt>
      <trkpt lat="44.28326" lon="0.79107">
        <ele>284.4</ele>
        <time>2022-05-26T09:13:35Z</time>
      </trkpt>
      <trkpt lat="44.28316" lon="0.79096">
        <ele>284.4</ele>
        <time>2022-05-26T09:13:39Z</time>
      </trkpt>
      <trkpt lat="44.28304" lon="0.79084">
        <ele>284.6</ele>
        <time>2022-05-26T09:13:43Z</time>
      </trkpt>
      <trkpt lat="44.28292" lon="0.79073">
        <ele>283.6</ele>
        <time>2022-05-26T09:13:47Z</time>
      </trkpt>
      <trkpt lat="44.28278" lon="0.7906">
        <ele>282</ele>
        <time>2022-05-26T09:13:51Z</time>
      </trkpt>
      <trkpt lat="44.28263" lon="0.79045">
        <ele>281.6</ele>
        <time>2022-05-26T09:13:55Z</time>
      </trkpt>
      <trkpt lat="44.28247" lon="0.79028">
        <ele>279.2</ele>
        <time>2022-05-26T09:13:59Z</time>
      </trkpt>
      <trkpt lat="44.28228" lon="0.79012">
        <ele>278.6</ele>
        <time>2022-05-26T09:14:03Z</time>
      </trkpt>
      <trkpt lat="44.28207" lon="0.78995">
        <ele>275.4</ele>
        <time>2022-05-26T09:14:07Z</time>
      </trkpt>
      <trkpt lat="44.28183" lon="0.78976">
        <ele>273.8</ele>
        <time>2022-05-26T09:14:11Z</time>
      </trkpt>
      <trkpt lat="44.28158" lon="0.78957">
        <ele>272.4</ele>
        <time>2022-05-26T09:14:15Z</time>
      </trkpt>
      <trkpt lat="44.28136" lon="0.78939">
        <ele>272.4</ele>
        <time>2022-05-26T09:14:19Z</time>
      </trkpt>
      <trkpt lat="44.28116" lon="0.78924">
        <ele>273</ele>
        <time>2022-05-26T09:14:23Z</time>
      </trkpt>
      <trkpt lat="44.281" lon="0.78911">
        <ele>273.6</ele>
        <time>2022-05-26T09:14:27Z</time>
      </trkpt>
      <trkpt lat="44.28085" lon="0.78897">
        <ele>273.8</ele>
        <time>2022-05-26T09:14:31Z</time>
      </trkpt>
      <trkpt lat="44.28074" lon="0.78883">
        <ele>275.6</ele>
        <time>2022-05-26T09:14:35Z</time>
      </trkpt>
      <trkpt lat="44.28063" lon="0.78869">
        <ele>275.4</ele>
        <time>2022-05-26T09:14:39Z</time>
      </trkpt>
      <trkpt lat="44.28053" lon="0.78855">
        <ele>275.2</ele>
        <time>2022-05-26T09:14:43Z</time>
      </trkpt>
      <trkpt lat="44.28045" lon="0.78839">
        <ele>275.6</ele>
        <time>2022-05-26T09:14:47Z</time>
      </trkpt>
      <trkpt lat="44.28036" lon="0.78823">
        <ele>275.4</ele>
        <time>2022-05-26T09:14:51Z</time>
      </trkpt>
      <trkpt lat="44.28028" lon="0.78807">
        <ele>275.4</ele>
        <time>2022-05-26T09:14:55Z</time>
      </trkpt>
      <trkpt lat="44.28018" lon="0.78787">
        <ele>274</ele>
        <time>2022-05-26T09:14:59Z</time>
      </trkpt>
      <trkpt lat="44.28005" lon="0.78762">
        <ele>271.6</ele>
        <time>2022-05-26T09:15:03Z</time>
      </trkpt>
      <trkpt lat="44.27991" lon="0.78737">
        <ele>270.6</ele>
        <time>2022-05-26T09:15:07Z</time>
      </trkpt>
      <trkpt lat="44.27977" lon="0.78715">
        <ele>271</ele>
        <time>2022-05-26T09:15:11Z</time>
      </trkpt>
      <trkpt lat="44.27963" lon="0.78695">
        <ele>271.4</ele>
        <time>2022-05-26T09:15:15Z</time>
      </trkpt>
      <trkpt lat="44.27949" lon="0.78676">
        <ele>271.4</ele>
        <time>2022-05-26T09:15:19Z</time>
      </trkpt>
      <trkpt lat="44.27937" lon="0.78659">
        <ele>271.8</ele>
        <time>2022-05-26T09:15:23Z</time>
      </trkpt>
      <trkpt lat="44.27925" lon="0.78643">
        <ele>272.6</ele>
        <time>2022-05-26T09:15:27Z</time>
      </trkpt>
      <trkpt lat="44.27912" lon="0.78627">
        <ele>272.6</ele>
        <time>2022-05-26T09:15:31Z</time>
      </trkpt>
      <trkpt lat="44.27901" lon="0.7861">
        <ele>273.4</ele>
        <time>2022-05-26T09:15:35Z</time>
      </trkpt>
      <trkpt lat="44.27889" lon="0.78594">
        <ele>273.2</ele>
        <time>2022-05-26T09:15:39Z</time>
      </trkpt>
      <trkpt lat="44.27879" lon="0.78577">
        <ele>273.8</ele>
        <time>2022-05-26T09:15:43Z</time>
      </trkpt>
      <trkpt lat="44.27868" lon="0.78561">
        <ele>274.2</ele>
        <time>2022-05-26T09:15:47Z</time>
      </trkpt>
      <trkpt lat="44.27858" lon="0.78546">
        <ele>274.6</ele>
        <time>2022-05-26T09:15:51Z</time>
      </trkpt>
      <trkpt lat="44.27847" lon="0.78532">
        <ele>274.4</ele>
        <time>2022-05-26T09:15:55Z</time>
      </trkpt>
      <trkpt lat="44.27835" lon="0.78519">
        <ele>275.2</ele>
        <time>2022-05-26T09:15:59Z</time>
      </trkpt>
      <trkpt lat="44.27821" lon="0.78506">
        <ele>275</ele>
        <time>2022-05-26T09:16:03Z</time>
      </trkpt>
      <trkpt lat="44.27807" lon="0.78494">
        <ele>275.4</ele>
        <time>2022-05-26T09:16:07Z</time>
      </trkpt>
      <trkpt lat="44.27793" lon="0.7848">
        <ele>275.8</ele>
        <time>2022-05-26T09:16:11Z</time>
      </trkpt>
      <trkpt lat="44.27779" lon="0.78466">
        <ele>275</ele>
        <time>2022-05-26T09:16:15Z</time>
      </trkpt>
      <trkpt lat="44.27765" lon="0.78453">
        <ele>275.4</ele>
        <time>2022-05-26T09:16:19Z</time>
      </trkpt>
      <trkpt lat="44.27751" lon="0.7844">
        <ele>276</ele>
        <time>2022-05-26T09:16:23Z</time>
      </trkpt>
      <trkpt lat="44.27737" lon="0.78427">
        <ele>276.2</ele>
        <time>2022-05-26T09:16:27Z</time>
      </trkpt>
      <trkpt lat="44.27723" lon="0.78414">
        <ele>275.2</ele>
        <time>2022-05-26T09:16:31Z</time>
      </trkpt>
      <trkpt lat="44.27707" lon="0.78399">
        <ele>274.8</ele>
        <time>2022-05-26T09:16:35Z</time>
      </trkpt>
      <trkpt lat="44.27691" lon="0.78387">
        <ele>273.8</ele>
        <time>2022-05-26T09:16:39Z</time>
      </trkpt>
      <trkpt lat="44.27672" lon="0.78376">
        <ele>272.6</ele>
        <time>2022-05-26T09:16:43Z</time>
      </trkpt>
      <trkpt lat="44.27651" lon="0.78369">
        <ele>272</ele>
        <time>2022-05-26T09:16:47Z</time>
      </trkpt>
      <trkpt lat="44.27629" lon="0.78359">
        <ele>270.4</ele>
        <time>2022-05-26T09:16:51Z</time>
      </trkpt>
      <trkpt lat="44.27603" lon="0.7835">
        <ele>267.4</ele>
        <time>2022-05-26T09:16:55Z</time>
      </trkpt>
      <trkpt lat="44.27573" lon="0.78337">
        <ele>265.4</ele>
        <time>2022-05-26T09:16:59Z</time>
      </trkpt>
      <trkpt lat="44.27549" lon="0.78325">
        <ele>265.6</ele>
        <time>2022-05-26T09:17:03Z</time>
      </trkpt>
      <trkpt lat="44.27523" lon="0.78316">
        <ele>263.6</ele>
        <time>2022-05-26T09:17:07Z</time>
      </trkpt>
      <trkpt lat="44.27495" lon="0.78311">
        <ele>261.4</ele>
        <time>2022-05-26T09:17:11Z</time>
      </trkpt>
      <trkpt lat="44.27464" lon="0.78306">
        <ele>259.4</ele>
        <time>2022-05-26T09:17:15Z</time>
      </trkpt>
      <trkpt lat="44.27433" lon="0.78301">
        <ele>258.4</ele>
        <time>2022-05-26T09:17:19Z</time>
      </trkpt>
      <trkpt lat="44.27403" lon="0.78296">
        <ele>257</ele>
        <time>2022-05-26T09:17:23Z</time>
      </trkpt>
      <trkpt lat="44.27375" lon="0.78289">
        <ele>258.4</ele>
        <time>2022-05-26T09:17:27Z</time>
      </trkpt>
      <trkpt lat="44.27346" lon="0.78281">
        <ele>258.8</ele>
        <time>2022-05-26T09:17:31Z</time>
      </trkpt>
      <trkpt lat="44.27318" lon="0.78274">
        <ele>258.8</ele>
        <time>2022-05-26T09:17:35Z</time>
      </trkpt>
      <trkpt lat="44.27294" lon="0.78268">
        <ele>261</ele>
        <time>2022-05-26T09:17:39Z</time>
      </trkpt>
      <trkpt lat="44.27273" lon="0.78263">
        <ele>263.2</ele>
        <time>2022-05-26T09:17:43Z</time>
      </trkpt>
      <trkpt lat="44.27255" lon="0.78261">
        <ele>264</ele>
        <time>2022-05-26T09:17:47Z</time>
      </trkpt>
      <trkpt lat="44.27239" lon="0.78261">
        <ele>264.8</ele>
        <time>2022-05-26T09:17:51Z</time>
      </trkpt>
      <trkpt lat="44.27222" lon="0.78256">
        <ele>263.8</ele>
        <time>2022-05-26T09:17:55Z</time>
      </trkpt>
      <trkpt lat="44.27202" lon="0.78253">
        <ele>263.8</ele>
        <time>2022-05-26T09:17:59Z</time>
      </trkpt>
      <trkpt lat="44.27181" lon="0.78249">
        <ele>263.2</ele>
        <time>2022-05-26T09:18:03Z</time>
      </trkpt>
      <trkpt lat="44.27159" lon="0.78243">
        <ele>263</ele>
        <time>2022-05-26T09:18:07Z</time>
      </trkpt>
      <trkpt lat="44.27137" lon="0.78239">
        <ele>262.4</ele>
        <time>2022-05-26T09:18:11Z</time>
      </trkpt>
      <trkpt lat="44.27115" lon="0.78235">
        <ele>262.6</ele>
        <time>2022-05-26T09:18:15Z</time>
      </trkpt>
      <trkpt lat="44.27093" lon="0.78231">
        <ele>262.6</ele>
        <time>2022-05-26T09:18:19Z</time>
      </trkpt>
      <trkpt lat="44.27072" lon="0.78229">
        <ele>262.8</ele>
        <time>2022-05-26T09:18:23Z</time>
      </trkpt>
      <trkpt lat="44.27051" lon="0.78225">
        <ele>263.4</ele>
        <time>2022-05-26T09:18:27Z</time>
      </trkpt>
      <trkpt lat="44.2703" lon="0.78221">
        <ele>263.6</ele>
        <time>2022-05-26T09:18:31Z</time>
      </trkpt>
      <trkpt lat="44.27012" lon="0.78217">
        <ele>265</ele>
        <time>2022-05-26T09:18:35Z</time>
      </trkpt>
      <trkpt lat="44.26998" lon="0.78215">
        <ele>267.4</ele>
        <time>2022-05-26T09:18:39Z</time>
      </trkpt>
      <trkpt lat="44.26985" lon="0.7821">
        <ele>268.8</ele>
        <time>2022-05-26T09:18:43Z</time>
      </trkpt>
      <trkpt lat="44.26971" lon="0.78205">
        <ele>268.8</ele>
        <time>2022-05-26T09:18:47Z</time>
      </trkpt>
      <trkpt lat="44.26956" lon="0.78202">
        <ele>268.8</ele>
        <time>2022-05-26T09:18:51Z</time>
      </trkpt>
      <trkpt lat="44.26945" lon="0.78199">
        <ele>271</ele>
        <time>2022-05-26T09:18:55Z</time>
      </trkpt>
      <trkpt lat="44.26935" lon="0.78196">
        <ele>271.6</ele>
        <time>2022-05-26T09:18:59Z</time>
      </trkpt>
      <trkpt lat="44.26923" lon="0.78192">
        <ele>271.2</ele>
        <time>2022-05-26T09:19:03Z</time>
      </trkpt>
      <trkpt lat="44.2691" lon="0.78186">
        <ele>270.8</ele>
        <time>2022-05-26T09:19:07Z</time>
      </trkpt>
      <trkpt lat="44.26895" lon="0.7818">
        <ele>268.8</ele>
        <time>2022-05-26T09:19:11Z</time>
      </trkpt>
      <trkpt lat="44.26876" lon="0.78172">
        <ele>267.8</ele>
        <time>2022-05-26T09:19:15Z</time>
      </trkpt>
      <trkpt lat="44.26855" lon="0.78164">
        <ele>266.8</ele>
        <time>2022-05-26T09:19:19Z</time>
      </trkpt>
      <trkpt lat="44.26833" lon="0.78155">
        <ele>267</ele>
        <time>2022-05-26T09:19:23Z</time>
      </trkpt>
      <trkpt lat="44.26813" lon="0.78148">
        <ele>266.6</ele>
        <time>2022-05-26T09:19:27Z</time>
      </trkpt>
      <trkpt lat="44.26794" lon="0.78139">
        <ele>265.4</ele>
        <time>2022-05-26T09:19:31Z</time>
      </trkpt>
      <trkpt lat="44.26775" lon="0.78131">
        <ele>266</ele>
        <time>2022-05-26T09:19:35Z</time>
      </trkpt>
      <trkpt lat="44.26757" lon="0.78123">
        <ele>265.2</ele>
        <time>2022-05-26T09:19:39Z</time>
      </trkpt>
      <trkpt lat="44.26737" lon="0.78114">
        <ele>265.2</ele>
        <time>2022-05-26T09:19:43Z</time>
      </trkpt>
      <trkpt lat="44.26715" lon="0.78104">
        <ele>263.2</ele>
        <time>2022-05-26T09:19:47Z</time>
      </trkpt>
      <trkpt lat="44.26694" lon="0.78091">
        <ele>262.2</ele>
        <time>2022-05-26T09:19:51Z</time>
      </trkpt>
      <trkpt lat="44.2668" lon="0.78082">
        <ele>263.6</ele>
        <time>2022-05-26T09:19:55Z</time>
      </trkpt>
      <trkpt lat="44.2668" lon="0.78082">
        <ele>263.6</ele>
        <time>2022-05-26T09:19:59Z</time>
      </trkpt>
      <trkpt lat="44.26662" lon="0.78077">
        <ele>262.6</ele>
        <time>2022-05-26T09:21:04Z</time>
      </trkpt>
      <trkpt lat="44.26649" lon="0.7807">
        <ele>261.8</ele>
        <time>2022-05-26T09:21:08Z</time>
      </trkpt>
      <trkpt lat="44.26635" lon="0.78063">
        <ele>261.4</ele>
        <time>2022-05-26T09:21:12Z</time>
      </trkpt>
      <trkpt lat="44.2662" lon="0.78053">
        <ele>259.8</ele>
        <time>2022-05-26T09:21:16Z</time>
      </trkpt>
      <trkpt lat="44.26602" lon="0.78037">
        <ele>258.8</ele>
        <time>2022-05-26T09:21:20Z</time>
      </trkpt>
      <trkpt lat="44.26583" lon="0.78019">
        <ele>256.6</ele>
        <time>2022-05-26T09:21:24Z</time>
      </trkpt>
      <trkpt lat="44.26559" lon="0.78004">
        <ele>255.4</ele>
        <time>2022-05-26T09:21:28Z</time>
      </trkpt>
      <trkpt lat="44.26531" lon="0.7799">
        <ele>253.6</ele>
        <time>2022-05-26T09:21:32Z</time>
      </trkpt>
      <trkpt lat="44.26502" lon="0.77976">
        <ele>252.6</ele>
        <time>2022-05-26T09:21:36Z</time>
      </trkpt>
      <trkpt lat="44.26481" lon="0.7797">
        <ele>250.8</ele>
        <time>2022-05-26T09:21:40Z</time>
      </trkpt>
      <trkpt lat="44.26461" lon="0.77958">
        <ele>249</ele>
        <time>2022-05-26T09:21:44Z</time>
      </trkpt>
      <trkpt lat="44.26436" lon="0.77946">
        <ele>249.2</ele>
        <time>2022-05-26T09:21:48Z</time>
      </trkpt>
      <trkpt lat="44.2641" lon="0.77932">
        <ele>248.8</ele>
        <time>2022-05-26T09:21:52Z</time>
      </trkpt>
      <trkpt lat="44.26386" lon="0.77917">
        <ele>248.6</ele>
        <time>2022-05-26T09:21:56Z</time>
      </trkpt>
      <trkpt lat="44.2636" lon="0.77902">
        <ele>248</ele>
        <time>2022-05-26T09:22:00Z</time>
      </trkpt>
      <trkpt lat="44.26336" lon="0.77888">
        <ele>248.8</ele>
        <time>2022-05-26T09:22:04Z</time>
      </trkpt>
      <trkpt lat="44.26314" lon="0.77874">
        <ele>249.4</ele>
        <time>2022-05-26T09:22:08Z</time>
      </trkpt>
      <trkpt lat="44.26294" lon="0.77863">
        <ele>250.6</ele>
        <time>2022-05-26T09:22:12Z</time>
      </trkpt>
      <trkpt lat="44.26276" lon="0.77854">
        <ele>252.4</ele>
        <time>2022-05-26T09:22:16Z</time>
      </trkpt>
      <trkpt lat="44.26258" lon="0.77847">
        <ele>254.6</ele>
        <time>2022-05-26T09:22:20Z</time>
      </trkpt>
      <trkpt lat="44.26239" lon="0.77841">
        <ele>254.8</ele>
        <time>2022-05-26T09:22:24Z</time>
      </trkpt>
      <trkpt lat="44.26221" lon="0.77836">
        <ele>255.4</ele>
        <time>2022-05-26T09:22:28Z</time>
      </trkpt>
      <trkpt lat="44.26205" lon="0.77831">
        <ele>255.4</ele>
        <time>2022-05-26T09:22:32Z</time>
      </trkpt>
      <trkpt lat="44.26188" lon="0.77825">
        <ele>257.6</ele>
        <time>2022-05-26T09:22:36Z</time>
      </trkpt>
      <trkpt lat="44.26172" lon="0.7782">
        <ele>258</ele>
        <time>2022-05-26T09:22:40Z</time>
      </trkpt>
      <trkpt lat="44.26158" lon="0.77815">
        <ele>259.4</ele>
        <time>2022-05-26T09:22:44Z</time>
      </trkpt>
      <trkpt lat="44.26147" lon="0.7781">
        <ele>259.8</ele>
        <time>2022-05-26T09:22:48Z</time>
      </trkpt>
      <trkpt lat="44.26134" lon="0.77811">
        <ele>260.6</ele>
        <time>2022-05-26T09:22:52Z</time>
      </trkpt>
      <trkpt lat="44.26121" lon="0.77815">
        <ele>261.4</ele>
        <time>2022-05-26T09:22:56Z</time>
      </trkpt>
      <trkpt lat="44.26107" lon="0.77817">
        <ele>261.8</ele>
        <time>2022-05-26T09:23:00Z</time>
      </trkpt>
      <trkpt lat="44.26093" lon="0.77819">
        <ele>262.4</ele>
        <time>2022-05-26T09:23:04Z</time>
      </trkpt>
      <trkpt lat="44.26079" lon="0.77821">
        <ele>262.8</ele>
        <time>2022-05-26T09:23:08Z</time>
      </trkpt>
      <trkpt lat="44.26065" lon="0.77824">
        <ele>263.4</ele>
        <time>2022-05-26T09:23:12Z</time>
      </trkpt>
      <trkpt lat="44.2605" lon="0.77826">
        <ele>263.8</ele>
        <time>2022-05-26T09:23:16Z</time>
      </trkpt>
      <trkpt lat="44.26036" lon="0.77829">
        <ele>264.6</ele>
        <time>2022-05-26T09:23:20Z</time>
      </trkpt>
      <trkpt lat="44.26022" lon="0.77831">
        <ele>265.4</ele>
        <time>2022-05-26T09:23:24Z</time>
      </trkpt>
      <trkpt lat="44.26007" lon="0.77834">
        <ele>266</ele>
        <time>2022-05-26T09:23:28Z</time>
      </trkpt>
      <trkpt lat="44.25992" lon="0.77836">
        <ele>266.4</ele>
        <time>2022-05-26T09:23:32Z</time>
      </trkpt>
      <trkpt lat="44.25978" lon="0.77838">
        <ele>267</ele>
        <time>2022-05-26T09:23:36Z</time>
      </trkpt>
      <trkpt lat="44.25965" lon="0.7784">
        <ele>267.4</ele>
        <time>2022-05-26T09:23:40Z</time>
      </trkpt>
      <trkpt lat="44.2595" lon="0.77843">
        <ele>268.2</ele>
        <time>2022-05-26T09:23:44Z</time>
      </trkpt>
      <trkpt lat="44.25935" lon="0.77846">
        <ele>268.6</ele>
        <time>2022-05-26T09:23:48Z</time>
      </trkpt>
      <trkpt lat="44.2592" lon="0.77849">
        <ele>268.8</ele>
        <time>2022-05-26T09:23:52Z</time>
      </trkpt>
      <trkpt lat="44.25905" lon="0.77852">
        <ele>269</ele>
        <time>2022-05-26T09:23:56Z</time>
      </trkpt>
      <trkpt lat="44.2589" lon="0.77854">
        <ele>269.6</ele>
        <time>2022-05-26T09:24:00Z</time>
      </trkpt>
      <trkpt lat="44.25874" lon="0.77856">
        <ele>269.4</ele>
        <time>2022-05-26T09:24:04Z</time>
      </trkpt>
      <trkpt lat="44.25858" lon="0.77857">
        <ele>269.4</ele>
        <time>2022-05-26T09:24:08Z</time>
      </trkpt>
      <trkpt lat="44.2584" lon="0.77857">
        <ele>268.6</ele>
        <time>2022-05-26T09:24:12Z</time>
      </trkpt>
      <trkpt lat="44.2582" lon="0.77857">
        <ele>267.8</ele>
        <time>2022-05-26T09:24:16Z</time>
      </trkpt>
      <trkpt lat="44.25797" lon="0.77855">
        <ele>267.4</ele>
        <time>2022-05-26T09:24:20Z</time>
      </trkpt>
      <trkpt lat="44.25773" lon="0.77853">
        <ele>265</ele>
        <time>2022-05-26T09:24:24Z</time>
      </trkpt>
      <trkpt lat="44.25747" lon="0.77852">
        <ele>264</ele>
        <time>2022-05-26T09:24:28Z</time>
      </trkpt>
      <trkpt lat="44.25722" lon="0.7785">
        <ele>263.6</ele>
        <time>2022-05-26T09:24:32Z</time>
      </trkpt>
      <trkpt lat="44.25697" lon="0.77843">
        <ele>262.4</ele>
        <time>2022-05-26T09:24:36Z</time>
      </trkpt>
      <trkpt lat="44.25677" lon="0.7783">
        <ele>262.8</ele>
        <time>2022-05-26T09:24:40Z</time>
      </trkpt>
      <trkpt lat="44.25658" lon="0.77812">
        <ele>264.4</ele>
        <time>2022-05-26T09:24:44Z</time>
      </trkpt>
      <trkpt lat="44.25641" lon="0.77794">
        <ele>265.2</ele>
        <time>2022-05-26T09:24:48Z</time>
      </trkpt>
      <trkpt lat="44.25628" lon="0.77772">
        <ele>264.2</ele>
        <time>2022-05-26T09:24:52Z</time>
      </trkpt>
      <trkpt lat="44.25617" lon="0.7775">
        <ele>265.4</ele>
        <time>2022-05-26T09:24:56Z</time>
      </trkpt>
      <trkpt lat="44.25606" lon="0.7773">
        <ele>265.8</ele>
        <time>2022-05-26T09:25:00Z</time>
      </trkpt>
      <trkpt lat="44.25596" lon="0.7771">
        <ele>267</ele>
        <time>2022-05-26T09:25:04Z</time>
      </trkpt>
      <trkpt lat="44.25585" lon="0.77689">
        <ele>267.8</ele>
        <time>2022-05-26T09:25:08Z</time>
      </trkpt>
      <trkpt lat="44.25575" lon="0.77669">
        <ele>268.6</ele>
        <time>2022-05-26T09:25:12Z</time>
      </trkpt>
      <trkpt lat="44.25565" lon="0.77649">
        <ele>269.2</ele>
        <time>2022-05-26T09:25:16Z</time>
      </trkpt>
      <trkpt lat="44.25555" lon="0.77629">
        <ele>270</ele>
        <time>2022-05-26T09:25:20Z</time>
      </trkpt>
      <trkpt lat="44.25545" lon="0.7761">
        <ele>270.8</ele>
        <time>2022-05-26T09:25:24Z</time>
      </trkpt>
      <trkpt lat="44.25536" lon="0.77591">
        <ele>270.8</ele>
        <time>2022-05-26T09:25:28Z</time>
      </trkpt>
      <trkpt lat="44.25528" lon="0.77572">
        <ele>271.4</ele>
        <time>2022-05-26T09:25:32Z</time>
      </trkpt>
      <trkpt lat="44.25522" lon="0.7755">
        <ele>270.8</ele>
        <time>2022-05-26T09:25:36Z</time>
      </trkpt>
      <trkpt lat="44.25517" lon="0.77526">
        <ele>270.8</ele>
        <time>2022-05-26T09:25:40Z</time>
      </trkpt>
      <trkpt lat="44.25512" lon="0.775">
        <ele>270</ele>
        <time>2022-05-26T09:25:44Z</time>
      </trkpt>
      <trkpt lat="44.25509" lon="0.77474">
        <ele>269.8</ele>
        <time>2022-05-26T09:25:48Z</time>
      </trkpt>
      <trkpt lat="44.25509" lon="0.77446">
        <ele>269.8</ele>
        <time>2022-05-26T09:25:52Z</time>
      </trkpt>
      <trkpt lat="44.25513" lon="0.77418">
        <ele>269.6</ele>
        <time>2022-05-26T09:25:56Z</time>
      </trkpt>
      <trkpt lat="44.25517" lon="0.7739">
        <ele>269.2</ele>
        <time>2022-05-26T09:26:00Z</time>
      </trkpt>
      <trkpt lat="44.25521" lon="0.77362">
        <ele>269</ele>
        <time>2022-05-26T09:26:04Z</time>
      </trkpt>
      <trkpt lat="44.25523" lon="0.77333">
        <ele>269.8</ele>
        <time>2022-05-26T09:26:08Z</time>
      </trkpt>
      <trkpt lat="44.25522" lon="0.77304">
        <ele>269.6</ele>
        <time>2022-05-26T09:26:12Z</time>
      </trkpt>
      <trkpt lat="44.2552" lon="0.77275">
        <ele>269.8</ele>
        <time>2022-05-26T09:26:16Z</time>
      </trkpt>
      <trkpt lat="44.25517" lon="0.77247">
        <ele>270</ele>
        <time>2022-05-26T09:26:20Z</time>
      </trkpt>
      <trkpt lat="44.25515" lon="0.7722">
        <ele>269.4</ele>
        <time>2022-05-26T09:26:24Z</time>
      </trkpt>
      <trkpt lat="44.25511" lon="0.77193">
        <ele>269.4</ele>
        <time>2022-05-26T09:26:28Z</time>
      </trkpt>
      <trkpt lat="44.25509" lon="0.77169">
        <ele>269.4</ele>
        <time>2022-05-26T09:26:32Z</time>
      </trkpt>
      <trkpt lat="44.25506" lon="0.77146">
        <ele>269.2</ele>
        <time>2022-05-26T09:26:36Z</time>
      </trkpt>
      <trkpt lat="44.25504" lon="0.77121">
        <ele>269.6</ele>
        <time>2022-05-26T09:26:40Z</time>
      </trkpt>
      <trkpt lat="44.255" lon="0.77096">
        <ele>269.8</ele>
        <time>2022-05-26T09:26:44Z</time>
      </trkpt>
      <trkpt lat="44.25495" lon="0.77072">
        <ele>269.4</ele>
        <time>2022-05-26T09:26:48Z</time>
      </trkpt>
      <trkpt lat="44.2549" lon="0.77047">
        <ele>269.4</ele>
        <time>2022-05-26T09:26:52Z</time>
      </trkpt>
      <trkpt lat="44.25487" lon="0.77026">
        <ele>270</ele>
        <time>2022-05-26T09:26:56Z</time>
      </trkpt>
      <trkpt lat="44.25484" lon="0.77008">
        <ele>269.4</ele>
        <time>2022-05-26T09:27:00Z</time>
      </trkpt>
      <trkpt lat="44.25472" lon="0.77003">
        <ele>269.2</ele>
        <time>2022-05-26T09:27:04Z</time>
      </trkpt>
      <trkpt lat="44.25461" lon="0.77018">
        <ele>267.4</ele>
        <time>2022-05-26T09:27:08Z</time>
      </trkpt>
      <trkpt lat="44.25461" lon="0.77018">
        <ele>267.8</ele>
        <time>2022-05-26T09:27:12Z</time>
      </trkpt>
      <trkpt lat="44.25441" lon="0.77026">
        <ele>265.6</ele>
        <time>2022-05-26T09:27:28Z</time>
      </trkpt>
      <trkpt lat="44.25423" lon="0.77017">
        <ele>261.8</ele>
        <time>2022-05-26T09:27:32Z</time>
      </trkpt>
      <trkpt lat="44.25415" lon="0.77022">
        <ele>260</ele>
        <time>2022-05-26T09:27:36Z</time>
      </trkpt>
      <trkpt lat="44.25408" lon="0.77043">
        <ele>257.8</ele>
        <time>2022-05-26T09:27:40Z</time>
      </trkpt>
      <trkpt lat="44.25385" lon="0.77061">
        <ele>253</ele>
        <time>2022-05-26T09:27:44Z</time>
      </trkpt>
      <trkpt lat="44.25359" lon="0.77077">
        <ele>249.4</ele>
        <time>2022-05-26T09:27:48Z</time>
      </trkpt>
      <trkpt lat="44.25361" lon="0.77099">
        <ele>251.4</ele>
        <time>2022-05-26T09:27:52Z</time>
      </trkpt>
      <trkpt lat="44.2537" lon="0.77125">
        <ele>250.2</ele>
        <time>2022-05-26T09:27:56Z</time>
      </trkpt>
      <trkpt lat="44.25377" lon="0.77154">
        <ele>249.8</ele>
        <time>2022-05-26T09:28:00Z</time>
      </trkpt>
      <trkpt lat="44.25376" lon="0.77181">
        <ele>249.6</ele>
        <time>2022-05-26T09:28:04Z</time>
      </trkpt>
      <trkpt lat="44.25362" lon="0.77201">
        <ele>250</ele>
        <time>2022-05-26T09:28:08Z</time>
      </trkpt>
      <trkpt lat="44.25343" lon="0.77218">
        <ele>248.4</ele>
        <time>2022-05-26T09:28:12Z</time>
      </trkpt>
      <trkpt lat="44.25324" lon="0.77229">
        <ele>248.2</ele>
        <time>2022-05-26T09:28:16Z</time>
      </trkpt>
      <trkpt lat="44.25302" lon="0.77239">
        <ele>247</ele>
        <time>2022-05-26T09:28:20Z</time>
      </trkpt>
      <trkpt lat="44.25278" lon="0.77248">
        <ele>246.4</ele>
        <time>2022-05-26T09:28:24Z</time>
      </trkpt>
      <trkpt lat="44.25252" lon="0.77256">
        <ele>246.2</ele>
        <time>2022-05-26T09:28:28Z</time>
      </trkpt>
      <trkpt lat="44.25226" lon="0.77263">
        <ele>244.4</ele>
        <time>2022-05-26T09:28:32Z</time>
      </trkpt>
      <trkpt lat="44.252" lon="0.77266">
        <ele>242.4</ele>
        <time>2022-05-26T09:28:36Z</time>
      </trkpt>
      <trkpt lat="44.25176" lon="0.77274">
        <ele>240.4</ele>
        <time>2022-05-26T09:28:40Z</time>
      </trkpt>
      <trkpt lat="44.25153" lon="0.77284">
        <ele>241.2</ele>
        <time>2022-05-26T09:28:44Z</time>
      </trkpt>
      <trkpt lat="44.25133" lon="0.77298">
        <ele>241.4</ele>
        <time>2022-05-26T09:28:48Z</time>
      </trkpt>
      <trkpt lat="44.25115" lon="0.77315">
        <ele>240.4</ele>
        <time>2022-05-26T09:28:52Z</time>
      </trkpt>
      <trkpt lat="44.25094" lon="0.7733">
        <ele>239.4</ele>
        <time>2022-05-26T09:28:56Z</time>
      </trkpt>
      <trkpt lat="44.25077" lon="0.77348">
        <ele>236.2</ele>
        <time>2022-05-26T09:29:00Z</time>
      </trkpt>
      <trkpt lat="44.25061" lon="0.77367">
        <ele>237.4</ele>
        <time>2022-05-26T09:29:04Z</time>
      </trkpt>
      <trkpt lat="44.25039" lon="0.77386">
        <ele>237.4</ele>
        <time>2022-05-26T09:29:08Z</time>
      </trkpt>
      <trkpt lat="44.25025" lon="0.77398">
        <ele>238.6</ele>
        <time>2022-05-26T09:29:12Z</time>
      </trkpt>
      <trkpt lat="44.25012" lon="0.77394">
        <ele>235.8</ele>
        <time>2022-05-26T09:29:22Z</time>
      </trkpt>
      <trkpt lat="44.24999" lon="0.77381">
        <ele>235.2</ele>
        <time>2022-05-26T09:29:26Z</time>
      </trkpt>
      <trkpt lat="44.24984" lon="0.77371">
        <ele>235.2</ele>
        <time>2022-05-26T09:29:30Z</time>
      </trkpt>
      <trkpt lat="44.24966" lon="0.77369">
        <ele>233.6</ele>
        <time>2022-05-26T09:29:34Z</time>
      </trkpt>
      <trkpt lat="44.24943" lon="0.77378">
        <ele>233.8</ele>
        <time>2022-05-26T09:29:38Z</time>
      </trkpt>
      <trkpt lat="44.24921" lon="0.77376">
        <ele>233</ele>
        <time>2022-05-26T09:29:42Z</time>
      </trkpt>
      <trkpt lat="44.24903" lon="0.77374">
        <ele>232.8</ele>
        <time>2022-05-26T09:29:46Z</time>
      </trkpt>
      <trkpt lat="44.24881" lon="0.77371">
        <ele>230.6</ele>
        <time>2022-05-26T09:29:50Z</time>
      </trkpt>
      <trkpt lat="44.24856" lon="0.7737">
        <ele>231.2</ele>
        <time>2022-05-26T09:29:54Z</time>
      </trkpt>
      <trkpt lat="44.24838" lon="0.77364">
        <ele>231.8</ele>
        <time>2022-05-26T09:29:58Z</time>
      </trkpt>
      <trkpt lat="44.24826" lon="0.77367">
        <ele>232.6</ele>
        <time>2022-05-26T09:30:02Z</time>
      </trkpt>
      <trkpt lat="44.24816" lon="0.77373">
        <ele>234.2</ele>
        <time>2022-05-26T09:30:06Z</time>
      </trkpt>
      <trkpt lat="44.24806" lon="0.77378">
        <ele>235.2</ele>
        <time>2022-05-26T09:30:10Z</time>
      </trkpt>
      <trkpt lat="44.24799" lon="0.77379">
        <ele>236</ele>
        <time>2022-05-26T09:30:14Z</time>
      </trkpt>
      <trkpt lat="44.24789" lon="0.77374">
        <ele>236.2</ele>
        <time>2022-05-26T09:30:18Z</time>
      </trkpt>
      <trkpt lat="44.24783" lon="0.77366">
        <ele>236.8</ele>
        <time>2022-05-26T09:30:22Z</time>
      </trkpt>
      <trkpt lat="44.24766" lon="0.77352">
        <ele>236</ele>
        <time>2022-05-26T09:31:04Z</time>
      </trkpt>
      <trkpt lat="44.24759" lon="0.7734">
        <ele>236.2</ele>
        <time>2022-05-26T09:31:08Z</time>
      </trkpt>
      <trkpt lat="44.24751" lon="0.77329">
        <ele>236.4</ele>
        <time>2022-05-26T09:31:12Z</time>
      </trkpt>
      <trkpt lat="44.24742" lon="0.77326">
        <ele>237</ele>
        <time>2022-05-26T09:31:16Z</time>
      </trkpt>
      <trkpt lat="44.24732" lon="0.77323">
        <ele>236.6</ele>
        <time>2022-05-26T09:31:20Z</time>
      </trkpt>
      <trkpt lat="44.24722" lon="0.77317">
        <ele>235</ele>
        <time>2022-05-26T09:31:24Z</time>
      </trkpt>
      <trkpt lat="44.24717" lon="0.77299">
        <ele>233.2</ele>
        <time>2022-05-26T09:31:28Z</time>
      </trkpt>
      <trkpt lat="44.24703" lon="0.77289">
        <ele>233.8</ele>
        <time>2022-05-26T09:31:32Z</time>
      </trkpt>
      <trkpt lat="44.2469" lon="0.77298">
        <ele>234.6</ele>
        <time>2022-05-26T09:31:36Z</time>
      </trkpt>
      <trkpt lat="44.24685" lon="0.77312">
        <ele>236.8</ele>
        <time>2022-05-26T09:31:40Z</time>
      </trkpt>
      <trkpt lat="44.24683" lon="0.77331">
        <ele>239</ele>
        <time>2022-05-26T09:31:44Z</time>
      </trkpt>
      <trkpt lat="44.24684" lon="0.77344">
        <ele>239.6</ele>
        <time>2022-05-26T09:31:48Z</time>
      </trkpt>
      <trkpt lat="44.24688" lon="0.77355">
        <ele>241.6</ele>
        <time>2022-05-26T09:31:52Z</time>
      </trkpt>
      <trkpt lat="44.24692" lon="0.77364">
        <ele>243.4</ele>
        <time>2022-05-26T09:31:56Z</time>
      </trkpt>
      <trkpt lat="44.24693" lon="0.7738">
        <ele>245.2</ele>
        <time>2022-05-26T09:32:00Z</time>
      </trkpt>
      <trkpt lat="44.24694" lon="0.77394">
        <ele>246.2</ele>
        <time>2022-05-26T09:32:04Z</time>
      </trkpt>
      <trkpt lat="44.247" lon="0.7741">
        <ele>245.8</ele>
        <time>2022-05-26T09:32:08Z</time>
      </trkpt>
      <trkpt lat="44.24705" lon="0.77425">
        <ele>246.8</ele>
        <time>2022-05-26T09:32:12Z</time>
      </trkpt>
      <trkpt lat="44.24705" lon="0.77437">
        <ele>245.8</ele>
        <time>2022-05-26T09:32:16Z</time>
      </trkpt>
      <trkpt lat="44.24706" lon="0.7745">
        <ele>245.8</ele>
        <time>2022-05-26T09:32:20Z</time>
      </trkpt>
      <trkpt lat="44.2471" lon="0.7746">
        <ele>243.6</ele>
        <time>2022-05-26T09:32:24Z</time>
      </trkpt>
      <trkpt lat="44.24724" lon="0.77461">
        <ele>241</ele>
        <time>2022-05-26T09:32:28Z</time>
      </trkpt>
      <trkpt lat="44.24743" lon="0.77456">
        <ele>239.6</ele>
        <time>2022-05-26T09:32:32Z</time>
      </trkpt>
      <trkpt lat="44.2476" lon="0.77451">
        <ele>236.6</ele>
        <time>2022-05-26T09:32:36Z</time>
      </trkpt>
      <trkpt lat="44.24777" lon="0.7746">
        <ele>234.6</ele>
        <time>2022-05-26T09:32:40Z</time>
      </trkpt>
      <trkpt lat="44.24781" lon="0.77474">
        <ele>235.4</ele>
        <time>2022-05-26T09:32:44Z</time>
      </trkpt>
      <trkpt lat="44.24776" lon="0.77483">
        <ele>235.6</ele>
        <time>2022-05-26T09:32:48Z</time>
      </trkpt>
      <trkpt lat="44.24773" lon="0.77493">
        <ele>236</ele>
        <time>2022-05-26T09:32:52Z</time>
      </trkpt>
      <trkpt lat="44.24769" lon="0.77502">
        <ele>235.8</ele>
        <time>2022-05-26T09:32:56Z</time>
      </trkpt>
      <trkpt lat="44.24765" lon="0.77511">
        <ele>236.2</ele>
        <time>2022-05-26T09:33:00Z</time>
      </trkpt>
      <trkpt lat="44.2476" lon="0.77521">
        <ele>236.6</ele>
        <time>2022-05-26T09:33:04Z</time>
      </trkpt>
      <trkpt lat="44.24756" lon="0.77533">
        <ele>236.8</ele>
        <time>2022-05-26T09:33:08Z</time>
      </trkpt>
      <trkpt lat="44.24752" lon="0.77544">
        <ele>237.2</ele>
        <time>2022-05-26T09:33:12Z</time>
      </trkpt>
      <trkpt lat="44.24747" lon="0.77557">
        <ele>237.2</ele>
        <time>2022-05-26T09:33:16Z</time>
      </trkpt>
      <trkpt lat="44.24741" lon="0.7757">
        <ele>238.4</ele>
        <time>2022-05-26T09:33:20Z</time>
      </trkpt>
      <trkpt lat="44.24735" lon="0.77584">
        <ele>239.2</ele>
        <time>2022-05-26T09:33:24Z</time>
      </trkpt>
      <trkpt lat="44.24728" lon="0.776">
        <ele>239.4</ele>
        <time>2022-05-26T09:33:28Z</time>
      </trkpt>
      <trkpt lat="44.24724" lon="0.77612">
        <ele>240.4</ele>
        <time>2022-05-26T09:33:32Z</time>
      </trkpt>
      <trkpt lat="44.2472" lon="0.77625">
        <ele>240.4</ele>
        <time>2022-05-26T09:33:36Z</time>
      </trkpt>
      <trkpt lat="44.24716" lon="0.77637">
        <ele>241.2</ele>
        <time>2022-05-26T09:33:40Z</time>
      </trkpt>
      <trkpt lat="44.24711" lon="0.77649">
        <ele>241.4</ele>
        <time>2022-05-26T09:33:44Z</time>
      </trkpt>
      <trkpt lat="44.24707" lon="0.7766">
        <ele>242</ele>
        <time>2022-05-26T09:33:48Z</time>
      </trkpt>
      <trkpt lat="44.24702" lon="0.77673">
        <ele>242.4</ele>
        <time>2022-05-26T09:33:52Z</time>
      </trkpt>
      <trkpt lat="44.247" lon="0.77687">
        <ele>242</ele>
        <time>2022-05-26T09:33:56Z</time>
      </trkpt>
      <trkpt lat="44.24698" lon="0.77701">
        <ele>242</ele>
        <time>2022-05-26T09:34:00Z</time>
      </trkpt>
      <trkpt lat="44.24695" lon="0.77717">
        <ele>241.6</ele>
        <time>2022-05-26T09:34:04Z</time>
      </trkpt>
      <trkpt lat="44.24689" lon="0.77732">
        <ele>242.4</ele>
        <time>2022-05-26T09:34:08Z</time>
      </trkpt>
      <trkpt lat="44.2468" lon="0.77742">
        <ele>243.6</ele>
        <time>2022-05-26T09:34:12Z</time>
      </trkpt>
      <trkpt lat="44.24674" lon="0.77752">
        <ele>243.8</ele>
        <time>2022-05-26T09:34:16Z</time>
      </trkpt>
      <trkpt lat="44.24669" lon="0.77765">
        <ele>244.2</ele>
        <time>2022-05-26T09:34:20Z</time>
      </trkpt>
      <trkpt lat="44.24662" lon="0.77774">
        <ele>244.8</ele>
        <time>2022-05-26T09:34:24Z</time>
      </trkpt>
      <trkpt lat="44.24656" lon="0.77785">
        <ele>245.4</ele>
        <time>2022-05-26T09:34:28Z</time>
      </trkpt>
      <trkpt lat="44.24654" lon="0.77796">
        <ele>246.4</ele>
        <time>2022-05-26T09:34:32Z</time>
      </trkpt>
      <trkpt lat="44.24652" lon="0.77808">
        <ele>246.4</ele>
        <time>2022-05-26T09:34:36Z</time>
      </trkpt>
      <trkpt lat="44.24647" lon="0.77822">
        <ele>247.2</ele>
        <time>2022-05-26T09:34:40Z</time>
      </trkpt>
      <trkpt lat="44.24643" lon="0.77837">
        <ele>248</ele>
        <time>2022-05-26T09:34:44Z</time>
      </trkpt>
      <trkpt lat="44.24637" lon="0.77851">
        <ele>249.4</ele>
        <time>2022-05-26T09:34:48Z</time>
      </trkpt>
      <trkpt lat="44.24632" lon="0.7786">
        <ele>250</ele>
        <time>2022-05-26T09:34:52Z</time>
      </trkpt>
      <trkpt lat="44.24627" lon="0.77871">
        <ele>251.2</ele>
        <time>2022-05-26T09:34:56Z</time>
      </trkpt>
      <trkpt lat="44.24621" lon="0.77879">
        <ele>251.2</ele>
        <time>2022-05-26T09:35:00Z</time>
      </trkpt>
      <trkpt lat="44.24613" lon="0.77881">
        <ele>251.2</ele>
        <time>2022-05-26T09:35:04Z</time>
      </trkpt>
      <trkpt lat="44.24613" lon="0.77891">
        <ele>251.2</ele>
        <time>2022-05-26T09:35:08Z</time>
      </trkpt>
      <trkpt lat="44.24599" lon="0.77895">
        <ele>250.4</ele>
        <time>2022-05-26T09:45:38Z</time>
      </trkpt>
      <trkpt lat="44.24595" lon="0.77882">
        <ele>250.4</ele>
        <time>2022-05-26T09:45:42Z</time>
      </trkpt>
      <trkpt lat="44.24591" lon="0.77872">
        <ele>250.8</ele>
        <time>2022-05-26T09:45:46Z</time>
      </trkpt>
      <trkpt lat="44.24587" lon="0.77857">
        <ele>250.4</ele>
        <time>2022-05-26T09:45:50Z</time>
      </trkpt>
      <trkpt lat="44.24584" lon="0.7784">
        <ele>250.8</ele>
        <time>2022-05-26T09:45:54Z</time>
      </trkpt>
      <trkpt lat="44.24579" lon="0.77824">
        <ele>251</ele>
        <time>2022-05-26T09:45:58Z</time>
      </trkpt>
      <trkpt lat="44.24573" lon="0.77811">
        <ele>251.2</ele>
        <time>2022-05-26T09:46:02Z</time>
      </trkpt>
      <trkpt lat="44.24567" lon="0.77799">
        <ele>252.6</ele>
        <time>2022-05-26T09:46:06Z</time>
      </trkpt>
      <trkpt lat="44.24563" lon="0.77783">
        <ele>253</ele>
        <time>2022-05-26T09:46:10Z</time>
      </trkpt>
      <trkpt lat="44.2456" lon="0.77767">
        <ele>254.4</ele>
        <time>2022-05-26T09:46:14Z</time>
      </trkpt>
      <trkpt lat="44.24556" lon="0.77754">
        <ele>254.8</ele>
        <time>2022-05-26T09:46:18Z</time>
      </trkpt>
      <trkpt lat="44.24553" lon="0.77745">
        <ele>254.8</ele>
        <time>2022-05-26T09:46:22Z</time>
      </trkpt>
      <trkpt lat="44.24548" lon="0.7774">
        <ele>255</ele>
        <time>2022-05-26T09:46:26Z</time>
      </trkpt>
      <trkpt lat="44.2454" lon="0.77735">
        <ele>253.2</ele>
        <time>2022-05-26T09:46:30Z</time>
      </trkpt>
      <trkpt lat="44.24531" lon="0.77731">
        <ele>253</ele>
        <time>2022-05-26T09:46:34Z</time>
      </trkpt>
      <trkpt lat="44.24516" lon="0.77728">
        <ele>251.8</ele>
        <time>2022-05-26T09:46:38Z</time>
      </trkpt>
      <trkpt lat="44.24509" lon="0.77711">
        <ele>252.4</ele>
        <time>2022-05-26T09:46:42Z</time>
      </trkpt>
      <trkpt lat="44.24507" lon="0.7769">
        <ele>251.6</ele>
        <time>2022-05-26T09:46:46Z</time>
      </trkpt>
      <trkpt lat="44.24506" lon="0.77667">
        <ele>251.4</ele>
        <time>2022-05-26T09:46:50Z</time>
      </trkpt>
      <trkpt lat="44.24508" lon="0.77646">
        <ele>250.2</ele>
        <time>2022-05-26T09:46:54Z</time>
      </trkpt>
      <trkpt lat="44.24512" lon="0.77619">
        <ele>249.6</ele>
        <time>2022-05-26T09:46:58Z</time>
      </trkpt>
      <trkpt lat="44.24509" lon="0.77589">
        <ele>251.2</ele>
        <time>2022-05-26T09:47:02Z</time>
      </trkpt>
      <trkpt lat="44.24506" lon="0.77559">
        <ele>248.2</ele>
        <time>2022-05-26T09:47:06Z</time>
      </trkpt>
      <trkpt lat="44.2451" lon="0.77535">
        <ele>248</ele>
        <time>2022-05-26T09:47:10Z</time>
      </trkpt>
      <trkpt lat="44.24506" lon="0.77508">
        <ele>247.4</ele>
        <time>2022-05-26T09:47:14Z</time>
      </trkpt>
      <trkpt lat="44.24503" lon="0.77479">
        <ele>247.8</ele>
        <time>2022-05-26T09:47:18Z</time>
      </trkpt>
      <trkpt lat="44.24491" lon="0.77468">
        <ele>247.8</ele>
        <time>2022-05-26T09:47:22Z</time>
      </trkpt>
      <trkpt lat="44.24478" lon="0.7746">
        <ele>246.2</ele>
        <time>2022-05-26T09:47:26Z</time>
      </trkpt>
      <trkpt lat="44.24459" lon="0.7745">
        <ele>241.6</ele>
        <time>2022-05-26T09:47:30Z</time>
      </trkpt>
      <trkpt lat="44.24437" lon="0.77441">
        <ele>240.6</ele>
        <time>2022-05-26T09:47:34Z</time>
      </trkpt>
      <trkpt lat="44.24407" lon="0.77427">
        <ele>238</ele>
        <time>2022-05-26T09:47:38Z</time>
      </trkpt>
      <trkpt lat="44.24378" lon="0.77415">
        <ele>235.8</ele>
        <time>2022-05-26T09:47:42Z</time>
      </trkpt>
      <trkpt lat="44.24352" lon="0.77403">
        <ele>237.4</ele>
        <time>2022-05-26T09:47:46Z</time>
      </trkpt>
      <trkpt lat="44.24332" lon="0.77392">
        <ele>238</ele>
        <time>2022-05-26T09:47:50Z</time>
      </trkpt>
      <trkpt lat="44.24321" lon="0.77388">
        <ele>237.8</ele>
        <time>2022-05-26T09:47:54Z</time>
      </trkpt>
      <trkpt lat="44.24304" lon="0.77381">
        <ele>238.2</ele>
        <time>2022-05-26T09:47:58Z</time>
      </trkpt>
      <trkpt lat="44.24286" lon="0.77373">
        <ele>240.2</ele>
        <time>2022-05-26T09:48:02Z</time>
      </trkpt>
      <trkpt lat="44.2427" lon="0.77364">
        <ele>240</ele>
        <time>2022-05-26T09:48:06Z</time>
      </trkpt>
      <trkpt lat="44.24256" lon="0.77348">
        <ele>239</ele>
        <time>2022-05-26T09:48:10Z</time>
      </trkpt>
      <trkpt lat="44.24243" lon="0.77332">
        <ele>239.2</ele>
        <time>2022-05-26T09:48:14Z</time>
      </trkpt>
      <trkpt lat="44.24224" lon="0.77319">
        <ele>241.8</ele>
        <time>2022-05-26T09:48:18Z</time>
      </trkpt>
      <trkpt lat="44.24209" lon="0.77306">
        <ele>242.6</ele>
        <time>2022-05-26T09:48:22Z</time>
      </trkpt>
      <trkpt lat="44.242" lon="0.77293">
        <ele>244</ele>
        <time>2022-05-26T09:48:26Z</time>
      </trkpt>
      <trkpt lat="44.24194" lon="0.77285">
        <ele>245.4</ele>
        <time>2022-05-26T09:48:30Z</time>
      </trkpt>
      <trkpt lat="44.24189" lon="0.77277">
        <ele>247</ele>
        <time>2022-05-26T09:48:34Z</time>
      </trkpt>
      <trkpt lat="44.24184" lon="0.77266">
        <ele>247.6</ele>
        <time>2022-05-26T09:48:38Z</time>
      </trkpt>
      <trkpt lat="44.24177" lon="0.77254">
        <ele>248.2</ele>
        <time>2022-05-26T09:48:42Z</time>
      </trkpt>
      <trkpt lat="44.2417" lon="0.7724">
        <ele>248</ele>
        <time>2022-05-26T09:48:46Z</time>
      </trkpt>
      <trkpt lat="44.24162" lon="0.7722">
        <ele>246.6</ele>
        <time>2022-05-26T09:48:50Z</time>
      </trkpt>
      <trkpt lat="44.24152" lon="0.772">
        <ele>245.6</ele>
        <time>2022-05-26T09:48:54Z</time>
      </trkpt>
      <trkpt lat="44.24141" lon="0.77177">
        <ele>244.4</ele>
        <time>2022-05-26T09:48:58Z</time>
      </trkpt>
      <trkpt lat="44.2413" lon="0.77148">
        <ele>244</ele>
        <time>2022-05-26T09:49:02Z</time>
      </trkpt>
      <trkpt lat="44.2412" lon="0.77119">
        <ele>244.2</ele>
        <time>2022-05-26T09:49:06Z</time>
      </trkpt>
      <trkpt lat="44.24108" lon="0.77096">
        <ele>244</ele>
        <time>2022-05-26T09:49:10Z</time>
      </trkpt>
      <trkpt lat="44.24095" lon="0.77078">
        <ele>245.4</ele>
        <time>2022-05-26T09:49:14Z</time>
      </trkpt>
      <trkpt lat="44.24082" lon="0.77061">
        <ele>246.8</ele>
        <time>2022-05-26T09:49:18Z</time>
      </trkpt>
      <trkpt lat="44.24076" lon="0.77043">
        <ele>247.4</ele>
        <time>2022-05-26T09:49:22Z</time>
      </trkpt>
      <trkpt lat="44.24087" lon="0.77033">
        <ele>247.2</ele>
        <time>2022-05-26T09:49:26Z</time>
      </trkpt>
      <trkpt lat="44.24097" lon="0.77022">
        <ele>246.8</ele>
        <time>2022-05-26T09:49:30Z</time>
      </trkpt>
      <trkpt lat="44.24111" lon="0.7701">
        <ele>248</ele>
        <time>2022-05-26T09:49:34Z</time>
      </trkpt>
      <trkpt lat="44.24113" lon="0.7699">
        <ele>247.4</ele>
        <time>2022-05-26T09:49:38Z</time>
      </trkpt>
      <trkpt lat="44.24112" lon="0.76965">
        <ele>247.2</ele>
        <time>2022-05-26T09:49:42Z</time>
      </trkpt>
      <trkpt lat="44.24115" lon="0.76944">
        <ele>248</ele>
        <time>2022-05-26T09:49:46Z</time>
      </trkpt>
      <trkpt lat="44.24111" lon="0.76923">
        <ele>248.6</ele>
        <time>2022-05-26T09:49:50Z</time>
      </trkpt>
      <trkpt lat="44.24114" lon="0.76905">
        <ele>247</ele>
        <time>2022-05-26T09:49:54Z</time>
      </trkpt>
      <trkpt lat="44.24126" lon="0.76888">
        <ele>247</ele>
        <time>2022-05-26T09:49:58Z</time>
      </trkpt>
      <trkpt lat="44.24139" lon="0.76869">
        <ele>244.6</ele>
        <time>2022-05-26T09:50:02Z</time>
      </trkpt>
      <trkpt lat="44.24161" lon="0.76854">
        <ele>240.6</ele>
        <time>2022-05-26T09:50:06Z</time>
      </trkpt>
      <trkpt lat="44.24181" lon="0.7684">
        <ele>237</ele>
        <time>2022-05-26T09:50:10Z</time>
      </trkpt>
      <trkpt lat="44.242" lon="0.76818">
        <ele>233.2</ele>
        <time>2022-05-26T09:50:14Z</time>
      </trkpt>
      <trkpt lat="44.24222" lon="0.76809">
        <ele>231.2</ele>
        <time>2022-05-26T09:50:18Z</time>
      </trkpt>
      <trkpt lat="44.24241" lon="0.76819">
        <ele>229.4</ele>
        <time>2022-05-26T09:50:22Z</time>
      </trkpt>
      <trkpt lat="44.24262" lon="0.7683">
        <ele>229</ele>
        <time>2022-05-26T09:50:26Z</time>
      </trkpt>
      <trkpt lat="44.24282" lon="0.76841">
        <ele>228.2</ele>
        <time>2022-05-26T09:50:30Z</time>
      </trkpt>
      <trkpt lat="44.24304" lon="0.7683">
        <ele>227.6</ele>
        <time>2022-05-26T09:50:34Z</time>
      </trkpt>
      <trkpt lat="44.24324" lon="0.76814">
        <ele>228.8</ele>
        <time>2022-05-26T09:50:38Z</time>
      </trkpt>
      <trkpt lat="44.24344" lon="0.76796">
        <ele>230.6</ele>
        <time>2022-05-26T09:50:42Z</time>
      </trkpt>
      <trkpt lat="44.24358" lon="0.76777">
        <ele>232</ele>
        <time>2022-05-26T09:50:46Z</time>
      </trkpt>
      <trkpt lat="44.24371" lon="0.76763">
        <ele>230.2</ele>
        <time>2022-05-26T09:50:50Z</time>
      </trkpt>
      <trkpt lat="44.24387" lon="0.76744">
        <ele>228.6</ele>
        <time>2022-05-26T09:50:54Z</time>
      </trkpt>
      <trkpt lat="44.24407" lon="0.76717">
        <ele>228.6</ele>
        <time>2022-05-26T09:50:58Z</time>
      </trkpt>
      <trkpt lat="44.24426" lon="0.76694">
        <ele>229.8</ele>
        <time>2022-05-26T09:51:02Z</time>
      </trkpt>
      <trkpt lat="44.24442" lon="0.76675">
        <ele>230</ele>
        <time>2022-05-26T09:51:06Z</time>
      </trkpt>
      <trkpt lat="44.24449" lon="0.76665">
        <ele>230.4</ele>
        <time>2022-05-26T09:51:10Z</time>
      </trkpt>
      <trkpt lat="44.24448" lon="0.76615">
        <ele>229.6</ele>
        <time>2022-05-26T09:52:15Z</time>
      </trkpt>
      <trkpt lat="44.24446" lon="0.76602">
        <ele>229.6</ele>
        <time>2022-05-26T09:52:19Z</time>
      </trkpt>
      <trkpt lat="44.24441" lon="0.76587">
        <ele>229.2</ele>
        <time>2022-05-26T09:52:23Z</time>
      </trkpt>
      <trkpt lat="44.24435" lon="0.76565">
        <ele>228.2</ele>
        <time>2022-05-26T09:52:27Z</time>
      </trkpt>
      <trkpt lat="44.24429" lon="0.76539">
        <ele>228.2</ele>
        <time>2022-05-26T09:52:31Z</time>
      </trkpt>
      <trkpt lat="44.24421" lon="0.76511">
        <ele>226.4</ele>
        <time>2022-05-26T09:52:35Z</time>
      </trkpt>
      <trkpt lat="44.24414" lon="0.76485">
        <ele>225.6</ele>
        <time>2022-05-26T09:52:39Z</time>
      </trkpt>
      <trkpt lat="44.24406" lon="0.76456">
        <ele>224.8</ele>
        <time>2022-05-26T09:52:43Z</time>
      </trkpt>
      <trkpt lat="44.24396" lon="0.76427">
        <ele>224.8</ele>
        <time>2022-05-26T09:52:47Z</time>
      </trkpt>
      <trkpt lat="44.24383" lon="0.764">
        <ele>224.4</ele>
        <time>2022-05-26T09:52:51Z</time>
      </trkpt>
      <trkpt lat="44.2437" lon="0.76375">
        <ele>223.6</ele>
        <time>2022-05-26T09:52:55Z</time>
      </trkpt>
      <trkpt lat="44.24364" lon="0.76343">
        <ele>221.2</ele>
        <time>2022-05-26T09:52:59Z</time>
      </trkpt>
      <trkpt lat="44.2436" lon="0.76309">
        <ele>223</ele>
        <time>2022-05-26T09:53:03Z</time>
      </trkpt>
      <trkpt lat="44.24352" lon="0.76276">
        <ele>222.6</ele>
        <time>2022-05-26T09:53:07Z</time>
      </trkpt>
      <trkpt lat="44.24344" lon="0.76248">
        <ele>222.2</ele>
        <time>2022-05-26T09:53:11Z</time>
      </trkpt>
      <trkpt lat="44.24337" lon="0.76216">
        <ele>221.6</ele>
        <time>2022-05-26T09:53:15Z</time>
      </trkpt>
      <trkpt lat="44.24332" lon="0.76185">
        <ele>221.8</ele>
        <time>2022-05-26T09:53:19Z</time>
      </trkpt>
      <trkpt lat="44.24328" lon="0.76155">
        <ele>223</ele>
        <time>2022-05-26T09:53:23Z</time>
      </trkpt>
      <trkpt lat="44.24324" lon="0.76128">
        <ele>224</ele>
        <time>2022-05-26T09:53:27Z</time>
      </trkpt>
      <trkpt lat="44.24321" lon="0.761">
        <ele>223.4</ele>
        <time>2022-05-26T09:53:31Z</time>
      </trkpt>
      <trkpt lat="44.24318" lon="0.76074">
        <ele>224</ele>
        <time>2022-05-26T09:53:35Z</time>
      </trkpt>
      <trkpt lat="44.24316" lon="0.76048">
        <ele>224.6</ele>
        <time>2022-05-26T09:53:39Z</time>
      </trkpt>
      <trkpt lat="44.2431" lon="0.76025">
        <ele>224.6</ele>
        <time>2022-05-26T09:53:43Z</time>
      </trkpt>
      <trkpt lat="44.24303" lon="0.76006">
        <ele>226</ele>
        <time>2022-05-26T09:53:47Z</time>
      </trkpt>
      <trkpt lat="44.24297" lon="0.7599">
        <ele>226</ele>
        <time>2022-05-26T09:53:51Z</time>
      </trkpt>
      <trkpt lat="44.24287" lon="0.75972">
        <ele>225.6</ele>
        <time>2022-05-26T09:53:55Z</time>
      </trkpt>
      <trkpt lat="44.24277" lon="0.75958">
        <ele>226.4</ele>
        <time>2022-05-26T09:53:59Z</time>
      </trkpt>
      <trkpt lat="44.24263" lon="0.75942">
        <ele>225.2</ele>
        <time>2022-05-26T09:54:03Z</time>
      </trkpt>
      <trkpt lat="44.24247" lon="0.75922">
        <ele>225</ele>
        <time>2022-05-26T09:54:07Z</time>
      </trkpt>
      <trkpt lat="44.24238" lon="0.75899">
        <ele>224</ele>
        <time>2022-05-26T09:54:11Z</time>
      </trkpt>
      <trkpt lat="44.24228" lon="0.75875">
        <ele>224.4</ele>
        <time>2022-05-26T09:54:15Z</time>
      </trkpt>
      <trkpt lat="44.24218" lon="0.75853">
        <ele>225.4</ele>
        <time>2022-05-26T09:54:19Z</time>
      </trkpt>
      <trkpt lat="44.24209" lon="0.75836">
        <ele>226.6</ele>
        <time>2022-05-26T09:54:23Z</time>
      </trkpt>
      <trkpt lat="44.242" lon="0.75822">
        <ele>227.8</ele>
        <time>2022-05-26T09:54:27Z</time>
      </trkpt>
      <trkpt lat="44.24188" lon="0.75811">
        <ele>227.8</ele>
        <time>2022-05-26T09:54:31Z</time>
      </trkpt>
      <trkpt lat="44.24177" lon="0.75803">
        <ele>228</ele>
        <time>2022-05-26T09:54:35Z</time>
      </trkpt>
      <trkpt lat="44.24166" lon="0.75796">
        <ele>231.2</ele>
        <time>2022-05-26T09:54:39Z</time>
      </trkpt>
      <trkpt lat="44.24155" lon="0.7579">
        <ele>230.4</ele>
        <time>2022-05-26T09:54:43Z</time>
      </trkpt>
      <trkpt lat="44.24141" lon="0.75781">
        <ele>228.6</ele>
        <time>2022-05-26T09:54:47Z</time>
      </trkpt>
      <trkpt lat="44.24123" lon="0.75766">
        <ele>227.4</ele>
        <time>2022-05-26T09:54:51Z</time>
      </trkpt>
      <trkpt lat="44.24104" lon="0.75749">
        <ele>227</ele>
        <time>2022-05-26T09:54:55Z</time>
      </trkpt>
      <trkpt lat="44.24092" lon="0.75726">
        <ele>226.8</ele>
        <time>2022-05-26T09:54:59Z</time>
      </trkpt>
      <trkpt lat="44.24086" lon="0.75704">
        <ele>227</ele>
        <time>2022-05-26T09:55:03Z</time>
      </trkpt>
      <trkpt lat="44.24081" lon="0.75687">
        <ele>228</ele>
        <time>2022-05-26T09:55:07Z</time>
      </trkpt>
      <trkpt lat="44.24076" lon="0.75673">
        <ele>228.2</ele>
        <time>2022-05-26T09:55:11Z</time>
      </trkpt>
      <trkpt lat="44.24069" lon="0.75658">
        <ele>228.6</ele>
        <time>2022-05-26T09:55:15Z</time>
      </trkpt>
      <trkpt lat="44.2406" lon="0.75644">
        <ele>229.6</ele>
        <time>2022-05-26T09:55:19Z</time>
      </trkpt>
      <trkpt lat="44.2405" lon="0.75626">
        <ele>229.4</ele>
        <time>2022-05-26T09:55:23Z</time>
      </trkpt>
      <trkpt lat="44.24043" lon="0.75612">
        <ele>231.8</ele>
        <time>2022-05-26T09:55:27Z</time>
      </trkpt>
      <trkpt lat="44.24037" lon="0.756">
        <ele>232.8</ele>
        <time>2022-05-26T09:55:31Z</time>
      </trkpt>
      <trkpt lat="44.2403" lon="0.75585">
        <ele>233.8</ele>
        <time>2022-05-26T09:55:35Z</time>
      </trkpt>
      <trkpt lat="44.24022" lon="0.75568">
        <ele>233.6</ele>
        <time>2022-05-26T09:55:39Z</time>
      </trkpt>
      <trkpt lat="44.24016" lon="0.75553">
        <ele>234.2</ele>
        <time>2022-05-26T09:55:43Z</time>
      </trkpt>
      <trkpt lat="44.24012" lon="0.7554">
        <ele>234.2</ele>
        <time>2022-05-26T09:55:47Z</time>
      </trkpt>
      <trkpt lat="44.24012" lon="0.75531">
        <ele>234.2</ele>
        <time>2022-05-26T09:55:51Z</time>
      </trkpt>
      <trkpt lat="44.24012" lon="0.75522">
        <ele>233.6</ele>
        <time>2022-05-26T09:55:55Z</time>
      </trkpt>
      <trkpt lat="44.23997" lon="0.75509">
        <ele>232.2</ele>
        <time>2022-05-26T09:56:10Z</time>
      </trkpt>
      <trkpt lat="44.23982" lon="0.75501">
        <ele>232</ele>
        <time>2022-05-26T09:56:14Z</time>
      </trkpt>
      <trkpt lat="44.23964" lon="0.75498">
        <ele>231.6</ele>
        <time>2022-05-26T09:56:18Z</time>
      </trkpt>
      <trkpt lat="44.23944" lon="0.75496">
        <ele>227.6</ele>
        <time>2022-05-26T09:56:22Z</time>
      </trkpt>
      <trkpt lat="44.23921" lon="0.75496">
        <ele>228.4</ele>
        <time>2022-05-26T09:56:26Z</time>
      </trkpt>
      <trkpt lat="44.23899" lon="0.75496">
        <ele>228.8</ele>
        <time>2022-05-26T09:56:30Z</time>
      </trkpt>
      <trkpt lat="44.23878" lon="0.755">
        <ele>227.6</ele>
        <time>2022-05-26T09:56:34Z</time>
      </trkpt>
      <trkpt lat="44.23855" lon="0.75503">
        <ele>225.8</ele>
        <time>2022-05-26T09:56:38Z</time>
      </trkpt>
      <trkpt lat="44.23828" lon="0.75499">
        <ele>225.4</ele>
        <time>2022-05-26T09:56:42Z</time>
      </trkpt>
      <trkpt lat="44.23802" lon="0.75485">
        <ele>222.4</ele>
        <time>2022-05-26T09:56:46Z</time>
      </trkpt>
      <trkpt lat="44.23774" lon="0.75469">
        <ele>218.6</ele>
        <time>2022-05-26T09:56:50Z</time>
      </trkpt>
      <trkpt lat="44.23741" lon="0.75454">
        <ele>216</ele>
        <time>2022-05-26T09:56:54Z</time>
      </trkpt>
      <trkpt lat="44.23711" lon="0.7544">
        <ele>216</ele>
        <time>2022-05-26T09:56:58Z</time>
      </trkpt>
      <trkpt lat="44.23683" lon="0.75424">
        <ele>215.4</ele>
        <time>2022-05-26T09:57:02Z</time>
      </trkpt>
      <trkpt lat="44.23659" lon="0.75412">
        <ele>216.4</ele>
        <time>2022-05-26T09:57:06Z</time>
      </trkpt>
      <trkpt lat="44.2364" lon="0.75399">
        <ele>216.6</ele>
        <time>2022-05-26T09:57:10Z</time>
      </trkpt>
      <trkpt lat="44.2363" lon="0.75375">
        <ele>218.2</ele>
        <time>2022-05-26T09:57:14Z</time>
      </trkpt>
      <trkpt lat="44.23626" lon="0.75347">
        <ele>218.8</ele>
        <time>2022-05-26T09:57:18Z</time>
      </trkpt>
      <trkpt lat="44.2362" lon="0.75321">
        <ele>218.2</ele>
        <time>2022-05-26T09:57:22Z</time>
      </trkpt>
      <trkpt lat="44.23614" lon="0.75295">
        <ele>218.8</ele>
        <time>2022-05-26T09:57:26Z</time>
      </trkpt>
      <trkpt lat="44.23607" lon="0.75274">
        <ele>219.8</ele>
        <time>2022-05-26T09:57:30Z</time>
      </trkpt>
      <trkpt lat="44.23607" lon="0.75251">
        <ele>222.4</ele>
        <time>2022-05-26T09:57:34Z</time>
      </trkpt>
      <trkpt lat="44.23608" lon="0.75228">
        <ele>224</ele>
        <time>2022-05-26T09:57:38Z</time>
      </trkpt>
      <trkpt lat="44.23609" lon="0.75207">
        <ele>225</ele>
        <time>2022-05-26T09:57:42Z</time>
      </trkpt>
      <trkpt lat="44.23611" lon="0.75186">
        <ele>224.8</ele>
        <time>2022-05-26T09:57:46Z</time>
      </trkpt>
      <trkpt lat="44.23612" lon="0.75164">
        <ele>225</ele>
        <time>2022-05-26T09:57:50Z</time>
      </trkpt>
      <trkpt lat="44.23615" lon="0.75143">
        <ele>225</ele>
        <time>2022-05-26T09:57:54Z</time>
      </trkpt>
      <trkpt lat="44.23618" lon="0.75122">
        <ele>225.6</ele>
        <time>2022-05-26T09:57:58Z</time>
      </trkpt>
      <trkpt lat="44.2362" lon="0.751">
        <ele>225.8</ele>
        <time>2022-05-26T09:58:02Z</time>
      </trkpt>
      <trkpt lat="44.23623" lon="0.75079">
        <ele>225.2</ele>
        <time>2022-05-26T09:58:06Z</time>
      </trkpt>
      <trkpt lat="44.23616" lon="0.75062">
        <ele>226.4</ele>
        <time>2022-05-26T09:58:10Z</time>
      </trkpt>
      <trkpt lat="44.23601" lon="0.75056">
        <ele>225.8</ele>
        <time>2022-05-26T09:58:14Z</time>
      </trkpt>
      <trkpt lat="44.23587" lon="0.75054">
        <ele>228</ele>
        <time>2022-05-26T09:58:18Z</time>
      </trkpt>
      <trkpt lat="44.23572" lon="0.75052">
        <ele>228.6</ele>
        <time>2022-05-26T09:58:22Z</time>
      </trkpt>
      <trkpt lat="44.23558" lon="0.75051">
        <ele>228.8</ele>
        <time>2022-05-26T09:58:26Z</time>
      </trkpt>
      <trkpt lat="44.23545" lon="0.75049">
        <ele>229.8</ele>
        <time>2022-05-26T09:58:30Z</time>
      </trkpt>
      <trkpt lat="44.23531" lon="0.75048">
        <ele>230.6</ele>
        <time>2022-05-26T09:58:34Z</time>
      </trkpt>
      <trkpt lat="44.23518" lon="0.7505">
        <ele>231.2</ele>
        <time>2022-05-26T09:58:38Z</time>
      </trkpt>
      <trkpt lat="44.23508" lon="0.75057">
        <ele>231.8</ele>
        <time>2022-05-26T09:58:42Z</time>
      </trkpt>
      <trkpt lat="44.235" lon="0.75062">
        <ele>232.4</ele>
        <time>2022-05-26T09:58:46Z</time>
      </trkpt>
      <trkpt lat="44.2349" lon="0.75065">
        <ele>233.4</ele>
        <time>2022-05-26T09:58:50Z</time>
      </trkpt>
      <trkpt lat="44.23485" lon="0.75066">
        <ele>234.8</ele>
        <time>2022-05-26T09:58:54Z</time>
      </trkpt>
      <trkpt lat="44.23478" lon="0.75071">
        <ele>234.4</ele>
        <time>2022-05-26T09:58:58Z</time>
      </trkpt>
      <trkpt lat="44.23471" lon="0.75079">
        <ele>234.2</ele>
        <time>2022-05-26T09:59:02Z</time>
      </trkpt>
      <trkpt lat="44.23462" lon="0.75085">
        <ele>235.2</ele>
        <time>2022-05-26T09:59:06Z</time>
      </trkpt>
      <trkpt lat="44.23455" lon="0.75091">
        <ele>235.8</ele>
        <time>2022-05-26T09:59:10Z</time>
      </trkpt>
      <trkpt lat="44.23448" lon="0.75096">
        <ele>235.8</ele>
        <time>2022-05-26T09:59:14Z</time>
      </trkpt>
      <trkpt lat="44.23436" lon="0.75108">
        <ele>233.6</ele>
        <time>2022-05-26T09:59:18Z</time>
      </trkpt>
      <trkpt lat="44.23419" lon="0.75121">
        <ele>232.6</ele>
        <time>2022-05-26T09:59:22Z</time>
      </trkpt>
      <trkpt lat="44.23408" lon="0.75131">
        <ele>233.2</ele>
        <time>2022-05-26T09:59:26Z</time>
      </trkpt>
      <trkpt lat="44.23396" lon="0.75147">
        <ele>232.6</ele>
        <time>2022-05-26T09:59:30Z</time>
      </trkpt>
      <trkpt lat="44.23383" lon="0.75165">
        <ele>232.4</ele>
        <time>2022-05-26T09:59:34Z</time>
      </trkpt>
      <trkpt lat="44.23371" lon="0.7518">
        <ele>231.6</ele>
        <time>2022-05-26T09:59:38Z</time>
      </trkpt>
      <trkpt lat="44.23354" lon="0.75201">
        <ele>230.4</ele>
        <time>2022-05-26T09:59:42Z</time>
      </trkpt>
      <trkpt lat="44.23338" lon="0.75222">
        <ele>230.4</ele>
        <time>2022-05-26T09:59:46Z</time>
      </trkpt>
      <trkpt lat="44.2332" lon="0.75243">
        <ele>229.8</ele>
        <time>2022-05-26T09:59:50Z</time>
      </trkpt>
      <trkpt lat="44.233" lon="0.75263">
        <ele>227.2</ele>
        <time>2022-05-26T09:59:54Z</time>
      </trkpt>
      <trkpt lat="44.23277" lon="0.75289">
        <ele>225</ele>
        <time>2022-05-26T09:59:58Z</time>
      </trkpt>
      <trkpt lat="44.23262" lon="0.75302">
        <ele>223.4</ele>
        <time>2022-05-26T10:00:02Z</time>
      </trkpt>
      <trkpt lat="44.2324" lon="0.75306">
        <ele>221.2</ele>
        <time>2022-05-26T10:00:06Z</time>
      </trkpt>
      <trkpt lat="44.23212" lon="0.75305">
        <ele>218.6</ele>
        <time>2022-05-26T10:00:10Z</time>
      </trkpt>
      <trkpt lat="44.23182" lon="0.75294">
        <ele>215.8</ele>
        <time>2022-05-26T10:00:14Z</time>
      </trkpt>
      <trkpt lat="44.2315" lon="0.75284">
        <ele>215.2</ele>
        <time>2022-05-26T10:00:18Z</time>
      </trkpt>
      <trkpt lat="44.23119" lon="0.75281">
        <ele>215.2</ele>
        <time>2022-05-26T10:00:22Z</time>
      </trkpt>
      <trkpt lat="44.23094" lon="0.75278">
        <ele>217.8</ele>
        <time>2022-05-26T10:00:26Z</time>
      </trkpt>
      <trkpt lat="44.23076" lon="0.75276">
        <ele>218.4</ele>
        <time>2022-05-26T10:00:30Z</time>
      </trkpt>
      <trkpt lat="44.2306" lon="0.75275">
        <ele>219.8</ele>
        <time>2022-05-26T10:00:34Z</time>
      </trkpt>
      <trkpt lat="44.23045" lon="0.75273">
        <ele>220.4</ele>
        <time>2022-05-26T10:00:38Z</time>
      </trkpt>
      <trkpt lat="44.23031" lon="0.75271">
        <ele>220.6</ele>
        <time>2022-05-26T10:00:42Z</time>
      </trkpt>
      <trkpt lat="44.23017" lon="0.75269">
        <ele>219.8</ele>
        <time>2022-05-26T10:00:46Z</time>
      </trkpt>
      <trkpt lat="44.22998" lon="0.75265">
        <ele>218</ele>
        <time>2022-05-26T10:00:50Z</time>
      </trkpt>
      <trkpt lat="44.22977" lon="0.75255">
        <ele>216.8</ele>
        <time>2022-05-26T10:00:54Z</time>
      </trkpt>
      <trkpt lat="44.22958" lon="0.75244">
        <ele>217.4</ele>
        <time>2022-05-26T10:00:58Z</time>
      </trkpt>
      <trkpt lat="44.22953" lon="0.75234">
        <ele>217.8</ele>
        <time>2022-05-26T10:01:02Z</time>
      </trkpt>
      <trkpt lat="44.22954" lon="0.75223">
        <ele>218.4</ele>
        <time>2022-05-26T10:01:06Z</time>
      </trkpt>
      <trkpt lat="44.22954" lon="0.75211">
        <ele>219.8</ele>
        <time>2022-05-26T10:01:10Z</time>
      </trkpt>
      <trkpt lat="44.22954" lon="0.75198">
        <ele>220.8</ele>
        <time>2022-05-26T10:01:14Z</time>
      </trkpt>
      <trkpt lat="44.22955" lon="0.75184">
        <ele>221.2</ele>
        <time>2022-05-26T10:01:18Z</time>
      </trkpt>
      <trkpt lat="44.22955" lon="0.75169">
        <ele>221.4</ele>
        <time>2022-05-26T10:01:22Z</time>
      </trkpt>
      <trkpt lat="44.22956" lon="0.75152">
        <ele>222</ele>
        <time>2022-05-26T10:01:26Z</time>
      </trkpt>
      <trkpt lat="44.22958" lon="0.75135">
        <ele>222.4</ele>
        <time>2022-05-26T10:01:30Z</time>
      </trkpt>
      <trkpt lat="44.22959" lon="0.75116">
        <ele>223.8</ele>
        <time>2022-05-26T10:01:34Z</time>
      </trkpt>
      <trkpt lat="44.22958" lon="0.75099">
        <ele>224.8</ele>
        <time>2022-05-26T10:01:38Z</time>
      </trkpt>
      <trkpt lat="44.22955" lon="0.75083">
        <ele>224.4</ele>
        <time>2022-05-26T10:01:42Z</time>
      </trkpt>
      <trkpt lat="44.22959" lon="0.75069">
        <ele>225.4</ele>
        <time>2022-05-26T10:01:46Z</time>
      </trkpt>
      <trkpt lat="44.22968" lon="0.75062">
        <ele>225.2</ele>
        <time>2022-05-26T10:01:50Z</time>
      </trkpt>
      <trkpt lat="44.2298" lon="0.75052">
        <ele>224.8</ele>
        <time>2022-05-26T10:01:54Z</time>
      </trkpt>
      <trkpt lat="44.22992" lon="0.75043">
        <ele>226.6</ele>
        <time>2022-05-26T10:01:58Z</time>
      </trkpt>
      <trkpt lat="44.23003" lon="0.75033">
        <ele>227.2</ele>
        <time>2022-05-26T10:02:02Z</time>
      </trkpt>
      <trkpt lat="44.23013" lon="0.75026">
        <ele>228.8</ele>
        <time>2022-05-26T10:02:06Z</time>
      </trkpt>
      <trkpt lat="44.23023" lon="0.7502">
        <ele>230.6</ele>
        <time>2022-05-26T10:02:10Z</time>
      </trkpt>
      <trkpt lat="44.23031" lon="0.75012">
        <ele>232</ele>
        <time>2022-05-26T10:02:14Z</time>
      </trkpt>
      <trkpt lat="44.23038" lon="0.75001">
        <ele>232.8</ele>
        <time>2022-05-26T10:02:18Z</time>
      </trkpt>
      <trkpt lat="44.23044" lon="0.74991">
        <ele>233</ele>
        <time>2022-05-26T10:02:22Z</time>
      </trkpt>
      <trkpt lat="44.23052" lon="0.74983">
        <ele>234.2</ele>
        <time>2022-05-26T10:02:26Z</time>
      </trkpt>
      <trkpt lat="44.23059" lon="0.74976">
        <ele>234.6</ele>
        <time>2022-05-26T10:02:30Z</time>
      </trkpt>
      <trkpt lat="44.23066" lon="0.74967">
        <ele>235.2</ele>
        <time>2022-05-26T10:02:34Z</time>
      </trkpt>
      <trkpt lat="44.23073" lon="0.74958">
        <ele>236.2</ele>
        <time>2022-05-26T10:02:38Z</time>
      </trkpt>
      <trkpt lat="44.2308" lon="0.74948">
        <ele>237.6</ele>
        <time>2022-05-26T10:02:42Z</time>
      </trkpt>
      <trkpt lat="44.23086" lon="0.74938">
        <ele>238.4</ele>
        <time>2022-05-26T10:02:46Z</time>
      </trkpt>
      <trkpt lat="44.23094" lon="0.74927">
        <ele>238.6</ele>
        <time>2022-05-26T10:02:50Z</time>
      </trkpt>
      <trkpt lat="44.23101" lon="0.74918">
        <ele>239.6</ele>
        <time>2022-05-26T10:02:54Z</time>
      </trkpt>
      <trkpt lat="44.23108" lon="0.74913">
        <ele>240.8</ele>
        <time>2022-05-26T10:02:58Z</time>
      </trkpt>
      <trkpt lat="44.23116" lon="0.74911">
        <ele>241.8</ele>
        <time>2022-05-26T10:03:02Z</time>
      </trkpt>
      <trkpt lat="44.23122" lon="0.74904">
        <ele>242.2</ele>
        <time>2022-05-26T10:03:06Z</time>
      </trkpt>
      <trkpt lat="44.23124" lon="0.74895">
        <ele>242.6</ele>
        <time>2022-05-26T10:03:10Z</time>
      </trkpt>
      <trkpt lat="44.23122" lon="0.74884">
        <ele>242.6</ele>
        <time>2022-05-26T10:03:14Z</time>
      </trkpt>
      <trkpt lat="44.23121" lon="0.74871">
        <ele>241.6</ele>
        <time>2022-05-26T10:03:18Z</time>
      </trkpt>
      <trkpt lat="44.23118" lon="0.74855">
        <ele>241.6</ele>
        <time>2022-05-26T10:03:22Z</time>
      </trkpt>
      <trkpt lat="44.23117" lon="0.74841">
        <ele>241.6</ele>
        <time>2022-05-26T10:03:26Z</time>
      </trkpt>
      <trkpt lat="44.23115" lon="0.74825">
        <ele>242.2</ele>
        <time>2022-05-26T10:03:30Z</time>
      </trkpt>
      <trkpt lat="44.23117" lon="0.74804">
        <ele>241.6</ele>
        <time>2022-05-26T10:03:34Z</time>
      </trkpt>
      <trkpt lat="44.23116" lon="0.74783">
        <ele>242</ele>
        <time>2022-05-26T10:03:38Z</time>
      </trkpt>
      <trkpt lat="44.23114" lon="0.74766">
        <ele>242.4</ele>
        <time>2022-05-26T10:03:42Z</time>
      </trkpt>
      <trkpt lat="44.23111" lon="0.7475">
        <ele>244.8</ele>
        <time>2022-05-26T10:03:46Z</time>
      </trkpt>
      <trkpt lat="44.23107" lon="0.74736">
        <ele>246.8</ele>
        <time>2022-05-26T10:03:50Z</time>
      </trkpt>
      <trkpt lat="44.23105" lon="0.74723">
        <ele>247.8</ele>
        <time>2022-05-26T10:03:54Z</time>
      </trkpt>
      <trkpt lat="44.23103" lon="0.7471">
        <ele>248</ele>
        <time>2022-05-26T10:03:58Z</time>
      </trkpt>
      <trkpt lat="44.23099" lon="0.74693">
        <ele>249</ele>
        <time>2022-05-26T10:04:02Z</time>
      </trkpt>
      <trkpt lat="44.23075" lon="0.74667">
        <ele>247.6</ele>
        <time>2022-05-26T10:04:30Z</time>
      </trkpt>
      <trkpt lat="44.23054" lon="0.74662">
        <ele>246</ele>
        <time>2022-05-26T10:04:34Z</time>
      </trkpt>
      <trkpt lat="44.23029" lon="0.74659">
        <ele>244.2</ele>
        <time>2022-05-26T10:04:38Z</time>
      </trkpt>
      <trkpt lat="44.23001" lon="0.74658">
        <ele>243.8</ele>
        <time>2022-05-26T10:04:42Z</time>
      </trkpt>
      <trkpt lat="44.22975" lon="0.74661">
        <ele>241.8</ele>
        <time>2022-05-26T10:04:46Z</time>
      </trkpt>
      <trkpt lat="44.22951" lon="0.74663">
        <ele>243</ele>
        <time>2022-05-26T10:04:50Z</time>
      </trkpt>
      <trkpt lat="44.22928" lon="0.74668">
        <ele>243.4</ele>
        <time>2022-05-26T10:04:54Z</time>
      </trkpt>
      <trkpt lat="44.22905" lon="0.74675">
        <ele>243.6</ele>
        <time>2022-05-26T10:04:58Z</time>
      </trkpt>
      <trkpt lat="44.22884" lon="0.74682">
        <ele>243.2</ele>
        <time>2022-05-26T10:05:02Z</time>
      </trkpt>
      <trkpt lat="44.22863" lon="0.74686">
        <ele>243.6</ele>
        <time>2022-05-26T10:05:06Z</time>
      </trkpt>
      <trkpt lat="44.22842" lon="0.74686">
        <ele>243.4</ele>
        <time>2022-05-26T10:05:10Z</time>
      </trkpt>
      <trkpt lat="44.2282" lon="0.74681">
        <ele>242</ele>
        <time>2022-05-26T10:05:14Z</time>
      </trkpt>
      <trkpt lat="44.22798" lon="0.74675">
        <ele>241.2</ele>
        <time>2022-05-26T10:05:18Z</time>
      </trkpt>
      <trkpt lat="44.22777" lon="0.74667">
        <ele>241</ele>
        <time>2022-05-26T10:05:22Z</time>
      </trkpt>
      <trkpt lat="44.22754" lon="0.7466">
        <ele>238.4</ele>
        <time>2022-05-26T10:05:26Z</time>
      </trkpt>
      <trkpt lat="44.2273" lon="0.74645">
        <ele>237</ele>
        <time>2022-05-26T10:05:30Z</time>
      </trkpt>
      <trkpt lat="44.2271" lon="0.74631">
        <ele>237.4</ele>
        <time>2022-05-26T10:05:34Z</time>
      </trkpt>
      <trkpt lat="44.22688" lon="0.74613">
        <ele>238</ele>
        <time>2022-05-26T10:05:38Z</time>
      </trkpt>
      <trkpt lat="44.22667" lon="0.74593">
        <ele>237.4</ele>
        <time>2022-05-26T10:05:42Z</time>
      </trkpt>
      <trkpt lat="44.22646" lon="0.74574">
        <ele>236.6</ele>
        <time>2022-05-26T10:05:46Z</time>
      </trkpt>
      <trkpt lat="44.22626" lon="0.74555">
        <ele>236.6</ele>
        <time>2022-05-26T10:05:50Z</time>
      </trkpt>
      <trkpt lat="44.22607" lon="0.74538">
        <ele>237.2</ele>
        <time>2022-05-26T10:05:54Z</time>
      </trkpt>
      <trkpt lat="44.22615" lon="0.74531">
        <ele>237.6</ele>
        <time>2022-05-26T10:05:58Z</time>
      </trkpt>
      <trkpt lat="44.2263" lon="0.74523">
        <ele>233.4</ele>
        <time>2022-05-26T10:06:02Z</time>
      </trkpt>
      <trkpt lat="44.22653" lon="0.74514">
        <ele>230.6</ele>
        <time>2022-05-26T10:06:06Z</time>
      </trkpt>
      <trkpt lat="44.22681" lon="0.745">
        <ele>228</ele>
        <time>2022-05-26T10:06:10Z</time>
      </trkpt>
      <trkpt lat="44.22699" lon="0.74469">
        <ele>226</ele>
        <time>2022-05-26T10:06:14Z</time>
      </trkpt>
      <trkpt lat="44.22711" lon="0.7443">
        <ele>224.8</ele>
        <time>2022-05-26T10:06:18Z</time>
      </trkpt>
      <trkpt lat="44.22728" lon="0.74399">
        <ele>220.4</ele>
        <time>2022-05-26T10:06:22Z</time>
      </trkpt>
      <trkpt lat="44.22752" lon="0.74375">
        <ele>222</ele>
        <time>2022-05-26T10:06:26Z</time>
      </trkpt>
      <trkpt lat="44.22775" lon="0.74352">
        <ele>222.4</ele>
        <time>2022-05-26T10:06:30Z</time>
      </trkpt>
      <trkpt lat="44.22793" lon="0.74326">
        <ele>222.2</ele>
        <time>2022-05-26T10:06:34Z</time>
      </trkpt>
      <trkpt lat="44.22805" lon="0.74298">
        <ele>223.8</ele>
        <time>2022-05-26T10:06:38Z</time>
      </trkpt>
      <trkpt lat="44.22817" lon="0.74271">
        <ele>222.4</ele>
        <time>2022-05-26T10:06:42Z</time>
      </trkpt>
      <trkpt lat="44.22824" lon="0.74253">
        <ele>224</ele>
        <time>2022-05-26T10:06:46Z</time>
      </trkpt>
      <trkpt lat="44.22827" lon="0.7424">
        <ele>222.4</ele>
        <time>2022-05-26T10:06:50Z</time>
      </trkpt>
      <trkpt lat="44.22833" lon="0.74216">
        <ele>222</ele>
        <time>2022-05-26T10:06:54Z</time>
      </trkpt>
      <trkpt lat="44.2284" lon="0.74195">
        <ele>225.6</ele>
        <time>2022-05-26T10:06:58Z</time>
      </trkpt>
      <trkpt lat="44.22849" lon="0.7418">
        <ele>227.2</ele>
        <time>2022-05-26T10:07:02Z</time>
      </trkpt>
      <trkpt lat="44.22856" lon="0.74167">
        <ele>228.8</ele>
        <time>2022-05-26T10:07:06Z</time>
      </trkpt>
      <trkpt lat="44.22863" lon="0.74157">
        <ele>230.4</ele>
        <time>2022-05-26T10:07:10Z</time>
      </trkpt>
      <trkpt lat="44.22876" lon="0.74144">
        <ele>233</ele>
        <time>2022-05-26T10:08:33Z</time>
      </trkpt>
      <trkpt lat="44.22883" lon="0.74142">
        <ele>234.2</ele>
        <time>2022-05-26T10:08:37Z</time>
      </trkpt>
      <trkpt lat="44.22889" lon="0.7414">
        <ele>235.2</ele>
        <time>2022-05-26T10:08:41Z</time>
      </trkpt>
      <trkpt lat="44.22897" lon="0.74138">
        <ele>235.8</ele>
        <time>2022-05-26T10:08:45Z</time>
      </trkpt>
      <trkpt lat="44.22904" lon="0.74136">
        <ele>236.6</ele>
        <time>2022-05-26T10:08:49Z</time>
      </trkpt>
      <trkpt lat="44.2291" lon="0.74135">
        <ele>236.6</ele>
        <time>2022-05-26T10:08:53Z</time>
      </trkpt>
      <trkpt lat="44.22917" lon="0.74132">
        <ele>238.2</ele>
        <time>2022-05-26T10:08:57Z</time>
      </trkpt>
      <trkpt lat="44.22923" lon="0.74128">
        <ele>239</ele>
        <time>2022-05-26T10:09:01Z</time>
      </trkpt>
      <trkpt lat="44.22929" lon="0.74123">
        <ele>240</ele>
        <time>2022-05-26T10:09:05Z</time>
      </trkpt>
      <trkpt lat="44.22935" lon="0.74117">
        <ele>240.2</ele>
        <time>2022-05-26T10:09:09Z</time>
      </trkpt>
      <trkpt lat="44.22941" lon="0.74109">
        <ele>241.6</ele>
        <time>2022-05-26T10:09:13Z</time>
      </trkpt>
      <trkpt lat="44.22946" lon="0.74101">
        <ele>242.4</ele>
        <time>2022-05-26T10:09:17Z</time>
      </trkpt>
      <trkpt lat="44.22952" lon="0.74092">
        <ele>242.4</ele>
        <time>2022-05-26T10:09:21Z</time>
      </trkpt>
      <trkpt lat="44.22959" lon="0.74083">
        <ele>243</ele>
        <time>2022-05-26T10:09:25Z</time>
      </trkpt>
      <trkpt lat="44.22965" lon="0.74074">
        <ele>243</ele>
        <time>2022-05-26T10:09:29Z</time>
      </trkpt>
      <trkpt lat="44.22973" lon="0.74066">
        <ele>243.4</ele>
        <time>2022-05-26T10:09:33Z</time>
      </trkpt>
      <trkpt lat="44.2298" lon="0.74057">
        <ele>243.4</ele>
        <time>2022-05-26T10:09:37Z</time>
      </trkpt>
      <trkpt lat="44.22987" lon="0.74046">
        <ele>243.2</ele>
        <time>2022-05-26T10:09:41Z</time>
      </trkpt>
      <trkpt lat="44.22993" lon="0.74034">
        <ele>243.6</ele>
        <time>2022-05-26T10:09:45Z</time>
      </trkpt>
      <trkpt lat="44.23" lon="0.74019">
        <ele>243.2</ele>
        <time>2022-05-26T10:09:49Z</time>
      </trkpt>
      <trkpt lat="44.23008" lon="0.74004">
        <ele>243.6</ele>
        <time>2022-05-26T10:09:53Z</time>
      </trkpt>
      <trkpt lat="44.23015" lon="0.73987">
        <ele>244.8</ele>
        <time>2022-05-26T10:09:57Z</time>
      </trkpt>
      <trkpt lat="44.23023" lon="0.73967">
        <ele>244.8</ele>
        <time>2022-05-26T10:10:01Z</time>
      </trkpt>
      <trkpt lat="44.23029" lon="0.7395">
        <ele>245.8</ele>
        <time>2022-05-26T10:10:05Z</time>
      </trkpt>
      <trkpt lat="44.23034" lon="0.73933">
        <ele>246.6</ele>
        <time>2022-05-26T10:10:09Z</time>
      </trkpt>
      <trkpt lat="44.23038" lon="0.73917">
        <ele>246.2</ele>
        <time>2022-05-26T10:10:13Z</time>
      </trkpt>
      <trkpt lat="44.23042" lon="0.73899">
        <ele>246.8</ele>
        <time>2022-05-26T10:10:17Z</time>
      </trkpt>
      <trkpt lat="44.23044" lon="0.73881">
        <ele>246.8</ele>
        <time>2022-05-26T10:10:21Z</time>
      </trkpt>
      <trkpt lat="44.23043" lon="0.73866">
        <ele>246.2</ele>
        <time>2022-05-26T10:10:25Z</time>
      </trkpt>
      <trkpt lat="44.2304" lon="0.73849">
        <ele>246.4</ele>
        <time>2022-05-26T10:10:29Z</time>
      </trkpt>
      <trkpt lat="44.23034" lon="0.73831">
        <ele>244.8</ele>
        <time>2022-05-26T10:10:33Z</time>
      </trkpt>
      <trkpt lat="44.23028" lon="0.7381">
        <ele>244.6</ele>
        <time>2022-05-26T10:10:37Z</time>
      </trkpt>
      <trkpt lat="44.23021" lon="0.73788">
        <ele>243.6</ele>
        <time>2022-05-26T10:10:41Z</time>
      </trkpt>
      <trkpt lat="44.23013" lon="0.73764">
        <ele>244.4</ele>
        <time>2022-05-26T10:10:45Z</time>
      </trkpt>
      <trkpt lat="44.23005" lon="0.7374">
        <ele>244.6</ele>
        <time>2022-05-26T10:10:49Z</time>
      </trkpt>
      <trkpt lat="44.22997" lon="0.73718">
        <ele>244.4</ele>
        <time>2022-05-26T10:10:53Z</time>
      </trkpt>
      <trkpt lat="44.22987" lon="0.73699">
        <ele>244.6</ele>
        <time>2022-05-26T10:10:57Z</time>
      </trkpt>
      <trkpt lat="44.22975" lon="0.73681">
        <ele>245</ele>
        <time>2022-05-26T10:11:01Z</time>
      </trkpt>
      <trkpt lat="44.22964" lon="0.7366">
        <ele>245</ele>
        <time>2022-05-26T10:11:05Z</time>
      </trkpt>
      <trkpt lat="44.22957" lon="0.73638">
        <ele>246</ele>
        <time>2022-05-26T10:11:09Z</time>
      </trkpt>
      <trkpt lat="44.22952" lon="0.73618">
        <ele>246</ele>
        <time>2022-05-26T10:11:13Z</time>
      </trkpt>
      <trkpt lat="44.22947" lon="0.73595">
        <ele>244.6</ele>
        <time>2022-05-26T10:11:17Z</time>
      </trkpt>
      <trkpt lat="44.22944" lon="0.7357">
        <ele>242.8</ele>
        <time>2022-05-26T10:11:21Z</time>
      </trkpt>
      <trkpt lat="44.22942" lon="0.73543">
        <ele>244.8</ele>
        <time>2022-05-26T10:11:25Z</time>
      </trkpt>
      <trkpt lat="44.22938" lon="0.73519">
        <ele>244.4</ele>
        <time>2022-05-26T10:11:29Z</time>
      </trkpt>
      <trkpt lat="44.22936" lon="0.73492">
        <ele>245.6</ele>
        <time>2022-05-26T10:11:33Z</time>
      </trkpt>
      <trkpt lat="44.22937" lon="0.73466">
        <ele>246.4</ele>
        <time>2022-05-26T10:11:37Z</time>
      </trkpt>
      <trkpt lat="44.22939" lon="0.73442">
        <ele>245.4</ele>
        <time>2022-05-26T10:11:41Z</time>
      </trkpt>
      <trkpt lat="44.2294" lon="0.7342">
        <ele>246.6</ele>
        <time>2022-05-26T10:11:45Z</time>
      </trkpt>
      <trkpt lat="44.22944" lon="0.73398">
        <ele>245.8</ele>
        <time>2022-05-26T10:11:49Z</time>
      </trkpt>
      <trkpt lat="44.22947" lon="0.73376">
        <ele>245.8</ele>
        <time>2022-05-26T10:11:53Z</time>
      </trkpt>
      <trkpt lat="44.2295" lon="0.73351">
        <ele>246.4</ele>
        <time>2022-05-26T10:11:57Z</time>
      </trkpt>
      <trkpt lat="44.22952" lon="0.73328">
        <ele>245.8</ele>
        <time>2022-05-26T10:12:01Z</time>
      </trkpt>
      <trkpt lat="44.22953" lon="0.73312">
        <ele>246</ele>
        <time>2022-05-26T10:12:05Z</time>
      </trkpt>
      <trkpt lat="44.2296" lon="0.73305">
        <ele>243.6</ele>
        <time>2022-05-26T10:13:14Z</time>
      </trkpt>
      <trkpt lat="44.22969" lon="0.73287">
        <ele>235.8</ele>
        <time>2022-05-26T10:13:18Z</time>
      </trkpt>
      <trkpt lat="44.22987" lon="0.73255">
        <ele>226.8</ele>
        <time>2022-05-26T10:13:22Z</time>
      </trkpt>
      <trkpt lat="44.23008" lon="0.73214">
        <ele>219.2</ele>
        <time>2022-05-26T10:13:26Z</time>
      </trkpt>
      <trkpt lat="44.23023" lon="0.7316">
        <ele>221</ele>
        <time>2022-05-26T10:13:30Z</time>
      </trkpt>
      <trkpt lat="44.23033" lon="0.73106">
        <ele>223.8</ele>
        <time>2022-05-26T10:13:34Z</time>
      </trkpt>
      <trkpt lat="44.23044" lon="0.73066">
        <ele>228.2</ele>
        <time>2022-05-26T10:13:38Z</time>
      </trkpt>
      <trkpt lat="44.23054" lon="0.73061">
        <ele>227.4</ele>
        <time>2022-05-26T10:13:42Z</time>
      </trkpt>
      <trkpt lat="44.23067" lon="0.73067">
        <ele>227.6</ele>
        <time>2022-05-26T10:13:46Z</time>
      </trkpt>
      <trkpt lat="44.23081" lon="0.73076">
        <ele>227.4</ele>
        <time>2022-05-26T10:13:50Z</time>
      </trkpt>
      <trkpt lat="44.23095" lon="0.73083">
        <ele>227.6</ele>
        <time>2022-05-26T10:13:54Z</time>
      </trkpt>
      <trkpt lat="44.23109" lon="0.73091">
        <ele>228.2</ele>
        <time>2022-05-26T10:13:58Z</time>
      </trkpt>
      <trkpt lat="44.23122" lon="0.73099">
        <ele>229.2</ele>
        <time>2022-05-26T10:14:02Z</time>
      </trkpt>
      <trkpt lat="44.23135" lon="0.73107">
        <ele>229.8</ele>
        <time>2022-05-26T10:14:06Z</time>
      </trkpt>
      <trkpt lat="44.23148" lon="0.73113">
        <ele>230</ele>
        <time>2022-05-26T10:14:10Z</time>
      </trkpt>
      <trkpt lat="44.23161" lon="0.7312">
        <ele>230.6</ele>
        <time>2022-05-26T10:14:14Z</time>
      </trkpt>
      <trkpt lat="44.23174" lon="0.73124">
        <ele>230.2</ele>
        <time>2022-05-26T10:14:18Z</time>
      </trkpt>
      <trkpt lat="44.23188" lon="0.73126">
        <ele>228.6</ele>
        <time>2022-05-26T10:14:22Z</time>
      </trkpt>
      <trkpt lat="44.23207" lon="0.73126">
        <ele>225.6</ele>
        <time>2022-05-26T10:14:26Z</time>
      </trkpt>
      <trkpt lat="44.23229" lon="0.73131">
        <ele>225.4</ele>
        <time>2022-05-26T10:14:30Z</time>
      </trkpt>
      <trkpt lat="44.23242" lon="0.73134">
        <ele>221.2</ele>
        <time>2022-05-26T10:14:34Z</time>
      </trkpt>
      <trkpt lat="44.23262" lon="0.73119">
        <ele>212</ele>
        <time>2022-05-26T10:14:38Z</time>
      </trkpt>
      <trkpt lat="44.23296" lon="0.73096">
        <ele>216.6</ele>
        <time>2022-05-26T10:14:42Z</time>
      </trkpt>
      <trkpt lat="44.2331" lon="0.7308">
        <ele>215.6</ele>
        <time>2022-05-26T10:14:46Z</time>
      </trkpt>
      <trkpt lat="44.23308" lon="0.73053">
        <ele>214.8</ele>
        <time>2022-05-26T10:14:50Z</time>
      </trkpt>
      <trkpt lat="44.23304" lon="0.73027">
        <ele>214.2</ele>
        <time>2022-05-26T10:14:54Z</time>
      </trkpt>
      <trkpt lat="44.23298" lon="0.73002">
        <ele>214.8</ele>
        <time>2022-05-26T10:14:58Z</time>
      </trkpt>
      <trkpt lat="44.23296" lon="0.72975">
        <ele>215</ele>
        <time>2022-05-26T10:15:02Z</time>
      </trkpt>
      <trkpt lat="44.23295" lon="0.72949">
        <ele>216.2</ele>
        <time>2022-05-26T10:15:06Z</time>
      </trkpt>
      <trkpt lat="44.23301" lon="0.7294">
        <ele>218</ele>
        <time>2022-05-26T10:15:10Z</time>
      </trkpt>
      <trkpt lat="44.23308" lon="0.72943">
        <ele>219.2</ele>
        <time>2022-05-26T10:15:14Z</time>
      </trkpt>
      <trkpt lat="44.23317" lon="0.72944">
        <ele>220</ele>
        <time>2022-05-26T10:15:18Z</time>
      </trkpt>
      <trkpt lat="44.23328" lon="0.72944">
        <ele>221.6</ele>
        <time>2022-05-26T10:15:22Z</time>
      </trkpt>
      <trkpt lat="44.23338" lon="0.72942">
        <ele>223</ele>
        <time>2022-05-26T10:15:26Z</time>
      </trkpt>
      <trkpt lat="44.23349" lon="0.7294">
        <ele>223.4</ele>
        <time>2022-05-26T10:15:30Z</time>
      </trkpt>
      <trkpt lat="44.23361" lon="0.72935">
        <ele>223.2</ele>
        <time>2022-05-26T10:15:34Z</time>
      </trkpt>
      <trkpt lat="44.23374" lon="0.72931">
        <ele>225.2</ele>
        <time>2022-05-26T10:15:38Z</time>
      </trkpt>
      <trkpt lat="44.23384" lon="0.72928">
        <ele>225.4</ele>
        <time>2022-05-26T10:15:42Z</time>
      </trkpt>
      <trkpt lat="44.23395" lon="0.72923">
        <ele>226</ele>
        <time>2022-05-26T10:15:46Z</time>
      </trkpt>
      <trkpt lat="44.23407" lon="0.72918">
        <ele>224.8</ele>
        <time>2022-05-26T10:15:50Z</time>
      </trkpt>
      <trkpt lat="44.2342" lon="0.72913">
        <ele>226.8</ele>
        <time>2022-05-26T10:15:54Z</time>
      </trkpt>
      <trkpt lat="44.23432" lon="0.72908">
        <ele>227</ele>
        <time>2022-05-26T10:15:58Z</time>
      </trkpt>
      <trkpt lat="44.23443" lon="0.72904">
        <ele>226.8</ele>
        <time>2022-05-26T10:16:02Z</time>
      </trkpt>
      <trkpt lat="44.23456" lon="0.72899">
        <ele>227.2</ele>
        <time>2022-05-26T10:16:06Z</time>
      </trkpt>
      <trkpt lat="44.23468" lon="0.72894">
        <ele>228.8</ele>
        <time>2022-05-26T10:16:10Z</time>
      </trkpt>
      <trkpt lat="44.2348" lon="0.7289">
        <ele>229</ele>
        <time>2022-05-26T10:16:14Z</time>
      </trkpt>
      <trkpt lat="44.23492" lon="0.72885">
        <ele>227.8</ele>
        <time>2022-05-26T10:16:18Z</time>
      </trkpt>
      <trkpt lat="44.23503" lon="0.72882">
        <ele>230</ele>
        <time>2022-05-26T10:16:22Z</time>
      </trkpt>
      <trkpt lat="44.23515" lon="0.72878">
        <ele>230.6</ele>
        <time>2022-05-26T10:16:26Z</time>
      </trkpt>
      <trkpt lat="44.23527" lon="0.72873">
        <ele>229.4</ele>
        <time>2022-05-26T10:16:30Z</time>
      </trkpt>
      <trkpt lat="44.2354" lon="0.7287">
        <ele>231.2</ele>
        <time>2022-05-26T10:16:34Z</time>
      </trkpt>
      <trkpt lat="44.23552" lon="0.72865">
        <ele>231.4</ele>
        <time>2022-05-26T10:16:38Z</time>
      </trkpt>
      <trkpt lat="44.23567" lon="0.7286">
        <ele>231.8</ele>
        <time>2022-05-26T10:16:42Z</time>
      </trkpt>
      <trkpt lat="44.23574" lon="0.72846">
        <ele>231.2</ele>
        <time>2022-05-26T10:16:46Z</time>
      </trkpt>
      <trkpt lat="44.23579" lon="0.72829">
        <ele>231.2</ele>
        <time>2022-05-26T10:16:50Z</time>
      </trkpt>
      <trkpt lat="44.23584" lon="0.72813">
        <ele>232</ele>
        <time>2022-05-26T10:16:54Z</time>
      </trkpt>
      <trkpt lat="44.23589" lon="0.72796">
        <ele>232.4</ele>
        <time>2022-05-26T10:16:58Z</time>
      </trkpt>
      <trkpt lat="44.23595" lon="0.7278">
        <ele>233.2</ele>
        <time>2022-05-26T10:17:02Z</time>
      </trkpt>
      <trkpt lat="44.23601" lon="0.72764">
        <ele>233.8</ele>
        <time>2022-05-26T10:17:06Z</time>
      </trkpt>
      <trkpt lat="44.23609" lon="0.72744">
        <ele>235</ele>
        <time>2022-05-26T10:17:10Z</time>
      </trkpt>
      <trkpt lat="44.23616" lon="0.72727">
        <ele>236.4</ele>
        <time>2022-05-26T10:17:14Z</time>
      </trkpt>
      <trkpt lat="44.23622" lon="0.72716">
        <ele>237.8</ele>
        <time>2022-05-26T10:17:18Z</time>
      </trkpt>
      <trkpt lat="44.23629" lon="0.72708">
        <ele>237.4</ele>
        <time>2022-05-26T10:17:22Z</time>
      </trkpt>
      <trkpt lat="44.23636" lon="0.727">
        <ele>239.4</ele>
        <time>2022-05-26T10:17:26Z</time>
      </trkpt>
      <trkpt lat="44.23645" lon="0.72693">
        <ele>242</ele>
        <time>2022-05-26T10:17:30Z</time>
      </trkpt>
      <trkpt lat="44.23653" lon="0.72685">
        <ele>242</ele>
        <time>2022-05-26T10:17:34Z</time>
      </trkpt>
      <trkpt lat="44.23661" lon="0.72676">
        <ele>243.6</ele>
        <time>2022-05-26T10:17:38Z</time>
      </trkpt>
      <trkpt lat="44.2367" lon="0.72666">
        <ele>245.2</ele>
        <time>2022-05-26T10:17:42Z</time>
      </trkpt>
      <trkpt lat="44.23679" lon="0.72656">
        <ele>245.8</ele>
        <time>2022-05-26T10:17:46Z</time>
      </trkpt>
      <trkpt lat="44.23689" lon="0.72646">
        <ele>248.2</ele>
        <time>2022-05-26T10:17:50Z</time>
      </trkpt>
      <trkpt lat="44.23697" lon="0.72637">
        <ele>248.8</ele>
        <time>2022-05-26T10:17:54Z</time>
      </trkpt>
      <trkpt lat="44.23704" lon="0.72627">
        <ele>250.2</ele>
        <time>2022-05-26T10:17:58Z</time>
      </trkpt>
      <trkpt lat="44.23705" lon="0.72616">
        <ele>249.6</ele>
        <time>2022-05-26T10:19:35Z</time>
      </trkpt>
      <trkpt lat="44.23713" lon="0.72609">
        <ele>247</ele>
        <time>2022-05-26T10:19:39Z</time>
      </trkpt>
      <trkpt lat="44.23727" lon="0.72594">
        <ele>247.4</ele>
        <time>2022-05-26T10:19:43Z</time>
      </trkpt>
      <trkpt lat="44.23735" lon="0.7257">
        <ele>247.2</ele>
        <time>2022-05-26T10:19:47Z</time>
      </trkpt>
      <trkpt lat="44.23742" lon="0.72548">
        <ele>245.6</ele>
        <time>2022-05-26T10:19:51Z</time>
      </trkpt>
      <trkpt lat="44.2375" lon="0.72522">
        <ele>243.6</ele>
        <time>2022-05-26T10:19:55Z</time>
      </trkpt>
      <trkpt lat="44.23756" lon="0.72492">
        <ele>244.2</ele>
        <time>2022-05-26T10:19:59Z</time>
      </trkpt>
      <trkpt lat="44.23761" lon="0.72465">
        <ele>246</ele>
        <time>2022-05-26T10:20:03Z</time>
      </trkpt>
      <trkpt lat="44.23768" lon="0.72438">
        <ele>244.2</ele>
        <time>2022-05-26T10:20:07Z</time>
      </trkpt>
      <trkpt lat="44.23775" lon="0.72411">
        <ele>245.2</ele>
        <time>2022-05-26T10:20:11Z</time>
      </trkpt>
      <trkpt lat="44.2378" lon="0.72385">
        <ele>244</ele>
        <time>2022-05-26T10:20:15Z</time>
      </trkpt>
      <trkpt lat="44.23784" lon="0.72361">
        <ele>245</ele>
        <time>2022-05-26T10:20:19Z</time>
      </trkpt>
      <trkpt lat="44.2379" lon="0.72341">
        <ele>245.8</ele>
        <time>2022-05-26T10:20:23Z</time>
      </trkpt>
      <trkpt lat="44.23797" lon="0.72323">
        <ele>245.4</ele>
        <time>2022-05-26T10:20:27Z</time>
      </trkpt>
      <trkpt lat="44.23804" lon="0.72302">
        <ele>245.6</ele>
        <time>2022-05-26T10:20:31Z</time>
      </trkpt>
      <trkpt lat="44.23816" lon="0.72283">
        <ele>243</ele>
        <time>2022-05-26T10:20:35Z</time>
      </trkpt>
      <trkpt lat="44.23831" lon="0.72261">
        <ele>240.8</ele>
        <time>2022-05-26T10:20:39Z</time>
      </trkpt>
      <trkpt lat="44.23848" lon="0.72238">
        <ele>240.6</ele>
        <time>2022-05-26T10:20:43Z</time>
      </trkpt>
      <trkpt lat="44.23863" lon="0.72216">
        <ele>242.6</ele>
        <time>2022-05-26T10:20:47Z</time>
      </trkpt>
      <trkpt lat="44.23879" lon="0.72195">
        <ele>243.4</ele>
        <time>2022-05-26T10:20:51Z</time>
      </trkpt>
      <trkpt lat="44.23894" lon="0.72174">
        <ele>244.4</ele>
        <time>2022-05-26T10:20:55Z</time>
      </trkpt>
      <trkpt lat="44.23905" lon="0.7215">
        <ele>244</ele>
        <time>2022-05-26T10:20:59Z</time>
      </trkpt>
      <trkpt lat="44.23914" lon="0.7213">
        <ele>243.8</ele>
        <time>2022-05-26T10:21:03Z</time>
      </trkpt>
      <trkpt lat="44.23928" lon="0.72113">
        <ele>244.4</ele>
        <time>2022-05-26T10:21:07Z</time>
      </trkpt>
      <trkpt lat="44.23941" lon="0.72094">
        <ele>245.2</ele>
        <time>2022-05-26T10:21:11Z</time>
      </trkpt>
      <trkpt lat="44.23954" lon="0.72075">
        <ele>244.2</ele>
        <time>2022-05-26T10:21:15Z</time>
      </trkpt>
      <trkpt lat="44.23966" lon="0.72059">
        <ele>242.6</ele>
        <time>2022-05-26T10:21:19Z</time>
      </trkpt>
      <trkpt lat="44.23975" lon="0.72042">
        <ele>244.8</ele>
        <time>2022-05-26T10:21:23Z</time>
      </trkpt>
      <trkpt lat="44.23967" lon="0.72032">
        <ele>245.2</ele>
        <time>2022-05-26T10:21:27Z</time>
      </trkpt>
      <trkpt lat="44.23956" lon="0.72019">
        <ele>245.8</ele>
        <time>2022-05-26T10:21:31Z</time>
      </trkpt>
      <trkpt lat="44.23946" lon="0.72009">
        <ele>246.4</ele>
        <time>2022-05-26T10:21:35Z</time>
      </trkpt>
      <trkpt lat="44.2394" lon="0.72001">
        <ele>246.4</ele>
        <time>2022-05-26T10:21:39Z</time>
      </trkpt>
      <trkpt lat="44.23934" lon="0.71993">
        <ele>246.8</ele>
        <time>2022-05-26T10:21:43Z</time>
      </trkpt>
      <trkpt lat="44.23927" lon="0.71983">
        <ele>246.4</ele>
        <time>2022-05-26T10:21:47Z</time>
      </trkpt>
      <trkpt lat="44.23919" lon="0.71975">
        <ele>245.8</ele>
        <time>2022-05-26T10:21:51Z</time>
      </trkpt>
      <trkpt lat="44.23907" lon="0.71967">
        <ele>245.2</ele>
        <time>2022-05-26T10:21:55Z</time>
      </trkpt>
      <trkpt lat="44.23894" lon="0.7196">
        <ele>245.6</ele>
        <time>2022-05-26T10:21:59Z</time>
      </trkpt>
      <trkpt lat="44.23883" lon="0.71958">
        <ele>246</ele>
        <time>2022-05-26T10:22:03Z</time>
      </trkpt>
      <trkpt lat="44.23872" lon="0.71956">
        <ele>246.8</ele>
        <time>2022-05-26T10:22:07Z</time>
      </trkpt>
      <trkpt lat="44.23862" lon="0.71952">
        <ele>247.8</ele>
        <time>2022-05-26T10:22:11Z</time>
      </trkpt>
      <trkpt lat="44.23852" lon="0.71945">
        <ele>247.4</ele>
        <time>2022-05-26T10:22:15Z</time>
      </trkpt>
      <trkpt lat="44.23843" lon="0.71937">
        <ele>247.4</ele>
        <time>2022-05-26T10:22:19Z</time>
      </trkpt>
      <trkpt lat="44.23835" lon="0.71925">
        <ele>245.2</ele>
        <time>2022-05-26T10:22:23Z</time>
      </trkpt>
      <trkpt lat="44.23823" lon="0.71911">
        <ele>244</ele>
        <time>2022-05-26T10:22:27Z</time>
      </trkpt>
      <trkpt lat="44.23808" lon="0.71892">
        <ele>241</ele>
        <time>2022-05-26T10:22:31Z</time>
      </trkpt>
      <trkpt lat="44.23788" lon="0.71864">
        <ele>232.6</ele>
        <time>2022-05-26T10:22:35Z</time>
      </trkpt>
      <trkpt lat="44.23761" lon="0.71826">
        <ele>227.4</ele>
        <time>2022-05-26T10:22:39Z</time>
      </trkpt>
      <trkpt lat="44.23732" lon="0.71786">
        <ele>224.4</ele>
        <time>2022-05-26T10:22:43Z</time>
      </trkpt>
      <trkpt lat="44.23707" lon="0.71741">
        <ele>221</ele>
        <time>2022-05-26T10:22:47Z</time>
      </trkpt>
      <trkpt lat="44.23686" lon="0.71704">
        <ele>223.8</ele>
        <time>2022-05-26T10:22:51Z</time>
      </trkpt>
      <trkpt lat="44.23671" lon="0.71696">
        <ele>223.6</ele>
        <time>2022-05-26T10:22:55Z</time>
      </trkpt>
      <trkpt lat="44.23659" lon="0.71702">
        <ele>223.6</ele>
        <time>2022-05-26T10:22:59Z</time>
      </trkpt>
      <trkpt lat="44.23646" lon="0.71707">
        <ele>223.8</ele>
        <time>2022-05-26T10:23:03Z</time>
      </trkpt>
      <trkpt lat="44.23632" lon="0.71707">
        <ele>224.8</ele>
        <time>2022-05-26T10:23:07Z</time>
      </trkpt>
      <trkpt lat="44.23619" lon="0.71706">
        <ele>225.8</ele>
        <time>2022-05-26T10:23:11Z</time>
      </trkpt>
      <trkpt lat="44.23605" lon="0.71705">
        <ele>225.2</ele>
        <time>2022-05-26T10:23:15Z</time>
      </trkpt>
      <trkpt lat="44.23589" lon="0.71702">
        <ele>224.6</ele>
        <time>2022-05-26T10:23:19Z</time>
      </trkpt>
      <trkpt lat="44.23573" lon="0.717">
        <ele>224.6</ele>
        <time>2022-05-26T10:23:23Z</time>
      </trkpt>
      <trkpt lat="44.23557" lon="0.717">
        <ele>224.6</ele>
        <time>2022-05-26T10:23:27Z</time>
      </trkpt>
      <trkpt lat="44.23539" lon="0.71699">
        <ele>223.8</ele>
        <time>2022-05-26T10:23:31Z</time>
      </trkpt>
      <trkpt lat="44.2352" lon="0.71698">
        <ele>224.4</ele>
        <time>2022-05-26T10:23:35Z</time>
      </trkpt>
      <trkpt lat="44.23502" lon="0.71696">
        <ele>224.4</ele>
        <time>2022-05-26T10:23:39Z</time>
      </trkpt>
      <trkpt lat="44.23484" lon="0.71694">
        <ele>224.4</ele>
        <time>2022-05-26T10:23:43Z</time>
      </trkpt>
      <trkpt lat="44.23466" lon="0.71692">
        <ele>223.8</ele>
        <time>2022-05-26T10:23:47Z</time>
      </trkpt>
      <trkpt lat="44.23446" lon="0.7169">
        <ele>222.4</ele>
        <time>2022-05-26T10:23:51Z</time>
      </trkpt>
      <trkpt lat="44.23424" lon="0.71688">
        <ele>221</ele>
        <time>2022-05-26T10:23:55Z</time>
      </trkpt>
      <trkpt lat="44.23399" lon="0.71683">
        <ele>219.8</ele>
        <time>2022-05-26T10:23:59Z</time>
      </trkpt>
      <trkpt lat="44.23375" lon="0.71675">
        <ele>220</ele>
        <time>2022-05-26T10:24:03Z</time>
      </trkpt>
      <trkpt lat="44.23362" lon="0.71662">
        <ele>220.4</ele>
        <time>2022-05-26T10:24:07Z</time>
      </trkpt>
      <trkpt lat="44.23373" lon="0.71659">
        <ele>215</ele>
        <time>2022-05-26T10:24:17Z</time>
      </trkpt>
      <trkpt lat="44.23381" lon="0.71665">
        <ele>215.6</ele>
        <time>2022-05-26T10:24:21Z</time>
      </trkpt>
      <trkpt lat="44.23385" lon="0.71661">
        <ele>214.8</ele>
        <time>2022-05-26T10:24:25Z</time>
      </trkpt>
      <trkpt lat="44.2338" lon="0.71658">
        <ele>213.6</ele>
        <time>2022-05-26T10:24:29Z</time>
      </trkpt>
      <trkpt lat="44.2337" lon="0.71645">
        <ele>210.2</ele>
        <time>2022-05-26T10:24:33Z</time>
      </trkpt>
      <trkpt lat="44.23365" lon="0.71625">
        <ele>205.6</ele>
        <time>2022-05-26T10:24:37Z</time>
      </trkpt>
      <trkpt lat="44.23367" lon="0.7159">
        <ele>197.8</ele>
        <time>2022-05-26T10:24:41Z</time>
      </trkpt>
      <trkpt lat="44.23359" lon="0.71558">
        <ele>198.4</ele>
        <time>2022-05-26T10:24:45Z</time>
      </trkpt>
      <trkpt lat="44.23365" lon="0.71545">
        <ele>194.8</ele>
        <time>2022-05-26T10:24:49Z</time>
      </trkpt>
      <trkpt lat="44.23381" lon="0.71537">
        <ele>192.4</ele>
        <time>2022-05-26T10:24:53Z</time>
      </trkpt>
      <trkpt lat="44.23383" lon="0.71524">
        <ele>190.2</ele>
        <time>2022-05-26T10:24:57Z</time>
      </trkpt>
      <trkpt lat="44.23387" lon="0.71506">
        <ele>189</ele>
        <time>2022-05-26T10:25:01Z</time>
      </trkpt>
      <trkpt lat="44.23386" lon="0.71489">
        <ele>186.6</ele>
        <time>2022-05-26T10:25:05Z</time>
      </trkpt>
      <trkpt lat="44.23384" lon="0.71472">
        <ele>183</ele>
        <time>2022-05-26T10:25:09Z</time>
      </trkpt>
      <trkpt lat="44.23386" lon="0.7145">
        <ele>182.8</ele>
        <time>2022-05-26T10:25:13Z</time>
      </trkpt>
      <trkpt lat="44.2339" lon="0.71429">
        <ele>182.8</ele>
        <time>2022-05-26T10:25:17Z</time>
      </trkpt>
      <trkpt lat="44.23394" lon="0.71407">
        <ele>180</ele>
        <time>2022-05-26T10:25:21Z</time>
      </trkpt>
      <trkpt lat="44.23404" lon="0.71381">
        <ele>178.2</ele>
        <time>2022-05-26T10:25:25Z</time>
      </trkpt>
      <trkpt lat="44.23419" lon="0.71365">
        <ele>176.6</ele>
        <time>2022-05-26T10:25:29Z</time>
      </trkpt>
      <trkpt lat="44.23437" lon="0.7135">
        <ele>175.8</ele>
        <time>2022-05-26T10:25:33Z</time>
      </trkpt>
      <trkpt lat="44.23455" lon="0.71333">
        <ele>173.8</ele>
        <time>2022-05-26T10:25:37Z</time>
      </trkpt>
      <trkpt lat="44.23477" lon="0.71319">
        <ele>171.8</ele>
        <time>2022-05-26T10:25:41Z</time>
      </trkpt>
      <trkpt lat="44.235" lon="0.71303">
        <ele>169.2</ele>
        <time>2022-05-26T10:25:45Z</time>
      </trkpt>
      <trkpt lat="44.23526" lon="0.71281">
        <ele>164.4</ele>
        <time>2022-05-26T10:25:49Z</time>
      </trkpt>
      <trkpt lat="44.23553" lon="0.71242">
        <ele>166.2</ele>
        <time>2022-05-26T10:25:53Z</time>
      </trkpt>
      <trkpt lat="44.23575" lon="0.71215">
        <ele>166.6</ele>
        <time>2022-05-26T10:25:57Z</time>
      </trkpt>
      <trkpt lat="44.23595" lon="0.7119">
        <ele>162</ele>
        <time>2022-05-26T10:26:01Z</time>
      </trkpt>
      <trkpt lat="44.23618" lon="0.71161">
        <ele>159.8</ele>
        <time>2022-05-26T10:26:05Z</time>
      </trkpt>
      <trkpt lat="44.23645" lon="0.71136">
        <ele>161.2</ele>
        <time>2022-05-26T10:26:09Z</time>
      </trkpt>
      <trkpt lat="44.23672" lon="0.71114">
        <ele>159</ele>
        <time>2022-05-26T10:26:13Z</time>
      </trkpt>
      <trkpt lat="44.23698" lon="0.71095">
        <ele>158.2</ele>
        <time>2022-05-26T10:26:17Z</time>
      </trkpt>
      <trkpt lat="44.23726" lon="0.71083">
        <ele>160.6</ele>
        <time>2022-05-26T10:26:21Z</time>
      </trkpt>
      <trkpt lat="44.23746" lon="0.71072">
        <ele>158.6</ele>
        <time>2022-05-26T10:27:56Z</time>
      </trkpt>
      <trkpt lat="44.23765" lon="0.71061">
        <ele>155.6</ele>
        <time>2022-05-26T10:28:00Z</time>
      </trkpt>
      <trkpt lat="44.2379" lon="0.71049">
        <ele>152.8</ele>
        <time>2022-05-26T10:28:04Z</time>
      </trkpt>
      <trkpt lat="44.23815" lon="0.71032">
        <ele>151.4</ele>
        <time>2022-05-26T10:28:08Z</time>
      </trkpt>
      <trkpt lat="44.23835" lon="0.71008">
        <ele>150.2</ele>
        <time>2022-05-26T10:28:12Z</time>
      </trkpt>
      <trkpt lat="44.23854" lon="0.70982">
        <ele>148.8</ele>
        <time>2022-05-26T10:28:16Z</time>
      </trkpt>
      <trkpt lat="44.23873" lon="0.7096">
        <ele>148.2</ele>
        <time>2022-05-26T10:28:20Z</time>
      </trkpt>
      <trkpt lat="44.23892" lon="0.70937">
        <ele>148.2</ele>
        <time>2022-05-26T10:28:24Z</time>
      </trkpt>
      <trkpt lat="44.23911" lon="0.70914">
        <ele>147.4</ele>
        <time>2022-05-26T10:28:28Z</time>
      </trkpt>
      <trkpt lat="44.2393" lon="0.70891">
        <ele>146.6</ele>
        <time>2022-05-26T10:28:32Z</time>
      </trkpt>
      <trkpt lat="44.23949" lon="0.70868">
        <ele>145</ele>
        <time>2022-05-26T10:28:36Z</time>
      </trkpt>
      <trkpt lat="44.2397" lon="0.70843">
        <ele>143.8</ele>
        <time>2022-05-26T10:28:40Z</time>
      </trkpt>
      <trkpt lat="44.23989" lon="0.70819">
        <ele>144</ele>
        <time>2022-05-26T10:28:44Z</time>
      </trkpt>
      <trkpt lat="44.24007" lon="0.70794">
        <ele>143</ele>
        <time>2022-05-26T10:28:48Z</time>
      </trkpt>
      <trkpt lat="44.24024" lon="0.70769">
        <ele>142.6</ele>
        <time>2022-05-26T10:28:52Z</time>
      </trkpt>
      <trkpt lat="44.2404" lon="0.70741">
        <ele>141.2</ele>
        <time>2022-05-26T10:28:56Z</time>
      </trkpt>
      <trkpt lat="44.24054" lon="0.70712">
        <ele>141</ele>
        <time>2022-05-26T10:29:00Z</time>
      </trkpt>
      <trkpt lat="44.24069" lon="0.70685">
        <ele>140.4</ele>
        <time>2022-05-26T10:29:04Z</time>
      </trkpt>
      <trkpt lat="44.24084" lon="0.70656">
        <ele>139.6</ele>
        <time>2022-05-26T10:29:08Z</time>
      </trkpt>
      <trkpt lat="44.24088" lon="0.70624">
        <ele>141.2</ele>
        <time>2022-05-26T10:29:12Z</time>
      </trkpt>
      <trkpt lat="44.24081" lon="0.70594">
        <ele>141</ele>
        <time>2022-05-26T10:29:16Z</time>
      </trkpt>
      <trkpt lat="44.24072" lon="0.7056">
        <ele>138</ele>
        <time>2022-05-26T10:29:20Z</time>
      </trkpt>
      <trkpt lat="44.24062" lon="0.70525">
        <ele>138.2</ele>
        <time>2022-05-26T10:29:24Z</time>
      </trkpt>
      <trkpt lat="44.24049" lon="0.70506">
        <ele>139.2</ele>
        <time>2022-05-26T10:29:28Z</time>
      </trkpt>
      <trkpt lat="44.24038" lon="0.7049">
        <ele>138.2</ele>
        <time>2022-05-26T10:29:32Z</time>
      </trkpt>
      <trkpt lat="44.24028" lon="0.70475">
        <ele>138.4</ele>
        <time>2022-05-26T10:29:36Z</time>
      </trkpt>
      <trkpt lat="44.24016" lon="0.70458">
        <ele>138.4</ele>
        <time>2022-05-26T10:29:40Z</time>
      </trkpt>
      <trkpt lat="44.24004" lon="0.70442">
        <ele>138.2</ele>
        <time>2022-05-26T10:29:44Z</time>
      </trkpt>
      <trkpt lat="44.23991" lon="0.70429">
        <ele>139.2</ele>
        <time>2022-05-26T10:29:48Z</time>
      </trkpt>
      <trkpt lat="44.23978" lon="0.70413">
        <ele>139.2</ele>
        <time>2022-05-26T10:29:52Z</time>
      </trkpt>
      <trkpt lat="44.23959" lon="0.70388">
        <ele>139</ele>
        <time>2022-05-26T10:29:56Z</time>
      </trkpt>
      <trkpt lat="44.23939" lon="0.70359">
        <ele>138.2</ele>
        <time>2022-05-26T10:30:00Z</time>
      </trkpt>
      <trkpt lat="44.23917" lon="0.70332">
        <ele>138</ele>
        <time>2022-05-26T10:30:04Z</time>
      </trkpt>
      <trkpt lat="44.23894" lon="0.70309">
        <ele>136.8</ele>
        <time>2022-05-26T10:30:08Z</time>
      </trkpt>
      <trkpt lat="44.23873" lon="0.70291">
        <ele>137.8</ele>
        <time>2022-05-26T10:30:12Z</time>
      </trkpt>
      <trkpt lat="44.2385" lon="0.70273">
        <ele>138.6</ele>
        <time>2022-05-26T10:30:16Z</time>
      </trkpt>
      <trkpt lat="44.23829" lon="0.70273">
        <ele>139</ele>
        <time>2022-05-26T10:30:20Z</time>
      </trkpt>
      <trkpt lat="44.23813" lon="0.70289">
        <ele>140.8</ele>
        <time>2022-05-26T10:30:24Z</time>
      </trkpt>
      <trkpt lat="44.238" lon="0.7028">
        <ele>139.8</ele>
        <time>2022-05-26T10:30:28Z</time>
      </trkpt>
      <trkpt lat="44.2379" lon="0.70264">
        <ele>140</ele>
        <time>2022-05-26T10:30:32Z</time>
      </trkpt>
      <trkpt lat="44.23787" lon="0.7025">
        <ele>140.4</ele>
        <time>2022-05-26T10:30:36Z</time>
      </trkpt>
      <trkpt lat="44.23777" lon="0.70248">
        <ele>141.6</ele>
        <time>2022-05-26T10:30:40Z</time>
      </trkpt>
      <trkpt lat="44.23771" lon="0.70253">
        <ele>144.4</ele>
        <time>2022-05-26T10:30:44Z</time>
      </trkpt>
      <trkpt lat="44.23764" lon="0.70253">
        <ele>146.2</ele>
        <time>2022-05-26T10:30:48Z</time>
      </trkpt>
      <trkpt lat="44.23758" lon="0.7025">
        <ele>147.4</ele>
        <time>2022-05-26T10:30:52Z</time>
      </trkpt>
      <trkpt lat="44.23754" lon="0.70243">
        <ele>147.6</ele>
        <time>2022-05-26T10:30:56Z</time>
      </trkpt>
      <trkpt lat="44.23749" lon="0.70233">
        <ele>148</ele>
        <time>2022-05-26T10:31:00Z</time>
      </trkpt>
      <trkpt lat="44.23742" lon="0.70224">
        <ele>148</ele>
        <time>2022-05-26T10:31:04Z</time>
      </trkpt>
      <trkpt lat="44.23735" lon="0.70213">
        <ele>148.4</ele>
        <time>2022-05-26T10:31:08Z</time>
      </trkpt>
      <trkpt lat="44.23727" lon="0.70202">
        <ele>148.2</ele>
        <time>2022-05-26T10:31:12Z</time>
      </trkpt>
      <trkpt lat="44.23718" lon="0.70191">
        <ele>148.8</ele>
        <time>2022-05-26T10:31:16Z</time>
      </trkpt>
      <trkpt lat="44.23709" lon="0.70187">
        <ele>149</ele>
        <time>2022-05-26T10:31:20Z</time>
      </trkpt>
      <trkpt lat="44.23698" lon="0.70176">
        <ele>148.2</ele>
        <time>2022-05-26T10:31:24Z</time>
      </trkpt>
      <trkpt lat="44.2368" lon="0.7015">
        <ele>143.6</ele>
        <time>2022-05-26T10:31:28Z</time>
      </trkpt>
      <trkpt lat="44.23669" lon="0.70128">
        <ele>144.6</ele>
        <time>2022-05-26T10:31:32Z</time>
      </trkpt>
      <trkpt lat="44.23656" lon="0.70117">
        <ele>147</ele>
        <time>2022-05-26T10:31:36Z</time>
      </trkpt>
      <trkpt lat="44.23645" lon="0.70106">
        <ele>150.2</ele>
        <time>2022-05-26T10:31:40Z</time>
      </trkpt>
      <trkpt lat="44.23635" lon="0.70096">
        <ele>151</ele>
        <time>2022-05-26T10:31:44Z</time>
      </trkpt>
      <trkpt lat="44.23627" lon="0.70085">
        <ele>152.8</ele>
        <time>2022-05-26T10:31:48Z</time>
      </trkpt>
      <trkpt lat="44.23618" lon="0.70075">
        <ele>153.4</ele>
        <time>2022-05-26T10:31:52Z</time>
      </trkpt>
      <trkpt lat="44.23609" lon="0.70064">
        <ele>154</ele>
        <time>2022-05-26T10:31:56Z</time>
      </trkpt>
      <trkpt lat="44.23601" lon="0.70055">
        <ele>154.6</ele>
        <time>2022-05-26T10:32:00Z</time>
      </trkpt>
      <trkpt lat="44.23594" lon="0.70047">
        <ele>156.2</ele>
        <time>2022-05-26T10:32:04Z</time>
      </trkpt>
      <trkpt lat="44.23585" lon="0.7004">
        <ele>155.6</ele>
        <time>2022-05-26T10:32:08Z</time>
      </trkpt>
      <trkpt lat="44.23575" lon="0.70031">
        <ele>155.8</ele>
        <time>2022-05-26T10:32:12Z</time>
      </trkpt>
      <trkpt lat="44.23565" lon="0.70021">
        <ele>156.8</ele>
        <time>2022-05-26T10:32:16Z</time>
      </trkpt>
      <trkpt lat="44.23558" lon="0.70012">
        <ele>156.8</ele>
        <time>2022-05-26T10:32:20Z</time>
      </trkpt>
      <trkpt lat="44.23552" lon="0.7">
        <ele>156.2</ele>
        <time>2022-05-26T10:32:24Z</time>
      </trkpt>
      <trkpt lat="44.2355" lon="0.69969">
        <ele>154</ele>
        <time>2022-05-26T10:33:20Z</time>
      </trkpt>
      <trkpt lat="44.23551" lon="0.69937">
        <ele>152</ele>
        <time>2022-05-26T10:33:24Z</time>
      </trkpt>
      <trkpt lat="44.23552" lon="0.69905">
        <ele>149.4</ele>
        <time>2022-05-26T10:33:28Z</time>
      </trkpt>
      <trkpt lat="44.23554" lon="0.69869">
        <ele>146.2</ele>
        <time>2022-05-26T10:33:32Z</time>
      </trkpt>
      <trkpt lat="44.23552" lon="0.69831">
        <ele>144.8</ele>
        <time>2022-05-26T10:33:36Z</time>
      </trkpt>
      <trkpt lat="44.23544" lon="0.69792">
        <ele>141.2</ele>
        <time>2022-05-26T10:33:40Z</time>
      </trkpt>
      <trkpt lat="44.23532" lon="0.69753">
        <ele>137.4</ele>
        <time>2022-05-26T10:33:44Z</time>
      </trkpt>
      <trkpt lat="44.23515" lon="0.69709">
        <ele>133</ele>
        <time>2022-05-26T10:33:48Z</time>
      </trkpt>
      <trkpt lat="44.23499" lon="0.69666">
        <ele>132.6</ele>
        <time>2022-05-26T10:33:52Z</time>
      </trkpt>
      <trkpt lat="44.23491" lon="0.69644">
        <ele>134</ele>
        <time>2022-05-26T10:33:56Z</time>
      </trkpt>
      <trkpt lat="44.23475" lon="0.69642">
        <ele>134.4</ele>
        <time>2022-05-26T10:34:00Z</time>
      </trkpt>
      <trkpt lat="44.23465" lon="0.69625">
        <ele>134</ele>
        <time>2022-05-26T10:34:04Z</time>
      </trkpt>
      <trkpt lat="44.23463" lon="0.696">
        <ele>133.4</ele>
        <time>2022-05-26T10:34:08Z</time>
      </trkpt>
      <trkpt lat="44.23463" lon="0.69575">
        <ele>133.8</ele>
        <time>2022-05-26T10:34:12Z</time>
      </trkpt>
      <trkpt lat="44.23464" lon="0.6955">
        <ele>133.8</ele>
        <time>2022-05-26T10:34:16Z</time>
      </trkpt>
      <trkpt lat="44.2347" lon="0.69536">
        <ele>134.4</ele>
        <time>2022-05-26T10:34:20Z</time>
      </trkpt>
      <trkpt lat="44.2346" lon="0.69519">
        <ele>133.2</ele>
        <time>2022-05-26T10:34:30Z</time>
      </trkpt>
      <trkpt lat="44.23449" lon="0.69498">
        <ele>133.6</ele>
        <time>2022-05-26T10:34:34Z</time>
      </trkpt>
      <trkpt lat="44.23439" lon="0.69481">
        <ele>134</ele>
        <time>2022-05-26T10:34:38Z</time>
      </trkpt>
      <trkpt lat="44.23427" lon="0.6946">
        <ele>134.6</ele>
        <time>2022-05-26T10:34:42Z</time>
      </trkpt>
      <trkpt lat="44.23415" lon="0.69439">
        <ele>134.8</ele>
        <time>2022-05-26T10:34:46Z</time>
      </trkpt>
      <trkpt lat="44.23405" lon="0.69417">
        <ele>135.2</ele>
        <time>2022-05-26T10:34:50Z</time>
      </trkpt>
      <trkpt lat="44.23396" lon="0.69395">
        <ele>135</ele>
        <time>2022-05-26T10:34:54Z</time>
      </trkpt>
      <trkpt lat="44.2339" lon="0.69371">
        <ele>135.4</ele>
        <time>2022-05-26T10:34:58Z</time>
      </trkpt>
      <trkpt lat="44.23386" lon="0.69347">
        <ele>135.2</ele>
        <time>2022-05-26T10:35:02Z</time>
      </trkpt>
      <trkpt lat="44.23384" lon="0.69324">
        <ele>134.2</ele>
        <time>2022-05-26T10:35:06Z</time>
      </trkpt>
      <trkpt lat="44.23383" lon="0.69301">
        <ele>133.8</ele>
        <time>2022-05-26T10:35:10Z</time>
      </trkpt>
      <trkpt lat="44.2338" lon="0.69282">
        <ele>134</ele>
        <time>2022-05-26T10:35:14Z</time>
      </trkpt>
      <trkpt lat="44.2338" lon="0.69257">
        <ele>132.6</ele>
        <time>2022-05-26T10:35:18Z</time>
      </trkpt>
      <trkpt lat="44.23378" lon="0.69228">
        <ele>133</ele>
        <time>2022-05-26T10:35:22Z</time>
      </trkpt>
      <trkpt lat="44.2338" lon="0.6919">
        <ele>133</ele>
        <time>2022-05-26T10:35:26Z</time>
      </trkpt>
      <trkpt lat="44.23384" lon="0.69158">
        <ele>132</ele>
        <time>2022-05-26T10:35:30Z</time>
      </trkpt>
      <trkpt lat="44.23388" lon="0.6913">
        <ele>131.4</ele>
        <time>2022-05-26T10:35:34Z</time>
      </trkpt>
      <trkpt lat="44.23386" lon="0.69099">
        <ele>131.8</ele>
        <time>2022-05-26T10:35:38Z</time>
      </trkpt>
      <trkpt lat="44.23382" lon="0.69071">
        <ele>131.8</ele>
        <time>2022-05-26T10:35:42Z</time>
      </trkpt>
      <trkpt lat="44.23377" lon="0.69043">
        <ele>131.8</ele>
        <time>2022-05-26T10:35:46Z</time>
      </trkpt>
      <trkpt lat="44.23373" lon="0.69016">
        <ele>131.2</ele>
        <time>2022-05-26T10:35:50Z</time>
      </trkpt>
      <trkpt lat="44.23368" lon="0.68989">
        <ele>132.8</ele>
        <time>2022-05-26T10:35:54Z</time>
      </trkpt>
      <trkpt lat="44.23363" lon="0.68963">
        <ele>133.4</ele>
        <time>2022-05-26T10:35:58Z</time>
      </trkpt>
      <trkpt lat="44.23358" lon="0.68936">
        <ele>133.2</ele>
        <time>2022-05-26T10:36:02Z</time>
      </trkpt>
      <trkpt lat="44.23354" lon="0.68911">
        <ele>133.2</ele>
        <time>2022-05-26T10:36:06Z</time>
      </trkpt>
      <trkpt lat="44.23349" lon="0.68885">
        <ele>133.2</ele>
        <time>2022-05-26T10:36:10Z</time>
      </trkpt>
      <trkpt lat="44.23343" lon="0.68861">
        <ele>130.8</ele>
        <time>2022-05-26T10:36:14Z</time>
      </trkpt>
      <trkpt lat="44.23336" lon="0.6884">
        <ele>132</ele>
        <time>2022-05-26T10:36:18Z</time>
      </trkpt>
      <trkpt lat="44.2333" lon="0.68816">
        <ele>131.4</ele>
        <time>2022-05-26T10:36:22Z</time>
      </trkpt>
      <trkpt lat="44.23328" lon="0.6879">
        <ele>131.4</ele>
        <time>2022-05-26T10:36:26Z</time>
      </trkpt>
      <trkpt lat="44.23325" lon="0.68762">
        <ele>131</ele>
        <time>2022-05-26T10:36:30Z</time>
      </trkpt>
      <trkpt lat="44.23322" lon="0.68737">
        <ele>130.2</ele>
        <time>2022-05-26T10:36:34Z</time>
      </trkpt>
      <trkpt lat="44.2332" lon="0.68711">
        <ele>130.4</ele>
        <time>2022-05-26T10:36:38Z</time>
      </trkpt>
      <trkpt lat="44.23319" lon="0.68688">
        <ele>130.4</ele>
        <time>2022-05-26T10:36:42Z</time>
      </trkpt>
      <trkpt lat="44.23317" lon="0.68663">
        <ele>129.6</ele>
        <time>2022-05-26T10:36:46Z</time>
      </trkpt>
      <trkpt lat="44.23317" lon="0.68637">
        <ele>130</ele>
        <time>2022-05-26T10:36:50Z</time>
      </trkpt>
      <trkpt lat="44.23317" lon="0.68612">
        <ele>129</ele>
        <time>2022-05-26T10:36:54Z</time>
      </trkpt>
      <trkpt lat="44.23316" lon="0.68587">
        <ele>128</ele>
        <time>2022-05-26T10:36:58Z</time>
      </trkpt>
      <trkpt lat="44.23313" lon="0.68559">
        <ele>128</ele>
        <time>2022-05-26T10:37:02Z</time>
      </trkpt>
      <trkpt lat="44.23306" lon="0.68533">
        <ele>128</ele>
        <time>2022-05-26T10:37:06Z</time>
      </trkpt>
      <trkpt lat="44.23298" lon="0.68511">
        <ele>128</ele>
        <time>2022-05-26T10:37:10Z</time>
      </trkpt>
      <trkpt lat="44.23293" lon="0.68488">
        <ele>128</ele>
        <time>2022-05-26T10:37:14Z</time>
      </trkpt>
      <trkpt lat="44.23287" lon="0.68465">
        <ele>127.2</ele>
        <time>2022-05-26T10:37:18Z</time>
      </trkpt>
      <trkpt lat="44.23279" lon="0.68443">
        <ele>126.8</ele>
        <time>2022-05-26T10:37:22Z</time>
      </trkpt>
      <trkpt lat="44.23275" lon="0.68418">
        <ele>127</ele>
        <time>2022-05-26T10:37:26Z</time>
      </trkpt>
      <trkpt lat="44.2327" lon="0.68393">
        <ele>127.2</ele>
        <time>2022-05-26T10:37:30Z</time>
      </trkpt>
      <trkpt lat="44.23258" lon="0.68378">
        <ele>128</ele>
        <time>2022-05-26T10:37:34Z</time>
      </trkpt>
      <trkpt lat="44.23243" lon="0.68369">
        <ele>128.8</ele>
        <time>2022-05-26T10:37:38Z</time>
      </trkpt>
      <trkpt lat="44.23234" lon="0.68348">
        <ele>129.6</ele>
        <time>2022-05-26T10:37:42Z</time>
      </trkpt>
      <trkpt lat="44.23227" lon="0.68325">
        <ele>128.8</ele>
        <time>2022-05-26T10:37:46Z</time>
      </trkpt>
      <trkpt lat="44.2322" lon="0.68299">
        <ele>128.6</ele>
        <time>2022-05-26T10:37:50Z</time>
      </trkpt>
      <trkpt lat="44.23213" lon="0.68271">
        <ele>127.6</ele>
        <time>2022-05-26T10:37:54Z</time>
      </trkpt>
      <trkpt lat="44.23212" lon="0.68246">
        <ele>128.4</ele>
        <time>2022-05-26T10:37:58Z</time>
      </trkpt>
      <trkpt lat="44.23219" lon="0.68233">
        <ele>129.4</ele>
        <time>2022-05-26T10:38:02Z</time>
      </trkpt>
      <trkpt lat="44.2323" lon="0.68228">
        <ele>129.4</ele>
        <time>2022-05-26T10:38:06Z</time>
      </trkpt>
      <trkpt lat="44.23238" lon="0.68211">
        <ele>127.6</ele>
        <time>2022-05-26T10:38:10Z</time>
      </trkpt>
      <trkpt lat="44.2325" lon="0.68196">
        <ele>128</ele>
        <time>2022-05-26T10:38:14Z</time>
      </trkpt>
      <trkpt lat="44.23265" lon="0.68211">
        <ele>128</ele>
        <time>2022-05-26T10:38:18Z</time>
      </trkpt>
      <trkpt lat="44.23275" lon="0.68234">
        <ele>128</ele>
        <time>2022-05-26T10:38:22Z</time>
      </trkpt>
      <trkpt lat="44.2328" lon="0.68256">
        <ele>128</ele>
        <time>2022-05-26T10:38:26Z</time>
      </trkpt>
      <trkpt lat="44.23284" lon="0.68276">
        <ele>128</ele>
        <time>2022-05-26T10:38:30Z</time>
      </trkpt>
      <trkpt lat="44.23288" lon="0.68282">
        <ele>128.4</ele>
        <time>2022-05-26T10:38:34Z</time>
      </trkpt>
    </trkseg>
  </trk>
</gpx>